<?xml version="1.0" encoding="UTF-8" standalone="no" ?>
<gpx xmlns="http://www.topografix.com/GPX/1/1" xmlns:xsi="http://www.w3.org/2001/XMLSchema-instance" xsi:schemaLocation="http://www.topografix.com/GPX/1/1 http://www.topografix.com/GPX/1/1/gpx.xsd" version="1.1" creator="VisuGPX - https://www.visugpx.com">
  <metadata>
    <name>Joel , entrainement Talloire</name>
    <desc><![CDATA[séance tôt le matin , ras pas de problème ]]></desc>
  </metadata>
  <trk>
    <name><![CDATA[Joel , entrainement Talloire_1]]></name>
    <trkseg>
      <trkpt lat="45.85493" lon="6.21344">
        <ele>654</ele>
        <time>2013-05-30T03:47:18.000Z</time>
      </trkpt>
      <trkpt lat="45.85493" lon="6.21345">
        <ele>654</ele>
        <time>2013-05-30T03:47:19.000Z</time>
      </trkpt>
      <trkpt lat="45.85493" lon="6.21345">
        <ele>654</ele>
        <time>2013-05-30T03:47:20.000Z</time>
      </trkpt>
      <trkpt lat="45.85493" lon="6.21345">
        <ele>654</ele>
        <time>2013-05-30T03:47:21.000Z</time>
      </trkpt>
      <trkpt lat="45.85494" lon="6.21346">
        <ele>654</ele>
        <time>2013-05-30T03:47:22.000Z</time>
      </trkpt>
      <trkpt lat="45.85494" lon="6.21346">
        <ele>654</ele>
        <time>2013-05-30T03:47:23.000Z</time>
      </trkpt>
      <trkpt lat="45.85495" lon="6.21346">
        <ele>654</ele>
        <time>2013-05-30T03:47:24.000Z</time>
      </trkpt>
      <trkpt lat="45.85498" lon="6.21346">
        <ele>654</ele>
        <time>2013-05-30T03:47:25.000Z</time>
      </trkpt>
      <trkpt lat="45.855" lon="6.21347">
        <ele>654</ele>
        <time>2013-05-30T03:47:26.000Z</time>
      </trkpt>
      <trkpt lat="45.85502" lon="6.21347">
        <ele>659</ele>
        <time>2013-05-30T03:47:27.000Z</time>
      </trkpt>
      <trkpt lat="45.85504" lon="6.21346">
        <ele>659</ele>
        <time>2013-05-30T03:47:28.000Z</time>
      </trkpt>
      <trkpt lat="45.85507" lon="6.21345">
        <ele>659</ele>
        <time>2013-05-30T03:47:29.000Z</time>
      </trkpt>
      <trkpt lat="45.85509" lon="6.21345">
        <ele>659</ele>
        <time>2013-05-30T03:47:30.000Z</time>
      </trkpt>
      <trkpt lat="45.85511" lon="6.21345">
        <ele>659</ele>
        <time>2013-05-30T03:47:31.000Z</time>
      </trkpt>
      <trkpt lat="45.85514" lon="6.21345">
        <ele>660</ele>
        <time>2013-05-30T03:47:32.000Z</time>
      </trkpt>
      <trkpt lat="45.85516" lon="6.21344">
        <ele>660</ele>
        <time>2013-05-30T03:47:33.000Z</time>
      </trkpt>
      <trkpt lat="45.85519" lon="6.21344">
        <ele>661</ele>
        <time>2013-05-30T03:47:34.000Z</time>
      </trkpt>
      <trkpt lat="45.85523" lon="6.2134">
        <ele>661</ele>
        <time>2013-05-30T03:47:35.000Z</time>
      </trkpt>
      <trkpt lat="45.85525" lon="6.21339">
        <ele>661</ele>
        <time>2013-05-30T03:47:36.000Z</time>
      </trkpt>
      <trkpt lat="45.85528" lon="6.21339">
        <ele>662</ele>
        <time>2013-05-30T03:47:37.000Z</time>
      </trkpt>
      <trkpt lat="45.85531" lon="6.21338">
        <ele>662</ele>
        <time>2013-05-30T03:47:38.000Z</time>
      </trkpt>
      <trkpt lat="45.85533" lon="6.21337">
        <ele>662</ele>
        <time>2013-05-30T03:47:39.000Z</time>
      </trkpt>
      <trkpt lat="45.85536" lon="6.21336">
        <ele>662</ele>
        <time>2013-05-30T03:47:40.000Z</time>
      </trkpt>
      <trkpt lat="45.85539" lon="6.21335">
        <ele>663</ele>
        <time>2013-05-30T03:47:41.000Z</time>
      </trkpt>
      <trkpt lat="45.85542" lon="6.21334">
        <ele>663</ele>
        <time>2013-05-30T03:47:42.000Z</time>
      </trkpt>
      <trkpt lat="45.85544" lon="6.21332">
        <ele>658</ele>
        <time>2013-05-30T03:47:43.000Z</time>
      </trkpt>
      <trkpt lat="45.85547" lon="6.2133">
        <ele>658</ele>
        <time>2013-05-30T03:47:44.000Z</time>
      </trkpt>
      <trkpt lat="45.85549" lon="6.21327">
        <ele>658</ele>
        <time>2013-05-30T03:47:45.000Z</time>
      </trkpt>
      <trkpt lat="45.85552" lon="6.21324">
        <ele>658</ele>
        <time>2013-05-30T03:47:46.000Z</time>
      </trkpt>
      <trkpt lat="45.85555" lon="6.21323">
        <ele>658</ele>
        <time>2013-05-30T03:47:47.000Z</time>
      </trkpt>
      <trkpt lat="45.85557" lon="6.21321">
        <ele>658</ele>
        <time>2013-05-30T03:47:48.000Z</time>
      </trkpt>
      <trkpt lat="45.85559" lon="6.21319">
        <ele>658</ele>
        <time>2013-05-30T03:47:49.000Z</time>
      </trkpt>
      <trkpt lat="45.85562" lon="6.21317">
        <ele>658</ele>
        <time>2013-05-30T03:47:50.000Z</time>
      </trkpt>
      <trkpt lat="45.85565" lon="6.21316">
        <ele>659</ele>
        <time>2013-05-30T03:47:51.000Z</time>
      </trkpt>
      <trkpt lat="45.85567" lon="6.21313">
        <ele>659</ele>
        <time>2013-05-30T03:47:52.000Z</time>
      </trkpt>
      <trkpt lat="45.8557" lon="6.21312">
        <ele>659</ele>
        <time>2013-05-30T03:47:53.000Z</time>
      </trkpt>
      <trkpt lat="45.85573" lon="6.2131">
        <ele>659</ele>
        <time>2013-05-30T03:47:54.000Z</time>
      </trkpt>
      <trkpt lat="45.85575" lon="6.21308">
        <ele>658</ele>
        <time>2013-05-30T03:47:55.000Z</time>
      </trkpt>
      <trkpt lat="45.85578" lon="6.21305">
        <ele>658</ele>
        <time>2013-05-30T03:47:56.000Z</time>
      </trkpt>
      <trkpt lat="45.8558" lon="6.21303">
        <ele>658</ele>
        <time>2013-05-30T03:47:57.000Z</time>
      </trkpt>
      <trkpt lat="45.85582" lon="6.213">
        <ele>658</ele>
        <time>2013-05-30T03:47:58.000Z</time>
      </trkpt>
      <trkpt lat="45.85585" lon="6.21299">
        <ele>661</ele>
        <time>2013-05-30T03:47:59.000Z</time>
      </trkpt>
      <trkpt lat="45.85588" lon="6.21298">
        <ele>661</ele>
        <time>2013-05-30T03:48:00.000Z</time>
      </trkpt>
      <trkpt lat="45.8559" lon="6.21296">
        <ele>661</ele>
        <time>2013-05-30T03:48:01.000Z</time>
      </trkpt>
      <trkpt lat="45.85593" lon="6.21295">
        <ele>661</ele>
        <time>2013-05-30T03:48:02.000Z</time>
      </trkpt>
      <trkpt lat="45.85595" lon="6.21293">
        <ele>661</ele>
        <time>2013-05-30T03:48:03.000Z</time>
      </trkpt>
      <trkpt lat="45.85598" lon="6.21292">
        <ele>661</ele>
        <time>2013-05-30T03:48:04.000Z</time>
      </trkpt>
      <trkpt lat="45.85601" lon="6.2129">
        <ele>660</ele>
        <time>2013-05-30T03:48:05.000Z</time>
      </trkpt>
      <trkpt lat="45.85604" lon="6.21289">
        <ele>660</ele>
        <time>2013-05-30T03:48:06.000Z</time>
      </trkpt>
      <trkpt lat="45.85606" lon="6.21289">
        <ele>660</ele>
        <time>2013-05-30T03:48:07.000Z</time>
      </trkpt>
      <trkpt lat="45.85609" lon="6.21287">
        <ele>660</ele>
        <time>2013-05-30T03:48:08.000Z</time>
      </trkpt>
      <trkpt lat="45.85611" lon="6.21287">
        <ele>660</ele>
        <time>2013-05-30T03:48:09.000Z</time>
      </trkpt>
      <trkpt lat="45.85615" lon="6.21286">
        <ele>661</ele>
        <time>2013-05-30T03:48:10.000Z</time>
      </trkpt>
      <trkpt lat="45.85618" lon="6.21285">
        <ele>661</ele>
        <time>2013-05-30T03:48:11.000Z</time>
      </trkpt>
      <trkpt lat="45.8562" lon="6.21284">
        <ele>661</ele>
        <time>2013-05-30T03:48:12.000Z</time>
      </trkpt>
      <trkpt lat="45.85623" lon="6.21284">
        <ele>661</ele>
        <time>2013-05-30T03:48:13.000Z</time>
      </trkpt>
      <trkpt lat="45.85626" lon="6.21283">
        <ele>661</ele>
        <time>2013-05-30T03:48:14.000Z</time>
      </trkpt>
      <trkpt lat="45.85628" lon="6.21283">
        <ele>661</ele>
        <time>2013-05-30T03:48:15.000Z</time>
      </trkpt>
      <trkpt lat="45.85631" lon="6.21283">
        <ele>661</ele>
        <time>2013-05-30T03:48:16.000Z</time>
      </trkpt>
      <trkpt lat="45.85633" lon="6.21282">
        <ele>661</ele>
        <time>2013-05-30T03:48:17.000Z</time>
      </trkpt>
      <trkpt lat="45.85636" lon="6.21282">
        <ele>661</ele>
        <time>2013-05-30T03:48:18.000Z</time>
      </trkpt>
      <trkpt lat="45.85639" lon="6.21282">
        <ele>661</ele>
        <time>2013-05-30T03:48:19.000Z</time>
      </trkpt>
      <trkpt lat="45.85641" lon="6.21281">
        <ele>661</ele>
        <time>2013-05-30T03:48:20.000Z</time>
      </trkpt>
      <trkpt lat="45.85644" lon="6.21281">
        <ele>661</ele>
        <time>2013-05-30T03:48:21.000Z</time>
      </trkpt>
      <trkpt lat="45.85647" lon="6.21281">
        <ele>661</ele>
        <time>2013-05-30T03:48:22.000Z</time>
      </trkpt>
      <trkpt lat="45.85649" lon="6.21281">
        <ele>661</ele>
        <time>2013-05-30T03:48:23.000Z</time>
      </trkpt>
      <trkpt lat="45.85651" lon="6.21281">
        <ele>661</ele>
        <time>2013-05-30T03:48:24.000Z</time>
      </trkpt>
      <trkpt lat="45.85654" lon="6.21282">
        <ele>661</ele>
        <time>2013-05-30T03:48:25.000Z</time>
      </trkpt>
      <trkpt lat="45.85657" lon="6.21283">
        <ele>661</ele>
        <time>2013-05-30T03:48:26.000Z</time>
      </trkpt>
      <trkpt lat="45.85659" lon="6.21282">
        <ele>661</ele>
        <time>2013-05-30T03:48:27.000Z</time>
      </trkpt>
      <trkpt lat="45.85661" lon="6.21282">
        <ele>661</ele>
        <time>2013-05-30T03:48:28.000Z</time>
      </trkpt>
      <trkpt lat="45.85663" lon="6.21282">
        <ele>661</ele>
        <time>2013-05-30T03:48:29.000Z</time>
      </trkpt>
      <trkpt lat="45.85666" lon="6.21282">
        <ele>661</ele>
        <time>2013-05-30T03:48:30.000Z</time>
      </trkpt>
      <trkpt lat="45.85668" lon="6.21281">
        <ele>665</ele>
        <time>2013-05-30T03:48:31.000Z</time>
      </trkpt>
      <trkpt lat="45.8567" lon="6.21281">
        <ele>665</ele>
        <time>2013-05-30T03:48:32.000Z</time>
      </trkpt>
      <trkpt lat="45.85673" lon="6.21281">
        <ele>665</ele>
        <time>2013-05-30T03:48:33.000Z</time>
      </trkpt>
      <trkpt lat="45.85675" lon="6.2128">
        <ele>665</ele>
        <time>2013-05-30T03:48:34.000Z</time>
      </trkpt>
      <trkpt lat="45.85678" lon="6.2128">
        <ele>665</ele>
        <time>2013-05-30T03:48:35.000Z</time>
      </trkpt>
      <trkpt lat="45.8568" lon="6.2128">
        <ele>665</ele>
        <time>2013-05-30T03:48:36.000Z</time>
      </trkpt>
      <trkpt lat="45.85683" lon="6.21279">
        <ele>665</ele>
        <time>2013-05-30T03:48:37.000Z</time>
      </trkpt>
      <trkpt lat="45.85685" lon="6.21279">
        <ele>665</ele>
        <time>2013-05-30T03:48:38.000Z</time>
      </trkpt>
      <trkpt lat="45.85688" lon="6.21278">
        <ele>665</ele>
        <time>2013-05-30T03:48:39.000Z</time>
      </trkpt>
      <trkpt lat="45.85691" lon="6.21278">
        <ele>665</ele>
        <time>2013-05-30T03:48:40.000Z</time>
      </trkpt>
      <trkpt lat="45.85693" lon="6.21277">
        <ele>665</ele>
        <time>2013-05-30T03:48:41.000Z</time>
      </trkpt>
      <trkpt lat="45.85695" lon="6.21277">
        <ele>665</ele>
        <time>2013-05-30T03:48:42.000Z</time>
      </trkpt>
      <trkpt lat="45.85697" lon="6.21277">
        <ele>665</ele>
        <time>2013-05-30T03:48:43.000Z</time>
      </trkpt>
      <trkpt lat="45.857" lon="6.21277">
        <ele>665</ele>
        <time>2013-05-30T03:48:44.000Z</time>
      </trkpt>
      <trkpt lat="45.85702" lon="6.21277">
        <ele>666</ele>
        <time>2013-05-30T03:48:45.000Z</time>
      </trkpt>
      <trkpt lat="45.85705" lon="6.21276">
        <ele>666</ele>
        <time>2013-05-30T03:48:46.000Z</time>
      </trkpt>
      <trkpt lat="45.85707" lon="6.21277">
        <ele>666</ele>
        <time>2013-05-30T03:48:47.000Z</time>
      </trkpt>
      <trkpt lat="45.85709" lon="6.21277">
        <ele>666</ele>
        <time>2013-05-30T03:48:48.000Z</time>
      </trkpt>
      <trkpt lat="45.85712" lon="6.21277">
        <ele>666</ele>
        <time>2013-05-30T03:48:49.000Z</time>
      </trkpt>
      <trkpt lat="45.85714" lon="6.21277">
        <ele>666</ele>
        <time>2013-05-30T03:48:50.000Z</time>
      </trkpt>
      <trkpt lat="45.85716" lon="6.21277">
        <ele>666</ele>
        <time>2013-05-30T03:48:51.000Z</time>
      </trkpt>
      <trkpt lat="45.85719" lon="6.21277">
        <ele>666</ele>
        <time>2013-05-30T03:48:52.000Z</time>
      </trkpt>
      <trkpt lat="45.85721" lon="6.21277">
        <ele>666</ele>
        <time>2013-05-30T03:48:53.000Z</time>
      </trkpt>
      <trkpt lat="45.85723" lon="6.21278">
        <ele>666</ele>
        <time>2013-05-30T03:48:54.000Z</time>
      </trkpt>
      <trkpt lat="45.85725" lon="6.21278">
        <ele>666</ele>
        <time>2013-05-30T03:48:55.000Z</time>
      </trkpt>
      <trkpt lat="45.85728" lon="6.21278">
        <ele>666</ele>
        <time>2013-05-30T03:48:56.000Z</time>
      </trkpt>
      <trkpt lat="45.8573" lon="6.21278">
        <ele>666</ele>
        <time>2013-05-30T03:48:57.000Z</time>
      </trkpt>
      <trkpt lat="45.85732" lon="6.21278">
        <ele>666</ele>
        <time>2013-05-30T03:48:58.000Z</time>
      </trkpt>
      <trkpt lat="45.85734" lon="6.21279">
        <ele>666</ele>
        <time>2013-05-30T03:48:59.000Z</time>
      </trkpt>
      <trkpt lat="45.85736" lon="6.21281">
        <ele>667</ele>
        <time>2013-05-30T03:49:00.000Z</time>
      </trkpt>
      <trkpt lat="45.85738" lon="6.21282">
        <ele>667</ele>
        <time>2013-05-30T03:49:01.000Z</time>
      </trkpt>
      <trkpt lat="45.85741" lon="6.21283">
        <ele>667</ele>
        <time>2013-05-30T03:49:02.000Z</time>
      </trkpt>
      <trkpt lat="45.85743" lon="6.21284">
        <ele>667</ele>
        <time>2013-05-30T03:49:03.000Z</time>
      </trkpt>
      <trkpt lat="45.85745" lon="6.21284">
        <ele>667</ele>
        <time>2013-05-30T03:49:04.000Z</time>
      </trkpt>
      <trkpt lat="45.85746" lon="6.21285">
        <ele>667</ele>
        <time>2013-05-30T03:49:05.000Z</time>
      </trkpt>
      <trkpt lat="45.85748" lon="6.21285">
        <ele>667</ele>
        <time>2013-05-30T03:49:06.000Z</time>
      </trkpt>
      <trkpt lat="45.8575" lon="6.21286">
        <ele>667</ele>
        <time>2013-05-30T03:49:07.000Z</time>
      </trkpt>
      <trkpt lat="45.85752" lon="6.21287">
        <ele>671</ele>
        <time>2013-05-30T03:49:08.000Z</time>
      </trkpt>
      <trkpt lat="45.85754" lon="6.21288">
        <ele>671</ele>
        <time>2013-05-30T03:49:09.000Z</time>
      </trkpt>
      <trkpt lat="45.85756" lon="6.21289">
        <ele>671</ele>
        <time>2013-05-30T03:49:10.000Z</time>
      </trkpt>
      <trkpt lat="45.85758" lon="6.2129">
        <ele>672</ele>
        <time>2013-05-30T03:49:11.000Z</time>
      </trkpt>
      <trkpt lat="45.8576" lon="6.21291">
        <ele>672</ele>
        <time>2013-05-30T03:49:12.000Z</time>
      </trkpt>
      <trkpt lat="45.85762" lon="6.21292">
        <ele>672</ele>
        <time>2013-05-30T03:49:13.000Z</time>
      </trkpt>
      <trkpt lat="45.85764" lon="6.21293">
        <ele>672</ele>
        <time>2013-05-30T03:49:14.000Z</time>
      </trkpt>
      <trkpt lat="45.85766" lon="6.21294">
        <ele>672</ele>
        <time>2013-05-30T03:49:15.000Z</time>
      </trkpt>
      <trkpt lat="45.85768" lon="6.21295">
        <ele>672</ele>
        <time>2013-05-30T03:49:16.000Z</time>
      </trkpt>
      <trkpt lat="45.85769" lon="6.21296">
        <ele>673</ele>
        <time>2013-05-30T03:49:17.000Z</time>
      </trkpt>
      <trkpt lat="45.8577" lon="6.21297">
        <ele>673</ele>
        <time>2013-05-30T03:49:18.000Z</time>
      </trkpt>
      <trkpt lat="45.85772" lon="6.21298">
        <ele>673</ele>
        <time>2013-05-30T03:49:19.000Z</time>
      </trkpt>
      <trkpt lat="45.85775" lon="6.21299">
        <ele>673</ele>
        <time>2013-05-30T03:49:20.000Z</time>
      </trkpt>
      <trkpt lat="45.85777" lon="6.21301">
        <ele>673</ele>
        <time>2013-05-30T03:49:21.000Z</time>
      </trkpt>
      <trkpt lat="45.85778" lon="6.21302">
        <ele>673</ele>
        <time>2013-05-30T03:49:22.000Z</time>
      </trkpt>
      <trkpt lat="45.8578" lon="6.21303">
        <ele>673</ele>
        <time>2013-05-30T03:49:23.000Z</time>
      </trkpt>
      <trkpt lat="45.85782" lon="6.21305">
        <ele>673</ele>
        <time>2013-05-30T03:49:24.000Z</time>
      </trkpt>
      <trkpt lat="45.85784" lon="6.21306">
        <ele>674</ele>
        <time>2013-05-30T03:49:25.000Z</time>
      </trkpt>
      <trkpt lat="45.85786" lon="6.21306">
        <ele>674</ele>
        <time>2013-05-30T03:49:26.000Z</time>
      </trkpt>
      <trkpt lat="45.85788" lon="6.21307">
        <ele>674</ele>
        <time>2013-05-30T03:49:27.000Z</time>
      </trkpt>
      <trkpt lat="45.8579" lon="6.21309">
        <ele>674</ele>
        <time>2013-05-30T03:49:28.000Z</time>
      </trkpt>
      <trkpt lat="45.85792" lon="6.2131">
        <ele>674</ele>
        <time>2013-05-30T03:49:29.000Z</time>
      </trkpt>
      <trkpt lat="45.85794" lon="6.21311">
        <ele>674</ele>
        <time>2013-05-30T03:49:30.000Z</time>
      </trkpt>
      <trkpt lat="45.85796" lon="6.21312">
        <ele>674</ele>
        <time>2013-05-30T03:49:31.000Z</time>
      </trkpt>
      <trkpt lat="45.85798" lon="6.21313">
        <ele>674</ele>
        <time>2013-05-30T03:49:32.000Z</time>
      </trkpt>
      <trkpt lat="45.85799" lon="6.21314">
        <ele>674</ele>
        <time>2013-05-30T03:49:33.000Z</time>
      </trkpt>
      <trkpt lat="45.85801" lon="6.21315">
        <ele>674</ele>
        <time>2013-05-30T03:49:34.000Z</time>
      </trkpt>
      <trkpt lat="45.85803" lon="6.21316">
        <ele>675</ele>
        <time>2013-05-30T03:49:35.000Z</time>
      </trkpt>
      <trkpt lat="45.85805" lon="6.21317">
        <ele>675</ele>
        <time>2013-05-30T03:49:36.000Z</time>
      </trkpt>
      <trkpt lat="45.85807" lon="6.21318">
        <ele>675</ele>
        <time>2013-05-30T03:49:37.000Z</time>
      </trkpt>
      <trkpt lat="45.85808" lon="6.21319">
        <ele>675</ele>
        <time>2013-05-30T03:49:38.000Z</time>
      </trkpt>
      <trkpt lat="45.8581" lon="6.2132">
        <ele>675</ele>
        <time>2013-05-30T03:49:39.000Z</time>
      </trkpt>
      <trkpt lat="45.85812" lon="6.21322">
        <ele>675</ele>
        <time>2013-05-30T03:49:40.000Z</time>
      </trkpt>
      <trkpt lat="45.85814" lon="6.21323">
        <ele>675</ele>
        <time>2013-05-30T03:49:41.000Z</time>
      </trkpt>
      <trkpt lat="45.85815" lon="6.21324">
        <ele>675</ele>
        <time>2013-05-30T03:49:42.000Z</time>
      </trkpt>
      <trkpt lat="45.85817" lon="6.21325">
        <ele>676</ele>
        <time>2013-05-30T03:49:43.000Z</time>
      </trkpt>
      <trkpt lat="45.85819" lon="6.21326">
        <ele>676</ele>
        <time>2013-05-30T03:49:44.000Z</time>
      </trkpt>
      <trkpt lat="45.85821" lon="6.21327">
        <ele>676</ele>
        <time>2013-05-30T03:49:45.000Z</time>
      </trkpt>
      <trkpt lat="45.85822" lon="6.21329">
        <ele>676</ele>
        <time>2013-05-30T03:49:46.000Z</time>
      </trkpt>
      <trkpt lat="45.85824" lon="6.2133">
        <ele>676</ele>
        <time>2013-05-30T03:49:47.000Z</time>
      </trkpt>
      <trkpt lat="45.85825" lon="6.21331">
        <ele>677</ele>
        <time>2013-05-30T03:49:48.000Z</time>
      </trkpt>
      <trkpt lat="45.85826" lon="6.21332">
        <ele>677</ele>
        <time>2013-05-30T03:49:49.000Z</time>
      </trkpt>
      <trkpt lat="45.85828" lon="6.21333">
        <ele>677</ele>
        <time>2013-05-30T03:49:50.000Z</time>
      </trkpt>
      <trkpt lat="45.8583" lon="6.21335">
        <ele>679</ele>
        <time>2013-05-30T03:49:51.000Z</time>
      </trkpt>
      <trkpt lat="45.85831" lon="6.21337">
        <ele>679</ele>
        <time>2013-05-30T03:49:52.000Z</time>
      </trkpt>
      <trkpt lat="45.85833" lon="6.21338">
        <ele>679</ele>
        <time>2013-05-30T03:49:53.000Z</time>
      </trkpt>
      <trkpt lat="45.85835" lon="6.2134">
        <ele>680</ele>
        <time>2013-05-30T03:49:54.000Z</time>
      </trkpt>
      <trkpt lat="45.85837" lon="6.21341">
        <ele>680</ele>
        <time>2013-05-30T03:49:55.000Z</time>
      </trkpt>
      <trkpt lat="45.85838" lon="6.21343">
        <ele>680</ele>
        <time>2013-05-30T03:49:56.000Z</time>
      </trkpt>
      <trkpt lat="45.8584" lon="6.21344">
        <ele>681</ele>
        <time>2013-05-30T03:49:57.000Z</time>
      </trkpt>
      <trkpt lat="45.85842" lon="6.21346">
        <ele>681</ele>
        <time>2013-05-30T03:49:58.000Z</time>
      </trkpt>
      <trkpt lat="45.85843" lon="6.21347">
        <ele>681</ele>
        <time>2013-05-30T03:49:59.000Z</time>
      </trkpt>
      <trkpt lat="45.85845" lon="6.21349">
        <ele>682</ele>
        <time>2013-05-30T03:50:00.000Z</time>
      </trkpt>
      <trkpt lat="45.85847" lon="6.2135">
        <ele>682</ele>
        <time>2013-05-30T03:50:01.000Z</time>
      </trkpt>
      <trkpt lat="45.85848" lon="6.21352">
        <ele>682</ele>
        <time>2013-05-30T03:50:02.000Z</time>
      </trkpt>
      <trkpt lat="45.8585" lon="6.21353">
        <ele>682</ele>
        <time>2013-05-30T03:50:03.000Z</time>
      </trkpt>
      <trkpt lat="45.85852" lon="6.21355">
        <ele>683</ele>
        <time>2013-05-30T03:50:04.000Z</time>
      </trkpt>
      <trkpt lat="45.85853" lon="6.21357">
        <ele>683</ele>
        <time>2013-05-30T03:50:05.000Z</time>
      </trkpt>
      <trkpt lat="45.85855" lon="6.21358">
        <ele>683</ele>
        <time>2013-05-30T03:50:06.000Z</time>
      </trkpt>
      <trkpt lat="45.85857" lon="6.21359">
        <ele>683</ele>
        <time>2013-05-30T03:50:07.000Z</time>
      </trkpt>
      <trkpt lat="45.85859" lon="6.2136">
        <ele>683</ele>
        <time>2013-05-30T03:50:08.000Z</time>
      </trkpt>
      <trkpt lat="45.8586" lon="6.21361">
        <ele>683</ele>
        <time>2013-05-30T03:50:09.000Z</time>
      </trkpt>
      <trkpt lat="45.85862" lon="6.21362">
        <ele>684</ele>
        <time>2013-05-30T03:50:10.000Z</time>
      </trkpt>
      <trkpt lat="45.85864" lon="6.21363">
        <ele>684</ele>
        <time>2013-05-30T03:50:11.000Z</time>
      </trkpt>
      <trkpt lat="45.85865" lon="6.21364">
        <ele>684</ele>
        <time>2013-05-30T03:50:12.000Z</time>
      </trkpt>
      <trkpt lat="45.85867" lon="6.21365">
        <ele>684</ele>
        <time>2013-05-30T03:50:13.000Z</time>
      </trkpt>
      <trkpt lat="45.85869" lon="6.21366">
        <ele>684</ele>
        <time>2013-05-30T03:50:14.000Z</time>
      </trkpt>
      <trkpt lat="45.85871" lon="6.21367">
        <ele>684</ele>
        <time>2013-05-30T03:50:15.000Z</time>
      </trkpt>
      <trkpt lat="45.85873" lon="6.21368">
        <ele>684</ele>
        <time>2013-05-30T03:50:16.000Z</time>
      </trkpt>
      <trkpt lat="45.85875" lon="6.21368">
        <ele>684</ele>
        <time>2013-05-30T03:50:17.000Z</time>
      </trkpt>
      <trkpt lat="45.85877" lon="6.21369">
        <ele>684</ele>
        <time>2013-05-30T03:50:18.000Z</time>
      </trkpt>
      <trkpt lat="45.85879" lon="6.2137">
        <ele>684</ele>
        <time>2013-05-30T03:50:19.000Z</time>
      </trkpt>
      <trkpt lat="45.85881" lon="6.2137">
        <ele>685</ele>
        <time>2013-05-30T03:50:20.000Z</time>
      </trkpt>
      <trkpt lat="45.85883" lon="6.21371">
        <ele>685</ele>
        <time>2013-05-30T03:50:21.000Z</time>
      </trkpt>
      <trkpt lat="45.85885" lon="6.21371">
        <ele>685</ele>
        <time>2013-05-30T03:50:22.000Z</time>
      </trkpt>
      <trkpt lat="45.85887" lon="6.21372">
        <ele>685</ele>
        <time>2013-05-30T03:50:23.000Z</time>
      </trkpt>
      <trkpt lat="45.85889" lon="6.21371">
        <ele>685</ele>
        <time>2013-05-30T03:50:24.000Z</time>
      </trkpt>
      <trkpt lat="45.85891" lon="6.21371">
        <ele>685</ele>
        <time>2013-05-30T03:50:25.000Z</time>
      </trkpt>
      <trkpt lat="45.85893" lon="6.21371">
        <ele>685</ele>
        <time>2013-05-30T03:50:26.000Z</time>
      </trkpt>
      <trkpt lat="45.85895" lon="6.2137">
        <ele>685</ele>
        <time>2013-05-30T03:50:27.000Z</time>
      </trkpt>
      <trkpt lat="45.85897" lon="6.2137">
        <ele>685</ele>
        <time>2013-05-30T03:50:28.000Z</time>
      </trkpt>
      <trkpt lat="45.85899" lon="6.2137">
        <ele>685</ele>
        <time>2013-05-30T03:50:29.000Z</time>
      </trkpt>
      <trkpt lat="45.85901" lon="6.21369">
        <ele>685</ele>
        <time>2013-05-30T03:50:30.000Z</time>
      </trkpt>
      <trkpt lat="45.85903" lon="6.21369">
        <ele>685</ele>
        <time>2013-05-30T03:50:31.000Z</time>
      </trkpt>
      <trkpt lat="45.85905" lon="6.21368">
        <ele>685</ele>
        <time>2013-05-30T03:50:32.000Z</time>
      </trkpt>
      <trkpt lat="45.85907" lon="6.21368">
        <ele>685</ele>
        <time>2013-05-30T03:50:33.000Z</time>
      </trkpt>
      <trkpt lat="45.85909" lon="6.21367">
        <ele>685</ele>
        <time>2013-05-30T03:50:34.000Z</time>
      </trkpt>
      <trkpt lat="45.85911" lon="6.21367">
        <ele>685</ele>
        <time>2013-05-30T03:50:35.000Z</time>
      </trkpt>
      <trkpt lat="45.85914" lon="6.21367">
        <ele>685</ele>
        <time>2013-05-30T03:50:36.000Z</time>
      </trkpt>
      <trkpt lat="45.85916" lon="6.21366">
        <ele>685</ele>
        <time>2013-05-30T03:50:37.000Z</time>
      </trkpt>
      <trkpt lat="45.85918" lon="6.21365">
        <ele>687</ele>
        <time>2013-05-30T03:50:38.000Z</time>
      </trkpt>
      <trkpt lat="45.8592" lon="6.21365">
        <ele>687</ele>
        <time>2013-05-30T03:50:39.000Z</time>
      </trkpt>
      <trkpt lat="45.85922" lon="6.21364">
        <ele>687</ele>
        <time>2013-05-30T03:50:40.000Z</time>
      </trkpt>
      <trkpt lat="45.85925" lon="6.21363">
        <ele>687</ele>
        <time>2013-05-30T03:50:41.000Z</time>
      </trkpt>
      <trkpt lat="45.85927" lon="6.21363">
        <ele>687</ele>
        <time>2013-05-30T03:50:42.000Z</time>
      </trkpt>
      <trkpt lat="45.85929" lon="6.21362">
        <ele>687</ele>
        <time>2013-05-30T03:50:43.000Z</time>
      </trkpt>
      <trkpt lat="45.85932" lon="6.21362">
        <ele>687</ele>
        <time>2013-05-30T03:50:44.000Z</time>
      </trkpt>
      <trkpt lat="45.85934" lon="6.21361">
        <ele>687</ele>
        <time>2013-05-30T03:50:45.000Z</time>
      </trkpt>
      <trkpt lat="45.85936" lon="6.21361">
        <ele>687</ele>
        <time>2013-05-30T03:50:46.000Z</time>
      </trkpt>
      <trkpt lat="45.85939" lon="6.2136">
        <ele>687</ele>
        <time>2013-05-30T03:50:47.000Z</time>
      </trkpt>
      <trkpt lat="45.85941" lon="6.2136">
        <ele>687</ele>
        <time>2013-05-30T03:50:48.000Z</time>
      </trkpt>
      <trkpt lat="45.85944" lon="6.2136">
        <ele>687</ele>
        <time>2013-05-30T03:50:49.000Z</time>
      </trkpt>
      <trkpt lat="45.85946" lon="6.21359">
        <ele>687</ele>
        <time>2013-05-30T03:50:50.000Z</time>
      </trkpt>
      <trkpt lat="45.85948" lon="6.21359">
        <ele>687</ele>
        <time>2013-05-30T03:50:51.000Z</time>
      </trkpt>
      <trkpt lat="45.85951" lon="6.21359">
        <ele>687</ele>
        <time>2013-05-30T03:50:52.000Z</time>
      </trkpt>
      <trkpt lat="45.85953" lon="6.21359">
        <ele>687</ele>
        <time>2013-05-30T03:50:53.000Z</time>
      </trkpt>
      <trkpt lat="45.85956" lon="6.21359">
        <ele>687</ele>
        <time>2013-05-30T03:50:54.000Z</time>
      </trkpt>
      <trkpt lat="45.85958" lon="6.21359">
        <ele>687</ele>
        <time>2013-05-30T03:50:55.000Z</time>
      </trkpt>
      <trkpt lat="45.8596" lon="6.21359">
        <ele>687</ele>
        <time>2013-05-30T03:50:56.000Z</time>
      </trkpt>
      <trkpt lat="45.85963" lon="6.21359">
        <ele>687</ele>
        <time>2013-05-30T03:50:57.000Z</time>
      </trkpt>
      <trkpt lat="45.85965" lon="6.2136">
        <ele>687</ele>
        <time>2013-05-30T03:50:58.000Z</time>
      </trkpt>
      <trkpt lat="45.85967" lon="6.2136">
        <ele>687</ele>
        <time>2013-05-30T03:50:59.000Z</time>
      </trkpt>
      <trkpt lat="45.8597" lon="6.21361">
        <ele>687</ele>
        <time>2013-05-30T03:51:00.000Z</time>
      </trkpt>
      <trkpt lat="45.85972" lon="6.21362">
        <ele>687</ele>
        <time>2013-05-30T03:51:01.000Z</time>
      </trkpt>
      <trkpt lat="45.85974" lon="6.21362">
        <ele>687</ele>
        <time>2013-05-30T03:51:02.000Z</time>
      </trkpt>
      <trkpt lat="45.85977" lon="6.21363">
        <ele>687</ele>
        <time>2013-05-30T03:51:03.000Z</time>
      </trkpt>
      <trkpt lat="45.85979" lon="6.21363">
        <ele>687</ele>
        <time>2013-05-30T03:51:04.000Z</time>
      </trkpt>
      <trkpt lat="45.85981" lon="6.21363">
        <ele>687</ele>
        <time>2013-05-30T03:51:05.000Z</time>
      </trkpt>
      <trkpt lat="45.85984" lon="6.21363">
        <ele>687</ele>
        <time>2013-05-30T03:51:06.000Z</time>
      </trkpt>
      <trkpt lat="45.85986" lon="6.21364">
        <ele>687</ele>
        <time>2013-05-30T03:51:07.000Z</time>
      </trkpt>
      <trkpt lat="45.85988" lon="6.21364">
        <ele>687</ele>
        <time>2013-05-30T03:51:08.000Z</time>
      </trkpt>
      <trkpt lat="45.8599" lon="6.21364">
        <ele>688</ele>
        <time>2013-05-30T03:51:09.000Z</time>
      </trkpt>
      <trkpt lat="45.85993" lon="6.21364">
        <ele>688</ele>
        <time>2013-05-30T03:51:10.000Z</time>
      </trkpt>
      <trkpt lat="45.85995" lon="6.21365">
        <ele>688</ele>
        <time>2013-05-30T03:51:11.000Z</time>
      </trkpt>
      <trkpt lat="45.85998" lon="6.21366">
        <ele>688</ele>
        <time>2013-05-30T03:51:12.000Z</time>
      </trkpt>
      <trkpt lat="45.86" lon="6.21366">
        <ele>688</ele>
        <time>2013-05-30T03:51:13.000Z</time>
      </trkpt>
      <trkpt lat="45.86003" lon="6.21367">
        <ele>688</ele>
        <time>2013-05-30T03:51:14.000Z</time>
      </trkpt>
      <trkpt lat="45.86005" lon="6.21367">
        <ele>688</ele>
        <time>2013-05-30T03:51:15.000Z</time>
      </trkpt>
      <trkpt lat="45.86008" lon="6.21368">
        <ele>689</ele>
        <time>2013-05-30T03:51:16.000Z</time>
      </trkpt>
      <trkpt lat="45.86011" lon="6.21368">
        <ele>689</ele>
        <time>2013-05-30T03:51:17.000Z</time>
      </trkpt>
      <trkpt lat="45.86013" lon="6.21369">
        <ele>689</ele>
        <time>2013-05-30T03:51:18.000Z</time>
      </trkpt>
      <trkpt lat="45.86016" lon="6.21369">
        <ele>689</ele>
        <time>2013-05-30T03:51:19.000Z</time>
      </trkpt>
      <trkpt lat="45.86018" lon="6.2137">
        <ele>689</ele>
        <time>2013-05-30T03:51:20.000Z</time>
      </trkpt>
      <trkpt lat="45.8602" lon="6.2137">
        <ele>689</ele>
        <time>2013-05-30T03:51:21.000Z</time>
      </trkpt>
      <trkpt lat="45.86023" lon="6.21371">
        <ele>689</ele>
        <time>2013-05-30T03:51:22.000Z</time>
      </trkpt>
      <trkpt lat="45.86026" lon="6.21371">
        <ele>689</ele>
        <time>2013-05-30T03:51:23.000Z</time>
      </trkpt>
      <trkpt lat="45.86028" lon="6.21372">
        <ele>689</ele>
        <time>2013-05-30T03:51:24.000Z</time>
      </trkpt>
      <trkpt lat="45.86031" lon="6.21373">
        <ele>689</ele>
        <time>2013-05-30T03:51:25.000Z</time>
      </trkpt>
      <trkpt lat="45.86033" lon="6.21373">
        <ele>689</ele>
        <time>2013-05-30T03:51:26.000Z</time>
      </trkpt>
      <trkpt lat="45.86036" lon="6.21374">
        <ele>689</ele>
        <time>2013-05-30T03:51:27.000Z</time>
      </trkpt>
      <trkpt lat="45.86038" lon="6.21374">
        <ele>689</ele>
        <time>2013-05-30T03:51:28.000Z</time>
      </trkpt>
      <trkpt lat="45.86041" lon="6.21375">
        <ele>689</ele>
        <time>2013-05-30T03:51:29.000Z</time>
      </trkpt>
      <trkpt lat="45.86043" lon="6.21375">
        <ele>689</ele>
        <time>2013-05-30T03:51:30.000Z</time>
      </trkpt>
      <trkpt lat="45.86046" lon="6.21376">
        <ele>689</ele>
        <time>2013-05-30T03:51:31.000Z</time>
      </trkpt>
      <trkpt lat="45.86048" lon="6.21377">
        <ele>689</ele>
        <time>2013-05-30T03:51:32.000Z</time>
      </trkpt>
      <trkpt lat="45.8605" lon="6.21378">
        <ele>689</ele>
        <time>2013-05-30T03:51:33.000Z</time>
      </trkpt>
      <trkpt lat="45.86053" lon="6.21379">
        <ele>689</ele>
        <time>2013-05-30T03:51:34.000Z</time>
      </trkpt>
      <trkpt lat="45.86055" lon="6.2138">
        <ele>689</ele>
        <time>2013-05-30T03:51:35.000Z</time>
      </trkpt>
      <trkpt lat="45.86057" lon="6.21381">
        <ele>689</ele>
        <time>2013-05-30T03:51:36.000Z</time>
      </trkpt>
      <trkpt lat="45.8606" lon="6.21381">
        <ele>689</ele>
        <time>2013-05-30T03:51:37.000Z</time>
      </trkpt>
      <trkpt lat="45.86062" lon="6.21383">
        <ele>689</ele>
        <time>2013-05-30T03:51:38.000Z</time>
      </trkpt>
      <trkpt lat="45.86065" lon="6.21384">
        <ele>689</ele>
        <time>2013-05-30T03:51:39.000Z</time>
      </trkpt>
      <trkpt lat="45.86067" lon="6.21385">
        <ele>689</ele>
        <time>2013-05-30T03:51:40.000Z</time>
      </trkpt>
      <trkpt lat="45.8607" lon="6.21386">
        <ele>689</ele>
        <time>2013-05-30T03:51:41.000Z</time>
      </trkpt>
      <trkpt lat="45.86072" lon="6.21388">
        <ele>689</ele>
        <time>2013-05-30T03:51:42.000Z</time>
      </trkpt>
      <trkpt lat="45.86075" lon="6.21389">
        <ele>689</ele>
        <time>2013-05-30T03:51:43.000Z</time>
      </trkpt>
      <trkpt lat="45.86077" lon="6.21391">
        <ele>689</ele>
        <time>2013-05-30T03:51:44.000Z</time>
      </trkpt>
      <trkpt lat="45.8608" lon="6.21392">
        <ele>689</ele>
        <time>2013-05-30T03:51:45.000Z</time>
      </trkpt>
      <trkpt lat="45.86082" lon="6.21394">
        <ele>689</ele>
        <time>2013-05-30T03:51:46.000Z</time>
      </trkpt>
      <trkpt lat="45.86084" lon="6.21396">
        <ele>690</ele>
        <time>2013-05-30T03:51:47.000Z</time>
      </trkpt>
      <trkpt lat="45.86086" lon="6.21398">
        <ele>690</ele>
        <time>2013-05-30T03:51:48.000Z</time>
      </trkpt>
      <trkpt lat="45.86088" lon="6.214">
        <ele>689</ele>
        <time>2013-05-30T03:51:49.000Z</time>
      </trkpt>
      <trkpt lat="45.86091" lon="6.21402">
        <ele>689</ele>
        <time>2013-05-30T03:51:50.000Z</time>
      </trkpt>
      <trkpt lat="45.86093" lon="6.21404">
        <ele>689</ele>
        <time>2013-05-30T03:51:51.000Z</time>
      </trkpt>
      <trkpt lat="45.86094" lon="6.21405">
        <ele>689</ele>
        <time>2013-05-30T03:51:52.000Z</time>
      </trkpt>
      <trkpt lat="45.86097" lon="6.21408">
        <ele>689</ele>
        <time>2013-05-30T03:51:53.000Z</time>
      </trkpt>
      <trkpt lat="45.86098" lon="6.2141">
        <ele>689</ele>
        <time>2013-05-30T03:51:54.000Z</time>
      </trkpt>
      <trkpt lat="45.861" lon="6.21412">
        <ele>689</ele>
        <time>2013-05-30T03:51:55.000Z</time>
      </trkpt>
      <trkpt lat="45.86101" lon="6.21415">
        <ele>689</ele>
        <time>2013-05-30T03:51:56.000Z</time>
      </trkpt>
      <trkpt lat="45.86102" lon="6.21418">
        <ele>687</ele>
        <time>2013-05-30T03:51:57.000Z</time>
      </trkpt>
      <trkpt lat="45.86103" lon="6.21422">
        <ele>687</ele>
        <time>2013-05-30T03:51:58.000Z</time>
      </trkpt>
      <trkpt lat="45.86104" lon="6.21425">
        <ele>687</ele>
        <time>2013-05-30T03:51:59.000Z</time>
      </trkpt>
      <trkpt lat="45.86105" lon="6.21429">
        <ele>687</ele>
        <time>2013-05-30T03:52:00.000Z</time>
      </trkpt>
      <trkpt lat="45.86106" lon="6.21432">
        <ele>687</ele>
        <time>2013-05-30T03:52:01.000Z</time>
      </trkpt>
      <trkpt lat="45.86106" lon="6.21435">
        <ele>687</ele>
        <time>2013-05-30T03:52:02.000Z</time>
      </trkpt>
      <trkpt lat="45.86107" lon="6.21439">
        <ele>687</ele>
        <time>2013-05-30T03:52:03.000Z</time>
      </trkpt>
      <trkpt lat="45.86108" lon="6.21444">
        <ele>686</ele>
        <time>2013-05-30T03:52:04.000Z</time>
      </trkpt>
      <trkpt lat="45.86108" lon="6.21448">
        <ele>686</ele>
        <time>2013-05-30T03:52:05.000Z</time>
      </trkpt>
      <trkpt lat="45.86108" lon="6.21452">
        <ele>686</ele>
        <time>2013-05-30T03:52:06.000Z</time>
      </trkpt>
      <trkpt lat="45.86108" lon="6.21456">
        <ele>686</ele>
        <time>2013-05-30T03:52:07.000Z</time>
      </trkpt>
      <trkpt lat="45.86107" lon="6.2146">
        <ele>686</ele>
        <time>2013-05-30T03:52:08.000Z</time>
      </trkpt>
      <trkpt lat="45.86106" lon="6.21465">
        <ele>686</ele>
        <time>2013-05-30T03:52:09.000Z</time>
      </trkpt>
      <trkpt lat="45.86105" lon="6.21469">
        <ele>686</ele>
        <time>2013-05-30T03:52:10.000Z</time>
      </trkpt>
      <trkpt lat="45.86105" lon="6.21474">
        <ele>686</ele>
        <time>2013-05-30T03:52:11.000Z</time>
      </trkpt>
      <trkpt lat="45.86105" lon="6.21477">
        <ele>686</ele>
        <time>2013-05-30T03:52:12.000Z</time>
      </trkpt>
      <trkpt lat="45.86105" lon="6.21481">
        <ele>686</ele>
        <time>2013-05-30T03:52:13.000Z</time>
      </trkpt>
      <trkpt lat="45.86104" lon="6.21485">
        <ele>686</ele>
        <time>2013-05-30T03:52:14.000Z</time>
      </trkpt>
      <trkpt lat="45.86104" lon="6.21489">
        <ele>686</ele>
        <time>2013-05-30T03:52:15.000Z</time>
      </trkpt>
      <trkpt lat="45.86104" lon="6.21493">
        <ele>686</ele>
        <time>2013-05-30T03:52:16.000Z</time>
      </trkpt>
      <trkpt lat="45.86104" lon="6.21497">
        <ele>686</ele>
        <time>2013-05-30T03:52:17.000Z</time>
      </trkpt>
      <trkpt lat="45.86104" lon="6.21501">
        <ele>685</ele>
        <time>2013-05-30T03:52:18.000Z</time>
      </trkpt>
      <trkpt lat="45.86104" lon="6.21504">
        <ele>685</ele>
        <time>2013-05-30T03:52:19.000Z</time>
      </trkpt>
      <trkpt lat="45.86104" lon="6.21508">
        <ele>685</ele>
        <time>2013-05-30T03:52:20.000Z</time>
      </trkpt>
      <trkpt lat="45.86104" lon="6.21511">
        <ele>685</ele>
        <time>2013-05-30T03:52:21.000Z</time>
      </trkpt>
      <trkpt lat="45.86104" lon="6.21515">
        <ele>685</ele>
        <time>2013-05-30T03:52:22.000Z</time>
      </trkpt>
      <trkpt lat="45.86103" lon="6.21519">
        <ele>685</ele>
        <time>2013-05-30T03:52:23.000Z</time>
      </trkpt>
      <trkpt lat="45.86103" lon="6.21523">
        <ele>685</ele>
        <time>2013-05-30T03:52:24.000Z</time>
      </trkpt>
      <trkpt lat="45.86103" lon="6.21528">
        <ele>685</ele>
        <time>2013-05-30T03:52:25.000Z</time>
      </trkpt>
      <trkpt lat="45.86103" lon="6.21532">
        <ele>685</ele>
        <time>2013-05-30T03:52:26.000Z</time>
      </trkpt>
      <trkpt lat="45.86104" lon="6.21536">
        <ele>685</ele>
        <time>2013-05-30T03:52:27.000Z</time>
      </trkpt>
      <trkpt lat="45.86105" lon="6.21539">
        <ele>685</ele>
        <time>2013-05-30T03:52:28.000Z</time>
      </trkpt>
      <trkpt lat="45.86107" lon="6.21542">
        <ele>685</ele>
        <time>2013-05-30T03:52:29.000Z</time>
      </trkpt>
      <trkpt lat="45.86109" lon="6.21545">
        <ele>685</ele>
        <time>2013-05-30T03:52:30.000Z</time>
      </trkpt>
      <trkpt lat="45.86111" lon="6.21547">
        <ele>685</ele>
        <time>2013-05-30T03:52:31.000Z</time>
      </trkpt>
      <trkpt lat="45.86113" lon="6.21549">
        <ele>684</ele>
        <time>2013-05-30T03:52:32.000Z</time>
      </trkpt>
      <trkpt lat="45.86115" lon="6.21551">
        <ele>684</ele>
        <time>2013-05-30T03:52:33.000Z</time>
      </trkpt>
      <trkpt lat="45.86117" lon="6.21552">
        <ele>684</ele>
        <time>2013-05-30T03:52:34.000Z</time>
      </trkpt>
      <trkpt lat="45.8612" lon="6.21553">
        <ele>684</ele>
        <time>2013-05-30T03:52:35.000Z</time>
      </trkpt>
      <trkpt lat="45.86122" lon="6.21554">
        <ele>684</ele>
        <time>2013-05-30T03:52:36.000Z</time>
      </trkpt>
      <trkpt lat="45.86124" lon="6.21554">
        <ele>684</ele>
        <time>2013-05-30T03:52:37.000Z</time>
      </trkpt>
      <trkpt lat="45.86126" lon="6.21555">
        <ele>683</ele>
        <time>2013-05-30T03:52:38.000Z</time>
      </trkpt>
      <trkpt lat="45.86129" lon="6.21555">
        <ele>683</ele>
        <time>2013-05-30T03:52:39.000Z</time>
      </trkpt>
      <trkpt lat="45.86131" lon="6.21556">
        <ele>683</ele>
        <time>2013-05-30T03:52:40.000Z</time>
      </trkpt>
      <trkpt lat="45.86133" lon="6.21556">
        <ele>683</ele>
        <time>2013-05-30T03:52:41.000Z</time>
      </trkpt>
      <trkpt lat="45.86135" lon="6.21556">
        <ele>683</ele>
        <time>2013-05-30T03:52:42.000Z</time>
      </trkpt>
      <trkpt lat="45.86137" lon="6.21557">
        <ele>683</ele>
        <time>2013-05-30T03:52:43.000Z</time>
      </trkpt>
      <trkpt lat="45.86139" lon="6.21557">
        <ele>682</ele>
        <time>2013-05-30T03:52:44.000Z</time>
      </trkpt>
      <trkpt lat="45.86141" lon="6.21558">
        <ele>682</ele>
        <time>2013-05-30T03:52:45.000Z</time>
      </trkpt>
      <trkpt lat="45.86144" lon="6.21558">
        <ele>682</ele>
        <time>2013-05-30T03:52:46.000Z</time>
      </trkpt>
      <trkpt lat="45.86146" lon="6.21559">
        <ele>682</ele>
        <time>2013-05-30T03:52:47.000Z</time>
      </trkpt>
      <trkpt lat="45.86148" lon="6.2156">
        <ele>682</ele>
        <time>2013-05-30T03:52:48.000Z</time>
      </trkpt>
      <trkpt lat="45.86151" lon="6.21562">
        <ele>681</ele>
        <time>2013-05-30T03:52:49.000Z</time>
      </trkpt>
      <trkpt lat="45.86153" lon="6.21564">
        <ele>681</ele>
        <time>2013-05-30T03:52:50.000Z</time>
      </trkpt>
      <trkpt lat="45.86155" lon="6.21566">
        <ele>681</ele>
        <time>2013-05-30T03:52:51.000Z</time>
      </trkpt>
      <trkpt lat="45.86157" lon="6.21569">
        <ele>680</ele>
        <time>2013-05-30T03:52:52.000Z</time>
      </trkpt>
      <trkpt lat="45.86159" lon="6.21572">
        <ele>680</ele>
        <time>2013-05-30T03:52:53.000Z</time>
      </trkpt>
      <trkpt lat="45.86161" lon="6.21574">
        <ele>679</ele>
        <time>2013-05-30T03:52:54.000Z</time>
      </trkpt>
      <trkpt lat="45.86162" lon="6.21577">
        <ele>679</ele>
        <time>2013-05-30T03:52:55.000Z</time>
      </trkpt>
      <trkpt lat="45.86164" lon="6.2158">
        <ele>678</ele>
        <time>2013-05-30T03:52:56.000Z</time>
      </trkpt>
      <trkpt lat="45.86166" lon="6.21583">
        <ele>677</ele>
        <time>2013-05-30T03:52:57.000Z</time>
      </trkpt>
      <trkpt lat="45.86167" lon="6.21586">
        <ele>677</ele>
        <time>2013-05-30T03:52:58.000Z</time>
      </trkpt>
      <trkpt lat="45.86169" lon="6.21589">
        <ele>677</ele>
        <time>2013-05-30T03:52:59.000Z</time>
      </trkpt>
      <trkpt lat="45.8617" lon="6.21592">
        <ele>677</ele>
        <time>2013-05-30T03:53:00.000Z</time>
      </trkpt>
      <trkpt lat="45.86172" lon="6.21595">
        <ele>677</ele>
        <time>2013-05-30T03:53:01.000Z</time>
      </trkpt>
      <trkpt lat="45.86174" lon="6.21598">
        <ele>677</ele>
        <time>2013-05-30T03:53:02.000Z</time>
      </trkpt>
      <trkpt lat="45.86176" lon="6.21601">
        <ele>677</ele>
        <time>2013-05-30T03:53:03.000Z</time>
      </trkpt>
      <trkpt lat="45.86177" lon="6.21604">
        <ele>677</ele>
        <time>2013-05-30T03:53:04.000Z</time>
      </trkpt>
      <trkpt lat="45.86179" lon="6.21607">
        <ele>677</ele>
        <time>2013-05-30T03:53:05.000Z</time>
      </trkpt>
      <trkpt lat="45.86181" lon="6.21609">
        <ele>677</ele>
        <time>2013-05-30T03:53:06.000Z</time>
      </trkpt>
      <trkpt lat="45.86182" lon="6.21612">
        <ele>677</ele>
        <time>2013-05-30T03:53:07.000Z</time>
      </trkpt>
      <trkpt lat="45.86184" lon="6.21614">
        <ele>677</ele>
        <time>2013-05-30T03:53:08.000Z</time>
      </trkpt>
      <trkpt lat="45.86186" lon="6.21617">
        <ele>678</ele>
        <time>2013-05-30T03:53:09.000Z</time>
      </trkpt>
      <trkpt lat="45.86188" lon="6.2162">
        <ele>678</ele>
        <time>2013-05-30T03:53:10.000Z</time>
      </trkpt>
      <trkpt lat="45.8619" lon="6.21622">
        <ele>678</ele>
        <time>2013-05-30T03:53:11.000Z</time>
      </trkpt>
      <trkpt lat="45.86192" lon="6.21625">
        <ele>678</ele>
        <time>2013-05-30T03:53:12.000Z</time>
      </trkpt>
      <trkpt lat="45.86194" lon="6.21627">
        <ele>678</ele>
        <time>2013-05-30T03:53:13.000Z</time>
      </trkpt>
      <trkpt lat="45.86196" lon="6.2163">
        <ele>678</ele>
        <time>2013-05-30T03:53:14.000Z</time>
      </trkpt>
      <trkpt lat="45.86198" lon="6.21632">
        <ele>678</ele>
        <time>2013-05-30T03:53:15.000Z</time>
      </trkpt>
      <trkpt lat="45.862" lon="6.21635">
        <ele>678</ele>
        <time>2013-05-30T03:53:16.000Z</time>
      </trkpt>
      <trkpt lat="45.86202" lon="6.21637">
        <ele>678</ele>
        <time>2013-05-30T03:53:17.000Z</time>
      </trkpt>
      <trkpt lat="45.86204" lon="6.21639">
        <ele>678</ele>
        <time>2013-05-30T03:53:18.000Z</time>
      </trkpt>
      <trkpt lat="45.86206" lon="6.21641">
        <ele>678</ele>
        <time>2013-05-30T03:53:19.000Z</time>
      </trkpt>
      <trkpt lat="45.86208" lon="6.21643">
        <ele>678</ele>
        <time>2013-05-30T03:53:20.000Z</time>
      </trkpt>
      <trkpt lat="45.8621" lon="6.21645">
        <ele>678</ele>
        <time>2013-05-30T03:53:21.000Z</time>
      </trkpt>
      <trkpt lat="45.86212" lon="6.21647">
        <ele>678</ele>
        <time>2013-05-30T03:53:22.000Z</time>
      </trkpt>
      <trkpt lat="45.86214" lon="6.21649">
        <ele>678</ele>
        <time>2013-05-30T03:53:23.000Z</time>
      </trkpt>
      <trkpt lat="45.86216" lon="6.21651">
        <ele>678</ele>
        <time>2013-05-30T03:53:24.000Z</time>
      </trkpt>
      <trkpt lat="45.86218" lon="6.21653">
        <ele>678</ele>
        <time>2013-05-30T03:53:25.000Z</time>
      </trkpt>
      <trkpt lat="45.8622" lon="6.21656">
        <ele>678</ele>
        <time>2013-05-30T03:53:26.000Z</time>
      </trkpt>
      <trkpt lat="45.86222" lon="6.21658">
        <ele>678</ele>
        <time>2013-05-30T03:53:27.000Z</time>
      </trkpt>
      <trkpt lat="45.86224" lon="6.2166">
        <ele>678</ele>
        <time>2013-05-30T03:53:28.000Z</time>
      </trkpt>
      <trkpt lat="45.86226" lon="6.21662">
        <ele>678</ele>
        <time>2013-05-30T03:53:29.000Z</time>
      </trkpt>
      <trkpt lat="45.86228" lon="6.21664">
        <ele>678</ele>
        <time>2013-05-30T03:53:30.000Z</time>
      </trkpt>
      <trkpt lat="45.8623" lon="6.21667">
        <ele>684</ele>
        <time>2013-05-30T03:53:31.000Z</time>
      </trkpt>
      <trkpt lat="45.86232" lon="6.21669">
        <ele>684</ele>
        <time>2013-05-30T03:53:32.000Z</time>
      </trkpt>
      <trkpt lat="45.86234" lon="6.21671">
        <ele>684</ele>
        <time>2013-05-30T03:53:33.000Z</time>
      </trkpt>
      <trkpt lat="45.86236" lon="6.21674">
        <ele>683</ele>
        <time>2013-05-30T03:53:34.000Z</time>
      </trkpt>
      <trkpt lat="45.86238" lon="6.21676">
        <ele>683</ele>
        <time>2013-05-30T03:53:35.000Z</time>
      </trkpt>
      <trkpt lat="45.8624" lon="6.21678">
        <ele>683</ele>
        <time>2013-05-30T03:53:36.000Z</time>
      </trkpt>
      <trkpt lat="45.86242" lon="6.2168">
        <ele>684</ele>
        <time>2013-05-30T03:53:37.000Z</time>
      </trkpt>
      <trkpt lat="45.86244" lon="6.21683">
        <ele>684</ele>
        <time>2013-05-30T03:53:38.000Z</time>
      </trkpt>
      <trkpt lat="45.86247" lon="6.21684">
        <ele>684</ele>
        <time>2013-05-30T03:53:39.000Z</time>
      </trkpt>
      <trkpt lat="45.86249" lon="6.21687">
        <ele>685</ele>
        <time>2013-05-30T03:53:40.000Z</time>
      </trkpt>
      <trkpt lat="45.86251" lon="6.21689">
        <ele>680</ele>
        <time>2013-05-30T03:53:41.000Z</time>
      </trkpt>
      <trkpt lat="45.86252" lon="6.21691">
        <ele>681</ele>
        <time>2013-05-30T03:53:42.000Z</time>
      </trkpt>
      <trkpt lat="45.86254" lon="6.21693">
        <ele>681</ele>
        <time>2013-05-30T03:53:43.000Z</time>
      </trkpt>
      <trkpt lat="45.86256" lon="6.21695">
        <ele>681</ele>
        <time>2013-05-30T03:53:44.000Z</time>
      </trkpt>
      <trkpt lat="45.86259" lon="6.21697">
        <ele>681</ele>
        <time>2013-05-30T03:53:45.000Z</time>
      </trkpt>
      <trkpt lat="45.86261" lon="6.21699">
        <ele>682</ele>
        <time>2013-05-30T03:53:46.000Z</time>
      </trkpt>
      <trkpt lat="45.86263" lon="6.21702">
        <ele>682</ele>
        <time>2013-05-30T03:53:47.000Z</time>
      </trkpt>
      <trkpt lat="45.86265" lon="6.21704">
        <ele>682</ele>
        <time>2013-05-30T03:53:48.000Z</time>
      </trkpt>
      <trkpt lat="45.86267" lon="6.21706">
        <ele>682</ele>
        <time>2013-05-30T03:53:49.000Z</time>
      </trkpt>
      <trkpt lat="45.86269" lon="6.21709">
        <ele>682</ele>
        <time>2013-05-30T03:53:50.000Z</time>
      </trkpt>
      <trkpt lat="45.86271" lon="6.21711">
        <ele>683</ele>
        <time>2013-05-30T03:53:51.000Z</time>
      </trkpt>
      <trkpt lat="45.86273" lon="6.21712">
        <ele>683</ele>
        <time>2013-05-30T03:53:52.000Z</time>
      </trkpt>
      <trkpt lat="45.86276" lon="6.21714">
        <ele>683</ele>
        <time>2013-05-30T03:53:53.000Z</time>
      </trkpt>
      <trkpt lat="45.86278" lon="6.21716">
        <ele>683</ele>
        <time>2013-05-30T03:53:54.000Z</time>
      </trkpt>
      <trkpt lat="45.8628" lon="6.21718">
        <ele>683</ele>
        <time>2013-05-30T03:53:55.000Z</time>
      </trkpt>
      <trkpt lat="45.86283" lon="6.2172">
        <ele>683</ele>
        <time>2013-05-30T03:53:56.000Z</time>
      </trkpt>
      <trkpt lat="45.86285" lon="6.21722">
        <ele>683</ele>
        <time>2013-05-30T03:53:57.000Z</time>
      </trkpt>
      <trkpt lat="45.86287" lon="6.21724">
        <ele>683</ele>
        <time>2013-05-30T03:53:58.000Z</time>
      </trkpt>
      <trkpt lat="45.8629" lon="6.21726">
        <ele>683</ele>
        <time>2013-05-30T03:53:59.000Z</time>
      </trkpt>
      <trkpt lat="45.86292" lon="6.21727">
        <ele>683</ele>
        <time>2013-05-30T03:54:00.000Z</time>
      </trkpt>
      <trkpt lat="45.86295" lon="6.21729">
        <ele>683</ele>
        <time>2013-05-30T03:54:01.000Z</time>
      </trkpt>
      <trkpt lat="45.86297" lon="6.21731">
        <ele>683</ele>
        <time>2013-05-30T03:54:02.000Z</time>
      </trkpt>
      <trkpt lat="45.86299" lon="6.21733">
        <ele>683</ele>
        <time>2013-05-30T03:54:03.000Z</time>
      </trkpt>
      <trkpt lat="45.86302" lon="6.21735">
        <ele>682</ele>
        <time>2013-05-30T03:54:04.000Z</time>
      </trkpt>
      <trkpt lat="45.86305" lon="6.21737">
        <ele>682</ele>
        <time>2013-05-30T03:54:05.000Z</time>
      </trkpt>
      <trkpt lat="45.86307" lon="6.21738">
        <ele>682</ele>
        <time>2013-05-30T03:54:06.000Z</time>
      </trkpt>
      <trkpt lat="45.8631" lon="6.2174">
        <ele>682</ele>
        <time>2013-05-30T03:54:07.000Z</time>
      </trkpt>
      <trkpt lat="45.86312" lon="6.21741">
        <ele>682</ele>
        <time>2013-05-30T03:54:08.000Z</time>
      </trkpt>
      <trkpt lat="45.86315" lon="6.21743">
        <ele>682</ele>
        <time>2013-05-30T03:54:09.000Z</time>
      </trkpt>
      <trkpt lat="45.86317" lon="6.21744">
        <ele>682</ele>
        <time>2013-05-30T03:54:10.000Z</time>
      </trkpt>
      <trkpt lat="45.8632" lon="6.21746">
        <ele>682</ele>
        <time>2013-05-30T03:54:11.000Z</time>
      </trkpt>
      <trkpt lat="45.86322" lon="6.21747">
        <ele>682</ele>
        <time>2013-05-30T03:54:12.000Z</time>
      </trkpt>
      <trkpt lat="45.86325" lon="6.21749">
        <ele>683</ele>
        <time>2013-05-30T03:54:13.000Z</time>
      </trkpt>
      <trkpt lat="45.86327" lon="6.21751">
        <ele>687</ele>
        <time>2013-05-30T03:54:14.000Z</time>
      </trkpt>
      <trkpt lat="45.8633" lon="6.21753">
        <ele>686</ele>
        <time>2013-05-30T03:54:15.000Z</time>
      </trkpt>
      <trkpt lat="45.86332" lon="6.21755">
        <ele>686</ele>
        <time>2013-05-30T03:54:16.000Z</time>
      </trkpt>
      <trkpt lat="45.86335" lon="6.21756">
        <ele>685</ele>
        <time>2013-05-30T03:54:17.000Z</time>
      </trkpt>
      <trkpt lat="45.86338" lon="6.21758">
        <ele>686</ele>
        <time>2013-05-30T03:54:18.000Z</time>
      </trkpt>
      <trkpt lat="45.86341" lon="6.2176">
        <ele>687</ele>
        <time>2013-05-30T03:54:19.000Z</time>
      </trkpt>
      <trkpt lat="45.86343" lon="6.21762">
        <ele>687</ele>
        <time>2013-05-30T03:54:20.000Z</time>
      </trkpt>
      <trkpt lat="45.86345" lon="6.21763">
        <ele>688</ele>
        <time>2013-05-30T03:54:21.000Z</time>
      </trkpt>
      <trkpt lat="45.86348" lon="6.21765">
        <ele>688</ele>
        <time>2013-05-30T03:54:22.000Z</time>
      </trkpt>
      <trkpt lat="45.86351" lon="6.21767">
        <ele>689</ele>
        <time>2013-05-30T03:54:23.000Z</time>
      </trkpt>
      <trkpt lat="45.86353" lon="6.21768">
        <ele>689</ele>
        <time>2013-05-30T03:54:24.000Z</time>
      </trkpt>
      <trkpt lat="45.86356" lon="6.2177">
        <ele>690</ele>
        <time>2013-05-30T03:54:25.000Z</time>
      </trkpt>
      <trkpt lat="45.86358" lon="6.21771">
        <ele>690</ele>
        <time>2013-05-30T03:54:26.000Z</time>
      </trkpt>
      <trkpt lat="45.8636" lon="6.21773">
        <ele>690</ele>
        <time>2013-05-30T03:54:27.000Z</time>
      </trkpt>
      <trkpt lat="45.86363" lon="6.21775">
        <ele>690</ele>
        <time>2013-05-30T03:54:28.000Z</time>
      </trkpt>
      <trkpt lat="45.86365" lon="6.21776">
        <ele>690</ele>
        <time>2013-05-30T03:54:29.000Z</time>
      </trkpt>
      <trkpt lat="45.86368" lon="6.21777">
        <ele>691</ele>
        <time>2013-05-30T03:54:30.000Z</time>
      </trkpt>
      <trkpt lat="45.8637" lon="6.21779">
        <ele>691</ele>
        <time>2013-05-30T03:54:31.000Z</time>
      </trkpt>
      <trkpt lat="45.86372" lon="6.21781">
        <ele>691</ele>
        <time>2013-05-30T03:54:32.000Z</time>
      </trkpt>
      <trkpt lat="45.86375" lon="6.21782">
        <ele>691</ele>
        <time>2013-05-30T03:54:33.000Z</time>
      </trkpt>
      <trkpt lat="45.86377" lon="6.21783">
        <ele>691</ele>
        <time>2013-05-30T03:54:34.000Z</time>
      </trkpt>
      <trkpt lat="45.8638" lon="6.21784">
        <ele>691</ele>
        <time>2013-05-30T03:54:35.000Z</time>
      </trkpt>
      <trkpt lat="45.86383" lon="6.21784">
        <ele>691</ele>
        <time>2013-05-30T03:54:36.000Z</time>
      </trkpt>
      <trkpt lat="45.86385" lon="6.21785">
        <ele>691</ele>
        <time>2013-05-30T03:54:37.000Z</time>
      </trkpt>
      <trkpt lat="45.86388" lon="6.21786">
        <ele>691</ele>
        <time>2013-05-30T03:54:38.000Z</time>
      </trkpt>
      <trkpt lat="45.8639" lon="6.21787">
        <ele>691</ele>
        <time>2013-05-30T03:54:39.000Z</time>
      </trkpt>
      <trkpt lat="45.86393" lon="6.21787">
        <ele>691</ele>
        <time>2013-05-30T03:54:40.000Z</time>
      </trkpt>
      <trkpt lat="45.86395" lon="6.21788">
        <ele>691</ele>
        <time>2013-05-30T03:54:41.000Z</time>
      </trkpt>
      <trkpt lat="45.86398" lon="6.21788">
        <ele>691</ele>
        <time>2013-05-30T03:54:42.000Z</time>
      </trkpt>
      <trkpt lat="45.864" lon="6.21789">
        <ele>691</ele>
        <time>2013-05-30T03:54:43.000Z</time>
      </trkpt>
      <trkpt lat="45.86403" lon="6.21789">
        <ele>691</ele>
        <time>2013-05-30T03:54:44.000Z</time>
      </trkpt>
      <trkpt lat="45.86406" lon="6.2179">
        <ele>691</ele>
        <time>2013-05-30T03:54:45.000Z</time>
      </trkpt>
      <trkpt lat="45.86408" lon="6.2179">
        <ele>691</ele>
        <time>2013-05-30T03:54:46.000Z</time>
      </trkpt>
      <trkpt lat="45.86411" lon="6.21791">
        <ele>691</ele>
        <time>2013-05-30T03:54:47.000Z</time>
      </trkpt>
      <trkpt lat="45.86413" lon="6.21792">
        <ele>691</ele>
        <time>2013-05-30T03:54:48.000Z</time>
      </trkpt>
      <trkpt lat="45.86416" lon="6.21792">
        <ele>691</ele>
        <time>2013-05-30T03:54:49.000Z</time>
      </trkpt>
      <trkpt lat="45.86419" lon="6.21792">
        <ele>686</ele>
        <time>2013-05-30T03:54:50.000Z</time>
      </trkpt>
      <trkpt lat="45.86422" lon="6.21793">
        <ele>686</ele>
        <time>2013-05-30T03:54:51.000Z</time>
      </trkpt>
      <trkpt lat="45.86424" lon="6.21794">
        <ele>686</ele>
        <time>2013-05-30T03:54:52.000Z</time>
      </trkpt>
      <trkpt lat="45.86427" lon="6.21794">
        <ele>687</ele>
        <time>2013-05-30T03:54:53.000Z</time>
      </trkpt>
      <trkpt lat="45.8643" lon="6.21795">
        <ele>687</ele>
        <time>2013-05-30T03:54:54.000Z</time>
      </trkpt>
      <trkpt lat="45.86432" lon="6.21795">
        <ele>687</ele>
        <time>2013-05-30T03:54:55.000Z</time>
      </trkpt>
      <trkpt lat="45.86435" lon="6.21796">
        <ele>687</ele>
        <time>2013-05-30T03:54:56.000Z</time>
      </trkpt>
      <trkpt lat="45.86437" lon="6.21797">
        <ele>687</ele>
        <time>2013-05-30T03:54:57.000Z</time>
      </trkpt>
      <trkpt lat="45.8644" lon="6.21797">
        <ele>686</ele>
        <time>2013-05-30T03:54:58.000Z</time>
      </trkpt>
      <trkpt lat="45.86442" lon="6.21798">
        <ele>686</ele>
        <time>2013-05-30T03:54:59.000Z</time>
      </trkpt>
      <trkpt lat="45.86445" lon="6.21799">
        <ele>686</ele>
        <time>2013-05-30T03:55:00.000Z</time>
      </trkpt>
      <trkpt lat="45.86447" lon="6.218">
        <ele>686</ele>
        <time>2013-05-30T03:55:01.000Z</time>
      </trkpt>
      <trkpt lat="45.8645" lon="6.21801">
        <ele>686</ele>
        <time>2013-05-30T03:55:02.000Z</time>
      </trkpt>
      <trkpt lat="45.86452" lon="6.21801">
        <ele>686</ele>
        <time>2013-05-30T03:55:03.000Z</time>
      </trkpt>
      <trkpt lat="45.86455" lon="6.21802">
        <ele>686</ele>
        <time>2013-05-30T03:55:04.000Z</time>
      </trkpt>
      <trkpt lat="45.86457" lon="6.21802">
        <ele>686</ele>
        <time>2013-05-30T03:55:05.000Z</time>
      </trkpt>
      <trkpt lat="45.86459" lon="6.21803">
        <ele>686</ele>
        <time>2013-05-30T03:55:06.000Z</time>
      </trkpt>
      <trkpt lat="45.86461" lon="6.21804">
        <ele>686</ele>
        <time>2013-05-30T03:55:07.000Z</time>
      </trkpt>
      <trkpt lat="45.86463" lon="6.21805">
        <ele>686</ele>
        <time>2013-05-30T03:55:08.000Z</time>
      </trkpt>
      <trkpt lat="45.86466" lon="6.21806">
        <ele>686</ele>
        <time>2013-05-30T03:55:09.000Z</time>
      </trkpt>
      <trkpt lat="45.86468" lon="6.21807">
        <ele>686</ele>
        <time>2013-05-30T03:55:10.000Z</time>
      </trkpt>
      <trkpt lat="45.86469" lon="6.21807">
        <ele>686</ele>
        <time>2013-05-30T03:55:11.000Z</time>
      </trkpt>
      <trkpt lat="45.86472" lon="6.21808">
        <ele>686</ele>
        <time>2013-05-30T03:55:12.000Z</time>
      </trkpt>
      <trkpt lat="45.86474" lon="6.2181">
        <ele>686</ele>
        <time>2013-05-30T03:55:13.000Z</time>
      </trkpt>
      <trkpt lat="45.86476" lon="6.2181">
        <ele>686</ele>
        <time>2013-05-30T03:55:14.000Z</time>
      </trkpt>
      <trkpt lat="45.86479" lon="6.21812">
        <ele>686</ele>
        <time>2013-05-30T03:55:15.000Z</time>
      </trkpt>
      <trkpt lat="45.86481" lon="6.21812">
        <ele>686</ele>
        <time>2013-05-30T03:55:16.000Z</time>
      </trkpt>
      <trkpt lat="45.86483" lon="6.21813">
        <ele>686</ele>
        <time>2013-05-30T03:55:17.000Z</time>
      </trkpt>
      <trkpt lat="45.86485" lon="6.21814">
        <ele>686</ele>
        <time>2013-05-30T03:55:18.000Z</time>
      </trkpt>
      <trkpt lat="45.86488" lon="6.21815">
        <ele>687</ele>
        <time>2013-05-30T03:55:19.000Z</time>
      </trkpt>
      <trkpt lat="45.8649" lon="6.21816">
        <ele>687</ele>
        <time>2013-05-30T03:55:20.000Z</time>
      </trkpt>
      <trkpt lat="45.86493" lon="6.21818">
        <ele>687</ele>
        <time>2013-05-30T03:55:21.000Z</time>
      </trkpt>
      <trkpt lat="45.86495" lon="6.2182">
        <ele>687</ele>
        <time>2013-05-30T03:55:22.000Z</time>
      </trkpt>
      <trkpt lat="45.86498" lon="6.21821">
        <ele>687</ele>
        <time>2013-05-30T03:55:23.000Z</time>
      </trkpt>
      <trkpt lat="45.86501" lon="6.21823">
        <ele>685</ele>
        <time>2013-05-30T03:55:24.000Z</time>
      </trkpt>
      <trkpt lat="45.86503" lon="6.21824">
        <ele>685</ele>
        <time>2013-05-30T03:55:25.000Z</time>
      </trkpt>
      <trkpt lat="45.86506" lon="6.21826">
        <ele>686</ele>
        <time>2013-05-30T03:55:26.000Z</time>
      </trkpt>
      <trkpt lat="45.86509" lon="6.21827">
        <ele>685</ele>
        <time>2013-05-30T03:55:27.000Z</time>
      </trkpt>
      <trkpt lat="45.86512" lon="6.21828">
        <ele>685</ele>
        <time>2013-05-30T03:55:28.000Z</time>
      </trkpt>
      <trkpt lat="45.86514" lon="6.21829">
        <ele>684</ele>
        <time>2013-05-30T03:55:29.000Z</time>
      </trkpt>
      <trkpt lat="45.86517" lon="6.2183">
        <ele>684</ele>
        <time>2013-05-30T03:55:30.000Z</time>
      </trkpt>
      <trkpt lat="45.86519" lon="6.21832">
        <ele>683</ele>
        <time>2013-05-30T03:55:31.000Z</time>
      </trkpt>
      <trkpt lat="45.86522" lon="6.21833">
        <ele>683</ele>
        <time>2013-05-30T03:55:32.000Z</time>
      </trkpt>
      <trkpt lat="45.86525" lon="6.21834">
        <ele>692</ele>
        <time>2013-05-30T03:55:33.000Z</time>
      </trkpt>
      <trkpt lat="45.86527" lon="6.21836">
        <ele>692</ele>
        <time>2013-05-30T03:55:34.000Z</time>
      </trkpt>
      <trkpt lat="45.86529" lon="6.21837">
        <ele>692</ele>
        <time>2013-05-30T03:55:35.000Z</time>
      </trkpt>
      <trkpt lat="45.86531" lon="6.21839">
        <ele>692</ele>
        <time>2013-05-30T03:55:36.000Z</time>
      </trkpt>
      <trkpt lat="45.86533" lon="6.2184">
        <ele>692</ele>
        <time>2013-05-30T03:55:37.000Z</time>
      </trkpt>
      <trkpt lat="45.86535" lon="6.21841">
        <ele>692</ele>
        <time>2013-05-30T03:55:38.000Z</time>
      </trkpt>
      <trkpt lat="45.86538" lon="6.21842">
        <ele>692</ele>
        <time>2013-05-30T03:55:39.000Z</time>
      </trkpt>
      <trkpt lat="45.8654" lon="6.21844">
        <ele>692</ele>
        <time>2013-05-30T03:55:40.000Z</time>
      </trkpt>
      <trkpt lat="45.86542" lon="6.21845">
        <ele>692</ele>
        <time>2013-05-30T03:55:41.000Z</time>
      </trkpt>
      <trkpt lat="45.86544" lon="6.21846">
        <ele>692</ele>
        <time>2013-05-30T03:55:42.000Z</time>
      </trkpt>
      <trkpt lat="45.86546" lon="6.21847">
        <ele>692</ele>
        <time>2013-05-30T03:55:43.000Z</time>
      </trkpt>
      <trkpt lat="45.86548" lon="6.21847">
        <ele>692</ele>
        <time>2013-05-30T03:55:44.000Z</time>
      </trkpt>
      <trkpt lat="45.86551" lon="6.21848">
        <ele>692</ele>
        <time>2013-05-30T03:55:45.000Z</time>
      </trkpt>
      <trkpt lat="45.86553" lon="6.21849">
        <ele>692</ele>
        <time>2013-05-30T03:55:46.000Z</time>
      </trkpt>
      <trkpt lat="45.86556" lon="6.21849">
        <ele>691</ele>
        <time>2013-05-30T03:55:47.000Z</time>
      </trkpt>
      <trkpt lat="45.86559" lon="6.2185">
        <ele>691</ele>
        <time>2013-05-30T03:55:48.000Z</time>
      </trkpt>
      <trkpt lat="45.86561" lon="6.2185">
        <ele>691</ele>
        <time>2013-05-30T03:55:49.000Z</time>
      </trkpt>
      <trkpt lat="45.86564" lon="6.2185">
        <ele>691</ele>
        <time>2013-05-30T03:55:50.000Z</time>
      </trkpt>
      <trkpt lat="45.86566" lon="6.21849">
        <ele>690</ele>
        <time>2013-05-30T03:55:51.000Z</time>
      </trkpt>
      <trkpt lat="45.86568" lon="6.21848">
        <ele>690</ele>
        <time>2013-05-30T03:55:52.000Z</time>
      </trkpt>
      <trkpt lat="45.8657" lon="6.21848">
        <ele>689</ele>
        <time>2013-05-30T03:55:53.000Z</time>
      </trkpt>
      <trkpt lat="45.86572" lon="6.21847">
        <ele>689</ele>
        <time>2013-05-30T03:55:54.000Z</time>
      </trkpt>
      <trkpt lat="45.86574" lon="6.21846">
        <ele>688</ele>
        <time>2013-05-30T03:55:55.000Z</time>
      </trkpt>
      <trkpt lat="45.86576" lon="6.21844">
        <ele>687</ele>
        <time>2013-05-30T03:55:56.000Z</time>
      </trkpt>
      <trkpt lat="45.86578" lon="6.21843">
        <ele>687</ele>
        <time>2013-05-30T03:55:57.000Z</time>
      </trkpt>
      <trkpt lat="45.86581" lon="6.21841">
        <ele>686</ele>
        <time>2013-05-30T03:55:58.000Z</time>
      </trkpt>
      <trkpt lat="45.86583" lon="6.2184">
        <ele>685</ele>
        <time>2013-05-30T03:55:59.000Z</time>
      </trkpt>
      <trkpt lat="45.86586" lon="6.21839">
        <ele>684</ele>
        <time>2013-05-30T03:56:00.000Z</time>
      </trkpt>
      <trkpt lat="45.86589" lon="6.21838">
        <ele>684</ele>
        <time>2013-05-30T03:56:01.000Z</time>
      </trkpt>
      <trkpt lat="45.86591" lon="6.21836">
        <ele>684</ele>
        <time>2013-05-30T03:56:02.000Z</time>
      </trkpt>
      <trkpt lat="45.86594" lon="6.21836">
        <ele>685</ele>
        <time>2013-05-30T03:56:03.000Z</time>
      </trkpt>
      <trkpt lat="45.86597" lon="6.21835">
        <ele>685</ele>
        <time>2013-05-30T03:56:04.000Z</time>
      </trkpt>
      <trkpt lat="45.866" lon="6.21834">
        <ele>685</ele>
        <time>2013-05-30T03:56:05.000Z</time>
      </trkpt>
      <trkpt lat="45.86602" lon="6.21834">
        <ele>686</ele>
        <time>2013-05-30T03:56:06.000Z</time>
      </trkpt>
      <trkpt lat="45.86605" lon="6.21834">
        <ele>686</ele>
        <time>2013-05-30T03:56:07.000Z</time>
      </trkpt>
      <trkpt lat="45.86608" lon="6.21834">
        <ele>686</ele>
        <time>2013-05-30T03:56:08.000Z</time>
      </trkpt>
      <trkpt lat="45.86611" lon="6.21834">
        <ele>686</ele>
        <time>2013-05-30T03:56:09.000Z</time>
      </trkpt>
      <trkpt lat="45.86614" lon="6.21835">
        <ele>687</ele>
        <time>2013-05-30T03:56:10.000Z</time>
      </trkpt>
      <trkpt lat="45.86617" lon="6.21836">
        <ele>687</ele>
        <time>2013-05-30T03:56:11.000Z</time>
      </trkpt>
      <trkpt lat="45.8662" lon="6.21836">
        <ele>687</ele>
        <time>2013-05-30T03:56:12.000Z</time>
      </trkpt>
      <trkpt lat="45.86623" lon="6.21837">
        <ele>687</ele>
        <time>2013-05-30T03:56:13.000Z</time>
      </trkpt>
      <trkpt lat="45.86626" lon="6.21837">
        <ele>687</ele>
        <time>2013-05-30T03:56:14.000Z</time>
      </trkpt>
      <trkpt lat="45.86629" lon="6.21838">
        <ele>687</ele>
        <time>2013-05-30T03:56:15.000Z</time>
      </trkpt>
      <trkpt lat="45.86632" lon="6.21839">
        <ele>687</ele>
        <time>2013-05-30T03:56:16.000Z</time>
      </trkpt>
      <trkpt lat="45.86634" lon="6.21839">
        <ele>686</ele>
        <time>2013-05-30T03:56:17.000Z</time>
      </trkpt>
      <trkpt lat="45.86637" lon="6.2184">
        <ele>686</ele>
        <time>2013-05-30T03:56:18.000Z</time>
      </trkpt>
      <trkpt lat="45.8664" lon="6.2184">
        <ele>686</ele>
        <time>2013-05-30T03:56:19.000Z</time>
      </trkpt>
      <trkpt lat="45.86643" lon="6.2184">
        <ele>686</ele>
        <time>2013-05-30T03:56:20.000Z</time>
      </trkpt>
      <trkpt lat="45.86646" lon="6.21841">
        <ele>685</ele>
        <time>2013-05-30T03:56:21.000Z</time>
      </trkpt>
      <trkpt lat="45.86649" lon="6.21841">
        <ele>685</ele>
        <time>2013-05-30T03:56:22.000Z</time>
      </trkpt>
      <trkpt lat="45.86652" lon="6.21842">
        <ele>685</ele>
        <time>2013-05-30T03:56:23.000Z</time>
      </trkpt>
      <trkpt lat="45.86654" lon="6.21842">
        <ele>684</ele>
        <time>2013-05-30T03:56:24.000Z</time>
      </trkpt>
      <trkpt lat="45.86657" lon="6.21843">
        <ele>684</ele>
        <time>2013-05-30T03:56:25.000Z</time>
      </trkpt>
      <trkpt lat="45.86659" lon="6.21844">
        <ele>684</ele>
        <time>2013-05-30T03:56:26.000Z</time>
      </trkpt>
      <trkpt lat="45.86662" lon="6.21844">
        <ele>684</ele>
        <time>2013-05-30T03:56:27.000Z</time>
      </trkpt>
      <trkpt lat="45.86664" lon="6.21845">
        <ele>684</ele>
        <time>2013-05-30T03:56:28.000Z</time>
      </trkpt>
      <trkpt lat="45.86667" lon="6.21846">
        <ele>683</ele>
        <time>2013-05-30T03:56:29.000Z</time>
      </trkpt>
      <trkpt lat="45.8667" lon="6.21848">
        <ele>683</ele>
        <time>2013-05-30T03:56:30.000Z</time>
      </trkpt>
      <trkpt lat="45.86673" lon="6.2185">
        <ele>684</ele>
        <time>2013-05-30T03:56:31.000Z</time>
      </trkpt>
      <trkpt lat="45.86675" lon="6.21852">
        <ele>684</ele>
        <time>2013-05-30T03:56:32.000Z</time>
      </trkpt>
      <trkpt lat="45.86678" lon="6.21853">
        <ele>684</ele>
        <time>2013-05-30T03:56:33.000Z</time>
      </trkpt>
      <trkpt lat="45.86681" lon="6.21854">
        <ele>685</ele>
        <time>2013-05-30T03:56:34.000Z</time>
      </trkpt>
      <trkpt lat="45.86683" lon="6.21855">
        <ele>685</ele>
        <time>2013-05-30T03:56:35.000Z</time>
      </trkpt>
      <trkpt lat="45.86686" lon="6.21856">
        <ele>685</ele>
        <time>2013-05-30T03:56:36.000Z</time>
      </trkpt>
      <trkpt lat="45.86688" lon="6.21856">
        <ele>685</ele>
        <time>2013-05-30T03:56:37.000Z</time>
      </trkpt>
      <trkpt lat="45.8669" lon="6.21857">
        <ele>685</ele>
        <time>2013-05-30T03:56:38.000Z</time>
      </trkpt>
      <trkpt lat="45.86693" lon="6.21857">
        <ele>685</ele>
        <time>2013-05-30T03:56:39.000Z</time>
      </trkpt>
      <trkpt lat="45.86696" lon="6.21857">
        <ele>685</ele>
        <time>2013-05-30T03:56:40.000Z</time>
      </trkpt>
      <trkpt lat="45.86699" lon="6.21857">
        <ele>685</ele>
        <time>2013-05-30T03:56:41.000Z</time>
      </trkpt>
      <trkpt lat="45.86701" lon="6.21857">
        <ele>685</ele>
        <time>2013-05-30T03:56:42.000Z</time>
      </trkpt>
      <trkpt lat="45.86704" lon="6.21858">
        <ele>685</ele>
        <time>2013-05-30T03:56:43.000Z</time>
      </trkpt>
      <trkpt lat="45.86707" lon="6.21858">
        <ele>685</ele>
        <time>2013-05-30T03:56:44.000Z</time>
      </trkpt>
      <trkpt lat="45.8671" lon="6.21859">
        <ele>685</ele>
        <time>2013-05-30T03:56:45.000Z</time>
      </trkpt>
      <trkpt lat="45.86713" lon="6.21859">
        <ele>685</ele>
        <time>2013-05-30T03:56:46.000Z</time>
      </trkpt>
      <trkpt lat="45.86715" lon="6.2186">
        <ele>685</ele>
        <time>2013-05-30T03:56:47.000Z</time>
      </trkpt>
      <trkpt lat="45.86718" lon="6.21861">
        <ele>685</ele>
        <time>2013-05-30T03:56:48.000Z</time>
      </trkpt>
      <trkpt lat="45.86721" lon="6.21861">
        <ele>685</ele>
        <time>2013-05-30T03:56:49.000Z</time>
      </trkpt>
      <trkpt lat="45.86723" lon="6.21861">
        <ele>685</ele>
        <time>2013-05-30T03:56:50.000Z</time>
      </trkpt>
      <trkpt lat="45.86726" lon="6.21862">
        <ele>685</ele>
        <time>2013-05-30T03:56:51.000Z</time>
      </trkpt>
      <trkpt lat="45.86728" lon="6.21862">
        <ele>685</ele>
        <time>2013-05-30T03:56:52.000Z</time>
      </trkpt>
      <trkpt lat="45.86731" lon="6.21863">
        <ele>685</ele>
        <time>2013-05-30T03:56:53.000Z</time>
      </trkpt>
      <trkpt lat="45.86734" lon="6.21864">
        <ele>685</ele>
        <time>2013-05-30T03:56:54.000Z</time>
      </trkpt>
      <trkpt lat="45.86736" lon="6.21864">
        <ele>685</ele>
        <time>2013-05-30T03:56:55.000Z</time>
      </trkpt>
      <trkpt lat="45.86739" lon="6.21865">
        <ele>685</ele>
        <time>2013-05-30T03:56:56.000Z</time>
      </trkpt>
      <trkpt lat="45.86741" lon="6.21865">
        <ele>685</ele>
        <time>2013-05-30T03:56:57.000Z</time>
      </trkpt>
      <trkpt lat="45.86744" lon="6.21866">
        <ele>685</ele>
        <time>2013-05-30T03:56:58.000Z</time>
      </trkpt>
      <trkpt lat="45.86746" lon="6.21867">
        <ele>685</ele>
        <time>2013-05-30T03:56:59.000Z</time>
      </trkpt>
      <trkpt lat="45.86749" lon="6.21868">
        <ele>685</ele>
        <time>2013-05-30T03:57:00.000Z</time>
      </trkpt>
      <trkpt lat="45.86752" lon="6.21868">
        <ele>685</ele>
        <time>2013-05-30T03:57:01.000Z</time>
      </trkpt>
      <trkpt lat="45.86754" lon="6.21869">
        <ele>686</ele>
        <time>2013-05-30T03:57:02.000Z</time>
      </trkpt>
      <trkpt lat="45.86757" lon="6.21869">
        <ele>686</ele>
        <time>2013-05-30T03:57:03.000Z</time>
      </trkpt>
      <trkpt lat="45.8676" lon="6.21869">
        <ele>686</ele>
        <time>2013-05-30T03:57:04.000Z</time>
      </trkpt>
      <trkpt lat="45.86763" lon="6.21869">
        <ele>686</ele>
        <time>2013-05-30T03:57:05.000Z</time>
      </trkpt>
      <trkpt lat="45.86765" lon="6.21869">
        <ele>686</ele>
        <time>2013-05-30T03:57:06.000Z</time>
      </trkpt>
      <trkpt lat="45.86768" lon="6.21869">
        <ele>686</ele>
        <time>2013-05-30T03:57:07.000Z</time>
      </trkpt>
      <trkpt lat="45.86771" lon="6.21869">
        <ele>686</ele>
        <time>2013-05-30T03:57:08.000Z</time>
      </trkpt>
      <trkpt lat="45.86773" lon="6.21869">
        <ele>686</ele>
        <time>2013-05-30T03:57:09.000Z</time>
      </trkpt>
      <trkpt lat="45.86776" lon="6.21868">
        <ele>686</ele>
        <time>2013-05-30T03:57:10.000Z</time>
      </trkpt>
      <trkpt lat="45.86778" lon="6.21867">
        <ele>686</ele>
        <time>2013-05-30T03:57:11.000Z</time>
      </trkpt>
      <trkpt lat="45.86781" lon="6.21866">
        <ele>686</ele>
        <time>2013-05-30T03:57:12.000Z</time>
      </trkpt>
      <trkpt lat="45.86783" lon="6.21864">
        <ele>686</ele>
        <time>2013-05-30T03:57:13.000Z</time>
      </trkpt>
      <trkpt lat="45.86786" lon="6.21863">
        <ele>686</ele>
        <time>2013-05-30T03:57:14.000Z</time>
      </trkpt>
      <trkpt lat="45.86788" lon="6.21862">
        <ele>686</ele>
        <time>2013-05-30T03:57:15.000Z</time>
      </trkpt>
      <trkpt lat="45.86791" lon="6.2186">
        <ele>686</ele>
        <time>2013-05-30T03:57:16.000Z</time>
      </trkpt>
      <trkpt lat="45.86793" lon="6.21859">
        <ele>685</ele>
        <time>2013-05-30T03:57:17.000Z</time>
      </trkpt>
      <trkpt lat="45.86796" lon="6.21857">
        <ele>685</ele>
        <time>2013-05-30T03:57:18.000Z</time>
      </trkpt>
      <trkpt lat="45.86799" lon="6.21856">
        <ele>685</ele>
        <time>2013-05-30T03:57:19.000Z</time>
      </trkpt>
      <trkpt lat="45.86801" lon="6.21855">
        <ele>685</ele>
        <time>2013-05-30T03:57:20.000Z</time>
      </trkpt>
      <trkpt lat="45.86804" lon="6.21853">
        <ele>685</ele>
        <time>2013-05-30T03:57:21.000Z</time>
      </trkpt>
      <trkpt lat="45.86807" lon="6.21852">
        <ele>685</ele>
        <time>2013-05-30T03:57:22.000Z</time>
      </trkpt>
      <trkpt lat="45.86809" lon="6.21851">
        <ele>685</ele>
        <time>2013-05-30T03:57:23.000Z</time>
      </trkpt>
      <trkpt lat="45.86812" lon="6.21851">
        <ele>684</ele>
        <time>2013-05-30T03:57:24.000Z</time>
      </trkpt>
      <trkpt lat="45.86815" lon="6.2185">
        <ele>684</ele>
        <time>2013-05-30T03:57:25.000Z</time>
      </trkpt>
      <trkpt lat="45.86818" lon="6.2185">
        <ele>684</ele>
        <time>2013-05-30T03:57:26.000Z</time>
      </trkpt>
      <trkpt lat="45.86821" lon="6.2185">
        <ele>684</ele>
        <time>2013-05-30T03:57:27.000Z</time>
      </trkpt>
      <trkpt lat="45.86824" lon="6.2185">
        <ele>684</ele>
        <time>2013-05-30T03:57:28.000Z</time>
      </trkpt>
      <trkpt lat="45.86827" lon="6.2185">
        <ele>683</ele>
        <time>2013-05-30T03:57:29.000Z</time>
      </trkpt>
      <trkpt lat="45.86831" lon="6.2185">
        <ele>683</ele>
        <time>2013-05-30T03:57:30.000Z</time>
      </trkpt>
      <trkpt lat="45.86833" lon="6.2185">
        <ele>683</ele>
        <time>2013-05-30T03:57:31.000Z</time>
      </trkpt>
      <trkpt lat="45.86836" lon="6.21849">
        <ele>683</ele>
        <time>2013-05-30T03:57:32.000Z</time>
      </trkpt>
      <trkpt lat="45.86839" lon="6.21848">
        <ele>683</ele>
        <time>2013-05-30T03:57:33.000Z</time>
      </trkpt>
      <trkpt lat="45.86842" lon="6.21848">
        <ele>683</ele>
        <time>2013-05-30T03:57:34.000Z</time>
      </trkpt>
      <trkpt lat="45.86844" lon="6.21847">
        <ele>684</ele>
        <time>2013-05-30T03:57:35.000Z</time>
      </trkpt>
      <trkpt lat="45.86847" lon="6.21846">
        <ele>684</ele>
        <time>2013-05-30T03:57:36.000Z</time>
      </trkpt>
      <trkpt lat="45.8685" lon="6.21846">
        <ele>684</ele>
        <time>2013-05-30T03:57:37.000Z</time>
      </trkpt>
      <trkpt lat="45.86852" lon="6.21845">
        <ele>684</ele>
        <time>2013-05-30T03:57:38.000Z</time>
      </trkpt>
      <trkpt lat="45.86855" lon="6.21844">
        <ele>684</ele>
        <time>2013-05-30T03:57:39.000Z</time>
      </trkpt>
      <trkpt lat="45.86857" lon="6.21843">
        <ele>684</ele>
        <time>2013-05-30T03:57:40.000Z</time>
      </trkpt>
      <trkpt lat="45.8686" lon="6.21842">
        <ele>684</ele>
        <time>2013-05-30T03:57:41.000Z</time>
      </trkpt>
      <trkpt lat="45.86862" lon="6.21841">
        <ele>684</ele>
        <time>2013-05-30T03:57:42.000Z</time>
      </trkpt>
      <trkpt lat="45.86865" lon="6.2184">
        <ele>684</ele>
        <time>2013-05-30T03:57:43.000Z</time>
      </trkpt>
      <trkpt lat="45.86867" lon="6.21838">
        <ele>684</ele>
        <time>2013-05-30T03:57:44.000Z</time>
      </trkpt>
      <trkpt lat="45.8687" lon="6.21837">
        <ele>684</ele>
        <time>2013-05-30T03:57:45.000Z</time>
      </trkpt>
      <trkpt lat="45.86873" lon="6.21836">
        <ele>684</ele>
        <time>2013-05-30T03:57:46.000Z</time>
      </trkpt>
      <trkpt lat="45.86875" lon="6.21835">
        <ele>684</ele>
        <time>2013-05-30T03:57:47.000Z</time>
      </trkpt>
      <trkpt lat="45.86878" lon="6.21834">
        <ele>684</ele>
        <time>2013-05-30T03:57:48.000Z</time>
      </trkpt>
      <trkpt lat="45.86881" lon="6.21834">
        <ele>684</ele>
        <time>2013-05-30T03:57:49.000Z</time>
      </trkpt>
      <trkpt lat="45.86883" lon="6.21833">
        <ele>673</ele>
        <time>2013-05-30T03:57:50.000Z</time>
      </trkpt>
      <trkpt lat="45.86886" lon="6.21831">
        <ele>673</ele>
        <time>2013-05-30T03:57:51.000Z</time>
      </trkpt>
      <trkpt lat="45.86889" lon="6.2183">
        <ele>674</ele>
        <time>2013-05-30T03:57:52.000Z</time>
      </trkpt>
      <trkpt lat="45.86891" lon="6.21829">
        <ele>674</ele>
        <time>2013-05-30T03:57:53.000Z</time>
      </trkpt>
      <trkpt lat="45.86894" lon="6.21828">
        <ele>674</ele>
        <time>2013-05-30T03:57:54.000Z</time>
      </trkpt>
      <trkpt lat="45.86897" lon="6.21827">
        <ele>674</ele>
        <time>2013-05-30T03:57:55.000Z</time>
      </trkpt>
      <trkpt lat="45.86899" lon="6.21826">
        <ele>674</ele>
        <time>2013-05-30T03:57:56.000Z</time>
      </trkpt>
      <trkpt lat="45.86902" lon="6.21824">
        <ele>674</ele>
        <time>2013-05-30T03:57:57.000Z</time>
      </trkpt>
      <trkpt lat="45.86905" lon="6.21823">
        <ele>674</ele>
        <time>2013-05-30T03:57:58.000Z</time>
      </trkpt>
      <trkpt lat="45.86907" lon="6.21822">
        <ele>674</ele>
        <time>2013-05-30T03:57:59.000Z</time>
      </trkpt>
      <trkpt lat="45.8691" lon="6.21821">
        <ele>674</ele>
        <time>2013-05-30T03:58:00.000Z</time>
      </trkpt>
      <trkpt lat="45.86912" lon="6.2182">
        <ele>674</ele>
        <time>2013-05-30T03:58:01.000Z</time>
      </trkpt>
      <trkpt lat="45.86915" lon="6.2182">
        <ele>674</ele>
        <time>2013-05-30T03:58:02.000Z</time>
      </trkpt>
      <trkpt lat="45.86918" lon="6.21819">
        <ele>674</ele>
        <time>2013-05-30T03:58:03.000Z</time>
      </trkpt>
      <trkpt lat="45.86921" lon="6.21819">
        <ele>673</ele>
        <time>2013-05-30T03:58:04.000Z</time>
      </trkpt>
      <trkpt lat="45.86923" lon="6.21818">
        <ele>673</ele>
        <time>2013-05-30T03:58:05.000Z</time>
      </trkpt>
      <trkpt lat="45.86926" lon="6.21818">
        <ele>673</ele>
        <time>2013-05-30T03:58:06.000Z</time>
      </trkpt>
      <trkpt lat="45.86929" lon="6.21818">
        <ele>673</ele>
        <time>2013-05-30T03:58:07.000Z</time>
      </trkpt>
      <trkpt lat="45.86931" lon="6.21818">
        <ele>672</ele>
        <time>2013-05-30T03:58:08.000Z</time>
      </trkpt>
      <trkpt lat="45.86934" lon="6.21818">
        <ele>672</ele>
        <time>2013-05-30T03:58:09.000Z</time>
      </trkpt>
      <trkpt lat="45.86936" lon="6.21818">
        <ele>672</ele>
        <time>2013-05-30T03:58:10.000Z</time>
      </trkpt>
      <trkpt lat="45.86939" lon="6.21818">
        <ele>672</ele>
        <time>2013-05-30T03:58:11.000Z</time>
      </trkpt>
      <trkpt lat="45.86941" lon="6.21818">
        <ele>672</ele>
        <time>2013-05-30T03:58:12.000Z</time>
      </trkpt>
      <trkpt lat="45.86944" lon="6.21817">
        <ele>672</ele>
        <time>2013-05-30T03:58:13.000Z</time>
      </trkpt>
      <trkpt lat="45.86946" lon="6.21817">
        <ele>671</ele>
        <time>2013-05-30T03:58:14.000Z</time>
      </trkpt>
      <trkpt lat="45.86949" lon="6.21817">
        <ele>671</ele>
        <time>2013-05-30T03:58:15.000Z</time>
      </trkpt>
      <trkpt lat="45.86952" lon="6.21816">
        <ele>671</ele>
        <time>2013-05-30T03:58:16.000Z</time>
      </trkpt>
      <trkpt lat="45.86954" lon="6.21816">
        <ele>671</ele>
        <time>2013-05-30T03:58:17.000Z</time>
      </trkpt>
      <trkpt lat="45.86956" lon="6.21816">
        <ele>671</ele>
        <time>2013-05-30T03:58:18.000Z</time>
      </trkpt>
      <trkpt lat="45.86959" lon="6.21816">
        <ele>671</ele>
        <time>2013-05-30T03:58:19.000Z</time>
      </trkpt>
      <trkpt lat="45.86962" lon="6.21815">
        <ele>671</ele>
        <time>2013-05-30T03:58:20.000Z</time>
      </trkpt>
      <trkpt lat="45.86964" lon="6.21815">
        <ele>671</ele>
        <time>2013-05-30T03:58:21.000Z</time>
      </trkpt>
      <trkpt lat="45.86967" lon="6.21815">
        <ele>671</ele>
        <time>2013-05-30T03:58:22.000Z</time>
      </trkpt>
      <trkpt lat="45.8697" lon="6.21815">
        <ele>671</ele>
        <time>2013-05-30T03:58:23.000Z</time>
      </trkpt>
      <trkpt lat="45.86973" lon="6.21815">
        <ele>671</ele>
        <time>2013-05-30T03:58:24.000Z</time>
      </trkpt>
      <trkpt lat="45.86976" lon="6.21816">
        <ele>671</ele>
        <time>2013-05-30T03:58:25.000Z</time>
      </trkpt>
      <trkpt lat="45.86979" lon="6.21816">
        <ele>671</ele>
        <time>2013-05-30T03:58:26.000Z</time>
      </trkpt>
      <trkpt lat="45.86981" lon="6.21815">
        <ele>671</ele>
        <time>2013-05-30T03:58:27.000Z</time>
      </trkpt>
      <trkpt lat="45.86984" lon="6.21815">
        <ele>671</ele>
        <time>2013-05-30T03:58:28.000Z</time>
      </trkpt>
      <trkpt lat="45.86987" lon="6.21815">
        <ele>672</ele>
        <time>2013-05-30T03:58:29.000Z</time>
      </trkpt>
      <trkpt lat="45.8699" lon="6.21815">
        <ele>672</ele>
        <time>2013-05-30T03:58:30.000Z</time>
      </trkpt>
      <trkpt lat="45.86993" lon="6.21814">
        <ele>672</ele>
        <time>2013-05-30T03:58:31.000Z</time>
      </trkpt>
      <trkpt lat="45.86996" lon="6.21814">
        <ele>672</ele>
        <time>2013-05-30T03:58:32.000Z</time>
      </trkpt>
      <trkpt lat="45.86999" lon="6.21813">
        <ele>672</ele>
        <time>2013-05-30T03:58:33.000Z</time>
      </trkpt>
      <trkpt lat="45.87001" lon="6.21813">
        <ele>671</ele>
        <time>2013-05-30T03:58:34.000Z</time>
      </trkpt>
      <trkpt lat="45.87004" lon="6.21812">
        <ele>671</ele>
        <time>2013-05-30T03:58:35.000Z</time>
      </trkpt>
      <trkpt lat="45.87007" lon="6.21811">
        <ele>671</ele>
        <time>2013-05-30T03:58:36.000Z</time>
      </trkpt>
      <trkpt lat="45.87009" lon="6.2181">
        <ele>671</ele>
        <time>2013-05-30T03:58:37.000Z</time>
      </trkpt>
      <trkpt lat="45.87012" lon="6.21809">
        <ele>670</ele>
        <time>2013-05-30T03:58:38.000Z</time>
      </trkpt>
      <trkpt lat="45.87015" lon="6.21808">
        <ele>670</ele>
        <time>2013-05-30T03:58:39.000Z</time>
      </trkpt>
      <trkpt lat="45.87018" lon="6.21808">
        <ele>670</ele>
        <time>2013-05-30T03:58:40.000Z</time>
      </trkpt>
      <trkpt lat="45.87021" lon="6.21807">
        <ele>670</ele>
        <time>2013-05-30T03:58:41.000Z</time>
      </trkpt>
      <trkpt lat="45.87024" lon="6.21805">
        <ele>670</ele>
        <time>2013-05-30T03:58:42.000Z</time>
      </trkpt>
      <trkpt lat="45.87027" lon="6.21804">
        <ele>669</ele>
        <time>2013-05-30T03:58:43.000Z</time>
      </trkpt>
      <trkpt lat="45.8703" lon="6.21804">
        <ele>669</ele>
        <time>2013-05-30T03:58:44.000Z</time>
      </trkpt>
      <trkpt lat="45.87032" lon="6.21803">
        <ele>669</ele>
        <time>2013-05-30T03:58:45.000Z</time>
      </trkpt>
      <trkpt lat="45.87035" lon="6.21801">
        <ele>669</ele>
        <time>2013-05-30T03:58:46.000Z</time>
      </trkpt>
      <trkpt lat="45.87038" lon="6.218">
        <ele>669</ele>
        <time>2013-05-30T03:58:47.000Z</time>
      </trkpt>
      <trkpt lat="45.8704" lon="6.21798">
        <ele>669</ele>
        <time>2013-05-30T03:58:48.000Z</time>
      </trkpt>
      <trkpt lat="45.87043" lon="6.21796">
        <ele>669</ele>
        <time>2013-05-30T03:58:49.000Z</time>
      </trkpt>
      <trkpt lat="45.87046" lon="6.21794">
        <ele>668</ele>
        <time>2013-05-30T03:58:50.000Z</time>
      </trkpt>
      <trkpt lat="45.87048" lon="6.21793">
        <ele>668</ele>
        <time>2013-05-30T03:58:51.000Z</time>
      </trkpt>
      <trkpt lat="45.87051" lon="6.21791">
        <ele>668</ele>
        <time>2013-05-30T03:58:52.000Z</time>
      </trkpt>
      <trkpt lat="45.87054" lon="6.21791">
        <ele>668</ele>
        <time>2013-05-30T03:58:53.000Z</time>
      </trkpt>
      <trkpt lat="45.87057" lon="6.2179">
        <ele>668</ele>
        <time>2013-05-30T03:58:54.000Z</time>
      </trkpt>
      <trkpt lat="45.8706" lon="6.21789">
        <ele>668</ele>
        <time>2013-05-30T03:58:55.000Z</time>
      </trkpt>
      <trkpt lat="45.87062" lon="6.21788">
        <ele>668</ele>
        <time>2013-05-30T03:58:56.000Z</time>
      </trkpt>
      <trkpt lat="45.87065" lon="6.21788">
        <ele>668</ele>
        <time>2013-05-30T03:58:57.000Z</time>
      </trkpt>
      <trkpt lat="45.87067" lon="6.21787">
        <ele>668</ele>
        <time>2013-05-30T03:58:58.000Z</time>
      </trkpt>
      <trkpt lat="45.8707" lon="6.21786">
        <ele>667</ele>
        <time>2013-05-30T03:58:59.000Z</time>
      </trkpt>
      <trkpt lat="45.87072" lon="6.21785">
        <ele>667</ele>
        <time>2013-05-30T03:59:00.000Z</time>
      </trkpt>
      <trkpt lat="45.87075" lon="6.21784">
        <ele>667</ele>
        <time>2013-05-30T03:59:01.000Z</time>
      </trkpt>
      <trkpt lat="45.87078" lon="6.21783">
        <ele>667</ele>
        <time>2013-05-30T03:59:02.000Z</time>
      </trkpt>
      <trkpt lat="45.8708" lon="6.21782">
        <ele>667</ele>
        <time>2013-05-30T03:59:03.000Z</time>
      </trkpt>
      <trkpt lat="45.87083" lon="6.21781">
        <ele>667</ele>
        <time>2013-05-30T03:59:04.000Z</time>
      </trkpt>
      <trkpt lat="45.87085" lon="6.2178">
        <ele>666</ele>
        <time>2013-05-30T03:59:05.000Z</time>
      </trkpt>
      <trkpt lat="45.87088" lon="6.21779">
        <ele>665</ele>
        <time>2013-05-30T03:59:06.000Z</time>
      </trkpt>
      <trkpt lat="45.87091" lon="6.21777">
        <ele>665</ele>
        <time>2013-05-30T03:59:07.000Z</time>
      </trkpt>
      <trkpt lat="45.87093" lon="6.21777">
        <ele>665</ele>
        <time>2013-05-30T03:59:08.000Z</time>
      </trkpt>
      <trkpt lat="45.87096" lon="6.21776">
        <ele>665</ele>
        <time>2013-05-30T03:59:09.000Z</time>
      </trkpt>
      <trkpt lat="45.87098" lon="6.21775">
        <ele>665</ele>
        <time>2013-05-30T03:59:10.000Z</time>
      </trkpt>
      <trkpt lat="45.87101" lon="6.21774">
        <ele>665</ele>
        <time>2013-05-30T03:59:11.000Z</time>
      </trkpt>
      <trkpt lat="45.87104" lon="6.21774">
        <ele>665</ele>
        <time>2013-05-30T03:59:12.000Z</time>
      </trkpt>
      <trkpt lat="45.87107" lon="6.21773">
        <ele>665</ele>
        <time>2013-05-30T03:59:13.000Z</time>
      </trkpt>
      <trkpt lat="45.8711" lon="6.21773">
        <ele>665</ele>
        <time>2013-05-30T03:59:14.000Z</time>
      </trkpt>
      <trkpt lat="45.87112" lon="6.21773">
        <ele>665</ele>
        <time>2013-05-30T03:59:15.000Z</time>
      </trkpt>
      <trkpt lat="45.87115" lon="6.21772">
        <ele>665</ele>
        <time>2013-05-30T03:59:16.000Z</time>
      </trkpt>
      <trkpt lat="45.87118" lon="6.21772">
        <ele>665</ele>
        <time>2013-05-30T03:59:17.000Z</time>
      </trkpt>
      <trkpt lat="45.8712" lon="6.21771">
        <ele>665</ele>
        <time>2013-05-30T03:59:18.000Z</time>
      </trkpt>
      <trkpt lat="45.87123" lon="6.2177">
        <ele>665</ele>
        <time>2013-05-30T03:59:19.000Z</time>
      </trkpt>
      <trkpt lat="45.87126" lon="6.21769">
        <ele>665</ele>
        <time>2013-05-30T03:59:20.000Z</time>
      </trkpt>
      <trkpt lat="45.87129" lon="6.21768">
        <ele>665</ele>
        <time>2013-05-30T03:59:21.000Z</time>
      </trkpt>
      <trkpt lat="45.87131" lon="6.21767">
        <ele>665</ele>
        <time>2013-05-30T03:59:22.000Z</time>
      </trkpt>
      <trkpt lat="45.87134" lon="6.21766">
        <ele>665</ele>
        <time>2013-05-30T03:59:23.000Z</time>
      </trkpt>
      <trkpt lat="45.87136" lon="6.21764">
        <ele>665</ele>
        <time>2013-05-30T03:59:24.000Z</time>
      </trkpt>
      <trkpt lat="45.87139" lon="6.21763">
        <ele>664</ele>
        <time>2013-05-30T03:59:25.000Z</time>
      </trkpt>
      <trkpt lat="45.87142" lon="6.21762">
        <ele>664</ele>
        <time>2013-05-30T03:59:26.000Z</time>
      </trkpt>
      <trkpt lat="45.87145" lon="6.21761">
        <ele>664</ele>
        <time>2013-05-30T03:59:27.000Z</time>
      </trkpt>
      <trkpt lat="45.87147" lon="6.21761">
        <ele>664</ele>
        <time>2013-05-30T03:59:28.000Z</time>
      </trkpt>
      <trkpt lat="45.8715" lon="6.21761">
        <ele>663</ele>
        <time>2013-05-30T03:59:29.000Z</time>
      </trkpt>
      <trkpt lat="45.87153" lon="6.2176">
        <ele>663</ele>
        <time>2013-05-30T03:59:30.000Z</time>
      </trkpt>
      <trkpt lat="45.87156" lon="6.2176">
        <ele>663</ele>
        <time>2013-05-30T03:59:31.000Z</time>
      </trkpt>
      <trkpt lat="45.87159" lon="6.21759">
        <ele>662</ele>
        <time>2013-05-30T03:59:32.000Z</time>
      </trkpt>
      <trkpt lat="45.87161" lon="6.21759">
        <ele>662</ele>
        <time>2013-05-30T03:59:33.000Z</time>
      </trkpt>
      <trkpt lat="45.87164" lon="6.21758">
        <ele>661</ele>
        <time>2013-05-30T03:59:34.000Z</time>
      </trkpt>
      <trkpt lat="45.87166" lon="6.21757">
        <ele>661</ele>
        <time>2013-05-30T03:59:35.000Z</time>
      </trkpt>
      <trkpt lat="45.87169" lon="6.21757">
        <ele>661</ele>
        <time>2013-05-30T03:59:36.000Z</time>
      </trkpt>
      <trkpt lat="45.87172" lon="6.21757">
        <ele>661</ele>
        <time>2013-05-30T03:59:37.000Z</time>
      </trkpt>
      <trkpt lat="45.87175" lon="6.21756">
        <ele>661</ele>
        <time>2013-05-30T03:59:38.000Z</time>
      </trkpt>
      <trkpt lat="45.87178" lon="6.21756">
        <ele>662</ele>
        <time>2013-05-30T03:59:39.000Z</time>
      </trkpt>
      <trkpt lat="45.8718" lon="6.21755">
        <ele>662</ele>
        <time>2013-05-30T03:59:40.000Z</time>
      </trkpt>
      <trkpt lat="45.87183" lon="6.21755">
        <ele>662</ele>
        <time>2013-05-30T03:59:41.000Z</time>
      </trkpt>
      <trkpt lat="45.87186" lon="6.21755">
        <ele>662</ele>
        <time>2013-05-30T03:59:42.000Z</time>
      </trkpt>
      <trkpt lat="45.87189" lon="6.21755">
        <ele>663</ele>
        <time>2013-05-30T03:59:43.000Z</time>
      </trkpt>
      <trkpt lat="45.87191" lon="6.21754">
        <ele>663</ele>
        <time>2013-05-30T03:59:44.000Z</time>
      </trkpt>
      <trkpt lat="45.87194" lon="6.21754">
        <ele>663</ele>
        <time>2013-05-30T03:59:45.000Z</time>
      </trkpt>
      <trkpt lat="45.87196" lon="6.21754">
        <ele>663</ele>
        <time>2013-05-30T03:59:46.000Z</time>
      </trkpt>
      <trkpt lat="45.87199" lon="6.21753">
        <ele>663</ele>
        <time>2013-05-30T03:59:47.000Z</time>
      </trkpt>
      <trkpt lat="45.87201" lon="6.21753">
        <ele>663</ele>
        <time>2013-05-30T03:59:48.000Z</time>
      </trkpt>
      <trkpt lat="45.87204" lon="6.21753">
        <ele>663</ele>
        <time>2013-05-30T03:59:49.000Z</time>
      </trkpt>
      <trkpt lat="45.87207" lon="6.21753">
        <ele>663</ele>
        <time>2013-05-30T03:59:50.000Z</time>
      </trkpt>
      <trkpt lat="45.8721" lon="6.21752">
        <ele>663</ele>
        <time>2013-05-30T03:59:51.000Z</time>
      </trkpt>
      <trkpt lat="45.87213" lon="6.21752">
        <ele>663</ele>
        <time>2013-05-30T03:59:52.000Z</time>
      </trkpt>
      <trkpt lat="45.87216" lon="6.21752">
        <ele>663</ele>
        <time>2013-05-30T03:59:53.000Z</time>
      </trkpt>
      <trkpt lat="45.87219" lon="6.21752">
        <ele>663</ele>
        <time>2013-05-30T03:59:54.000Z</time>
      </trkpt>
      <trkpt lat="45.87222" lon="6.21751">
        <ele>663</ele>
        <time>2013-05-30T03:59:55.000Z</time>
      </trkpt>
      <trkpt lat="45.87224" lon="6.21751">
        <ele>663</ele>
        <time>2013-05-30T03:59:56.000Z</time>
      </trkpt>
      <trkpt lat="45.87227" lon="6.2175">
        <ele>662</ele>
        <time>2013-05-30T03:59:57.000Z</time>
      </trkpt>
      <trkpt lat="45.87229" lon="6.2175">
        <ele>654</ele>
        <time>2013-05-30T03:59:58.000Z</time>
      </trkpt>
      <trkpt lat="45.87232" lon="6.2175">
        <ele>655</ele>
        <time>2013-05-30T03:59:59.000Z</time>
      </trkpt>
      <trkpt lat="45.87235" lon="6.21749">
        <ele>655</ele>
        <time>2013-05-30T04:00:00.000Z</time>
      </trkpt>
      <trkpt lat="45.87237" lon="6.21749">
        <ele>655</ele>
        <time>2013-05-30T04:00:01.000Z</time>
      </trkpt>
      <trkpt lat="45.8724" lon="6.21749">
        <ele>656</ele>
        <time>2013-05-30T04:00:02.000Z</time>
      </trkpt>
      <trkpt lat="45.87242" lon="6.21748">
        <ele>656</ele>
        <time>2013-05-30T04:00:03.000Z</time>
      </trkpt>
      <trkpt lat="45.87245" lon="6.21748">
        <ele>657</ele>
        <time>2013-05-30T04:00:04.000Z</time>
      </trkpt>
      <trkpt lat="45.87247" lon="6.21748">
        <ele>657</ele>
        <time>2013-05-30T04:00:05.000Z</time>
      </trkpt>
      <trkpt lat="45.8725" lon="6.21748">
        <ele>657</ele>
        <time>2013-05-30T04:00:06.000Z</time>
      </trkpt>
      <trkpt lat="45.87253" lon="6.21747">
        <ele>657</ele>
        <time>2013-05-30T04:00:07.000Z</time>
      </trkpt>
      <trkpt lat="45.87256" lon="6.21747">
        <ele>657</ele>
        <time>2013-05-30T04:00:08.000Z</time>
      </trkpt>
      <trkpt lat="45.87258" lon="6.21746">
        <ele>656</ele>
        <time>2013-05-30T04:00:09.000Z</time>
      </trkpt>
      <trkpt lat="45.87261" lon="6.21745">
        <ele>656</ele>
        <time>2013-05-30T04:00:10.000Z</time>
      </trkpt>
      <trkpt lat="45.87264" lon="6.21745">
        <ele>656</ele>
        <time>2013-05-30T04:00:11.000Z</time>
      </trkpt>
      <trkpt lat="45.87267" lon="6.21744">
        <ele>655</ele>
        <time>2013-05-30T04:00:12.000Z</time>
      </trkpt>
      <trkpt lat="45.8727" lon="6.21743">
        <ele>655</ele>
        <time>2013-05-30T04:00:13.000Z</time>
      </trkpt>
      <trkpt lat="45.87272" lon="6.21742">
        <ele>655</ele>
        <time>2013-05-30T04:00:14.000Z</time>
      </trkpt>
      <trkpt lat="45.87275" lon="6.21741">
        <ele>655</ele>
        <time>2013-05-30T04:00:15.000Z</time>
      </trkpt>
      <trkpt lat="45.87278" lon="6.21741">
        <ele>655</ele>
        <time>2013-05-30T04:00:16.000Z</time>
      </trkpt>
      <trkpt lat="45.8728" lon="6.2174">
        <ele>655</ele>
        <time>2013-05-30T04:00:17.000Z</time>
      </trkpt>
      <trkpt lat="45.87283" lon="6.21739">
        <ele>655</ele>
        <time>2013-05-30T04:00:18.000Z</time>
      </trkpt>
      <trkpt lat="45.87285" lon="6.21738">
        <ele>655</ele>
        <time>2013-05-30T04:00:19.000Z</time>
      </trkpt>
      <trkpt lat="45.87288" lon="6.21737">
        <ele>655</ele>
        <time>2013-05-30T04:00:20.000Z</time>
      </trkpt>
      <trkpt lat="45.87291" lon="6.21736">
        <ele>655</ele>
        <time>2013-05-30T04:00:21.000Z</time>
      </trkpt>
      <trkpt lat="45.87293" lon="6.21735">
        <ele>655</ele>
        <time>2013-05-30T04:00:22.000Z</time>
      </trkpt>
      <trkpt lat="45.87296" lon="6.21734">
        <ele>655</ele>
        <time>2013-05-30T04:00:23.000Z</time>
      </trkpt>
      <trkpt lat="45.87298" lon="6.21733">
        <ele>655</ele>
        <time>2013-05-30T04:00:24.000Z</time>
      </trkpt>
      <trkpt lat="45.87301" lon="6.21732">
        <ele>655</ele>
        <time>2013-05-30T04:00:25.000Z</time>
      </trkpt>
      <trkpt lat="45.87303" lon="6.21731">
        <ele>655</ele>
        <time>2013-05-30T04:00:26.000Z</time>
      </trkpt>
      <trkpt lat="45.87306" lon="6.2173">
        <ele>655</ele>
        <time>2013-05-30T04:00:27.000Z</time>
      </trkpt>
      <trkpt lat="45.87308" lon="6.21729">
        <ele>655</ele>
        <time>2013-05-30T04:00:28.000Z</time>
      </trkpt>
      <trkpt lat="45.87311" lon="6.21728">
        <ele>655</ele>
        <time>2013-05-30T04:00:29.000Z</time>
      </trkpt>
      <trkpt lat="45.87313" lon="6.21727">
        <ele>655</ele>
        <time>2013-05-30T04:00:30.000Z</time>
      </trkpt>
      <trkpt lat="45.87316" lon="6.21726">
        <ele>655</ele>
        <time>2013-05-30T04:00:31.000Z</time>
      </trkpt>
      <trkpt lat="45.87319" lon="6.21725">
        <ele>655</ele>
        <time>2013-05-30T04:00:32.000Z</time>
      </trkpt>
      <trkpt lat="45.87321" lon="6.21724">
        <ele>655</ele>
        <time>2013-05-30T04:00:33.000Z</time>
      </trkpt>
      <trkpt lat="45.87324" lon="6.21723">
        <ele>655</ele>
        <time>2013-05-30T04:00:34.000Z</time>
      </trkpt>
      <trkpt lat="45.87326" lon="6.21722">
        <ele>655</ele>
        <time>2013-05-30T04:00:35.000Z</time>
      </trkpt>
      <trkpt lat="45.87329" lon="6.21721">
        <ele>655</ele>
        <time>2013-05-30T04:00:36.000Z</time>
      </trkpt>
      <trkpt lat="45.87331" lon="6.21719">
        <ele>655</ele>
        <time>2013-05-30T04:00:37.000Z</time>
      </trkpt>
      <trkpt lat="45.87334" lon="6.21718">
        <ele>657</ele>
        <time>2013-05-30T04:00:38.000Z</time>
      </trkpt>
      <trkpt lat="45.87336" lon="6.21717">
        <ele>657</ele>
        <time>2013-05-30T04:00:39.000Z</time>
      </trkpt>
      <trkpt lat="45.87339" lon="6.21716">
        <ele>656</ele>
        <time>2013-05-30T04:00:40.000Z</time>
      </trkpt>
      <trkpt lat="45.87342" lon="6.21715">
        <ele>656</ele>
        <time>2013-05-30T04:00:41.000Z</time>
      </trkpt>
      <trkpt lat="45.87344" lon="6.21714">
        <ele>656</ele>
        <time>2013-05-30T04:00:42.000Z</time>
      </trkpt>
      <trkpt lat="45.87347" lon="6.21713">
        <ele>656</ele>
        <time>2013-05-30T04:00:43.000Z</time>
      </trkpt>
      <trkpt lat="45.8735" lon="6.21712">
        <ele>656</ele>
        <time>2013-05-30T04:00:44.000Z</time>
      </trkpt>
      <trkpt lat="45.87352" lon="6.21711">
        <ele>656</ele>
        <time>2013-05-30T04:00:45.000Z</time>
      </trkpt>
      <trkpt lat="45.87354" lon="6.2171">
        <ele>656</ele>
        <time>2013-05-30T04:00:46.000Z</time>
      </trkpt>
      <trkpt lat="45.87357" lon="6.21709">
        <ele>656</ele>
        <time>2013-05-30T04:00:47.000Z</time>
      </trkpt>
      <trkpt lat="45.87359" lon="6.21708">
        <ele>656</ele>
        <time>2013-05-30T04:00:48.000Z</time>
      </trkpt>
      <trkpt lat="45.87362" lon="6.21707">
        <ele>656</ele>
        <time>2013-05-30T04:00:49.000Z</time>
      </trkpt>
      <trkpt lat="45.87365" lon="6.21706">
        <ele>656</ele>
        <time>2013-05-30T04:00:50.000Z</time>
      </trkpt>
      <trkpt lat="45.87367" lon="6.21705">
        <ele>656</ele>
        <time>2013-05-30T04:00:51.000Z</time>
      </trkpt>
      <trkpt lat="45.8737" lon="6.21704">
        <ele>656</ele>
        <time>2013-05-30T04:00:52.000Z</time>
      </trkpt>
      <trkpt lat="45.87373" lon="6.21703">
        <ele>656</ele>
        <time>2013-05-30T04:00:53.000Z</time>
      </trkpt>
      <trkpt lat="45.87376" lon="6.21702">
        <ele>656</ele>
        <time>2013-05-30T04:00:54.000Z</time>
      </trkpt>
      <trkpt lat="45.87378" lon="6.217">
        <ele>656</ele>
        <time>2013-05-30T04:00:55.000Z</time>
      </trkpt>
      <trkpt lat="45.87381" lon="6.217">
        <ele>656</ele>
        <time>2013-05-30T04:00:56.000Z</time>
      </trkpt>
      <trkpt lat="45.87383" lon="6.21699">
        <ele>656</ele>
        <time>2013-05-30T04:00:57.000Z</time>
      </trkpt>
      <trkpt lat="45.87386" lon="6.21698">
        <ele>656</ele>
        <time>2013-05-30T04:00:58.000Z</time>
      </trkpt>
      <trkpt lat="45.87389" lon="6.21698">
        <ele>656</ele>
        <time>2013-05-30T04:00:59.000Z</time>
      </trkpt>
      <trkpt lat="45.87391" lon="6.21697">
        <ele>656</ele>
        <time>2013-05-30T04:01:00.000Z</time>
      </trkpt>
      <trkpt lat="45.87393" lon="6.21695">
        <ele>656</ele>
        <time>2013-05-30T04:01:01.000Z</time>
      </trkpt>
      <trkpt lat="45.87396" lon="6.21694">
        <ele>656</ele>
        <time>2013-05-30T04:01:02.000Z</time>
      </trkpt>
      <trkpt lat="45.87398" lon="6.21693">
        <ele>656</ele>
        <time>2013-05-30T04:01:03.000Z</time>
      </trkpt>
      <trkpt lat="45.87401" lon="6.21692">
        <ele>655</ele>
        <time>2013-05-30T04:01:04.000Z</time>
      </trkpt>
      <trkpt lat="45.87403" lon="6.21691">
        <ele>655</ele>
        <time>2013-05-30T04:01:05.000Z</time>
      </trkpt>
      <trkpt lat="45.87405" lon="6.2169">
        <ele>655</ele>
        <time>2013-05-30T04:01:06.000Z</time>
      </trkpt>
      <trkpt lat="45.87408" lon="6.21688">
        <ele>655</ele>
        <time>2013-05-30T04:01:07.000Z</time>
      </trkpt>
      <trkpt lat="45.8741" lon="6.21687">
        <ele>655</ele>
        <time>2013-05-30T04:01:08.000Z</time>
      </trkpt>
      <trkpt lat="45.87412" lon="6.21687">
        <ele>655</ele>
        <time>2013-05-30T04:01:09.000Z</time>
      </trkpt>
      <trkpt lat="45.87415" lon="6.21686">
        <ele>655</ele>
        <time>2013-05-30T04:01:10.000Z</time>
      </trkpt>
      <trkpt lat="45.87417" lon="6.21685">
        <ele>655</ele>
        <time>2013-05-30T04:01:11.000Z</time>
      </trkpt>
      <trkpt lat="45.8742" lon="6.21684">
        <ele>655</ele>
        <time>2013-05-30T04:01:12.000Z</time>
      </trkpt>
      <trkpt lat="45.87422" lon="6.21683">
        <ele>654</ele>
        <time>2013-05-30T04:01:13.000Z</time>
      </trkpt>
      <trkpt lat="45.87424" lon="6.21682">
        <ele>654</ele>
        <time>2013-05-30T04:01:14.000Z</time>
      </trkpt>
      <trkpt lat="45.87427" lon="6.2168">
        <ele>654</ele>
        <time>2013-05-30T04:01:15.000Z</time>
      </trkpt>
      <trkpt lat="45.87429" lon="6.21679">
        <ele>654</ele>
        <time>2013-05-30T04:01:16.000Z</time>
      </trkpt>
      <trkpt lat="45.87432" lon="6.21678">
        <ele>654</ele>
        <time>2013-05-30T04:01:17.000Z</time>
      </trkpt>
      <trkpt lat="45.87434" lon="6.21677">
        <ele>654</ele>
        <time>2013-05-30T04:01:18.000Z</time>
      </trkpt>
      <trkpt lat="45.87437" lon="6.21676">
        <ele>654</ele>
        <time>2013-05-30T04:01:19.000Z</time>
      </trkpt>
      <trkpt lat="45.87439" lon="6.21675">
        <ele>654</ele>
        <time>2013-05-30T04:01:20.000Z</time>
      </trkpt>
      <trkpt lat="45.87442" lon="6.21674">
        <ele>654</ele>
        <time>2013-05-30T04:01:21.000Z</time>
      </trkpt>
      <trkpt lat="45.87445" lon="6.21673">
        <ele>654</ele>
        <time>2013-05-30T04:01:22.000Z</time>
      </trkpt>
      <trkpt lat="45.87447" lon="6.21672">
        <ele>654</ele>
        <time>2013-05-30T04:01:23.000Z</time>
      </trkpt>
      <trkpt lat="45.87449" lon="6.2167">
        <ele>654</ele>
        <time>2013-05-30T04:01:24.000Z</time>
      </trkpt>
      <trkpt lat="45.87452" lon="6.21669">
        <ele>654</ele>
        <time>2013-05-30T04:01:25.000Z</time>
      </trkpt>
      <trkpt lat="45.87454" lon="6.21667">
        <ele>654</ele>
        <time>2013-05-30T04:01:26.000Z</time>
      </trkpt>
      <trkpt lat="45.87456" lon="6.21665">
        <ele>650</ele>
        <time>2013-05-30T04:01:27.000Z</time>
      </trkpt>
      <trkpt lat="45.87458" lon="6.21663">
        <ele>650</ele>
        <time>2013-05-30T04:01:28.000Z</time>
      </trkpt>
      <trkpt lat="45.87459" lon="6.2166">
        <ele>650</ele>
        <time>2013-05-30T04:01:29.000Z</time>
      </trkpt>
      <trkpt lat="45.87461" lon="6.21658">
        <ele>650</ele>
        <time>2013-05-30T04:01:30.000Z</time>
      </trkpt>
      <trkpt lat="45.87463" lon="6.21655">
        <ele>650</ele>
        <time>2013-05-30T04:01:31.000Z</time>
      </trkpt>
      <trkpt lat="45.87464" lon="6.21653">
        <ele>650</ele>
        <time>2013-05-30T04:01:32.000Z</time>
      </trkpt>
      <trkpt lat="45.87466" lon="6.2165">
        <ele>650</ele>
        <time>2013-05-30T04:01:33.000Z</time>
      </trkpt>
      <trkpt lat="45.87467" lon="6.21647">
        <ele>650</ele>
        <time>2013-05-30T04:01:34.000Z</time>
      </trkpt>
      <trkpt lat="45.87469" lon="6.21644">
        <ele>649</ele>
        <time>2013-05-30T04:01:35.000Z</time>
      </trkpt>
      <trkpt lat="45.8747" lon="6.21641">
        <ele>649</ele>
        <time>2013-05-30T04:01:36.000Z</time>
      </trkpt>
      <trkpt lat="45.87471" lon="6.21639">
        <ele>649</ele>
        <time>2013-05-30T04:01:37.000Z</time>
      </trkpt>
      <trkpt lat="45.87472" lon="6.21636">
        <ele>649</ele>
        <time>2013-05-30T04:01:38.000Z</time>
      </trkpt>
      <trkpt lat="45.87474" lon="6.21632">
        <ele>649</ele>
        <time>2013-05-30T04:01:39.000Z</time>
      </trkpt>
      <trkpt lat="45.87474" lon="6.21629">
        <ele>649</ele>
        <time>2013-05-30T04:01:40.000Z</time>
      </trkpt>
      <trkpt lat="45.87475" lon="6.21625">
        <ele>649</ele>
        <time>2013-05-30T04:01:41.000Z</time>
      </trkpt>
      <trkpt lat="45.87476" lon="6.21622">
        <ele>649</ele>
        <time>2013-05-30T04:01:42.000Z</time>
      </trkpt>
      <trkpt lat="45.87476" lon="6.21618">
        <ele>649</ele>
        <time>2013-05-30T04:01:43.000Z</time>
      </trkpt>
      <trkpt lat="45.87477" lon="6.21614">
        <ele>649</ele>
        <time>2013-05-30T04:01:44.000Z</time>
      </trkpt>
      <trkpt lat="45.87477" lon="6.2161">
        <ele>649</ele>
        <time>2013-05-30T04:01:45.000Z</time>
      </trkpt>
      <trkpt lat="45.87478" lon="6.21607">
        <ele>648</ele>
        <time>2013-05-30T04:01:46.000Z</time>
      </trkpt>
      <trkpt lat="45.87478" lon="6.21603">
        <ele>648</ele>
        <time>2013-05-30T04:01:47.000Z</time>
      </trkpt>
      <trkpt lat="45.87478" lon="6.21599">
        <ele>648</ele>
        <time>2013-05-30T04:01:48.000Z</time>
      </trkpt>
      <trkpt lat="45.87478" lon="6.21596">
        <ele>648</ele>
        <time>2013-05-30T04:01:49.000Z</time>
      </trkpt>
      <trkpt lat="45.87478" lon="6.21592">
        <ele>648</ele>
        <time>2013-05-30T04:01:50.000Z</time>
      </trkpt>
      <trkpt lat="45.87478" lon="6.21589">
        <ele>648</ele>
        <time>2013-05-30T04:01:51.000Z</time>
      </trkpt>
      <trkpt lat="45.87478" lon="6.21585">
        <ele>648</ele>
        <time>2013-05-30T04:01:52.000Z</time>
      </trkpt>
      <trkpt lat="45.87478" lon="6.21581">
        <ele>647</ele>
        <time>2013-05-30T04:01:53.000Z</time>
      </trkpt>
      <trkpt lat="45.87478" lon="6.21578">
        <ele>647</ele>
        <time>2013-05-30T04:01:54.000Z</time>
      </trkpt>
      <trkpt lat="45.87478" lon="6.21575">
        <ele>647</ele>
        <time>2013-05-30T04:01:55.000Z</time>
      </trkpt>
      <trkpt lat="45.87478" lon="6.21571">
        <ele>647</ele>
        <time>2013-05-30T04:01:56.000Z</time>
      </trkpt>
      <trkpt lat="45.87478" lon="6.21568">
        <ele>647</ele>
        <time>2013-05-30T04:01:57.000Z</time>
      </trkpt>
      <trkpt lat="45.87478" lon="6.21564">
        <ele>647</ele>
        <time>2013-05-30T04:01:58.000Z</time>
      </trkpt>
      <trkpt lat="45.87478" lon="6.2156">
        <ele>647</ele>
        <time>2013-05-30T04:01:59.000Z</time>
      </trkpt>
      <trkpt lat="45.87477" lon="6.21556">
        <ele>647</ele>
        <time>2013-05-30T04:02:00.000Z</time>
      </trkpt>
      <trkpt lat="45.87477" lon="6.21553">
        <ele>647</ele>
        <time>2013-05-30T04:02:01.000Z</time>
      </trkpt>
      <trkpt lat="45.87477" lon="6.21549">
        <ele>647</ele>
        <time>2013-05-30T04:02:02.000Z</time>
      </trkpt>
      <trkpt lat="45.87477" lon="6.21545">
        <ele>647</ele>
        <time>2013-05-30T04:02:03.000Z</time>
      </trkpt>
      <trkpt lat="45.87477" lon="6.21542">
        <ele>647</ele>
        <time>2013-05-30T04:02:04.000Z</time>
      </trkpt>
      <trkpt lat="45.87477" lon="6.21538">
        <ele>647</ele>
        <time>2013-05-30T04:02:05.000Z</time>
      </trkpt>
      <trkpt lat="45.87476" lon="6.21535">
        <ele>647</ele>
        <time>2013-05-30T04:02:06.000Z</time>
      </trkpt>
      <trkpt lat="45.87476" lon="6.21531">
        <ele>647</ele>
        <time>2013-05-30T04:02:07.000Z</time>
      </trkpt>
      <trkpt lat="45.87476" lon="6.21528">
        <ele>647</ele>
        <time>2013-05-30T04:02:08.000Z</time>
      </trkpt>
      <trkpt lat="45.87476" lon="6.21524">
        <ele>647</ele>
        <time>2013-05-30T04:02:09.000Z</time>
      </trkpt>
      <trkpt lat="45.87476" lon="6.21521">
        <ele>647</ele>
        <time>2013-05-30T04:02:10.000Z</time>
      </trkpt>
      <trkpt lat="45.87476" lon="6.21518">
        <ele>647</ele>
        <time>2013-05-30T04:02:11.000Z</time>
      </trkpt>
      <trkpt lat="45.87476" lon="6.21514">
        <ele>647</ele>
        <time>2013-05-30T04:02:12.000Z</time>
      </trkpt>
      <trkpt lat="45.87475" lon="6.21511">
        <ele>647</ele>
        <time>2013-05-30T04:02:13.000Z</time>
      </trkpt>
      <trkpt lat="45.87475" lon="6.21507">
        <ele>647</ele>
        <time>2013-05-30T04:02:14.000Z</time>
      </trkpt>
      <trkpt lat="45.87475" lon="6.21504">
        <ele>647</ele>
        <time>2013-05-30T04:02:15.000Z</time>
      </trkpt>
      <trkpt lat="45.87475" lon="6.215">
        <ele>646</ele>
        <time>2013-05-30T04:02:16.000Z</time>
      </trkpt>
      <trkpt lat="45.87474" lon="6.21496">
        <ele>646</ele>
        <time>2013-05-30T04:02:17.000Z</time>
      </trkpt>
      <trkpt lat="45.87473" lon="6.21493">
        <ele>646</ele>
        <time>2013-05-30T04:02:18.000Z</time>
      </trkpt>
      <trkpt lat="45.87473" lon="6.21489">
        <ele>646</ele>
        <time>2013-05-30T04:02:19.000Z</time>
      </trkpt>
      <trkpt lat="45.87472" lon="6.21485">
        <ele>646</ele>
        <time>2013-05-30T04:02:20.000Z</time>
      </trkpt>
      <trkpt lat="45.87471" lon="6.21482">
        <ele>646</ele>
        <time>2013-05-30T04:02:21.000Z</time>
      </trkpt>
      <trkpt lat="45.87469" lon="6.21479">
        <ele>646</ele>
        <time>2013-05-30T04:02:22.000Z</time>
      </trkpt>
      <trkpt lat="45.87468" lon="6.21476">
        <ele>646</ele>
        <time>2013-05-30T04:02:23.000Z</time>
      </trkpt>
      <trkpt lat="45.87466" lon="6.21473">
        <ele>646</ele>
        <time>2013-05-30T04:02:24.000Z</time>
      </trkpt>
      <trkpt lat="45.87464" lon="6.2147">
        <ele>646</ele>
        <time>2013-05-30T04:02:25.000Z</time>
      </trkpt>
      <trkpt lat="45.87463" lon="6.21467">
        <ele>646</ele>
        <time>2013-05-30T04:02:26.000Z</time>
      </trkpt>
      <trkpt lat="45.87462" lon="6.21465">
        <ele>646</ele>
        <time>2013-05-30T04:02:27.000Z</time>
      </trkpt>
      <trkpt lat="45.87461" lon="6.21462">
        <ele>646</ele>
        <time>2013-05-30T04:02:28.000Z</time>
      </trkpt>
      <trkpt lat="45.87459" lon="6.21459">
        <ele>646</ele>
        <time>2013-05-30T04:02:29.000Z</time>
      </trkpt>
      <trkpt lat="45.87458" lon="6.21456">
        <ele>646</ele>
        <time>2013-05-30T04:02:30.000Z</time>
      </trkpt>
      <trkpt lat="45.87456" lon="6.21453">
        <ele>647</ele>
        <time>2013-05-30T04:02:31.000Z</time>
      </trkpt>
      <trkpt lat="45.87455" lon="6.2145">
        <ele>647</ele>
        <time>2013-05-30T04:02:32.000Z</time>
      </trkpt>
      <trkpt lat="45.87453" lon="6.21447">
        <ele>647</ele>
        <time>2013-05-30T04:02:33.000Z</time>
      </trkpt>
      <trkpt lat="45.87452" lon="6.21444">
        <ele>647</ele>
        <time>2013-05-30T04:02:34.000Z</time>
      </trkpt>
      <trkpt lat="45.87452" lon="6.2144">
        <ele>646</ele>
        <time>2013-05-30T04:02:35.000Z</time>
      </trkpt>
      <trkpt lat="45.87452" lon="6.21437">
        <ele>646</ele>
        <time>2013-05-30T04:02:36.000Z</time>
      </trkpt>
      <trkpt lat="45.87451" lon="6.21433">
        <ele>646</ele>
        <time>2013-05-30T04:02:37.000Z</time>
      </trkpt>
      <trkpt lat="45.87451" lon="6.2143">
        <ele>646</ele>
        <time>2013-05-30T04:02:38.000Z</time>
      </trkpt>
      <trkpt lat="45.87452" lon="6.21426">
        <ele>646</ele>
        <time>2013-05-30T04:02:39.000Z</time>
      </trkpt>
      <trkpt lat="45.87452" lon="6.21422">
        <ele>646</ele>
        <time>2013-05-30T04:02:40.000Z</time>
      </trkpt>
      <trkpt lat="45.87453" lon="6.21418">
        <ele>646</ele>
        <time>2013-05-30T04:02:41.000Z</time>
      </trkpt>
      <trkpt lat="45.87453" lon="6.21414">
        <ele>643</ele>
        <time>2013-05-30T04:02:42.000Z</time>
      </trkpt>
      <trkpt lat="45.87453" lon="6.2141">
        <ele>643</ele>
        <time>2013-05-30T04:02:43.000Z</time>
      </trkpt>
      <trkpt lat="45.87453" lon="6.21407">
        <ele>643</ele>
        <time>2013-05-30T04:02:44.000Z</time>
      </trkpt>
      <trkpt lat="45.87454" lon="6.21403">
        <ele>643</ele>
        <time>2013-05-30T04:02:45.000Z</time>
      </trkpt>
      <trkpt lat="45.87455" lon="6.214">
        <ele>643</ele>
        <time>2013-05-30T04:02:46.000Z</time>
      </trkpt>
      <trkpt lat="45.87457" lon="6.21398">
        <ele>642</ele>
        <time>2013-05-30T04:02:47.000Z</time>
      </trkpt>
      <trkpt lat="45.8746" lon="6.21399">
        <ele>642</ele>
        <time>2013-05-30T04:02:48.000Z</time>
      </trkpt>
      <trkpt lat="45.87462" lon="6.21401">
        <ele>642</ele>
        <time>2013-05-30T04:02:49.000Z</time>
      </trkpt>
      <trkpt lat="45.87465" lon="6.21402">
        <ele>642</ele>
        <time>2013-05-30T04:02:50.000Z</time>
      </trkpt>
      <trkpt lat="45.87468" lon="6.21403">
        <ele>642</ele>
        <time>2013-05-30T04:02:51.000Z</time>
      </trkpt>
      <trkpt lat="45.8747" lon="6.21404">
        <ele>642</ele>
        <time>2013-05-30T04:02:52.000Z</time>
      </trkpt>
      <trkpt lat="45.87473" lon="6.21405">
        <ele>642</ele>
        <time>2013-05-30T04:02:53.000Z</time>
      </trkpt>
      <trkpt lat="45.87475" lon="6.21405">
        <ele>642</ele>
        <time>2013-05-30T04:02:54.000Z</time>
      </trkpt>
      <trkpt lat="45.87478" lon="6.21406">
        <ele>642</ele>
        <time>2013-05-30T04:02:55.000Z</time>
      </trkpt>
      <trkpt lat="45.87481" lon="6.21407">
        <ele>642</ele>
        <time>2013-05-30T04:02:56.000Z</time>
      </trkpt>
      <trkpt lat="45.87483" lon="6.21409">
        <ele>642</ele>
        <time>2013-05-30T04:02:57.000Z</time>
      </trkpt>
      <trkpt lat="45.87485" lon="6.21411">
        <ele>642</ele>
        <time>2013-05-30T04:02:58.000Z</time>
      </trkpt>
      <trkpt lat="45.87488" lon="6.21413">
        <ele>642</ele>
        <time>2013-05-30T04:02:59.000Z</time>
      </trkpt>
      <trkpt lat="45.8749" lon="6.21415">
        <ele>642</ele>
        <time>2013-05-30T04:03:00.000Z</time>
      </trkpt>
      <trkpt lat="45.87492" lon="6.21418">
        <ele>643</ele>
        <time>2013-05-30T04:03:01.000Z</time>
      </trkpt>
      <trkpt lat="45.87494" lon="6.2142">
        <ele>643</ele>
        <time>2013-05-30T04:03:02.000Z</time>
      </trkpt>
      <trkpt lat="45.87496" lon="6.21423">
        <ele>643</ele>
        <time>2013-05-30T04:03:03.000Z</time>
      </trkpt>
      <trkpt lat="45.87498" lon="6.21425">
        <ele>643</ele>
        <time>2013-05-30T04:03:04.000Z</time>
      </trkpt>
      <trkpt lat="45.875" lon="6.21428">
        <ele>642</ele>
        <time>2013-05-30T04:03:05.000Z</time>
      </trkpt>
      <trkpt lat="45.87502" lon="6.2143">
        <ele>642</ele>
        <time>2013-05-30T04:03:06.000Z</time>
      </trkpt>
      <trkpt lat="45.87504" lon="6.21433">
        <ele>642</ele>
        <time>2013-05-30T04:03:07.000Z</time>
      </trkpt>
      <trkpt lat="45.87506" lon="6.21435">
        <ele>642</ele>
        <time>2013-05-30T04:03:08.000Z</time>
      </trkpt>
      <trkpt lat="45.87508" lon="6.21438">
        <ele>641</ele>
        <time>2013-05-30T04:03:09.000Z</time>
      </trkpt>
      <trkpt lat="45.8751" lon="6.2144">
        <ele>641</ele>
        <time>2013-05-30T04:03:10.000Z</time>
      </trkpt>
      <trkpt lat="45.87512" lon="6.21443">
        <ele>641</ele>
        <time>2013-05-30T04:03:11.000Z</time>
      </trkpt>
      <trkpt lat="45.87514" lon="6.21445">
        <ele>641</ele>
        <time>2013-05-30T04:03:12.000Z</time>
      </trkpt>
      <trkpt lat="45.87516" lon="6.21448">
        <ele>641</ele>
        <time>2013-05-30T04:03:13.000Z</time>
      </trkpt>
      <trkpt lat="45.87519" lon="6.21451">
        <ele>641</ele>
        <time>2013-05-30T04:03:14.000Z</time>
      </trkpt>
      <trkpt lat="45.87521" lon="6.21454">
        <ele>641</ele>
        <time>2013-05-30T04:03:15.000Z</time>
      </trkpt>
      <trkpt lat="45.87523" lon="6.21457">
        <ele>641</ele>
        <time>2013-05-30T04:03:16.000Z</time>
      </trkpt>
      <trkpt lat="45.87525" lon="6.2146">
        <ele>641</ele>
        <time>2013-05-30T04:03:17.000Z</time>
      </trkpt>
      <trkpt lat="45.87527" lon="6.21463">
        <ele>641</ele>
        <time>2013-05-30T04:03:18.000Z</time>
      </trkpt>
      <trkpt lat="45.87529" lon="6.21466">
        <ele>641</ele>
        <time>2013-05-30T04:03:19.000Z</time>
      </trkpt>
      <trkpt lat="45.87531" lon="6.21468">
        <ele>641</ele>
        <time>2013-05-30T04:03:20.000Z</time>
      </trkpt>
      <trkpt lat="45.87533" lon="6.21471">
        <ele>641</ele>
        <time>2013-05-30T04:03:21.000Z</time>
      </trkpt>
      <trkpt lat="45.87535" lon="6.21474">
        <ele>641</ele>
        <time>2013-05-30T04:03:22.000Z</time>
      </trkpt>
      <trkpt lat="45.87537" lon="6.21477">
        <ele>641</ele>
        <time>2013-05-30T04:03:23.000Z</time>
      </trkpt>
      <trkpt lat="45.87539" lon="6.2148">
        <ele>641</ele>
        <time>2013-05-30T04:03:24.000Z</time>
      </trkpt>
      <trkpt lat="45.87541" lon="6.21482">
        <ele>641</ele>
        <time>2013-05-30T04:03:25.000Z</time>
      </trkpt>
      <trkpt lat="45.87543" lon="6.21485">
        <ele>641</ele>
        <time>2013-05-30T04:03:26.000Z</time>
      </trkpt>
      <trkpt lat="45.87545" lon="6.21488">
        <ele>641</ele>
        <time>2013-05-30T04:03:27.000Z</time>
      </trkpt>
      <trkpt lat="45.87547" lon="6.2149">
        <ele>641</ele>
        <time>2013-05-30T04:03:28.000Z</time>
      </trkpt>
      <trkpt lat="45.87549" lon="6.21493">
        <ele>641</ele>
        <time>2013-05-30T04:03:29.000Z</time>
      </trkpt>
      <trkpt lat="45.87551" lon="6.21495">
        <ele>641</ele>
        <time>2013-05-30T04:03:30.000Z</time>
      </trkpt>
      <trkpt lat="45.87553" lon="6.21498">
        <ele>641</ele>
        <time>2013-05-30T04:03:31.000Z</time>
      </trkpt>
      <trkpt lat="45.87555" lon="6.21501">
        <ele>641</ele>
        <time>2013-05-30T04:03:32.000Z</time>
      </trkpt>
      <trkpt lat="45.87557" lon="6.21504">
        <ele>641</ele>
        <time>2013-05-30T04:03:33.000Z</time>
      </trkpt>
      <trkpt lat="45.87559" lon="6.21507">
        <ele>641</ele>
        <time>2013-05-30T04:03:34.000Z</time>
      </trkpt>
      <trkpt lat="45.87561" lon="6.21509">
        <ele>641</ele>
        <time>2013-05-30T04:03:35.000Z</time>
      </trkpt>
      <trkpt lat="45.87563" lon="6.21512">
        <ele>641</ele>
        <time>2013-05-30T04:03:36.000Z</time>
      </trkpt>
      <trkpt lat="45.87565" lon="6.21514">
        <ele>641</ele>
        <time>2013-05-30T04:03:37.000Z</time>
      </trkpt>
      <trkpt lat="45.87567" lon="6.21517">
        <ele>641</ele>
        <time>2013-05-30T04:03:38.000Z</time>
      </trkpt>
      <trkpt lat="45.87568" lon="6.2152">
        <ele>641</ele>
        <time>2013-05-30T04:03:39.000Z</time>
      </trkpt>
      <trkpt lat="45.8757" lon="6.21523">
        <ele>641</ele>
        <time>2013-05-30T04:03:40.000Z</time>
      </trkpt>
      <trkpt lat="45.87572" lon="6.21526">
        <ele>641</ele>
        <time>2013-05-30T04:03:41.000Z</time>
      </trkpt>
      <trkpt lat="45.87574" lon="6.21528">
        <ele>641</ele>
        <time>2013-05-30T04:03:42.000Z</time>
      </trkpt>
      <trkpt lat="45.87576" lon="6.21532">
        <ele>641</ele>
        <time>2013-05-30T04:03:43.000Z</time>
      </trkpt>
      <trkpt lat="45.87578" lon="6.21534">
        <ele>641</ele>
        <time>2013-05-30T04:03:44.000Z</time>
      </trkpt>
      <trkpt lat="45.8758" lon="6.21537">
        <ele>641</ele>
        <time>2013-05-30T04:03:45.000Z</time>
      </trkpt>
      <trkpt lat="45.87582" lon="6.21541">
        <ele>641</ele>
        <time>2013-05-30T04:03:46.000Z</time>
      </trkpt>
      <trkpt lat="45.87583" lon="6.21544">
        <ele>641</ele>
        <time>2013-05-30T04:03:47.000Z</time>
      </trkpt>
      <trkpt lat="45.87585" lon="6.21547">
        <ele>637</ele>
        <time>2013-05-30T04:03:48.000Z</time>
      </trkpt>
      <trkpt lat="45.87587" lon="6.2155">
        <ele>637</ele>
        <time>2013-05-30T04:03:49.000Z</time>
      </trkpt>
      <trkpt lat="45.87588" lon="6.21553">
        <ele>637</ele>
        <time>2013-05-30T04:03:50.000Z</time>
      </trkpt>
      <trkpt lat="45.87591" lon="6.21556">
        <ele>637</ele>
        <time>2013-05-30T04:03:51.000Z</time>
      </trkpt>
      <trkpt lat="45.87592" lon="6.21559">
        <ele>638</ele>
        <time>2013-05-30T04:03:52.000Z</time>
      </trkpt>
      <trkpt lat="45.87594" lon="6.21562">
        <ele>638</ele>
        <time>2013-05-30T04:03:53.000Z</time>
      </trkpt>
      <trkpt lat="45.87596" lon="6.21565">
        <ele>638</ele>
        <time>2013-05-30T04:03:54.000Z</time>
      </trkpt>
      <trkpt lat="45.87598" lon="6.21568">
        <ele>638</ele>
        <time>2013-05-30T04:03:55.000Z</time>
      </trkpt>
      <trkpt lat="45.876" lon="6.21571">
        <ele>638</ele>
        <time>2013-05-30T04:03:56.000Z</time>
      </trkpt>
      <trkpt lat="45.87602" lon="6.21574">
        <ele>638</ele>
        <time>2013-05-30T04:03:57.000Z</time>
      </trkpt>
      <trkpt lat="45.87603" lon="6.21577">
        <ele>638</ele>
        <time>2013-05-30T04:03:58.000Z</time>
      </trkpt>
      <trkpt lat="45.87605" lon="6.2158">
        <ele>637</ele>
        <time>2013-05-30T04:03:59.000Z</time>
      </trkpt>
      <trkpt lat="45.87607" lon="6.21583">
        <ele>637</ele>
        <time>2013-05-30T04:04:00.000Z</time>
      </trkpt>
      <trkpt lat="45.87608" lon="6.21586">
        <ele>639</ele>
        <time>2013-05-30T04:04:01.000Z</time>
      </trkpt>
      <trkpt lat="45.8761" lon="6.21589">
        <ele>639</ele>
        <time>2013-05-30T04:04:02.000Z</time>
      </trkpt>
      <trkpt lat="45.87611" lon="6.21591">
        <ele>639</ele>
        <time>2013-05-30T04:04:03.000Z</time>
      </trkpt>
      <trkpt lat="45.87613" lon="6.21595">
        <ele>639</ele>
        <time>2013-05-30T04:04:04.000Z</time>
      </trkpt>
      <trkpt lat="45.87615" lon="6.21597">
        <ele>639</ele>
        <time>2013-05-30T04:04:05.000Z</time>
      </trkpt>
      <trkpt lat="45.87617" lon="6.216">
        <ele>639</ele>
        <time>2013-05-30T04:04:06.000Z</time>
      </trkpt>
      <trkpt lat="45.87619" lon="6.21603">
        <ele>639</ele>
        <time>2013-05-30T04:04:07.000Z</time>
      </trkpt>
      <trkpt lat="45.8762" lon="6.21606">
        <ele>638</ele>
        <time>2013-05-30T04:04:08.000Z</time>
      </trkpt>
      <trkpt lat="45.87622" lon="6.21609">
        <ele>638</ele>
        <time>2013-05-30T04:04:09.000Z</time>
      </trkpt>
      <trkpt lat="45.87624" lon="6.21612">
        <ele>638</ele>
        <time>2013-05-30T04:04:10.000Z</time>
      </trkpt>
      <trkpt lat="45.87625" lon="6.21614">
        <ele>638</ele>
        <time>2013-05-30T04:04:11.000Z</time>
      </trkpt>
      <trkpt lat="45.87627" lon="6.21617">
        <ele>638</ele>
        <time>2013-05-30T04:04:12.000Z</time>
      </trkpt>
      <trkpt lat="45.87628" lon="6.2162">
        <ele>638</ele>
        <time>2013-05-30T04:04:13.000Z</time>
      </trkpt>
      <trkpt lat="45.8763" lon="6.21622">
        <ele>638</ele>
        <time>2013-05-30T04:04:14.000Z</time>
      </trkpt>
      <trkpt lat="45.87632" lon="6.21625">
        <ele>638</ele>
        <time>2013-05-30T04:04:15.000Z</time>
      </trkpt>
      <trkpt lat="45.87633" lon="6.21628">
        <ele>639</ele>
        <time>2013-05-30T04:04:16.000Z</time>
      </trkpt>
      <trkpt lat="45.87635" lon="6.2163">
        <ele>639</ele>
        <time>2013-05-30T04:04:17.000Z</time>
      </trkpt>
      <trkpt lat="45.87637" lon="6.21633">
        <ele>639</ele>
        <time>2013-05-30T04:04:18.000Z</time>
      </trkpt>
      <trkpt lat="45.87639" lon="6.21635">
        <ele>639</ele>
        <time>2013-05-30T04:04:19.000Z</time>
      </trkpt>
      <trkpt lat="45.8764" lon="6.21638">
        <ele>639</ele>
        <time>2013-05-30T04:04:20.000Z</time>
      </trkpt>
      <trkpt lat="45.87642" lon="6.21641">
        <ele>639</ele>
        <time>2013-05-30T04:04:21.000Z</time>
      </trkpt>
      <trkpt lat="45.87644" lon="6.21644">
        <ele>639</ele>
        <time>2013-05-30T04:04:22.000Z</time>
      </trkpt>
      <trkpt lat="45.87646" lon="6.21646">
        <ele>639</ele>
        <time>2013-05-30T04:04:23.000Z</time>
      </trkpt>
      <trkpt lat="45.87647" lon="6.21649">
        <ele>639</ele>
        <time>2013-05-30T04:04:24.000Z</time>
      </trkpt>
      <trkpt lat="45.87649" lon="6.21652">
        <ele>638</ele>
        <time>2013-05-30T04:04:25.000Z</time>
      </trkpt>
      <trkpt lat="45.8765" lon="6.21655">
        <ele>638</ele>
        <time>2013-05-30T04:04:26.000Z</time>
      </trkpt>
      <trkpt lat="45.87652" lon="6.21657">
        <ele>638</ele>
        <time>2013-05-30T04:04:27.000Z</time>
      </trkpt>
      <trkpt lat="45.87654" lon="6.2166">
        <ele>638</ele>
        <time>2013-05-30T04:04:28.000Z</time>
      </trkpt>
      <trkpt lat="45.87656" lon="6.21663">
        <ele>638</ele>
        <time>2013-05-30T04:04:29.000Z</time>
      </trkpt>
      <trkpt lat="45.87658" lon="6.21665">
        <ele>638</ele>
        <time>2013-05-30T04:04:30.000Z</time>
      </trkpt>
      <trkpt lat="45.8766" lon="6.21667">
        <ele>640</ele>
        <time>2013-05-30T04:04:31.000Z</time>
      </trkpt>
      <trkpt lat="45.87661" lon="6.2167">
        <ele>640</ele>
        <time>2013-05-30T04:04:32.000Z</time>
      </trkpt>
      <trkpt lat="45.87663" lon="6.21672">
        <ele>640</ele>
        <time>2013-05-30T04:04:33.000Z</time>
      </trkpt>
      <trkpt lat="45.87665" lon="6.21675">
        <ele>640</ele>
        <time>2013-05-30T04:04:34.000Z</time>
      </trkpt>
      <trkpt lat="45.87667" lon="6.21678">
        <ele>638</ele>
        <time>2013-05-30T04:04:35.000Z</time>
      </trkpt>
      <trkpt lat="45.87669" lon="6.2168">
        <ele>638</ele>
        <time>2013-05-30T04:04:36.000Z</time>
      </trkpt>
      <trkpt lat="45.87671" lon="6.21682">
        <ele>638</ele>
        <time>2013-05-30T04:04:37.000Z</time>
      </trkpt>
      <trkpt lat="45.87673" lon="6.21685">
        <ele>638</ele>
        <time>2013-05-30T04:04:38.000Z</time>
      </trkpt>
      <trkpt lat="45.87675" lon="6.21687">
        <ele>638</ele>
        <time>2013-05-30T04:04:39.000Z</time>
      </trkpt>
      <trkpt lat="45.87676" lon="6.21689">
        <ele>638</ele>
        <time>2013-05-30T04:04:40.000Z</time>
      </trkpt>
      <trkpt lat="45.87678" lon="6.21691">
        <ele>638</ele>
        <time>2013-05-30T04:04:41.000Z</time>
      </trkpt>
      <trkpt lat="45.8768" lon="6.21694">
        <ele>638</ele>
        <time>2013-05-30T04:04:42.000Z</time>
      </trkpt>
      <trkpt lat="45.87682" lon="6.21696">
        <ele>638</ele>
        <time>2013-05-30T04:04:43.000Z</time>
      </trkpt>
      <trkpt lat="45.87684" lon="6.21698">
        <ele>638</ele>
        <time>2013-05-30T04:04:44.000Z</time>
      </trkpt>
      <trkpt lat="45.87686" lon="6.21701">
        <ele>638</ele>
        <time>2013-05-30T04:04:45.000Z</time>
      </trkpt>
      <trkpt lat="45.87688" lon="6.21703">
        <ele>638</ele>
        <time>2013-05-30T04:04:46.000Z</time>
      </trkpt>
      <trkpt lat="45.8769" lon="6.21705">
        <ele>638</ele>
        <time>2013-05-30T04:04:47.000Z</time>
      </trkpt>
      <trkpt lat="45.87692" lon="6.21708">
        <ele>638</ele>
        <time>2013-05-30T04:04:48.000Z</time>
      </trkpt>
      <trkpt lat="45.87694" lon="6.21711">
        <ele>638</ele>
        <time>2013-05-30T04:04:49.000Z</time>
      </trkpt>
      <trkpt lat="45.87696" lon="6.21713">
        <ele>638</ele>
        <time>2013-05-30T04:04:50.000Z</time>
      </trkpt>
      <trkpt lat="45.87698" lon="6.21715">
        <ele>638</ele>
        <time>2013-05-30T04:04:51.000Z</time>
      </trkpt>
      <trkpt lat="45.877" lon="6.21717">
        <ele>638</ele>
        <time>2013-05-30T04:04:52.000Z</time>
      </trkpt>
      <trkpt lat="45.87703" lon="6.21719">
        <ele>638</ele>
        <time>2013-05-30T04:04:53.000Z</time>
      </trkpt>
      <trkpt lat="45.87705" lon="6.21721">
        <ele>638</ele>
        <time>2013-05-30T04:04:54.000Z</time>
      </trkpt>
      <trkpt lat="45.87707" lon="6.21723">
        <ele>637</ele>
        <time>2013-05-30T04:04:55.000Z</time>
      </trkpt>
      <trkpt lat="45.8771" lon="6.21725">
        <ele>637</ele>
        <time>2013-05-30T04:04:56.000Z</time>
      </trkpt>
      <trkpt lat="45.87712" lon="6.21727">
        <ele>637</ele>
        <time>2013-05-30T04:04:57.000Z</time>
      </trkpt>
      <trkpt lat="45.87714" lon="6.21729">
        <ele>637</ele>
        <time>2013-05-30T04:04:58.000Z</time>
      </trkpt>
      <trkpt lat="45.87716" lon="6.21731">
        <ele>637</ele>
        <time>2013-05-30T04:04:59.000Z</time>
      </trkpt>
      <trkpt lat="45.87718" lon="6.21734">
        <ele>637</ele>
        <time>2013-05-30T04:05:00.000Z</time>
      </trkpt>
      <trkpt lat="45.87719" lon="6.21736">
        <ele>637</ele>
        <time>2013-05-30T04:05:01.000Z</time>
      </trkpt>
      <trkpt lat="45.87722" lon="6.21738">
        <ele>637</ele>
        <time>2013-05-30T04:05:02.000Z</time>
      </trkpt>
      <trkpt lat="45.87723" lon="6.21741">
        <ele>637</ele>
        <time>2013-05-30T04:05:03.000Z</time>
      </trkpt>
      <trkpt lat="45.87725" lon="6.21743">
        <ele>637</ele>
        <time>2013-05-30T04:05:04.000Z</time>
      </trkpt>
      <trkpt lat="45.87727" lon="6.21745">
        <ele>637</ele>
        <time>2013-05-30T04:05:05.000Z</time>
      </trkpt>
      <trkpt lat="45.8773" lon="6.21747">
        <ele>636</ele>
        <time>2013-05-30T04:05:06.000Z</time>
      </trkpt>
      <trkpt lat="45.87732" lon="6.21749">
        <ele>636</ele>
        <time>2013-05-30T04:05:07.000Z</time>
      </trkpt>
      <trkpt lat="45.87734" lon="6.21751">
        <ele>640</ele>
        <time>2013-05-30T04:05:08.000Z</time>
      </trkpt>
      <trkpt lat="45.87736" lon="6.21753">
        <ele>639</ele>
        <time>2013-05-30T04:05:09.000Z</time>
      </trkpt>
      <trkpt lat="45.87738" lon="6.21755">
        <ele>639</ele>
        <time>2013-05-30T04:05:10.000Z</time>
      </trkpt>
      <trkpt lat="45.8774" lon="6.21758">
        <ele>639</ele>
        <time>2013-05-30T04:05:11.000Z</time>
      </trkpt>
      <trkpt lat="45.87743" lon="6.2176">
        <ele>639</ele>
        <time>2013-05-30T04:05:12.000Z</time>
      </trkpt>
      <trkpt lat="45.87744" lon="6.21762">
        <ele>639</ele>
        <time>2013-05-30T04:05:13.000Z</time>
      </trkpt>
      <trkpt lat="45.87746" lon="6.21764">
        <ele>640</ele>
        <time>2013-05-30T04:05:14.000Z</time>
      </trkpt>
      <trkpt lat="45.87749" lon="6.21766">
        <ele>640</ele>
        <time>2013-05-30T04:05:15.000Z</time>
      </trkpt>
      <trkpt lat="45.87751" lon="6.21768">
        <ele>635</ele>
        <time>2013-05-30T04:05:16.000Z</time>
      </trkpt>
      <trkpt lat="45.87753" lon="6.21769">
        <ele>635</ele>
        <time>2013-05-30T04:05:17.000Z</time>
      </trkpt>
      <trkpt lat="45.87755" lon="6.21771">
        <ele>635</ele>
        <time>2013-05-30T04:05:18.000Z</time>
      </trkpt>
      <trkpt lat="45.87758" lon="6.21773">
        <ele>635</ele>
        <time>2013-05-30T04:05:19.000Z</time>
      </trkpt>
      <trkpt lat="45.8776" lon="6.21775">
        <ele>635</ele>
        <time>2013-05-30T04:05:20.000Z</time>
      </trkpt>
      <trkpt lat="45.87763" lon="6.21776">
        <ele>635</ele>
        <time>2013-05-30T04:05:21.000Z</time>
      </trkpt>
      <trkpt lat="45.87765" lon="6.21778">
        <ele>635</ele>
        <time>2013-05-30T04:05:22.000Z</time>
      </trkpt>
      <trkpt lat="45.87768" lon="6.2178">
        <ele>635</ele>
        <time>2013-05-30T04:05:23.000Z</time>
      </trkpt>
      <trkpt lat="45.8777" lon="6.21782">
        <ele>635</ele>
        <time>2013-05-30T04:05:24.000Z</time>
      </trkpt>
      <trkpt lat="45.87773" lon="6.21784">
        <ele>635</ele>
        <time>2013-05-30T04:05:25.000Z</time>
      </trkpt>
      <trkpt lat="45.87775" lon="6.21786">
        <ele>635</ele>
        <time>2013-05-30T04:05:26.000Z</time>
      </trkpt>
      <trkpt lat="45.87777" lon="6.21788">
        <ele>635</ele>
        <time>2013-05-30T04:05:27.000Z</time>
      </trkpt>
      <trkpt lat="45.87779" lon="6.21789">
        <ele>635</ele>
        <time>2013-05-30T04:05:28.000Z</time>
      </trkpt>
      <trkpt lat="45.87781" lon="6.21791">
        <ele>635</ele>
        <time>2013-05-30T04:05:29.000Z</time>
      </trkpt>
      <trkpt lat="45.87783" lon="6.21793">
        <ele>635</ele>
        <time>2013-05-30T04:05:30.000Z</time>
      </trkpt>
      <trkpt lat="45.87785" lon="6.21795">
        <ele>635</ele>
        <time>2013-05-30T04:05:31.000Z</time>
      </trkpt>
      <trkpt lat="45.87787" lon="6.21797">
        <ele>635</ele>
        <time>2013-05-30T04:05:32.000Z</time>
      </trkpt>
      <trkpt lat="45.87789" lon="6.21799">
        <ele>635</ele>
        <time>2013-05-30T04:05:33.000Z</time>
      </trkpt>
      <trkpt lat="45.87791" lon="6.21801">
        <ele>635</ele>
        <time>2013-05-30T04:05:34.000Z</time>
      </trkpt>
      <trkpt lat="45.87794" lon="6.21803">
        <ele>634</ele>
        <time>2013-05-30T04:05:35.000Z</time>
      </trkpt>
      <trkpt lat="45.87796" lon="6.21804">
        <ele>634</ele>
        <time>2013-05-30T04:05:36.000Z</time>
      </trkpt>
      <trkpt lat="45.87798" lon="6.21806">
        <ele>634</ele>
        <time>2013-05-30T04:05:37.000Z</time>
      </trkpt>
      <trkpt lat="45.878" lon="6.21808">
        <ele>634</ele>
        <time>2013-05-30T04:05:38.000Z</time>
      </trkpt>
      <trkpt lat="45.87803" lon="6.21809">
        <ele>634</ele>
        <time>2013-05-30T04:05:39.000Z</time>
      </trkpt>
      <trkpt lat="45.87805" lon="6.21811">
        <ele>634</ele>
        <time>2013-05-30T04:05:40.000Z</time>
      </trkpt>
      <trkpt lat="45.87807" lon="6.21813">
        <ele>634</ele>
        <time>2013-05-30T04:05:41.000Z</time>
      </trkpt>
      <trkpt lat="45.87809" lon="6.21815">
        <ele>634</ele>
        <time>2013-05-30T04:05:42.000Z</time>
      </trkpt>
      <trkpt lat="45.87811" lon="6.21817">
        <ele>634</ele>
        <time>2013-05-30T04:05:43.000Z</time>
      </trkpt>
      <trkpt lat="45.87814" lon="6.21819">
        <ele>633</ele>
        <time>2013-05-30T04:05:44.000Z</time>
      </trkpt>
      <trkpt lat="45.87816" lon="6.21821">
        <ele>633</ele>
        <time>2013-05-30T04:05:45.000Z</time>
      </trkpt>
      <trkpt lat="45.87818" lon="6.21822">
        <ele>633</ele>
        <time>2013-05-30T04:05:46.000Z</time>
      </trkpt>
      <trkpt lat="45.87821" lon="6.21824">
        <ele>633</ele>
        <time>2013-05-30T04:05:47.000Z</time>
      </trkpt>
      <trkpt lat="45.87823" lon="6.21826">
        <ele>633</ele>
        <time>2013-05-30T04:05:48.000Z</time>
      </trkpt>
      <trkpt lat="45.87825" lon="6.21828">
        <ele>633</ele>
        <time>2013-05-30T04:05:49.000Z</time>
      </trkpt>
      <trkpt lat="45.87827" lon="6.2183">
        <ele>633</ele>
        <time>2013-05-30T04:05:50.000Z</time>
      </trkpt>
      <trkpt lat="45.8783" lon="6.21832">
        <ele>632</ele>
        <time>2013-05-30T04:05:51.000Z</time>
      </trkpt>
      <trkpt lat="45.87832" lon="6.21833">
        <ele>632</ele>
        <time>2013-05-30T04:05:52.000Z</time>
      </trkpt>
      <trkpt lat="45.87834" lon="6.21835">
        <ele>632</ele>
        <time>2013-05-30T04:05:53.000Z</time>
      </trkpt>
      <trkpt lat="45.87836" lon="6.21837">
        <ele>632</ele>
        <time>2013-05-30T04:05:54.000Z</time>
      </trkpt>
      <trkpt lat="45.87839" lon="6.21838">
        <ele>632</ele>
        <time>2013-05-30T04:05:55.000Z</time>
      </trkpt>
      <trkpt lat="45.87841" lon="6.2184">
        <ele>633</ele>
        <time>2013-05-30T04:05:56.000Z</time>
      </trkpt>
      <trkpt lat="45.87844" lon="6.21841">
        <ele>633</ele>
        <time>2013-05-30T04:05:57.000Z</time>
      </trkpt>
      <trkpt lat="45.87846" lon="6.21843">
        <ele>633</ele>
        <time>2013-05-30T04:05:58.000Z</time>
      </trkpt>
      <trkpt lat="45.87848" lon="6.21844">
        <ele>633</ele>
        <time>2013-05-30T04:05:59.000Z</time>
      </trkpt>
      <trkpt lat="45.87851" lon="6.21846">
        <ele>633</ele>
        <time>2013-05-30T04:06:00.000Z</time>
      </trkpt>
      <trkpt lat="45.87853" lon="6.21848">
        <ele>633</ele>
        <time>2013-05-30T04:06:01.000Z</time>
      </trkpt>
      <trkpt lat="45.87855" lon="6.21849">
        <ele>633</ele>
        <time>2013-05-30T04:06:02.000Z</time>
      </trkpt>
      <trkpt lat="45.87858" lon="6.21851">
        <ele>633</ele>
        <time>2013-05-30T04:06:03.000Z</time>
      </trkpt>
      <trkpt lat="45.8786" lon="6.21853">
        <ele>633</ele>
        <time>2013-05-30T04:06:04.000Z</time>
      </trkpt>
      <trkpt lat="45.87862" lon="6.21855">
        <ele>633</ele>
        <time>2013-05-30T04:06:05.000Z</time>
      </trkpt>
      <trkpt lat="45.87864" lon="6.21857">
        <ele>633</ele>
        <time>2013-05-30T04:06:06.000Z</time>
      </trkpt>
      <trkpt lat="45.87866" lon="6.21859">
        <ele>633</ele>
        <time>2013-05-30T04:06:07.000Z</time>
      </trkpt>
      <trkpt lat="45.87869" lon="6.21861">
        <ele>633</ele>
        <time>2013-05-30T04:06:08.000Z</time>
      </trkpt>
      <trkpt lat="45.87871" lon="6.21863">
        <ele>633</ele>
        <time>2013-05-30T04:06:09.000Z</time>
      </trkpt>
      <trkpt lat="45.87873" lon="6.21865">
        <ele>633</ele>
        <time>2013-05-30T04:06:10.000Z</time>
      </trkpt>
      <trkpt lat="45.87876" lon="6.21867">
        <ele>633</ele>
        <time>2013-05-30T04:06:11.000Z</time>
      </trkpt>
      <trkpt lat="45.87878" lon="6.21868">
        <ele>633</ele>
        <time>2013-05-30T04:06:12.000Z</time>
      </trkpt>
      <trkpt lat="45.87881" lon="6.2187">
        <ele>633</ele>
        <time>2013-05-30T04:06:13.000Z</time>
      </trkpt>
      <trkpt lat="45.87883" lon="6.21873">
        <ele>633</ele>
        <time>2013-05-30T04:06:14.000Z</time>
      </trkpt>
      <trkpt lat="45.87886" lon="6.21874">
        <ele>633</ele>
        <time>2013-05-30T04:06:15.000Z</time>
      </trkpt>
      <trkpt lat="45.87888" lon="6.21876">
        <ele>633</ele>
        <time>2013-05-30T04:06:16.000Z</time>
      </trkpt>
      <trkpt lat="45.8789" lon="6.21878">
        <ele>633</ele>
        <time>2013-05-30T04:06:17.000Z</time>
      </trkpt>
      <trkpt lat="45.87893" lon="6.2188">
        <ele>633</ele>
        <time>2013-05-30T04:06:18.000Z</time>
      </trkpt>
      <trkpt lat="45.87896" lon="6.21882">
        <ele>633</ele>
        <time>2013-05-30T04:06:19.000Z</time>
      </trkpt>
      <trkpt lat="45.87898" lon="6.21884">
        <ele>633</ele>
        <time>2013-05-30T04:06:20.000Z</time>
      </trkpt>
      <trkpt lat="45.87901" lon="6.21886">
        <ele>633</ele>
        <time>2013-05-30T04:06:21.000Z</time>
      </trkpt>
      <trkpt lat="45.87903" lon="6.21888">
        <ele>633</ele>
        <time>2013-05-30T04:06:22.000Z</time>
      </trkpt>
      <trkpt lat="45.87905" lon="6.21889">
        <ele>633</ele>
        <time>2013-05-30T04:06:23.000Z</time>
      </trkpt>
      <trkpt lat="45.87908" lon="6.21891">
        <ele>633</ele>
        <time>2013-05-30T04:06:24.000Z</time>
      </trkpt>
      <trkpt lat="45.8791" lon="6.21893">
        <ele>633</ele>
        <time>2013-05-30T04:06:25.000Z</time>
      </trkpt>
      <trkpt lat="45.87913" lon="6.21895">
        <ele>633</ele>
        <time>2013-05-30T04:06:26.000Z</time>
      </trkpt>
      <trkpt lat="45.87915" lon="6.21897">
        <ele>633</ele>
        <time>2013-05-30T04:06:27.000Z</time>
      </trkpt>
      <trkpt lat="45.87918" lon="6.21899">
        <ele>628</ele>
        <time>2013-05-30T04:06:28.000Z</time>
      </trkpt>
      <trkpt lat="45.87921" lon="6.219">
        <ele>629</ele>
        <time>2013-05-30T04:06:29.000Z</time>
      </trkpt>
      <trkpt lat="45.87923" lon="6.21902">
        <ele>629</ele>
        <time>2013-05-30T04:06:30.000Z</time>
      </trkpt>
      <trkpt lat="45.87926" lon="6.21903">
        <ele>629</ele>
        <time>2013-05-30T04:06:31.000Z</time>
      </trkpt>
      <trkpt lat="45.87928" lon="6.21905">
        <ele>629</ele>
        <time>2013-05-30T04:06:32.000Z</time>
      </trkpt>
      <trkpt lat="45.87931" lon="6.21907">
        <ele>628</ele>
        <time>2013-05-30T04:06:33.000Z</time>
      </trkpt>
      <trkpt lat="45.87933" lon="6.21909">
        <ele>628</ele>
        <time>2013-05-30T04:06:34.000Z</time>
      </trkpt>
      <trkpt lat="45.87936" lon="6.2191">
        <ele>628</ele>
        <time>2013-05-30T04:06:35.000Z</time>
      </trkpt>
      <trkpt lat="45.87938" lon="6.21912">
        <ele>628</ele>
        <time>2013-05-30T04:06:36.000Z</time>
      </trkpt>
      <trkpt lat="45.87941" lon="6.21914">
        <ele>627</ele>
        <time>2013-05-30T04:06:37.000Z</time>
      </trkpt>
      <trkpt lat="45.87943" lon="6.21916">
        <ele>627</ele>
        <time>2013-05-30T04:06:38.000Z</time>
      </trkpt>
      <trkpt lat="45.87945" lon="6.21918">
        <ele>634</ele>
        <time>2013-05-30T04:06:39.000Z</time>
      </trkpt>
      <trkpt lat="45.87948" lon="6.2192">
        <ele>633</ele>
        <time>2013-05-30T04:06:40.000Z</time>
      </trkpt>
      <trkpt lat="45.8795" lon="6.21921">
        <ele>633</ele>
        <time>2013-05-30T04:06:41.000Z</time>
      </trkpt>
      <trkpt lat="45.87952" lon="6.21923">
        <ele>633</ele>
        <time>2013-05-30T04:06:42.000Z</time>
      </trkpt>
      <trkpt lat="45.87955" lon="6.21925">
        <ele>633</ele>
        <time>2013-05-30T04:06:43.000Z</time>
      </trkpt>
      <trkpt lat="45.87957" lon="6.21927">
        <ele>633</ele>
        <time>2013-05-30T04:06:44.000Z</time>
      </trkpt>
      <trkpt lat="45.87959" lon="6.2193">
        <ele>633</ele>
        <time>2013-05-30T04:06:45.000Z</time>
      </trkpt>
      <trkpt lat="45.87962" lon="6.21932">
        <ele>633</ele>
        <time>2013-05-30T04:06:46.000Z</time>
      </trkpt>
      <trkpt lat="45.87965" lon="6.21933">
        <ele>633</ele>
        <time>2013-05-30T04:06:47.000Z</time>
      </trkpt>
      <trkpt lat="45.87967" lon="6.21935">
        <ele>633</ele>
        <time>2013-05-30T04:06:48.000Z</time>
      </trkpt>
      <trkpt lat="45.87969" lon="6.21937">
        <ele>633</ele>
        <time>2013-05-30T04:06:49.000Z</time>
      </trkpt>
      <trkpt lat="45.87972" lon="6.21939">
        <ele>633</ele>
        <time>2013-05-30T04:06:50.000Z</time>
      </trkpt>
      <trkpt lat="45.87974" lon="6.21941">
        <ele>633</ele>
        <time>2013-05-30T04:06:51.000Z</time>
      </trkpt>
      <trkpt lat="45.87977" lon="6.21943">
        <ele>633</ele>
        <time>2013-05-30T04:06:52.000Z</time>
      </trkpt>
      <trkpt lat="45.87979" lon="6.21945">
        <ele>633</ele>
        <time>2013-05-30T04:06:53.000Z</time>
      </trkpt>
      <trkpt lat="45.87981" lon="6.21947">
        <ele>633</ele>
        <time>2013-05-30T04:06:54.000Z</time>
      </trkpt>
      <trkpt lat="45.87984" lon="6.21948">
        <ele>633</ele>
        <time>2013-05-30T04:06:55.000Z</time>
      </trkpt>
      <trkpt lat="45.87987" lon="6.2195">
        <ele>633</ele>
        <time>2013-05-30T04:06:56.000Z</time>
      </trkpt>
      <trkpt lat="45.87989" lon="6.21952">
        <ele>633</ele>
        <time>2013-05-30T04:06:57.000Z</time>
      </trkpt>
      <trkpt lat="45.87992" lon="6.21954">
        <ele>633</ele>
        <time>2013-05-30T04:06:58.000Z</time>
      </trkpt>
      <trkpt lat="45.87994" lon="6.21955">
        <ele>633</ele>
        <time>2013-05-30T04:06:59.000Z</time>
      </trkpt>
      <trkpt lat="45.87996" lon="6.21957">
        <ele>633</ele>
        <time>2013-05-30T04:07:00.000Z</time>
      </trkpt>
      <trkpt lat="45.87999" lon="6.21959">
        <ele>633</ele>
        <time>2013-05-30T04:07:01.000Z</time>
      </trkpt>
      <trkpt lat="45.88001" lon="6.21961">
        <ele>627</ele>
        <time>2013-05-30T04:07:02.000Z</time>
      </trkpt>
      <trkpt lat="45.88004" lon="6.21963">
        <ele>627</ele>
        <time>2013-05-30T04:07:03.000Z</time>
      </trkpt>
      <trkpt lat="45.88006" lon="6.21965">
        <ele>628</ele>
        <time>2013-05-30T04:07:04.000Z</time>
      </trkpt>
      <trkpt lat="45.88008" lon="6.21966">
        <ele>628</ele>
        <time>2013-05-30T04:07:05.000Z</time>
      </trkpt>
      <trkpt lat="45.88011" lon="6.21968">
        <ele>628</ele>
        <time>2013-05-30T04:07:06.000Z</time>
      </trkpt>
      <trkpt lat="45.88013" lon="6.2197">
        <ele>628</ele>
        <time>2013-05-30T04:07:07.000Z</time>
      </trkpt>
      <trkpt lat="45.88015" lon="6.21972">
        <ele>628</ele>
        <time>2013-05-30T04:07:08.000Z</time>
      </trkpt>
      <trkpt lat="45.88018" lon="6.21974">
        <ele>628</ele>
        <time>2013-05-30T04:07:09.000Z</time>
      </trkpt>
      <trkpt lat="45.8802" lon="6.21975">
        <ele>628</ele>
        <time>2013-05-30T04:07:10.000Z</time>
      </trkpt>
      <trkpt lat="45.88023" lon="6.21977">
        <ele>628</ele>
        <time>2013-05-30T04:07:11.000Z</time>
      </trkpt>
      <trkpt lat="45.88025" lon="6.21979">
        <ele>628</ele>
        <time>2013-05-30T04:07:12.000Z</time>
      </trkpt>
      <trkpt lat="45.88027" lon="6.21981">
        <ele>628</ele>
        <time>2013-05-30T04:07:13.000Z</time>
      </trkpt>
      <trkpt lat="45.88029" lon="6.21983">
        <ele>628</ele>
        <time>2013-05-30T04:07:14.000Z</time>
      </trkpt>
      <trkpt lat="45.88032" lon="6.21984">
        <ele>628</ele>
        <time>2013-05-30T04:07:15.000Z</time>
      </trkpt>
      <trkpt lat="45.88034" lon="6.21986">
        <ele>627</ele>
        <time>2013-05-30T04:07:16.000Z</time>
      </trkpt>
      <trkpt lat="45.88037" lon="6.21988">
        <ele>627</ele>
        <time>2013-05-30T04:07:17.000Z</time>
      </trkpt>
      <trkpt lat="45.88039" lon="6.2199">
        <ele>627</ele>
        <time>2013-05-30T04:07:18.000Z</time>
      </trkpt>
      <trkpt lat="45.88042" lon="6.21992">
        <ele>627</ele>
        <time>2013-05-30T04:07:19.000Z</time>
      </trkpt>
      <trkpt lat="45.88044" lon="6.21993">
        <ele>627</ele>
        <time>2013-05-30T04:07:20.000Z</time>
      </trkpt>
      <trkpt lat="45.88046" lon="6.21995">
        <ele>627</ele>
        <time>2013-05-30T04:07:21.000Z</time>
      </trkpt>
      <trkpt lat="45.88049" lon="6.21997">
        <ele>627</ele>
        <time>2013-05-30T04:07:22.000Z</time>
      </trkpt>
      <trkpt lat="45.88051" lon="6.21999">
        <ele>626</ele>
        <time>2013-05-30T04:07:23.000Z</time>
      </trkpt>
      <trkpt lat="45.88053" lon="6.22">
        <ele>633</ele>
        <time>2013-05-30T04:07:24.000Z</time>
      </trkpt>
      <trkpt lat="45.88055" lon="6.22002">
        <ele>633</ele>
        <time>2013-05-30T04:07:25.000Z</time>
      </trkpt>
      <trkpt lat="45.88058" lon="6.22004">
        <ele>633</ele>
        <time>2013-05-30T04:07:26.000Z</time>
      </trkpt>
      <trkpt lat="45.8806" lon="6.22006">
        <ele>632</ele>
        <time>2013-05-30T04:07:27.000Z</time>
      </trkpt>
      <trkpt lat="45.88062" lon="6.22007">
        <ele>632</ele>
        <time>2013-05-30T04:07:28.000Z</time>
      </trkpt>
      <trkpt lat="45.88065" lon="6.22009">
        <ele>632</ele>
        <time>2013-05-30T04:07:29.000Z</time>
      </trkpt>
      <trkpt lat="45.88067" lon="6.22011">
        <ele>632</ele>
        <time>2013-05-30T04:07:30.000Z</time>
      </trkpt>
      <trkpt lat="45.8807" lon="6.22013">
        <ele>631</ele>
        <time>2013-05-30T04:07:31.000Z</time>
      </trkpt>
      <trkpt lat="45.88072" lon="6.22015">
        <ele>631</ele>
        <time>2013-05-30T04:07:32.000Z</time>
      </trkpt>
      <trkpt lat="45.88074" lon="6.22017">
        <ele>631</ele>
        <time>2013-05-30T04:07:33.000Z</time>
      </trkpt>
      <trkpt lat="45.88077" lon="6.22019">
        <ele>632</ele>
        <time>2013-05-30T04:07:34.000Z</time>
      </trkpt>
      <trkpt lat="45.88079" lon="6.22021">
        <ele>632</ele>
        <time>2013-05-30T04:07:35.000Z</time>
      </trkpt>
      <trkpt lat="45.88082" lon="6.22023">
        <ele>632</ele>
        <time>2013-05-30T04:07:36.000Z</time>
      </trkpt>
      <trkpt lat="45.88084" lon="6.22025">
        <ele>627</ele>
        <time>2013-05-30T04:07:37.000Z</time>
      </trkpt>
      <trkpt lat="45.88087" lon="6.22026">
        <ele>627</ele>
        <time>2013-05-30T04:07:38.000Z</time>
      </trkpt>
      <trkpt lat="45.88089" lon="6.22028">
        <ele>628</ele>
        <time>2013-05-30T04:07:39.000Z</time>
      </trkpt>
      <trkpt lat="45.88092" lon="6.2203">
        <ele>628</ele>
        <time>2013-05-30T04:07:40.000Z</time>
      </trkpt>
      <trkpt lat="45.88094" lon="6.22032">
        <ele>628</ele>
        <time>2013-05-30T04:07:41.000Z</time>
      </trkpt>
      <trkpt lat="45.88097" lon="6.22034">
        <ele>628</ele>
        <time>2013-05-30T04:07:42.000Z</time>
      </trkpt>
      <trkpt lat="45.88099" lon="6.22036">
        <ele>628</ele>
        <time>2013-05-30T04:07:43.000Z</time>
      </trkpt>
      <trkpt lat="45.88101" lon="6.22037">
        <ele>628</ele>
        <time>2013-05-30T04:07:44.000Z</time>
      </trkpt>
      <trkpt lat="45.88104" lon="6.22039">
        <ele>628</ele>
        <time>2013-05-30T04:07:45.000Z</time>
      </trkpt>
      <trkpt lat="45.88106" lon="6.22041">
        <ele>628</ele>
        <time>2013-05-30T04:07:46.000Z</time>
      </trkpt>
      <trkpt lat="45.88108" lon="6.22043">
        <ele>628</ele>
        <time>2013-05-30T04:07:47.000Z</time>
      </trkpt>
      <trkpt lat="45.88111" lon="6.22045">
        <ele>628</ele>
        <time>2013-05-30T04:07:48.000Z</time>
      </trkpt>
      <trkpt lat="45.88113" lon="6.22047">
        <ele>628</ele>
        <time>2013-05-30T04:07:49.000Z</time>
      </trkpt>
      <trkpt lat="45.88116" lon="6.22048">
        <ele>628</ele>
        <time>2013-05-30T04:07:50.000Z</time>
      </trkpt>
      <trkpt lat="45.88118" lon="6.2205">
        <ele>628</ele>
        <time>2013-05-30T04:07:51.000Z</time>
      </trkpt>
      <trkpt lat="45.88121" lon="6.22052">
        <ele>628</ele>
        <time>2013-05-30T04:07:52.000Z</time>
      </trkpt>
      <trkpt lat="45.88123" lon="6.22054">
        <ele>628</ele>
        <time>2013-05-30T04:07:53.000Z</time>
      </trkpt>
      <trkpt lat="45.88126" lon="6.22056">
        <ele>628</ele>
        <time>2013-05-30T04:07:54.000Z</time>
      </trkpt>
      <trkpt lat="45.88128" lon="6.22058">
        <ele>628</ele>
        <time>2013-05-30T04:07:55.000Z</time>
      </trkpt>
      <trkpt lat="45.8813" lon="6.2206">
        <ele>628</ele>
        <time>2013-05-30T04:07:56.000Z</time>
      </trkpt>
      <trkpt lat="45.88133" lon="6.22061">
        <ele>628</ele>
        <time>2013-05-30T04:07:57.000Z</time>
      </trkpt>
      <trkpt lat="45.88135" lon="6.22062">
        <ele>628</ele>
        <time>2013-05-30T04:07:58.000Z</time>
      </trkpt>
      <trkpt lat="45.88138" lon="6.22064">
        <ele>628</ele>
        <time>2013-05-30T04:07:59.000Z</time>
      </trkpt>
      <trkpt lat="45.8814" lon="6.22066">
        <ele>628</ele>
        <time>2013-05-30T04:08:00.000Z</time>
      </trkpt>
      <trkpt lat="45.88143" lon="6.22067">
        <ele>627</ele>
        <time>2013-05-30T04:08:01.000Z</time>
      </trkpt>
      <trkpt lat="45.88145" lon="6.22069">
        <ele>627</ele>
        <time>2013-05-30T04:08:02.000Z</time>
      </trkpt>
      <trkpt lat="45.88148" lon="6.22071">
        <ele>627</ele>
        <time>2013-05-30T04:08:03.000Z</time>
      </trkpt>
      <trkpt lat="45.8815" lon="6.22073">
        <ele>627</ele>
        <time>2013-05-30T04:08:04.000Z</time>
      </trkpt>
      <trkpt lat="45.88153" lon="6.22075">
        <ele>627</ele>
        <time>2013-05-30T04:08:05.000Z</time>
      </trkpt>
      <trkpt lat="45.88155" lon="6.22076">
        <ele>627</ele>
        <time>2013-05-30T04:08:06.000Z</time>
      </trkpt>
      <trkpt lat="45.88157" lon="6.22078">
        <ele>627</ele>
        <time>2013-05-30T04:08:07.000Z</time>
      </trkpt>
      <trkpt lat="45.8816" lon="6.2208">
        <ele>627</ele>
        <time>2013-05-30T04:08:08.000Z</time>
      </trkpt>
      <trkpt lat="45.88162" lon="6.22082">
        <ele>626</ele>
        <time>2013-05-30T04:08:09.000Z</time>
      </trkpt>
      <trkpt lat="45.88165" lon="6.22084">
        <ele>627</ele>
        <time>2013-05-30T04:08:10.000Z</time>
      </trkpt>
      <trkpt lat="45.88168" lon="6.22085">
        <ele>626</ele>
        <time>2013-05-30T04:08:11.000Z</time>
      </trkpt>
      <trkpt lat="45.8817" lon="6.22087">
        <ele>626</ele>
        <time>2013-05-30T04:08:12.000Z</time>
      </trkpt>
      <trkpt lat="45.88173" lon="6.22089">
        <ele>626</ele>
        <time>2013-05-30T04:08:13.000Z</time>
      </trkpt>
      <trkpt lat="45.88175" lon="6.22091">
        <ele>626</ele>
        <time>2013-05-30T04:08:14.000Z</time>
      </trkpt>
      <trkpt lat="45.88178" lon="6.22093">
        <ele>627</ele>
        <time>2013-05-30T04:08:15.000Z</time>
      </trkpt>
      <trkpt lat="45.8818" lon="6.22094">
        <ele>627</ele>
        <time>2013-05-30T04:08:16.000Z</time>
      </trkpt>
      <trkpt lat="45.88182" lon="6.22096">
        <ele>627</ele>
        <time>2013-05-30T04:08:17.000Z</time>
      </trkpt>
      <trkpt lat="45.88185" lon="6.22097">
        <ele>627</ele>
        <time>2013-05-30T04:08:18.000Z</time>
      </trkpt>
      <trkpt lat="45.88187" lon="6.22098">
        <ele>627</ele>
        <time>2013-05-30T04:08:19.000Z</time>
      </trkpt>
      <trkpt lat="45.8819" lon="6.221">
        <ele>627</ele>
        <time>2013-05-30T04:08:20.000Z</time>
      </trkpt>
      <trkpt lat="45.88192" lon="6.22102">
        <ele>627</ele>
        <time>2013-05-30T04:08:21.000Z</time>
      </trkpt>
      <trkpt lat="45.88195" lon="6.22103">
        <ele>627</ele>
        <time>2013-05-30T04:08:22.000Z</time>
      </trkpt>
      <trkpt lat="45.88197" lon="6.22105">
        <ele>627</ele>
        <time>2013-05-30T04:08:23.000Z</time>
      </trkpt>
      <trkpt lat="45.882" lon="6.22107">
        <ele>627</ele>
        <time>2013-05-30T04:08:24.000Z</time>
      </trkpt>
      <trkpt lat="45.88203" lon="6.2211">
        <ele>627</ele>
        <time>2013-05-30T04:08:25.000Z</time>
      </trkpt>
      <trkpt lat="45.88205" lon="6.22112">
        <ele>627</ele>
        <time>2013-05-30T04:08:26.000Z</time>
      </trkpt>
      <trkpt lat="45.88207" lon="6.22114">
        <ele>627</ele>
        <time>2013-05-30T04:08:27.000Z</time>
      </trkpt>
      <trkpt lat="45.8821" lon="6.22117">
        <ele>627</ele>
        <time>2013-05-30T04:08:28.000Z</time>
      </trkpt>
      <trkpt lat="45.88213" lon="6.22119">
        <ele>626</ele>
        <time>2013-05-30T04:08:29.000Z</time>
      </trkpt>
      <trkpt lat="45.88215" lon="6.22121">
        <ele>626</ele>
        <time>2013-05-30T04:08:30.000Z</time>
      </trkpt>
      <trkpt lat="45.88217" lon="6.22122">
        <ele>626</ele>
        <time>2013-05-30T04:08:31.000Z</time>
      </trkpt>
      <trkpt lat="45.8822" lon="6.22124">
        <ele>626</ele>
        <time>2013-05-30T04:08:32.000Z</time>
      </trkpt>
      <trkpt lat="45.88222" lon="6.22126">
        <ele>626</ele>
        <time>2013-05-30T04:08:33.000Z</time>
      </trkpt>
      <trkpt lat="45.88224" lon="6.22128">
        <ele>626</ele>
        <time>2013-05-30T04:08:34.000Z</time>
      </trkpt>
      <trkpt lat="45.88227" lon="6.22129">
        <ele>626</ele>
        <time>2013-05-30T04:08:35.000Z</time>
      </trkpt>
      <trkpt lat="45.8823" lon="6.22131">
        <ele>626</ele>
        <time>2013-05-30T04:08:36.000Z</time>
      </trkpt>
      <trkpt lat="45.88232" lon="6.22133">
        <ele>626</ele>
        <time>2013-05-30T04:08:37.000Z</time>
      </trkpt>
      <trkpt lat="45.88235" lon="6.22135">
        <ele>626</ele>
        <time>2013-05-30T04:08:38.000Z</time>
      </trkpt>
      <trkpt lat="45.88237" lon="6.22137">
        <ele>626</ele>
        <time>2013-05-30T04:08:39.000Z</time>
      </trkpt>
      <trkpt lat="45.88239" lon="6.22139">
        <ele>626</ele>
        <time>2013-05-30T04:08:40.000Z</time>
      </trkpt>
      <trkpt lat="45.88242" lon="6.22141">
        <ele>626</ele>
        <time>2013-05-30T04:08:41.000Z</time>
      </trkpt>
      <trkpt lat="45.88244" lon="6.22143">
        <ele>626</ele>
        <time>2013-05-30T04:08:42.000Z</time>
      </trkpt>
      <trkpt lat="45.88246" lon="6.22146">
        <ele>626</ele>
        <time>2013-05-30T04:08:43.000Z</time>
      </trkpt>
      <trkpt lat="45.88248" lon="6.22148">
        <ele>625</ele>
        <time>2013-05-30T04:08:44.000Z</time>
      </trkpt>
      <trkpt lat="45.88251" lon="6.2215">
        <ele>622</ele>
        <time>2013-05-30T04:08:45.000Z</time>
      </trkpt>
      <trkpt lat="45.88253" lon="6.22152">
        <ele>622</ele>
        <time>2013-05-30T04:08:46.000Z</time>
      </trkpt>
      <trkpt lat="45.88255" lon="6.22155">
        <ele>622</ele>
        <time>2013-05-30T04:08:47.000Z</time>
      </trkpt>
      <trkpt lat="45.88258" lon="6.22157">
        <ele>622</ele>
        <time>2013-05-30T04:08:48.000Z</time>
      </trkpt>
      <trkpt lat="45.8826" lon="6.2216">
        <ele>622</ele>
        <time>2013-05-30T04:08:49.000Z</time>
      </trkpt>
      <trkpt lat="45.88262" lon="6.22162">
        <ele>622</ele>
        <time>2013-05-30T04:08:50.000Z</time>
      </trkpt>
      <trkpt lat="45.88265" lon="6.22164">
        <ele>622</ele>
        <time>2013-05-30T04:08:51.000Z</time>
      </trkpt>
      <trkpt lat="45.88267" lon="6.22166">
        <ele>622</ele>
        <time>2013-05-30T04:08:52.000Z</time>
      </trkpt>
      <trkpt lat="45.88269" lon="6.22169">
        <ele>624</ele>
        <time>2013-05-30T04:08:53.000Z</time>
      </trkpt>
      <trkpt lat="45.88271" lon="6.22172">
        <ele>624</ele>
        <time>2013-05-30T04:08:54.000Z</time>
      </trkpt>
      <trkpt lat="45.88273" lon="6.22174">
        <ele>624</ele>
        <time>2013-05-30T04:08:55.000Z</time>
      </trkpt>
      <trkpt lat="45.88275" lon="6.22177">
        <ele>624</ele>
        <time>2013-05-30T04:08:56.000Z</time>
      </trkpt>
      <trkpt lat="45.88276" lon="6.2218">
        <ele>624</ele>
        <time>2013-05-30T04:08:57.000Z</time>
      </trkpt>
      <trkpt lat="45.88278" lon="6.22182">
        <ele>624</ele>
        <time>2013-05-30T04:08:58.000Z</time>
      </trkpt>
      <trkpt lat="45.8828" lon="6.22184">
        <ele>624</ele>
        <time>2013-05-30T04:08:59.000Z</time>
      </trkpt>
      <trkpt lat="45.88282" lon="6.22186">
        <ele>624</ele>
        <time>2013-05-30T04:09:00.000Z</time>
      </trkpt>
      <trkpt lat="45.88284" lon="6.22189">
        <ele>624</ele>
        <time>2013-05-30T04:09:01.000Z</time>
      </trkpt>
      <trkpt lat="45.88286" lon="6.22191">
        <ele>624</ele>
        <time>2013-05-30T04:09:02.000Z</time>
      </trkpt>
      <trkpt lat="45.88289" lon="6.22194">
        <ele>624</ele>
        <time>2013-05-30T04:09:03.000Z</time>
      </trkpt>
      <trkpt lat="45.88291" lon="6.22196">
        <ele>624</ele>
        <time>2013-05-30T04:09:04.000Z</time>
      </trkpt>
      <trkpt lat="45.88293" lon="6.22199">
        <ele>624</ele>
        <time>2013-05-30T04:09:05.000Z</time>
      </trkpt>
      <trkpt lat="45.88296" lon="6.22201">
        <ele>624</ele>
        <time>2013-05-30T04:09:06.000Z</time>
      </trkpt>
      <trkpt lat="45.88299" lon="6.22204">
        <ele>624</ele>
        <time>2013-05-30T04:09:07.000Z</time>
      </trkpt>
      <trkpt lat="45.88301" lon="6.22206">
        <ele>624</ele>
        <time>2013-05-30T04:09:08.000Z</time>
      </trkpt>
      <trkpt lat="45.88303" lon="6.22208">
        <ele>623</ele>
        <time>2013-05-30T04:09:09.000Z</time>
      </trkpt>
      <trkpt lat="45.88305" lon="6.22211">
        <ele>623</ele>
        <time>2013-05-30T04:09:10.000Z</time>
      </trkpt>
      <trkpt lat="45.88307" lon="6.22214">
        <ele>623</ele>
        <time>2013-05-30T04:09:11.000Z</time>
      </trkpt>
      <trkpt lat="45.8831" lon="6.22216">
        <ele>623</ele>
        <time>2013-05-30T04:09:12.000Z</time>
      </trkpt>
      <trkpt lat="45.88312" lon="6.22219">
        <ele>623</ele>
        <time>2013-05-30T04:09:13.000Z</time>
      </trkpt>
      <trkpt lat="45.88313" lon="6.22221">
        <ele>623</ele>
        <time>2013-05-30T04:09:14.000Z</time>
      </trkpt>
      <trkpt lat="45.88316" lon="6.22224">
        <ele>623</ele>
        <time>2013-05-30T04:09:15.000Z</time>
      </trkpt>
      <trkpt lat="45.88318" lon="6.22226">
        <ele>622</ele>
        <time>2013-05-30T04:09:16.000Z</time>
      </trkpt>
      <trkpt lat="45.88321" lon="6.22228">
        <ele>622</ele>
        <time>2013-05-30T04:09:17.000Z</time>
      </trkpt>
      <trkpt lat="45.88323" lon="6.22231">
        <ele>622</ele>
        <time>2013-05-30T04:09:18.000Z</time>
      </trkpt>
      <trkpt lat="45.88326" lon="6.22233">
        <ele>621</ele>
        <time>2013-05-30T04:09:19.000Z</time>
      </trkpt>
      <trkpt lat="45.88327" lon="6.22236">
        <ele>621</ele>
        <time>2013-05-30T04:09:20.000Z</time>
      </trkpt>
      <trkpt lat="45.8833" lon="6.22238">
        <ele>621</ele>
        <time>2013-05-30T04:09:21.000Z</time>
      </trkpt>
      <trkpt lat="45.88332" lon="6.22241">
        <ele>620</ele>
        <time>2013-05-30T04:09:22.000Z</time>
      </trkpt>
      <trkpt lat="45.88333" lon="6.22243">
        <ele>620</ele>
        <time>2013-05-30T04:09:23.000Z</time>
      </trkpt>
      <trkpt lat="45.88335" lon="6.22246">
        <ele>618</ele>
        <time>2013-05-30T04:09:24.000Z</time>
      </trkpt>
      <trkpt lat="45.88337" lon="6.22248">
        <ele>618</ele>
        <time>2013-05-30T04:09:25.000Z</time>
      </trkpt>
      <trkpt lat="45.8834" lon="6.22251">
        <ele>619</ele>
        <time>2013-05-30T04:09:26.000Z</time>
      </trkpt>
      <trkpt lat="45.88342" lon="6.22253">
        <ele>619</ele>
        <time>2013-05-30T04:09:27.000Z</time>
      </trkpt>
      <trkpt lat="45.88344" lon="6.22256">
        <ele>619</ele>
        <time>2013-05-30T04:09:28.000Z</time>
      </trkpt>
      <trkpt lat="45.88347" lon="6.22258">
        <ele>619</ele>
        <time>2013-05-30T04:09:29.000Z</time>
      </trkpt>
      <trkpt lat="45.8835" lon="6.22261">
        <ele>619</ele>
        <time>2013-05-30T04:09:30.000Z</time>
      </trkpt>
      <trkpt lat="45.88352" lon="6.22262">
        <ele>619</ele>
        <time>2013-05-30T04:09:31.000Z</time>
      </trkpt>
      <trkpt lat="45.88354" lon="6.22264">
        <ele>619</ele>
        <time>2013-05-30T04:09:32.000Z</time>
      </trkpt>
      <trkpt lat="45.88356" lon="6.22266">
        <ele>619</ele>
        <time>2013-05-30T04:09:33.000Z</time>
      </trkpt>
      <trkpt lat="45.88358" lon="6.22269">
        <ele>619</ele>
        <time>2013-05-30T04:09:34.000Z</time>
      </trkpt>
      <trkpt lat="45.8836" lon="6.22271">
        <ele>620</ele>
        <time>2013-05-30T04:09:35.000Z</time>
      </trkpt>
      <trkpt lat="45.88362" lon="6.22273">
        <ele>620</ele>
        <time>2013-05-30T04:09:36.000Z</time>
      </trkpt>
      <trkpt lat="45.88365" lon="6.22276">
        <ele>620</ele>
        <time>2013-05-30T04:09:37.000Z</time>
      </trkpt>
      <trkpt lat="45.88367" lon="6.22278">
        <ele>620</ele>
        <time>2013-05-30T04:09:38.000Z</time>
      </trkpt>
      <trkpt lat="45.88369" lon="6.2228">
        <ele>620</ele>
        <time>2013-05-30T04:09:39.000Z</time>
      </trkpt>
      <trkpt lat="45.88371" lon="6.22282">
        <ele>620</ele>
        <time>2013-05-30T04:09:40.000Z</time>
      </trkpt>
      <trkpt lat="45.88374" lon="6.22284">
        <ele>620</ele>
        <time>2013-05-30T04:09:41.000Z</time>
      </trkpt>
      <trkpt lat="45.88376" lon="6.22286">
        <ele>620</ele>
        <time>2013-05-30T04:09:42.000Z</time>
      </trkpt>
      <trkpt lat="45.88378" lon="6.22288">
        <ele>620</ele>
        <time>2013-05-30T04:09:43.000Z</time>
      </trkpt>
      <trkpt lat="45.8838" lon="6.2229">
        <ele>620</ele>
        <time>2013-05-30T04:09:44.000Z</time>
      </trkpt>
      <trkpt lat="45.88382" lon="6.22293">
        <ele>620</ele>
        <time>2013-05-30T04:09:45.000Z</time>
      </trkpt>
      <trkpt lat="45.88384" lon="6.22295">
        <ele>620</ele>
        <time>2013-05-30T04:09:46.000Z</time>
      </trkpt>
      <trkpt lat="45.88386" lon="6.22297">
        <ele>619</ele>
        <time>2013-05-30T04:09:47.000Z</time>
      </trkpt>
      <trkpt lat="45.88389" lon="6.22299">
        <ele>619</ele>
        <time>2013-05-30T04:09:48.000Z</time>
      </trkpt>
      <trkpt lat="45.88391" lon="6.22301">
        <ele>619</ele>
        <time>2013-05-30T04:09:49.000Z</time>
      </trkpt>
      <trkpt lat="45.88393" lon="6.22303">
        <ele>619</ele>
        <time>2013-05-30T04:09:50.000Z</time>
      </trkpt>
      <trkpt lat="45.88395" lon="6.22305">
        <ele>619</ele>
        <time>2013-05-30T04:09:51.000Z</time>
      </trkpt>
      <trkpt lat="45.88398" lon="6.22308">
        <ele>619</ele>
        <time>2013-05-30T04:09:52.000Z</time>
      </trkpt>
      <trkpt lat="45.884" lon="6.2231">
        <ele>619</ele>
        <time>2013-05-30T04:09:53.000Z</time>
      </trkpt>
      <trkpt lat="45.88402" lon="6.22312">
        <ele>619</ele>
        <time>2013-05-30T04:09:54.000Z</time>
      </trkpt>
      <trkpt lat="45.88405" lon="6.22314">
        <ele>618</ele>
        <time>2013-05-30T04:09:55.000Z</time>
      </trkpt>
      <trkpt lat="45.88407" lon="6.22316">
        <ele>618</ele>
        <time>2013-05-30T04:09:56.000Z</time>
      </trkpt>
      <trkpt lat="45.8841" lon="6.22318">
        <ele>618</ele>
        <time>2013-05-30T04:09:57.000Z</time>
      </trkpt>
      <trkpt lat="45.88413" lon="6.2232">
        <ele>618</ele>
        <time>2013-05-30T04:09:58.000Z</time>
      </trkpt>
      <trkpt lat="45.88416" lon="6.22323">
        <ele>617</ele>
        <time>2013-05-30T04:09:59.000Z</time>
      </trkpt>
      <trkpt lat="45.88418" lon="6.22324">
        <ele>614</ele>
        <time>2013-05-30T04:10:00.000Z</time>
      </trkpt>
      <trkpt lat="45.88421" lon="6.22326">
        <ele>614</ele>
        <time>2013-05-30T04:10:01.000Z</time>
      </trkpt>
      <trkpt lat="45.88423" lon="6.22327">
        <ele>614</ele>
        <time>2013-05-30T04:10:02.000Z</time>
      </trkpt>
      <trkpt lat="45.88426" lon="6.22328">
        <ele>614</ele>
        <time>2013-05-30T04:10:03.000Z</time>
      </trkpt>
      <trkpt lat="45.88428" lon="6.2233">
        <ele>613</ele>
        <time>2013-05-30T04:10:04.000Z</time>
      </trkpt>
      <trkpt lat="45.8843" lon="6.22332">
        <ele>613</ele>
        <time>2013-05-30T04:10:05.000Z</time>
      </trkpt>
      <trkpt lat="45.88433" lon="6.22334">
        <ele>616</ele>
        <time>2013-05-30T04:10:06.000Z</time>
      </trkpt>
      <trkpt lat="45.88435" lon="6.22336">
        <ele>616</ele>
        <time>2013-05-30T04:10:07.000Z</time>
      </trkpt>
      <trkpt lat="45.88437" lon="6.22338">
        <ele>616</ele>
        <time>2013-05-30T04:10:08.000Z</time>
      </trkpt>
      <trkpt lat="45.88439" lon="6.22339">
        <ele>616</ele>
        <time>2013-05-30T04:10:09.000Z</time>
      </trkpt>
      <trkpt lat="45.88441" lon="6.22341">
        <ele>616</ele>
        <time>2013-05-30T04:10:10.000Z</time>
      </trkpt>
      <trkpt lat="45.88443" lon="6.22344">
        <ele>616</ele>
        <time>2013-05-30T04:10:11.000Z</time>
      </trkpt>
      <trkpt lat="45.88445" lon="6.22346">
        <ele>616</ele>
        <time>2013-05-30T04:10:12.000Z</time>
      </trkpt>
      <trkpt lat="45.88447" lon="6.22348">
        <ele>616</ele>
        <time>2013-05-30T04:10:13.000Z</time>
      </trkpt>
      <trkpt lat="45.88449" lon="6.2235">
        <ele>616</ele>
        <time>2013-05-30T04:10:14.000Z</time>
      </trkpt>
      <trkpt lat="45.8845" lon="6.22352">
        <ele>616</ele>
        <time>2013-05-30T04:10:15.000Z</time>
      </trkpt>
      <trkpt lat="45.88452" lon="6.22355">
        <ele>616</ele>
        <time>2013-05-30T04:10:16.000Z</time>
      </trkpt>
      <trkpt lat="45.88454" lon="6.22357">
        <ele>616</ele>
        <time>2013-05-30T04:10:17.000Z</time>
      </trkpt>
      <trkpt lat="45.88457" lon="6.22361">
        <ele>616</ele>
        <time>2013-05-30T04:10:18.000Z</time>
      </trkpt>
      <trkpt lat="45.88459" lon="6.22364">
        <ele>616</ele>
        <time>2013-05-30T04:10:19.000Z</time>
      </trkpt>
      <trkpt lat="45.8846" lon="6.22367">
        <ele>617</ele>
        <time>2013-05-30T04:10:20.000Z</time>
      </trkpt>
      <trkpt lat="45.88462" lon="6.22369">
        <ele>617</ele>
        <time>2013-05-30T04:10:21.000Z</time>
      </trkpt>
      <trkpt lat="45.88464" lon="6.22372">
        <ele>617</ele>
        <time>2013-05-30T04:10:22.000Z</time>
      </trkpt>
      <trkpt lat="45.88466" lon="6.22375">
        <ele>617</ele>
        <time>2013-05-30T04:10:23.000Z</time>
      </trkpt>
      <trkpt lat="45.88468" lon="6.22377">
        <ele>617</ele>
        <time>2013-05-30T04:10:24.000Z</time>
      </trkpt>
      <trkpt lat="45.8847" lon="6.22379">
        <ele>617</ele>
        <time>2013-05-30T04:10:25.000Z</time>
      </trkpt>
      <trkpt lat="45.88472" lon="6.22381">
        <ele>617</ele>
        <time>2013-05-30T04:10:26.000Z</time>
      </trkpt>
      <trkpt lat="45.88475" lon="6.22383">
        <ele>617</ele>
        <time>2013-05-30T04:10:27.000Z</time>
      </trkpt>
      <trkpt lat="45.88477" lon="6.22386">
        <ele>617</ele>
        <time>2013-05-30T04:10:28.000Z</time>
      </trkpt>
      <trkpt lat="45.8848" lon="6.22388">
        <ele>616</ele>
        <time>2013-05-30T04:10:29.000Z</time>
      </trkpt>
      <trkpt lat="45.88482" lon="6.2239">
        <ele>616</ele>
        <time>2013-05-30T04:10:30.000Z</time>
      </trkpt>
      <trkpt lat="45.88485" lon="6.22393">
        <ele>616</ele>
        <time>2013-05-30T04:10:31.000Z</time>
      </trkpt>
      <trkpt lat="45.88487" lon="6.22395">
        <ele>616</ele>
        <time>2013-05-30T04:10:32.000Z</time>
      </trkpt>
      <trkpt lat="45.8849" lon="6.22398">
        <ele>616</ele>
        <time>2013-05-30T04:10:33.000Z</time>
      </trkpt>
      <trkpt lat="45.88492" lon="6.22401">
        <ele>616</ele>
        <time>2013-05-30T04:10:34.000Z</time>
      </trkpt>
      <trkpt lat="45.88495" lon="6.22403">
        <ele>616</ele>
        <time>2013-05-30T04:10:35.000Z</time>
      </trkpt>
      <trkpt lat="45.88497" lon="6.22406">
        <ele>616</ele>
        <time>2013-05-30T04:10:36.000Z</time>
      </trkpt>
      <trkpt lat="45.885" lon="6.22408">
        <ele>616</ele>
        <time>2013-05-30T04:10:37.000Z</time>
      </trkpt>
      <trkpt lat="45.88502" lon="6.2241">
        <ele>613</ele>
        <time>2013-05-30T04:10:38.000Z</time>
      </trkpt>
      <trkpt lat="45.88505" lon="6.22412">
        <ele>613</ele>
        <time>2013-05-30T04:10:39.000Z</time>
      </trkpt>
      <trkpt lat="45.88507" lon="6.22414">
        <ele>613</ele>
        <time>2013-05-30T04:10:40.000Z</time>
      </trkpt>
      <trkpt lat="45.88509" lon="6.22416">
        <ele>612</ele>
        <time>2013-05-30T04:10:41.000Z</time>
      </trkpt>
      <trkpt lat="45.88511" lon="6.22418">
        <ele>614</ele>
        <time>2013-05-30T04:10:42.000Z</time>
      </trkpt>
      <trkpt lat="45.88513" lon="6.2242">
        <ele>614</ele>
        <time>2013-05-30T04:10:43.000Z</time>
      </trkpt>
      <trkpt lat="45.88515" lon="6.22422">
        <ele>614</ele>
        <time>2013-05-30T04:10:44.000Z</time>
      </trkpt>
      <trkpt lat="45.88518" lon="6.22424">
        <ele>614</ele>
        <time>2013-05-30T04:10:45.000Z</time>
      </trkpt>
      <trkpt lat="45.88521" lon="6.22425">
        <ele>614</ele>
        <time>2013-05-30T04:10:46.000Z</time>
      </trkpt>
      <trkpt lat="45.88523" lon="6.22428">
        <ele>614</ele>
        <time>2013-05-30T04:10:47.000Z</time>
      </trkpt>
      <trkpt lat="45.88525" lon="6.2243">
        <ele>614</ele>
        <time>2013-05-30T04:10:48.000Z</time>
      </trkpt>
      <trkpt lat="45.88527" lon="6.22432">
        <ele>613</ele>
        <time>2013-05-30T04:10:49.000Z</time>
      </trkpt>
      <trkpt lat="45.8853" lon="6.22434">
        <ele>613</ele>
        <time>2013-05-30T04:10:50.000Z</time>
      </trkpt>
      <trkpt lat="45.88532" lon="6.22436">
        <ele>613</ele>
        <time>2013-05-30T04:10:51.000Z</time>
      </trkpt>
      <trkpt lat="45.88535" lon="6.22438">
        <ele>613</ele>
        <time>2013-05-30T04:10:52.000Z</time>
      </trkpt>
      <trkpt lat="45.88537" lon="6.2244">
        <ele>613</ele>
        <time>2013-05-30T04:10:53.000Z</time>
      </trkpt>
      <trkpt lat="45.8854" lon="6.22443">
        <ele>613</ele>
        <time>2013-05-30T04:10:54.000Z</time>
      </trkpt>
      <trkpt lat="45.88542" lon="6.22445">
        <ele>613</ele>
        <time>2013-05-30T04:10:55.000Z</time>
      </trkpt>
      <trkpt lat="45.88544" lon="6.22447">
        <ele>613</ele>
        <time>2013-05-30T04:10:56.000Z</time>
      </trkpt>
      <trkpt lat="45.88546" lon="6.22449">
        <ele>613</ele>
        <time>2013-05-30T04:10:57.000Z</time>
      </trkpt>
      <trkpt lat="45.88548" lon="6.22451">
        <ele>613</ele>
        <time>2013-05-30T04:10:58.000Z</time>
      </trkpt>
      <trkpt lat="45.88551" lon="6.22453">
        <ele>613</ele>
        <time>2013-05-30T04:10:59.000Z</time>
      </trkpt>
      <trkpt lat="45.88553" lon="6.22455">
        <ele>612</ele>
        <time>2013-05-30T04:11:00.000Z</time>
      </trkpt>
      <trkpt lat="45.88555" lon="6.22458">
        <ele>612</ele>
        <time>2013-05-30T04:11:01.000Z</time>
      </trkpt>
      <trkpt lat="45.88558" lon="6.2246">
        <ele>612</ele>
        <time>2013-05-30T04:11:02.000Z</time>
      </trkpt>
      <trkpt lat="45.8856" lon="6.22462">
        <ele>612</ele>
        <time>2013-05-30T04:11:03.000Z</time>
      </trkpt>
      <trkpt lat="45.88562" lon="6.22464">
        <ele>612</ele>
        <time>2013-05-30T04:11:04.000Z</time>
      </trkpt>
      <trkpt lat="45.88563" lon="6.22466">
        <ele>612</ele>
        <time>2013-05-30T04:11:05.000Z</time>
      </trkpt>
      <trkpt lat="45.88565" lon="6.22467">
        <ele>612</ele>
        <time>2013-05-30T04:11:06.000Z</time>
      </trkpt>
      <trkpt lat="45.88567" lon="6.22469">
        <ele>612</ele>
        <time>2013-05-30T04:11:07.000Z</time>
      </trkpt>
      <trkpt lat="45.8857" lon="6.22471">
        <ele>612</ele>
        <time>2013-05-30T04:11:08.000Z</time>
      </trkpt>
      <trkpt lat="45.88572" lon="6.22473">
        <ele>612</ele>
        <time>2013-05-30T04:11:09.000Z</time>
      </trkpt>
      <trkpt lat="45.88574" lon="6.22475">
        <ele>612</ele>
        <time>2013-05-30T04:11:10.000Z</time>
      </trkpt>
      <trkpt lat="45.88576" lon="6.22477">
        <ele>612</ele>
        <time>2013-05-30T04:11:11.000Z</time>
      </trkpt>
      <trkpt lat="45.88578" lon="6.22478">
        <ele>612</ele>
        <time>2013-05-30T04:11:12.000Z</time>
      </trkpt>
      <trkpt lat="45.8858" lon="6.2248">
        <ele>612</ele>
        <time>2013-05-30T04:11:13.000Z</time>
      </trkpt>
      <trkpt lat="45.88582" lon="6.22482">
        <ele>612</ele>
        <time>2013-05-30T04:11:14.000Z</time>
      </trkpt>
      <trkpt lat="45.88583" lon="6.22483">
        <ele>612</ele>
        <time>2013-05-30T04:11:15.000Z</time>
      </trkpt>
      <trkpt lat="45.88586" lon="6.22485">
        <ele>607</ele>
        <time>2013-05-30T04:11:16.000Z</time>
      </trkpt>
      <trkpt lat="45.88588" lon="6.22486">
        <ele>607</ele>
        <time>2013-05-30T04:11:17.000Z</time>
      </trkpt>
      <trkpt lat="45.8859" lon="6.22488">
        <ele>608</ele>
        <time>2013-05-30T04:11:18.000Z</time>
      </trkpt>
      <trkpt lat="45.88593" lon="6.22489">
        <ele>607</ele>
        <time>2013-05-30T04:11:19.000Z</time>
      </trkpt>
      <trkpt lat="45.88595" lon="6.22491">
        <ele>607</ele>
        <time>2013-05-30T04:11:20.000Z</time>
      </trkpt>
      <trkpt lat="45.88598" lon="6.22492">
        <ele>607</ele>
        <time>2013-05-30T04:11:21.000Z</time>
      </trkpt>
      <trkpt lat="45.886" lon="6.22493">
        <ele>607</ele>
        <time>2013-05-30T04:11:22.000Z</time>
      </trkpt>
      <trkpt lat="45.88603" lon="6.22495">
        <ele>607</ele>
        <time>2013-05-30T04:11:23.000Z</time>
      </trkpt>
      <trkpt lat="45.88605" lon="6.22496">
        <ele>606</ele>
        <time>2013-05-30T04:11:24.000Z</time>
      </trkpt>
      <trkpt lat="45.88608" lon="6.22497">
        <ele>606</ele>
        <time>2013-05-30T04:11:25.000Z</time>
      </trkpt>
      <trkpt lat="45.88611" lon="6.22499">
        <ele>606</ele>
        <time>2013-05-30T04:11:26.000Z</time>
      </trkpt>
      <trkpt lat="45.88613" lon="6.225">
        <ele>611</ele>
        <time>2013-05-30T04:11:27.000Z</time>
      </trkpt>
      <trkpt lat="45.88616" lon="6.22502">
        <ele>611</ele>
        <time>2013-05-30T04:11:28.000Z</time>
      </trkpt>
      <trkpt lat="45.88618" lon="6.22503">
        <ele>611</ele>
        <time>2013-05-30T04:11:29.000Z</time>
      </trkpt>
      <trkpt lat="45.88621" lon="6.22505">
        <ele>611</ele>
        <time>2013-05-30T04:11:30.000Z</time>
      </trkpt>
      <trkpt lat="45.88624" lon="6.22506">
        <ele>611</ele>
        <time>2013-05-30T04:11:31.000Z</time>
      </trkpt>
      <trkpt lat="45.88627" lon="6.22508">
        <ele>611</ele>
        <time>2013-05-30T04:11:32.000Z</time>
      </trkpt>
      <trkpt lat="45.88629" lon="6.22509">
        <ele>610</ele>
        <time>2013-05-30T04:11:33.000Z</time>
      </trkpt>
      <trkpt lat="45.88632" lon="6.2251">
        <ele>610</ele>
        <time>2013-05-30T04:11:34.000Z</time>
      </trkpt>
      <trkpt lat="45.88635" lon="6.22511">
        <ele>610</ele>
        <time>2013-05-30T04:11:35.000Z</time>
      </trkpt>
      <trkpt lat="45.88637" lon="6.22512">
        <ele>610</ele>
        <time>2013-05-30T04:11:36.000Z</time>
      </trkpt>
      <trkpt lat="45.8864" lon="6.22513">
        <ele>610</ele>
        <time>2013-05-30T04:11:37.000Z</time>
      </trkpt>
      <trkpt lat="45.88643" lon="6.22514">
        <ele>609</ele>
        <time>2013-05-30T04:11:38.000Z</time>
      </trkpt>
      <trkpt lat="45.88645" lon="6.22515">
        <ele>609</ele>
        <time>2013-05-30T04:11:39.000Z</time>
      </trkpt>
      <trkpt lat="45.88648" lon="6.22516">
        <ele>609</ele>
        <time>2013-05-30T04:11:40.000Z</time>
      </trkpt>
      <trkpt lat="45.88651" lon="6.22517">
        <ele>609</ele>
        <time>2013-05-30T04:11:41.000Z</time>
      </trkpt>
      <trkpt lat="45.88653" lon="6.22518">
        <ele>608</ele>
        <time>2013-05-30T04:11:42.000Z</time>
      </trkpt>
      <trkpt lat="45.88656" lon="6.22519">
        <ele>608</ele>
        <time>2013-05-30T04:11:43.000Z</time>
      </trkpt>
      <trkpt lat="45.88658" lon="6.2252">
        <ele>608</ele>
        <time>2013-05-30T04:11:44.000Z</time>
      </trkpt>
      <trkpt lat="45.88661" lon="6.22521">
        <ele>608</ele>
        <time>2013-05-30T04:11:45.000Z</time>
      </trkpt>
      <trkpt lat="45.88664" lon="6.22522">
        <ele>608</ele>
        <time>2013-05-30T04:11:46.000Z</time>
      </trkpt>
      <trkpt lat="45.88667" lon="6.22523">
        <ele>603</ele>
        <time>2013-05-30T04:11:47.000Z</time>
      </trkpt>
      <trkpt lat="45.8867" lon="6.22524">
        <ele>603</ele>
        <time>2013-05-30T04:11:48.000Z</time>
      </trkpt>
      <trkpt lat="45.88672" lon="6.22524">
        <ele>603</ele>
        <time>2013-05-30T04:11:49.000Z</time>
      </trkpt>
      <trkpt lat="45.88675" lon="6.22525">
        <ele>603</ele>
        <time>2013-05-30T04:11:50.000Z</time>
      </trkpt>
      <trkpt lat="45.88678" lon="6.22526">
        <ele>603</ele>
        <time>2013-05-30T04:11:51.000Z</time>
      </trkpt>
      <trkpt lat="45.88681" lon="6.22527">
        <ele>604</ele>
        <time>2013-05-30T04:11:52.000Z</time>
      </trkpt>
      <trkpt lat="45.88683" lon="6.22528">
        <ele>604</ele>
        <time>2013-05-30T04:11:53.000Z</time>
      </trkpt>
      <trkpt lat="45.88686" lon="6.22528">
        <ele>604</ele>
        <time>2013-05-30T04:11:54.000Z</time>
      </trkpt>
      <trkpt lat="45.88689" lon="6.22529">
        <ele>603</ele>
        <time>2013-05-30T04:11:55.000Z</time>
      </trkpt>
      <trkpt lat="45.88692" lon="6.2253">
        <ele>603</ele>
        <time>2013-05-30T04:11:56.000Z</time>
      </trkpt>
      <trkpt lat="45.88695" lon="6.22531">
        <ele>603</ele>
        <time>2013-05-30T04:11:57.000Z</time>
      </trkpt>
      <trkpt lat="45.88698" lon="6.22532">
        <ele>603</ele>
        <time>2013-05-30T04:11:58.000Z</time>
      </trkpt>
      <trkpt lat="45.887" lon="6.22533">
        <ele>603</ele>
        <time>2013-05-30T04:11:59.000Z</time>
      </trkpt>
      <trkpt lat="45.88703" lon="6.22534">
        <ele>603</ele>
        <time>2013-05-30T04:12:00.000Z</time>
      </trkpt>
      <trkpt lat="45.88706" lon="6.22535">
        <ele>603</ele>
        <time>2013-05-30T04:12:01.000Z</time>
      </trkpt>
      <trkpt lat="45.88709" lon="6.22535">
        <ele>603</ele>
        <time>2013-05-30T04:12:02.000Z</time>
      </trkpt>
      <trkpt lat="45.88711" lon="6.22536">
        <ele>603</ele>
        <time>2013-05-30T04:12:03.000Z</time>
      </trkpt>
      <trkpt lat="45.88714" lon="6.22537">
        <ele>603</ele>
        <time>2013-05-30T04:12:04.000Z</time>
      </trkpt>
      <trkpt lat="45.88717" lon="6.22538">
        <ele>603</ele>
        <time>2013-05-30T04:12:05.000Z</time>
      </trkpt>
      <trkpt lat="45.8872" lon="6.22539">
        <ele>603</ele>
        <time>2013-05-30T04:12:06.000Z</time>
      </trkpt>
      <trkpt lat="45.88722" lon="6.2254">
        <ele>603</ele>
        <time>2013-05-30T04:12:07.000Z</time>
      </trkpt>
      <trkpt lat="45.88725" lon="6.2254">
        <ele>603</ele>
        <time>2013-05-30T04:12:08.000Z</time>
      </trkpt>
      <trkpt lat="45.88727" lon="6.22541">
        <ele>603</ele>
        <time>2013-05-30T04:12:09.000Z</time>
      </trkpt>
      <trkpt lat="45.8873" lon="6.22542">
        <ele>603</ele>
        <time>2013-05-30T04:12:10.000Z</time>
      </trkpt>
      <trkpt lat="45.88732" lon="6.22543">
        <ele>603</ele>
        <time>2013-05-30T04:12:11.000Z</time>
      </trkpt>
      <trkpt lat="45.88735" lon="6.22544">
        <ele>603</ele>
        <time>2013-05-30T04:12:12.000Z</time>
      </trkpt>
      <trkpt lat="45.88738" lon="6.22545">
        <ele>603</ele>
        <time>2013-05-30T04:12:13.000Z</time>
      </trkpt>
      <trkpt lat="45.8874" lon="6.22547">
        <ele>603</ele>
        <time>2013-05-30T04:12:14.000Z</time>
      </trkpt>
      <trkpt lat="45.88743" lon="6.22548">
        <ele>603</ele>
        <time>2013-05-30T04:12:15.000Z</time>
      </trkpt>
      <trkpt lat="45.88746" lon="6.22549">
        <ele>603</ele>
        <time>2013-05-30T04:12:16.000Z</time>
      </trkpt>
      <trkpt lat="45.88749" lon="6.2255">
        <ele>603</ele>
        <time>2013-05-30T04:12:17.000Z</time>
      </trkpt>
      <trkpt lat="45.88751" lon="6.22551">
        <ele>598</ele>
        <time>2013-05-30T04:12:18.000Z</time>
      </trkpt>
      <trkpt lat="45.88754" lon="6.22552">
        <ele>598</ele>
        <time>2013-05-30T04:12:19.000Z</time>
      </trkpt>
      <trkpt lat="45.88756" lon="6.22554">
        <ele>598</ele>
        <time>2013-05-30T04:12:20.000Z</time>
      </trkpt>
      <trkpt lat="45.88759" lon="6.22555">
        <ele>598</ele>
        <time>2013-05-30T04:12:21.000Z</time>
      </trkpt>
      <trkpt lat="45.88761" lon="6.22556">
        <ele>598</ele>
        <time>2013-05-30T04:12:22.000Z</time>
      </trkpt>
      <trkpt lat="45.88764" lon="6.22557">
        <ele>598</ele>
        <time>2013-05-30T04:12:23.000Z</time>
      </trkpt>
      <trkpt lat="45.88766" lon="6.22559">
        <ele>598</ele>
        <time>2013-05-30T04:12:24.000Z</time>
      </trkpt>
      <trkpt lat="45.88769" lon="6.2256">
        <ele>598</ele>
        <time>2013-05-30T04:12:25.000Z</time>
      </trkpt>
      <trkpt lat="45.88771" lon="6.22562">
        <ele>598</ele>
        <time>2013-05-30T04:12:26.000Z</time>
      </trkpt>
      <trkpt lat="45.88774" lon="6.22563">
        <ele>598</ele>
        <time>2013-05-30T04:12:27.000Z</time>
      </trkpt>
      <trkpt lat="45.88776" lon="6.22565">
        <ele>598</ele>
        <time>2013-05-30T04:12:28.000Z</time>
      </trkpt>
      <trkpt lat="45.88779" lon="6.22566">
        <ele>598</ele>
        <time>2013-05-30T04:12:29.000Z</time>
      </trkpt>
      <trkpt lat="45.88781" lon="6.22568">
        <ele>597</ele>
        <time>2013-05-30T04:12:30.000Z</time>
      </trkpt>
      <trkpt lat="45.88784" lon="6.22569">
        <ele>597</ele>
        <time>2013-05-30T04:12:31.000Z</time>
      </trkpt>
      <trkpt lat="45.88786" lon="6.22571">
        <ele>597</ele>
        <time>2013-05-30T04:12:32.000Z</time>
      </trkpt>
      <trkpt lat="45.88789" lon="6.22572">
        <ele>597</ele>
        <time>2013-05-30T04:12:33.000Z</time>
      </trkpt>
      <trkpt lat="45.88791" lon="6.22573">
        <ele>597</ele>
        <time>2013-05-30T04:12:34.000Z</time>
      </trkpt>
      <trkpt lat="45.88793" lon="6.22574">
        <ele>597</ele>
        <time>2013-05-30T04:12:35.000Z</time>
      </trkpt>
      <trkpt lat="45.88796" lon="6.22575">
        <ele>597</ele>
        <time>2013-05-30T04:12:36.000Z</time>
      </trkpt>
      <trkpt lat="45.88799" lon="6.22577">
        <ele>596</ele>
        <time>2013-05-30T04:12:37.000Z</time>
      </trkpt>
      <trkpt lat="45.88801" lon="6.22578">
        <ele>596</ele>
        <time>2013-05-30T04:12:38.000Z</time>
      </trkpt>
      <trkpt lat="45.88803" lon="6.2258">
        <ele>596</ele>
        <time>2013-05-30T04:12:39.000Z</time>
      </trkpt>
      <trkpt lat="45.88805" lon="6.22581">
        <ele>596</ele>
        <time>2013-05-30T04:12:40.000Z</time>
      </trkpt>
      <trkpt lat="45.88808" lon="6.22582">
        <ele>596</ele>
        <time>2013-05-30T04:12:41.000Z</time>
      </trkpt>
      <trkpt lat="45.8881" lon="6.22584">
        <ele>603</ele>
        <time>2013-05-30T04:12:42.000Z</time>
      </trkpt>
      <trkpt lat="45.88813" lon="6.22585">
        <ele>602</ele>
        <time>2013-05-30T04:12:43.000Z</time>
      </trkpt>
      <trkpt lat="45.88816" lon="6.22587">
        <ele>602</ele>
        <time>2013-05-30T04:12:44.000Z</time>
      </trkpt>
      <trkpt lat="45.88818" lon="6.22588">
        <ele>601</ele>
        <time>2013-05-30T04:12:45.000Z</time>
      </trkpt>
      <trkpt lat="45.8882" lon="6.22589">
        <ele>601</ele>
        <time>2013-05-30T04:12:46.000Z</time>
      </trkpt>
      <trkpt lat="45.88823" lon="6.22591">
        <ele>600</ele>
        <time>2013-05-30T04:12:47.000Z</time>
      </trkpt>
      <trkpt lat="45.88825" lon="6.22593">
        <ele>600</ele>
        <time>2013-05-30T04:12:48.000Z</time>
      </trkpt>
      <trkpt lat="45.88828" lon="6.22594">
        <ele>600</ele>
        <time>2013-05-30T04:12:49.000Z</time>
      </trkpt>
      <trkpt lat="45.88831" lon="6.22595">
        <ele>600</ele>
        <time>2013-05-30T04:12:50.000Z</time>
      </trkpt>
      <trkpt lat="45.88833" lon="6.22597">
        <ele>601</ele>
        <time>2013-05-30T04:12:51.000Z</time>
      </trkpt>
      <trkpt lat="45.88836" lon="6.22598">
        <ele>597</ele>
        <time>2013-05-30T04:12:52.000Z</time>
      </trkpt>
      <trkpt lat="45.88838" lon="6.226">
        <ele>597</ele>
        <time>2013-05-30T04:12:53.000Z</time>
      </trkpt>
      <trkpt lat="45.88841" lon="6.22601">
        <ele>598</ele>
        <time>2013-05-30T04:12:54.000Z</time>
      </trkpt>
      <trkpt lat="45.88843" lon="6.22602">
        <ele>598</ele>
        <time>2013-05-30T04:12:55.000Z</time>
      </trkpt>
      <trkpt lat="45.88846" lon="6.22603">
        <ele>598</ele>
        <time>2013-05-30T04:12:56.000Z</time>
      </trkpt>
      <trkpt lat="45.88848" lon="6.22605">
        <ele>598</ele>
        <time>2013-05-30T04:12:57.000Z</time>
      </trkpt>
      <trkpt lat="45.88851" lon="6.22606">
        <ele>598</ele>
        <time>2013-05-30T04:12:58.000Z</time>
      </trkpt>
      <trkpt lat="45.88853" lon="6.22608">
        <ele>598</ele>
        <time>2013-05-30T04:12:59.000Z</time>
      </trkpt>
      <trkpt lat="45.88856" lon="6.22609">
        <ele>599</ele>
        <time>2013-05-30T04:13:00.000Z</time>
      </trkpt>
      <trkpt lat="45.88858" lon="6.22611">
        <ele>599</ele>
        <time>2013-05-30T04:13:01.000Z</time>
      </trkpt>
      <trkpt lat="45.88861" lon="6.22612">
        <ele>599</ele>
        <time>2013-05-30T04:13:02.000Z</time>
      </trkpt>
      <trkpt lat="45.88863" lon="6.22614">
        <ele>599</ele>
        <time>2013-05-30T04:13:03.000Z</time>
      </trkpt>
      <trkpt lat="45.88866" lon="6.22615">
        <ele>599</ele>
        <time>2013-05-30T04:13:04.000Z</time>
      </trkpt>
      <trkpt lat="45.88868" lon="6.22617">
        <ele>599</ele>
        <time>2013-05-30T04:13:05.000Z</time>
      </trkpt>
      <trkpt lat="45.88871" lon="6.22618">
        <ele>599</ele>
        <time>2013-05-30T04:13:06.000Z</time>
      </trkpt>
      <trkpt lat="45.88874" lon="6.22619">
        <ele>599</ele>
        <time>2013-05-30T04:13:07.000Z</time>
      </trkpt>
      <trkpt lat="45.88877" lon="6.22621">
        <ele>599</ele>
        <time>2013-05-30T04:13:08.000Z</time>
      </trkpt>
      <trkpt lat="45.88879" lon="6.22622">
        <ele>599</ele>
        <time>2013-05-30T04:13:09.000Z</time>
      </trkpt>
      <trkpt lat="45.88882" lon="6.22624">
        <ele>599</ele>
        <time>2013-05-30T04:13:10.000Z</time>
      </trkpt>
      <trkpt lat="45.88884" lon="6.22626">
        <ele>599</ele>
        <time>2013-05-30T04:13:11.000Z</time>
      </trkpt>
      <trkpt lat="45.88887" lon="6.22627">
        <ele>599</ele>
        <time>2013-05-30T04:13:12.000Z</time>
      </trkpt>
      <trkpt lat="45.8889" lon="6.22629">
        <ele>599</ele>
        <time>2013-05-30T04:13:13.000Z</time>
      </trkpt>
      <trkpt lat="45.88893" lon="6.2263">
        <ele>599</ele>
        <time>2013-05-30T04:13:14.000Z</time>
      </trkpt>
      <trkpt lat="45.88895" lon="6.22632">
        <ele>599</ele>
        <time>2013-05-30T04:13:15.000Z</time>
      </trkpt>
      <trkpt lat="45.88898" lon="6.22634">
        <ele>599</ele>
        <time>2013-05-30T04:13:16.000Z</time>
      </trkpt>
      <trkpt lat="45.88901" lon="6.22635">
        <ele>599</ele>
        <time>2013-05-30T04:13:17.000Z</time>
      </trkpt>
      <trkpt lat="45.88903" lon="6.22637">
        <ele>599</ele>
        <time>2013-05-30T04:13:18.000Z</time>
      </trkpt>
      <trkpt lat="45.88906" lon="6.22638">
        <ele>599</ele>
        <time>2013-05-30T04:13:19.000Z</time>
      </trkpt>
      <trkpt lat="45.88909" lon="6.2264">
        <ele>599</ele>
        <time>2013-05-30T04:13:20.000Z</time>
      </trkpt>
      <trkpt lat="45.88912" lon="6.22641">
        <ele>599</ele>
        <time>2013-05-30T04:13:21.000Z</time>
      </trkpt>
      <trkpt lat="45.88914" lon="6.22643">
        <ele>600</ele>
        <time>2013-05-30T04:13:22.000Z</time>
      </trkpt>
      <trkpt lat="45.88917" lon="6.22644">
        <ele>596</ele>
        <time>2013-05-30T04:13:23.000Z</time>
      </trkpt>
      <trkpt lat="45.8892" lon="6.22645">
        <ele>596</ele>
        <time>2013-05-30T04:13:24.000Z</time>
      </trkpt>
      <trkpt lat="45.88922" lon="6.22646">
        <ele>596</ele>
        <time>2013-05-30T04:13:25.000Z</time>
      </trkpt>
      <trkpt lat="45.88924" lon="6.22648">
        <ele>596</ele>
        <time>2013-05-30T04:13:26.000Z</time>
      </trkpt>
      <trkpt lat="45.88927" lon="6.22649">
        <ele>596</ele>
        <time>2013-05-30T04:13:27.000Z</time>
      </trkpt>
      <trkpt lat="45.8893" lon="6.2265">
        <ele>596</ele>
        <time>2013-05-30T04:13:28.000Z</time>
      </trkpt>
      <trkpt lat="45.88932" lon="6.22652">
        <ele>596</ele>
        <time>2013-05-30T04:13:29.000Z</time>
      </trkpt>
      <trkpt lat="45.88935" lon="6.22653">
        <ele>596</ele>
        <time>2013-05-30T04:13:30.000Z</time>
      </trkpt>
      <trkpt lat="45.88937" lon="6.22655">
        <ele>596</ele>
        <time>2013-05-30T04:13:31.000Z</time>
      </trkpt>
      <trkpt lat="45.8894" lon="6.22656">
        <ele>595</ele>
        <time>2013-05-30T04:13:32.000Z</time>
      </trkpt>
      <trkpt lat="45.88942" lon="6.22657">
        <ele>595</ele>
        <time>2013-05-30T04:13:33.000Z</time>
      </trkpt>
      <trkpt lat="45.88944" lon="6.22659">
        <ele>595</ele>
        <time>2013-05-30T04:13:34.000Z</time>
      </trkpt>
      <trkpt lat="45.88947" lon="6.2266">
        <ele>595</ele>
        <time>2013-05-30T04:13:35.000Z</time>
      </trkpt>
      <trkpt lat="45.88949" lon="6.22661">
        <ele>595</ele>
        <time>2013-05-30T04:13:36.000Z</time>
      </trkpt>
      <trkpt lat="45.88952" lon="6.22663">
        <ele>595</ele>
        <time>2013-05-30T04:13:37.000Z</time>
      </trkpt>
      <trkpt lat="45.88954" lon="6.22664">
        <ele>594</ele>
        <time>2013-05-30T04:13:38.000Z</time>
      </trkpt>
      <trkpt lat="45.88957" lon="6.22665">
        <ele>594</ele>
        <time>2013-05-30T04:13:39.000Z</time>
      </trkpt>
      <trkpt lat="45.88959" lon="6.22667">
        <ele>607</ele>
        <time>2013-05-30T04:13:40.000Z</time>
      </trkpt>
      <trkpt lat="45.88962" lon="6.22668">
        <ele>607</ele>
        <time>2013-05-30T04:13:41.000Z</time>
      </trkpt>
      <trkpt lat="45.88965" lon="6.2267">
        <ele>606</ele>
        <time>2013-05-30T04:13:42.000Z</time>
      </trkpt>
      <trkpt lat="45.88967" lon="6.22671">
        <ele>606</ele>
        <time>2013-05-30T04:13:43.000Z</time>
      </trkpt>
      <trkpt lat="45.8897" lon="6.22672">
        <ele>606</ele>
        <time>2013-05-30T04:13:44.000Z</time>
      </trkpt>
      <trkpt lat="45.88973" lon="6.22673">
        <ele>606</ele>
        <time>2013-05-30T04:13:45.000Z</time>
      </trkpt>
      <trkpt lat="45.88975" lon="6.22675">
        <ele>605</ele>
        <time>2013-05-30T04:13:46.000Z</time>
      </trkpt>
      <trkpt lat="45.88977" lon="6.22676">
        <ele>605</ele>
        <time>2013-05-30T04:13:47.000Z</time>
      </trkpt>
      <trkpt lat="45.8898" lon="6.22678">
        <ele>605</ele>
        <time>2013-05-30T04:13:48.000Z</time>
      </trkpt>
      <trkpt lat="45.88982" lon="6.22678">
        <ele>605</ele>
        <time>2013-05-30T04:13:49.000Z</time>
      </trkpt>
      <trkpt lat="45.88985" lon="6.2268">
        <ele>604</ele>
        <time>2013-05-30T04:13:50.000Z</time>
      </trkpt>
      <trkpt lat="45.88987" lon="6.22681">
        <ele>604</ele>
        <time>2013-05-30T04:13:51.000Z</time>
      </trkpt>
      <trkpt lat="45.8899" lon="6.22682">
        <ele>604</ele>
        <time>2013-05-30T04:13:52.000Z</time>
      </trkpt>
      <trkpt lat="45.88992" lon="6.22683">
        <ele>604</ele>
        <time>2013-05-30T04:13:53.000Z</time>
      </trkpt>
      <trkpt lat="45.88994" lon="6.22684">
        <ele>604</ele>
        <time>2013-05-30T04:13:54.000Z</time>
      </trkpt>
      <trkpt lat="45.88997" lon="6.22685">
        <ele>604</ele>
        <time>2013-05-30T04:13:55.000Z</time>
      </trkpt>
      <trkpt lat="45.88999" lon="6.22686">
        <ele>604</ele>
        <time>2013-05-30T04:13:56.000Z</time>
      </trkpt>
      <trkpt lat="45.89002" lon="6.22688">
        <ele>600</ele>
        <time>2013-05-30T04:13:57.000Z</time>
      </trkpt>
      <trkpt lat="45.89004" lon="6.22689">
        <ele>600</ele>
        <time>2013-05-30T04:13:58.000Z</time>
      </trkpt>
      <trkpt lat="45.89007" lon="6.2269">
        <ele>600</ele>
        <time>2013-05-30T04:13:59.000Z</time>
      </trkpt>
      <trkpt lat="45.8901" lon="6.22691">
        <ele>601</ele>
        <time>2013-05-30T04:14:00.000Z</time>
      </trkpt>
      <trkpt lat="45.89012" lon="6.22693">
        <ele>601</ele>
        <time>2013-05-30T04:14:01.000Z</time>
      </trkpt>
      <trkpt lat="45.89015" lon="6.22694">
        <ele>601</ele>
        <time>2013-05-30T04:14:02.000Z</time>
      </trkpt>
      <trkpt lat="45.89018" lon="6.22695">
        <ele>601</ele>
        <time>2013-05-30T04:14:03.000Z</time>
      </trkpt>
      <trkpt lat="45.8902" lon="6.22696">
        <ele>601</ele>
        <time>2013-05-30T04:14:04.000Z</time>
      </trkpt>
      <trkpt lat="45.89023" lon="6.22697">
        <ele>601</ele>
        <time>2013-05-30T04:14:05.000Z</time>
      </trkpt>
      <trkpt lat="45.89025" lon="6.22698">
        <ele>601</ele>
        <time>2013-05-30T04:14:06.000Z</time>
      </trkpt>
      <trkpt lat="45.89028" lon="6.227">
        <ele>601</ele>
        <time>2013-05-30T04:14:07.000Z</time>
      </trkpt>
      <trkpt lat="45.8903" lon="6.227">
        <ele>601</ele>
        <time>2013-05-30T04:14:08.000Z</time>
      </trkpt>
      <trkpt lat="45.89033" lon="6.22702">
        <ele>601</ele>
        <time>2013-05-30T04:14:09.000Z</time>
      </trkpt>
      <trkpt lat="45.89035" lon="6.22703">
        <ele>601</ele>
        <time>2013-05-30T04:14:10.000Z</time>
      </trkpt>
      <trkpt lat="45.89037" lon="6.22705">
        <ele>601</ele>
        <time>2013-05-30T04:14:11.000Z</time>
      </trkpt>
      <trkpt lat="45.8904" lon="6.22706">
        <ele>601</ele>
        <time>2013-05-30T04:14:12.000Z</time>
      </trkpt>
      <trkpt lat="45.89043" lon="6.22707">
        <ele>601</ele>
        <time>2013-05-30T04:14:13.000Z</time>
      </trkpt>
      <trkpt lat="45.89045" lon="6.22709">
        <ele>601</ele>
        <time>2013-05-30T04:14:14.000Z</time>
      </trkpt>
      <trkpt lat="45.89048" lon="6.2271">
        <ele>601</ele>
        <time>2013-05-30T04:14:15.000Z</time>
      </trkpt>
      <trkpt lat="45.8905" lon="6.22711">
        <ele>601</ele>
        <time>2013-05-30T04:14:16.000Z</time>
      </trkpt>
      <trkpt lat="45.89053" lon="6.22712">
        <ele>601</ele>
        <time>2013-05-30T04:14:17.000Z</time>
      </trkpt>
      <trkpt lat="45.89055" lon="6.22714">
        <ele>601</ele>
        <time>2013-05-30T04:14:18.000Z</time>
      </trkpt>
      <trkpt lat="45.89058" lon="6.22715">
        <ele>601</ele>
        <time>2013-05-30T04:14:19.000Z</time>
      </trkpt>
      <trkpt lat="45.8906" lon="6.22717">
        <ele>601</ele>
        <time>2013-05-30T04:14:20.000Z</time>
      </trkpt>
      <trkpt lat="45.89063" lon="6.22718">
        <ele>601</ele>
        <time>2013-05-30T04:14:21.000Z</time>
      </trkpt>
      <trkpt lat="45.89065" lon="6.22719">
        <ele>601</ele>
        <time>2013-05-30T04:14:22.000Z</time>
      </trkpt>
      <trkpt lat="45.89068" lon="6.2272">
        <ele>601</ele>
        <time>2013-05-30T04:14:23.000Z</time>
      </trkpt>
      <trkpt lat="45.8907" lon="6.22722">
        <ele>601</ele>
        <time>2013-05-30T04:14:24.000Z</time>
      </trkpt>
      <trkpt lat="45.89073" lon="6.22724">
        <ele>602</ele>
        <time>2013-05-30T04:14:25.000Z</time>
      </trkpt>
      <trkpt lat="45.89075" lon="6.22725">
        <ele>602</ele>
        <time>2013-05-30T04:14:26.000Z</time>
      </trkpt>
      <trkpt lat="45.89078" lon="6.22726">
        <ele>602</ele>
        <time>2013-05-30T04:14:27.000Z</time>
      </trkpt>
      <trkpt lat="45.89081" lon="6.22728">
        <ele>602</ele>
        <time>2013-05-30T04:14:28.000Z</time>
      </trkpt>
      <trkpt lat="45.89083" lon="6.22729">
        <ele>602</ele>
        <time>2013-05-30T04:14:29.000Z</time>
      </trkpt>
      <trkpt lat="45.89086" lon="6.2273">
        <ele>595</ele>
        <time>2013-05-30T04:14:30.000Z</time>
      </trkpt>
      <trkpt lat="45.89088" lon="6.22731">
        <ele>595</ele>
        <time>2013-05-30T04:14:31.000Z</time>
      </trkpt>
      <trkpt lat="45.89091" lon="6.22733">
        <ele>595</ele>
        <time>2013-05-30T04:14:32.000Z</time>
      </trkpt>
      <trkpt lat="45.89093" lon="6.22734">
        <ele>596</ele>
        <time>2013-05-30T04:14:33.000Z</time>
      </trkpt>
      <trkpt lat="45.89095" lon="6.22736">
        <ele>596</ele>
        <time>2013-05-30T04:14:34.000Z</time>
      </trkpt>
      <trkpt lat="45.89098" lon="6.22738">
        <ele>595</ele>
        <time>2013-05-30T04:14:35.000Z</time>
      </trkpt>
      <trkpt lat="45.891" lon="6.2274">
        <ele>595</ele>
        <time>2013-05-30T04:14:36.000Z</time>
      </trkpt>
      <trkpt lat="45.89102" lon="6.22741">
        <ele>595</ele>
        <time>2013-05-30T04:14:37.000Z</time>
      </trkpt>
      <trkpt lat="45.89105" lon="6.22743">
        <ele>594</ele>
        <time>2013-05-30T04:14:38.000Z</time>
      </trkpt>
      <trkpt lat="45.89107" lon="6.22745">
        <ele>594</ele>
        <time>2013-05-30T04:14:39.000Z</time>
      </trkpt>
      <trkpt lat="45.89109" lon="6.22747">
        <ele>594</ele>
        <time>2013-05-30T04:14:40.000Z</time>
      </trkpt>
      <trkpt lat="45.89111" lon="6.22749">
        <ele>593</ele>
        <time>2013-05-30T04:14:41.000Z</time>
      </trkpt>
      <trkpt lat="45.89113" lon="6.22751">
        <ele>599</ele>
        <time>2013-05-30T04:14:42.000Z</time>
      </trkpt>
      <trkpt lat="45.89116" lon="6.22754">
        <ele>598</ele>
        <time>2013-05-30T04:14:43.000Z</time>
      </trkpt>
      <trkpt lat="45.89118" lon="6.22757">
        <ele>598</ele>
        <time>2013-05-30T04:14:44.000Z</time>
      </trkpt>
      <trkpt lat="45.8912" lon="6.2276">
        <ele>598</ele>
        <time>2013-05-30T04:14:45.000Z</time>
      </trkpt>
      <trkpt lat="45.89122" lon="6.22763">
        <ele>597</ele>
        <time>2013-05-30T04:14:46.000Z</time>
      </trkpt>
      <trkpt lat="45.89124" lon="6.22766">
        <ele>597</ele>
        <time>2013-05-30T04:14:47.000Z</time>
      </trkpt>
      <trkpt lat="45.89126" lon="6.2277">
        <ele>597</ele>
        <time>2013-05-30T04:14:48.000Z</time>
      </trkpt>
      <trkpt lat="45.89127" lon="6.22773">
        <ele>597</ele>
        <time>2013-05-30T04:14:49.000Z</time>
      </trkpt>
      <trkpt lat="45.89129" lon="6.22777">
        <ele>597</ele>
        <time>2013-05-30T04:14:50.000Z</time>
      </trkpt>
      <trkpt lat="45.89131" lon="6.2278">
        <ele>597</ele>
        <time>2013-05-30T04:14:51.000Z</time>
      </trkpt>
      <trkpt lat="45.89132" lon="6.22784">
        <ele>597</ele>
        <time>2013-05-30T04:14:52.000Z</time>
      </trkpt>
      <trkpt lat="45.89134" lon="6.22787">
        <ele>596</ele>
        <time>2013-05-30T04:14:53.000Z</time>
      </trkpt>
      <trkpt lat="45.89136" lon="6.22791">
        <ele>596</ele>
        <time>2013-05-30T04:14:54.000Z</time>
      </trkpt>
      <trkpt lat="45.89137" lon="6.22795">
        <ele>596</ele>
        <time>2013-05-30T04:14:55.000Z</time>
      </trkpt>
      <trkpt lat="45.89138" lon="6.22799">
        <ele>596</ele>
        <time>2013-05-30T04:14:56.000Z</time>
      </trkpt>
      <trkpt lat="45.89139" lon="6.22802">
        <ele>596</ele>
        <time>2013-05-30T04:14:57.000Z</time>
      </trkpt>
      <trkpt lat="45.8914" lon="6.22806">
        <ele>596</ele>
        <time>2013-05-30T04:14:58.000Z</time>
      </trkpt>
      <trkpt lat="45.89141" lon="6.2281">
        <ele>596</ele>
        <time>2013-05-30T04:14:59.000Z</time>
      </trkpt>
      <trkpt lat="45.89142" lon="6.22813">
        <ele>596</ele>
        <time>2013-05-30T04:15:00.000Z</time>
      </trkpt>
      <trkpt lat="45.89143" lon="6.22817">
        <ele>595</ele>
        <time>2013-05-30T04:15:01.000Z</time>
      </trkpt>
      <trkpt lat="45.89144" lon="6.22821">
        <ele>595</ele>
        <time>2013-05-30T04:15:02.000Z</time>
      </trkpt>
      <trkpt lat="45.89144" lon="6.22825">
        <ele>595</ele>
        <time>2013-05-30T04:15:03.000Z</time>
      </trkpt>
      <trkpt lat="45.89145" lon="6.22829">
        <ele>594</ele>
        <time>2013-05-30T04:15:04.000Z</time>
      </trkpt>
      <trkpt lat="45.89146" lon="6.22833">
        <ele>594</ele>
        <time>2013-05-30T04:15:05.000Z</time>
      </trkpt>
      <trkpt lat="45.89146" lon="6.22837">
        <ele>594</ele>
        <time>2013-05-30T04:15:06.000Z</time>
      </trkpt>
      <trkpt lat="45.89147" lon="6.22842">
        <ele>594</ele>
        <time>2013-05-30T04:15:07.000Z</time>
      </trkpt>
      <trkpt lat="45.89147" lon="6.22846">
        <ele>594</ele>
        <time>2013-05-30T04:15:08.000Z</time>
      </trkpt>
      <trkpt lat="45.89148" lon="6.2285">
        <ele>594</ele>
        <time>2013-05-30T04:15:09.000Z</time>
      </trkpt>
      <trkpt lat="45.89149" lon="6.22855">
        <ele>594</ele>
        <time>2013-05-30T04:15:10.000Z</time>
      </trkpt>
      <trkpt lat="45.89149" lon="6.22859">
        <ele>594</ele>
        <time>2013-05-30T04:15:11.000Z</time>
      </trkpt>
      <trkpt lat="45.89149" lon="6.22863">
        <ele>594</ele>
        <time>2013-05-30T04:15:12.000Z</time>
      </trkpt>
      <trkpt lat="45.8915" lon="6.22867">
        <ele>594</ele>
        <time>2013-05-30T04:15:13.000Z</time>
      </trkpt>
      <trkpt lat="45.8915" lon="6.22871">
        <ele>594</ele>
        <time>2013-05-30T04:15:14.000Z</time>
      </trkpt>
      <trkpt lat="45.8915" lon="6.22876">
        <ele>594</ele>
        <time>2013-05-30T04:15:15.000Z</time>
      </trkpt>
      <trkpt lat="45.89149" lon="6.2288">
        <ele>593</ele>
        <time>2013-05-30T04:15:16.000Z</time>
      </trkpt>
      <trkpt lat="45.89149" lon="6.22884">
        <ele>593</ele>
        <time>2013-05-30T04:15:17.000Z</time>
      </trkpt>
      <trkpt lat="45.89148" lon="6.22888">
        <ele>593</ele>
        <time>2013-05-30T04:15:18.000Z</time>
      </trkpt>
      <trkpt lat="45.89148" lon="6.22891">
        <ele>593</ele>
        <time>2013-05-30T04:15:19.000Z</time>
      </trkpt>
      <trkpt lat="45.89147" lon="6.22895">
        <ele>592</ele>
        <time>2013-05-30T04:15:20.000Z</time>
      </trkpt>
      <trkpt lat="45.89146" lon="6.22899">
        <ele>592</ele>
        <time>2013-05-30T04:15:21.000Z</time>
      </trkpt>
      <trkpt lat="45.89145" lon="6.22903">
        <ele>592</ele>
        <time>2013-05-30T04:15:22.000Z</time>
      </trkpt>
      <trkpt lat="45.89143" lon="6.22906">
        <ele>592</ele>
        <time>2013-05-30T04:15:23.000Z</time>
      </trkpt>
      <trkpt lat="45.89142" lon="6.2291">
        <ele>592</ele>
        <time>2013-05-30T04:15:24.000Z</time>
      </trkpt>
      <trkpt lat="45.89141" lon="6.22914">
        <ele>592</ele>
        <time>2013-05-30T04:15:25.000Z</time>
      </trkpt>
      <trkpt lat="45.89139" lon="6.22917">
        <ele>589</ele>
        <time>2013-05-30T04:15:26.000Z</time>
      </trkpt>
      <trkpt lat="45.89138" lon="6.22921">
        <ele>589</ele>
        <time>2013-05-30T04:15:27.000Z</time>
      </trkpt>
      <trkpt lat="45.89137" lon="6.22925">
        <ele>589</ele>
        <time>2013-05-30T04:15:28.000Z</time>
      </trkpt>
      <trkpt lat="45.89135" lon="6.22929">
        <ele>589</ele>
        <time>2013-05-30T04:15:29.000Z</time>
      </trkpt>
      <trkpt lat="45.89134" lon="6.22933">
        <ele>589</ele>
        <time>2013-05-30T04:15:30.000Z</time>
      </trkpt>
      <trkpt lat="45.89133" lon="6.22936">
        <ele>590</ele>
        <time>2013-05-30T04:15:31.000Z</time>
      </trkpt>
      <trkpt lat="45.89132" lon="6.2294">
        <ele>590</ele>
        <time>2013-05-30T04:15:32.000Z</time>
      </trkpt>
      <trkpt lat="45.89131" lon="6.22944">
        <ele>590</ele>
        <time>2013-05-30T04:15:33.000Z</time>
      </trkpt>
      <trkpt lat="45.8913" lon="6.22947">
        <ele>590</ele>
        <time>2013-05-30T04:15:34.000Z</time>
      </trkpt>
      <trkpt lat="45.89129" lon="6.2295">
        <ele>590</ele>
        <time>2013-05-30T04:15:35.000Z</time>
      </trkpt>
      <trkpt lat="45.89128" lon="6.22953">
        <ele>590</ele>
        <time>2013-05-30T04:15:36.000Z</time>
      </trkpt>
      <trkpt lat="45.89126" lon="6.22957">
        <ele>590</ele>
        <time>2013-05-30T04:15:37.000Z</time>
      </trkpt>
      <trkpt lat="45.89125" lon="6.2296">
        <ele>590</ele>
        <time>2013-05-30T04:15:38.000Z</time>
      </trkpt>
      <trkpt lat="45.89123" lon="6.22963">
        <ele>590</ele>
        <time>2013-05-30T04:15:39.000Z</time>
      </trkpt>
      <trkpt lat="45.89122" lon="6.22967">
        <ele>590</ele>
        <time>2013-05-30T04:15:40.000Z</time>
      </trkpt>
      <trkpt lat="45.89121" lon="6.2297">
        <ele>590</ele>
        <time>2013-05-30T04:15:41.000Z</time>
      </trkpt>
      <trkpt lat="45.8912" lon="6.22974">
        <ele>590</ele>
        <time>2013-05-30T04:15:42.000Z</time>
      </trkpt>
      <trkpt lat="45.89119" lon="6.22978">
        <ele>590</ele>
        <time>2013-05-30T04:15:43.000Z</time>
      </trkpt>
      <trkpt lat="45.89117" lon="6.22981">
        <ele>590</ele>
        <time>2013-05-30T04:15:44.000Z</time>
      </trkpt>
      <trkpt lat="45.89116" lon="6.22985">
        <ele>590</ele>
        <time>2013-05-30T04:15:45.000Z</time>
      </trkpt>
      <trkpt lat="45.89115" lon="6.22989">
        <ele>591</ele>
        <time>2013-05-30T04:15:46.000Z</time>
      </trkpt>
      <trkpt lat="45.89113" lon="6.22993">
        <ele>591</ele>
        <time>2013-05-30T04:15:47.000Z</time>
      </trkpt>
      <trkpt lat="45.89112" lon="6.22997">
        <ele>591</ele>
        <time>2013-05-30T04:15:48.000Z</time>
      </trkpt>
      <trkpt lat="45.89111" lon="6.23001">
        <ele>587</ele>
        <time>2013-05-30T04:15:49.000Z</time>
      </trkpt>
      <trkpt lat="45.8911" lon="6.23004">
        <ele>587</ele>
        <time>2013-05-30T04:15:50.000Z</time>
      </trkpt>
      <trkpt lat="45.89109" lon="6.23007">
        <ele>587</ele>
        <time>2013-05-30T04:15:51.000Z</time>
      </trkpt>
      <trkpt lat="45.89108" lon="6.23011">
        <ele>587</ele>
        <time>2013-05-30T04:15:52.000Z</time>
      </trkpt>
      <trkpt lat="45.89107" lon="6.23015">
        <ele>587</ele>
        <time>2013-05-30T04:15:53.000Z</time>
      </trkpt>
      <trkpt lat="45.89106" lon="6.23018">
        <ele>587</ele>
        <time>2013-05-30T04:15:54.000Z</time>
      </trkpt>
      <trkpt lat="45.89105" lon="6.23022">
        <ele>586</ele>
        <time>2013-05-30T04:15:55.000Z</time>
      </trkpt>
      <trkpt lat="45.89104" lon="6.23026">
        <ele>586</ele>
        <time>2013-05-30T04:15:56.000Z</time>
      </trkpt>
      <trkpt lat="45.89103" lon="6.23029">
        <ele>586</ele>
        <time>2013-05-30T04:15:57.000Z</time>
      </trkpt>
      <trkpt lat="45.89102" lon="6.23033">
        <ele>586</ele>
        <time>2013-05-30T04:15:58.000Z</time>
      </trkpt>
      <trkpt lat="45.89101" lon="6.23036">
        <ele>585</ele>
        <time>2013-05-30T04:15:59.000Z</time>
      </trkpt>
      <trkpt lat="45.89099" lon="6.2304">
        <ele>585</ele>
        <time>2013-05-30T04:16:00.000Z</time>
      </trkpt>
      <trkpt lat="45.89098" lon="6.23044">
        <ele>585</ele>
        <time>2013-05-30T04:16:01.000Z</time>
      </trkpt>
      <trkpt lat="45.89097" lon="6.23048">
        <ele>585</ele>
        <time>2013-05-30T04:16:02.000Z</time>
      </trkpt>
      <trkpt lat="45.89096" lon="6.23051">
        <ele>585</ele>
        <time>2013-05-30T04:16:03.000Z</time>
      </trkpt>
      <trkpt lat="45.89095" lon="6.23055">
        <ele>585</ele>
        <time>2013-05-30T04:16:04.000Z</time>
      </trkpt>
      <trkpt lat="45.89095" lon="6.23059">
        <ele>585</ele>
        <time>2013-05-30T04:16:05.000Z</time>
      </trkpt>
      <trkpt lat="45.89094" lon="6.23062">
        <ele>584</ele>
        <time>2013-05-30T04:16:06.000Z</time>
      </trkpt>
      <trkpt lat="45.89094" lon="6.23066">
        <ele>585</ele>
        <time>2013-05-30T04:16:07.000Z</time>
      </trkpt>
      <trkpt lat="45.89093" lon="6.2307">
        <ele>585</ele>
        <time>2013-05-30T04:16:08.000Z</time>
      </trkpt>
      <trkpt lat="45.89092" lon="6.23073">
        <ele>585</ele>
        <time>2013-05-30T04:16:09.000Z</time>
      </trkpt>
      <trkpt lat="45.8909" lon="6.23077">
        <ele>585</ele>
        <time>2013-05-30T04:16:10.000Z</time>
      </trkpt>
      <trkpt lat="45.89089" lon="6.2308">
        <ele>585</ele>
        <time>2013-05-30T04:16:11.000Z</time>
      </trkpt>
      <trkpt lat="45.89087" lon="6.23083">
        <ele>586</ele>
        <time>2013-05-30T04:16:12.000Z</time>
      </trkpt>
      <trkpt lat="45.89086" lon="6.23087">
        <ele>585</ele>
        <time>2013-05-30T04:16:13.000Z</time>
      </trkpt>
      <trkpt lat="45.89085" lon="6.2309">
        <ele>584</ele>
        <time>2013-05-30T04:16:14.000Z</time>
      </trkpt>
      <trkpt lat="45.89084" lon="6.23094">
        <ele>583</ele>
        <time>2013-05-30T04:16:15.000Z</time>
      </trkpt>
      <trkpt lat="45.89083" lon="6.23097">
        <ele>587</ele>
        <time>2013-05-30T04:16:16.000Z</time>
      </trkpt>
      <trkpt lat="45.89082" lon="6.23101">
        <ele>587</ele>
        <time>2013-05-30T04:16:17.000Z</time>
      </trkpt>
      <trkpt lat="45.89081" lon="6.23104">
        <ele>587</ele>
        <time>2013-05-30T04:16:18.000Z</time>
      </trkpt>
      <trkpt lat="45.89079" lon="6.23108">
        <ele>588</ele>
        <time>2013-05-30T04:16:19.000Z</time>
      </trkpt>
      <trkpt lat="45.89078" lon="6.23112">
        <ele>588</ele>
        <time>2013-05-30T04:16:20.000Z</time>
      </trkpt>
      <trkpt lat="45.89078" lon="6.23116">
        <ele>588</ele>
        <time>2013-05-30T04:16:21.000Z</time>
      </trkpt>
      <trkpt lat="45.89077" lon="6.2312">
        <ele>587</ele>
        <time>2013-05-30T04:16:22.000Z</time>
      </trkpt>
      <trkpt lat="45.89075" lon="6.23124">
        <ele>587</ele>
        <time>2013-05-30T04:16:23.000Z</time>
      </trkpt>
      <trkpt lat="45.89075" lon="6.23128">
        <ele>587</ele>
        <time>2013-05-30T04:16:24.000Z</time>
      </trkpt>
      <trkpt lat="45.89074" lon="6.23132">
        <ele>587</ele>
        <time>2013-05-30T04:16:25.000Z</time>
      </trkpt>
      <trkpt lat="45.89073" lon="6.23136">
        <ele>587</ele>
        <time>2013-05-30T04:16:26.000Z</time>
      </trkpt>
      <trkpt lat="45.89072" lon="6.2314">
        <ele>586</ele>
        <time>2013-05-30T04:16:27.000Z</time>
      </trkpt>
      <trkpt lat="45.89071" lon="6.23144">
        <ele>586</ele>
        <time>2013-05-30T04:16:28.000Z</time>
      </trkpt>
      <trkpt lat="45.8907" lon="6.23147">
        <ele>586</ele>
        <time>2013-05-30T04:16:29.000Z</time>
      </trkpt>
      <trkpt lat="45.89069" lon="6.23151">
        <ele>586</ele>
        <time>2013-05-30T04:16:30.000Z</time>
      </trkpt>
      <trkpt lat="45.89068" lon="6.23155">
        <ele>585</ele>
        <time>2013-05-30T04:16:31.000Z</time>
      </trkpt>
      <trkpt lat="45.89066" lon="6.23159">
        <ele>585</ele>
        <time>2013-05-30T04:16:32.000Z</time>
      </trkpt>
      <trkpt lat="45.89066" lon="6.23162">
        <ele>585</ele>
        <time>2013-05-30T04:16:33.000Z</time>
      </trkpt>
      <trkpt lat="45.89064" lon="6.23166">
        <ele>585</ele>
        <time>2013-05-30T04:16:34.000Z</time>
      </trkpt>
      <trkpt lat="45.89063" lon="6.2317">
        <ele>584</ele>
        <time>2013-05-30T04:16:35.000Z</time>
      </trkpt>
      <trkpt lat="45.89062" lon="6.23174">
        <ele>584</ele>
        <time>2013-05-30T04:16:36.000Z</time>
      </trkpt>
      <trkpt lat="45.89061" lon="6.23178">
        <ele>584</ele>
        <time>2013-05-30T04:16:37.000Z</time>
      </trkpt>
      <trkpt lat="45.89061" lon="6.23182">
        <ele>584</ele>
        <time>2013-05-30T04:16:38.000Z</time>
      </trkpt>
      <trkpt lat="45.89059" lon="6.23185">
        <ele>584</ele>
        <time>2013-05-30T04:16:39.000Z</time>
      </trkpt>
      <trkpt lat="45.89059" lon="6.23189">
        <ele>584</ele>
        <time>2013-05-30T04:16:40.000Z</time>
      </trkpt>
      <trkpt lat="45.89058" lon="6.23194">
        <ele>585</ele>
        <time>2013-05-30T04:16:41.000Z</time>
      </trkpt>
      <trkpt lat="45.89057" lon="6.23197">
        <ele>585</ele>
        <time>2013-05-30T04:16:42.000Z</time>
      </trkpt>
      <trkpt lat="45.89056" lon="6.23201">
        <ele>585</ele>
        <time>2013-05-30T04:16:43.000Z</time>
      </trkpt>
      <trkpt lat="45.89056" lon="6.23205">
        <ele>585</ele>
        <time>2013-05-30T04:16:44.000Z</time>
      </trkpt>
      <trkpt lat="45.89055" lon="6.23209">
        <ele>585</ele>
        <time>2013-05-30T04:16:45.000Z</time>
      </trkpt>
      <trkpt lat="45.89054" lon="6.23213">
        <ele>585</ele>
        <time>2013-05-30T04:16:46.000Z</time>
      </trkpt>
      <trkpt lat="45.89054" lon="6.23217">
        <ele>585</ele>
        <time>2013-05-30T04:16:47.000Z</time>
      </trkpt>
      <trkpt lat="45.89054" lon="6.23221">
        <ele>585</ele>
        <time>2013-05-30T04:16:48.000Z</time>
      </trkpt>
      <trkpt lat="45.89054" lon="6.23225">
        <ele>585</ele>
        <time>2013-05-30T04:16:49.000Z</time>
      </trkpt>
      <trkpt lat="45.89053" lon="6.23229">
        <ele>584</ele>
        <time>2013-05-30T04:16:50.000Z</time>
      </trkpt>
      <trkpt lat="45.89053" lon="6.23233">
        <ele>584</ele>
        <time>2013-05-30T04:16:51.000Z</time>
      </trkpt>
      <trkpt lat="45.89052" lon="6.23237">
        <ele>584</ele>
        <time>2013-05-30T04:16:52.000Z</time>
      </trkpt>
      <trkpt lat="45.89051" lon="6.2324">
        <ele>584</ele>
        <time>2013-05-30T04:16:53.000Z</time>
      </trkpt>
      <trkpt lat="45.8905" lon="6.23244">
        <ele>584</ele>
        <time>2013-05-30T04:16:54.000Z</time>
      </trkpt>
      <trkpt lat="45.8905" lon="6.23248">
        <ele>584</ele>
        <time>2013-05-30T04:16:55.000Z</time>
      </trkpt>
      <trkpt lat="45.89049" lon="6.23252">
        <ele>583</ele>
        <time>2013-05-30T04:16:56.000Z</time>
      </trkpt>
      <trkpt lat="45.89049" lon="6.23256">
        <ele>583</ele>
        <time>2013-05-30T04:16:57.000Z</time>
      </trkpt>
      <trkpt lat="45.89048" lon="6.23259">
        <ele>583</ele>
        <time>2013-05-30T04:16:58.000Z</time>
      </trkpt>
      <trkpt lat="45.89048" lon="6.23263">
        <ele>583</ele>
        <time>2013-05-30T04:16:59.000Z</time>
      </trkpt>
      <trkpt lat="45.89048" lon="6.23267">
        <ele>583</ele>
        <time>2013-05-30T04:17:00.000Z</time>
      </trkpt>
      <trkpt lat="45.89047" lon="6.2327">
        <ele>583</ele>
        <time>2013-05-30T04:17:01.000Z</time>
      </trkpt>
      <trkpt lat="45.89047" lon="6.23274">
        <ele>583</ele>
        <time>2013-05-30T04:17:02.000Z</time>
      </trkpt>
      <trkpt lat="45.89047" lon="6.23278">
        <ele>583</ele>
        <time>2013-05-30T04:17:03.000Z</time>
      </trkpt>
      <trkpt lat="45.89047" lon="6.23282">
        <ele>583</ele>
        <time>2013-05-30T04:17:04.000Z</time>
      </trkpt>
      <trkpt lat="45.89047" lon="6.23286">
        <ele>583</ele>
        <time>2013-05-30T04:17:05.000Z</time>
      </trkpt>
      <trkpt lat="45.89046" lon="6.2329">
        <ele>583</ele>
        <time>2013-05-30T04:17:06.000Z</time>
      </trkpt>
      <trkpt lat="45.89046" lon="6.23294">
        <ele>583</ele>
        <time>2013-05-30T04:17:07.000Z</time>
      </trkpt>
      <trkpt lat="45.89046" lon="6.23298">
        <ele>583</ele>
        <time>2013-05-30T04:17:08.000Z</time>
      </trkpt>
      <trkpt lat="45.89046" lon="6.23301">
        <ele>583</ele>
        <time>2013-05-30T04:17:09.000Z</time>
      </trkpt>
      <trkpt lat="45.89047" lon="6.23305">
        <ele>583</ele>
        <time>2013-05-30T04:17:10.000Z</time>
      </trkpt>
      <trkpt lat="45.89047" lon="6.23309">
        <ele>583</ele>
        <time>2013-05-30T04:17:11.000Z</time>
      </trkpt>
      <trkpt lat="45.89047" lon="6.23313">
        <ele>583</ele>
        <time>2013-05-30T04:17:12.000Z</time>
      </trkpt>
      <trkpt lat="45.89047" lon="6.23317">
        <ele>582</ele>
        <time>2013-05-30T04:17:13.000Z</time>
      </trkpt>
      <trkpt lat="45.89047" lon="6.23321">
        <ele>582</ele>
        <time>2013-05-30T04:17:14.000Z</time>
      </trkpt>
      <trkpt lat="45.89048" lon="6.23325">
        <ele>582</ele>
        <time>2013-05-30T04:17:15.000Z</time>
      </trkpt>
      <trkpt lat="45.89048" lon="6.23329">
        <ele>582</ele>
        <time>2013-05-30T04:17:16.000Z</time>
      </trkpt>
      <trkpt lat="45.89048" lon="6.23332">
        <ele>582</ele>
        <time>2013-05-30T04:17:17.000Z</time>
      </trkpt>
      <trkpt lat="45.89048" lon="6.23336">
        <ele>581</ele>
        <time>2013-05-30T04:17:18.000Z</time>
      </trkpt>
      <trkpt lat="45.89048" lon="6.2334">
        <ele>581</ele>
        <time>2013-05-30T04:17:19.000Z</time>
      </trkpt>
      <trkpt lat="45.89048" lon="6.23344">
        <ele>581</ele>
        <time>2013-05-30T04:17:20.000Z</time>
      </trkpt>
      <trkpt lat="45.89048" lon="6.23348">
        <ele>581</ele>
        <time>2013-05-30T04:17:21.000Z</time>
      </trkpt>
      <trkpt lat="45.89049" lon="6.23352">
        <ele>581</ele>
        <time>2013-05-30T04:17:22.000Z</time>
      </trkpt>
      <trkpt lat="45.89049" lon="6.23356">
        <ele>581</ele>
        <time>2013-05-30T04:17:23.000Z</time>
      </trkpt>
      <trkpt lat="45.8905" lon="6.2336">
        <ele>581</ele>
        <time>2013-05-30T04:17:24.000Z</time>
      </trkpt>
      <trkpt lat="45.8905" lon="6.23364">
        <ele>581</ele>
        <time>2013-05-30T04:17:25.000Z</time>
      </trkpt>
      <trkpt lat="45.8905" lon="6.23368">
        <ele>581</ele>
        <time>2013-05-30T04:17:26.000Z</time>
      </trkpt>
      <trkpt lat="45.8905" lon="6.23372">
        <ele>581</ele>
        <time>2013-05-30T04:17:27.000Z</time>
      </trkpt>
      <trkpt lat="45.89051" lon="6.23376">
        <ele>580</ele>
        <time>2013-05-30T04:17:28.000Z</time>
      </trkpt>
      <trkpt lat="45.89051" lon="6.2338">
        <ele>580</ele>
        <time>2013-05-30T04:17:29.000Z</time>
      </trkpt>
      <trkpt lat="45.89051" lon="6.23384">
        <ele>580</ele>
        <time>2013-05-30T04:17:30.000Z</time>
      </trkpt>
      <trkpt lat="45.89052" lon="6.23388">
        <ele>580</ele>
        <time>2013-05-30T04:17:31.000Z</time>
      </trkpt>
      <trkpt lat="45.89053" lon="6.23392">
        <ele>580</ele>
        <time>2013-05-30T04:17:32.000Z</time>
      </trkpt>
      <trkpt lat="45.89054" lon="6.23395">
        <ele>580</ele>
        <time>2013-05-30T04:17:33.000Z</time>
      </trkpt>
      <trkpt lat="45.89055" lon="6.23399">
        <ele>580</ele>
        <time>2013-05-30T04:17:34.000Z</time>
      </trkpt>
      <trkpt lat="45.89057" lon="6.23402">
        <ele>580</ele>
        <time>2013-05-30T04:17:35.000Z</time>
      </trkpt>
      <trkpt lat="45.89058" lon="6.23406">
        <ele>579</ele>
        <time>2013-05-30T04:17:36.000Z</time>
      </trkpt>
      <trkpt lat="45.89059" lon="6.23409">
        <ele>579</ele>
        <time>2013-05-30T04:17:37.000Z</time>
      </trkpt>
      <trkpt lat="45.89061" lon="6.23412">
        <ele>579</ele>
        <time>2013-05-30T04:17:38.000Z</time>
      </trkpt>
      <trkpt lat="45.89062" lon="6.23416">
        <ele>579</ele>
        <time>2013-05-30T04:17:39.000Z</time>
      </trkpt>
      <trkpt lat="45.89063" lon="6.23419">
        <ele>579</ele>
        <time>2013-05-30T04:17:40.000Z</time>
      </trkpt>
      <trkpt lat="45.89065" lon="6.23423">
        <ele>578</ele>
        <time>2013-05-30T04:17:41.000Z</time>
      </trkpt>
      <trkpt lat="45.89066" lon="6.23427">
        <ele>578</ele>
        <time>2013-05-30T04:17:42.000Z</time>
      </trkpt>
      <trkpt lat="45.89066" lon="6.23431">
        <ele>579</ele>
        <time>2013-05-30T04:17:43.000Z</time>
      </trkpt>
      <trkpt lat="45.89066" lon="6.23435">
        <ele>579</ele>
        <time>2013-05-30T04:17:44.000Z</time>
      </trkpt>
      <trkpt lat="45.89065" lon="6.23439">
        <ele>579</ele>
        <time>2013-05-30T04:17:45.000Z</time>
      </trkpt>
      <trkpt lat="45.89065" lon="6.23443">
        <ele>579</ele>
        <time>2013-05-30T04:17:46.000Z</time>
      </trkpt>
      <trkpt lat="45.89064" lon="6.23446">
        <ele>579</ele>
        <time>2013-05-30T04:17:47.000Z</time>
      </trkpt>
      <trkpt lat="45.89064" lon="6.2345">
        <ele>579</ele>
        <time>2013-05-30T04:17:48.000Z</time>
      </trkpt>
      <trkpt lat="45.89063" lon="6.23453">
        <ele>579</ele>
        <time>2013-05-30T04:17:49.000Z</time>
      </trkpt>
      <trkpt lat="45.89063" lon="6.23457">
        <ele>579</ele>
        <time>2013-05-30T04:17:50.000Z</time>
      </trkpt>
      <trkpt lat="45.89063" lon="6.23461">
        <ele>579</ele>
        <time>2013-05-30T04:17:51.000Z</time>
      </trkpt>
      <trkpt lat="45.89063" lon="6.23465">
        <ele>580</ele>
        <time>2013-05-30T04:17:52.000Z</time>
      </trkpt>
      <trkpt lat="45.89063" lon="6.23468">
        <ele>580</ele>
        <time>2013-05-30T04:17:53.000Z</time>
      </trkpt>
      <trkpt lat="45.89064" lon="6.23472">
        <ele>580</ele>
        <time>2013-05-30T04:17:54.000Z</time>
      </trkpt>
      <trkpt lat="45.89063" lon="6.23475">
        <ele>580</ele>
        <time>2013-05-30T04:17:55.000Z</time>
      </trkpt>
      <trkpt lat="45.89064" lon="6.23479">
        <ele>579</ele>
        <time>2013-05-30T04:17:56.000Z</time>
      </trkpt>
      <trkpt lat="45.89064" lon="6.23482">
        <ele>579</ele>
        <time>2013-05-30T04:17:57.000Z</time>
      </trkpt>
      <trkpt lat="45.89065" lon="6.23486">
        <ele>579</ele>
        <time>2013-05-30T04:17:58.000Z</time>
      </trkpt>
      <trkpt lat="45.89065" lon="6.2349">
        <ele>579</ele>
        <time>2013-05-30T04:17:59.000Z</time>
      </trkpt>
      <trkpt lat="45.89065" lon="6.23494">
        <ele>579</ele>
        <time>2013-05-30T04:18:00.000Z</time>
      </trkpt>
      <trkpt lat="45.89066" lon="6.23498">
        <ele>579</ele>
        <time>2013-05-30T04:18:01.000Z</time>
      </trkpt>
      <trkpt lat="45.89067" lon="6.23502">
        <ele>579</ele>
        <time>2013-05-30T04:18:02.000Z</time>
      </trkpt>
      <trkpt lat="45.89067" lon="6.23506">
        <ele>579</ele>
        <time>2013-05-30T04:18:03.000Z</time>
      </trkpt>
      <trkpt lat="45.89067" lon="6.23509">
        <ele>579</ele>
        <time>2013-05-30T04:18:04.000Z</time>
      </trkpt>
      <trkpt lat="45.89067" lon="6.23513">
        <ele>579</ele>
        <time>2013-05-30T04:18:05.000Z</time>
      </trkpt>
      <trkpt lat="45.89068" lon="6.23517">
        <ele>579</ele>
        <time>2013-05-30T04:18:06.000Z</time>
      </trkpt>
      <trkpt lat="45.89069" lon="6.23521">
        <ele>579</ele>
        <time>2013-05-30T04:18:07.000Z</time>
      </trkpt>
      <trkpt lat="45.89069" lon="6.23525">
        <ele>579</ele>
        <time>2013-05-30T04:18:08.000Z</time>
      </trkpt>
      <trkpt lat="45.8907" lon="6.23529">
        <ele>580</ele>
        <time>2013-05-30T04:18:09.000Z</time>
      </trkpt>
      <trkpt lat="45.8907" lon="6.23533">
        <ele>580</ele>
        <time>2013-05-30T04:18:10.000Z</time>
      </trkpt>
      <trkpt lat="45.89071" lon="6.23537">
        <ele>580</ele>
        <time>2013-05-30T04:18:11.000Z</time>
      </trkpt>
      <trkpt lat="45.89071" lon="6.2354">
        <ele>580</ele>
        <time>2013-05-30T04:18:12.000Z</time>
      </trkpt>
      <trkpt lat="45.89072" lon="6.23544">
        <ele>580</ele>
        <time>2013-05-30T04:18:13.000Z</time>
      </trkpt>
      <trkpt lat="45.89073" lon="6.23548">
        <ele>580</ele>
        <time>2013-05-30T04:18:14.000Z</time>
      </trkpt>
      <trkpt lat="45.89073" lon="6.23551">
        <ele>579</ele>
        <time>2013-05-30T04:18:15.000Z</time>
      </trkpt>
      <trkpt lat="45.89074" lon="6.23555">
        <ele>579</ele>
        <time>2013-05-30T04:18:16.000Z</time>
      </trkpt>
      <trkpt lat="45.89074" lon="6.23559">
        <ele>579</ele>
        <time>2013-05-30T04:18:17.000Z</time>
      </trkpt>
      <trkpt lat="45.89075" lon="6.23563">
        <ele>579</ele>
        <time>2013-05-30T04:18:18.000Z</time>
      </trkpt>
      <trkpt lat="45.89075" lon="6.23567">
        <ele>579</ele>
        <time>2013-05-30T04:18:19.000Z</time>
      </trkpt>
      <trkpt lat="45.89076" lon="6.2357">
        <ele>579</ele>
        <time>2013-05-30T04:18:20.000Z</time>
      </trkpt>
      <trkpt lat="45.89077" lon="6.23574">
        <ele>579</ele>
        <time>2013-05-30T04:18:21.000Z</time>
      </trkpt>
      <trkpt lat="45.89077" lon="6.23578">
        <ele>579</ele>
        <time>2013-05-30T04:18:22.000Z</time>
      </trkpt>
      <trkpt lat="45.89078" lon="6.23582">
        <ele>578</ele>
        <time>2013-05-30T04:18:23.000Z</time>
      </trkpt>
      <trkpt lat="45.89078" lon="6.23585">
        <ele>579</ele>
        <time>2013-05-30T04:18:24.000Z</time>
      </trkpt>
      <trkpt lat="45.89079" lon="6.23589">
        <ele>579</ele>
        <time>2013-05-30T04:18:25.000Z</time>
      </trkpt>
      <trkpt lat="45.89079" lon="6.23593">
        <ele>579</ele>
        <time>2013-05-30T04:18:26.000Z</time>
      </trkpt>
      <trkpt lat="45.8908" lon="6.23597">
        <ele>579</ele>
        <time>2013-05-30T04:18:27.000Z</time>
      </trkpt>
      <trkpt lat="45.89081" lon="6.23601">
        <ele>579</ele>
        <time>2013-05-30T04:18:28.000Z</time>
      </trkpt>
      <trkpt lat="45.89082" lon="6.23605">
        <ele>580</ele>
        <time>2013-05-30T04:18:29.000Z</time>
      </trkpt>
      <trkpt lat="45.89082" lon="6.23608">
        <ele>580</ele>
        <time>2013-05-30T04:18:30.000Z</time>
      </trkpt>
      <trkpt lat="45.89083" lon="6.23612">
        <ele>580</ele>
        <time>2013-05-30T04:18:31.000Z</time>
      </trkpt>
      <trkpt lat="45.89084" lon="6.23616">
        <ele>577</ele>
        <time>2013-05-30T04:18:32.000Z</time>
      </trkpt>
      <trkpt lat="45.89084" lon="6.23619">
        <ele>577</ele>
        <time>2013-05-30T04:18:33.000Z</time>
      </trkpt>
      <trkpt lat="45.89085" lon="6.23623">
        <ele>577</ele>
        <time>2013-05-30T04:18:34.000Z</time>
      </trkpt>
      <trkpt lat="45.89085" lon="6.23627">
        <ele>577</ele>
        <time>2013-05-30T04:18:35.000Z</time>
      </trkpt>
      <trkpt lat="45.89086" lon="6.2363">
        <ele>577</ele>
        <time>2013-05-30T04:18:36.000Z</time>
      </trkpt>
      <trkpt lat="45.89086" lon="6.23634">
        <ele>577</ele>
        <time>2013-05-30T04:18:37.000Z</time>
      </trkpt>
      <trkpt lat="45.89087" lon="6.23638">
        <ele>577</ele>
        <time>2013-05-30T04:18:38.000Z</time>
      </trkpt>
      <trkpt lat="45.89088" lon="6.23641">
        <ele>577</ele>
        <time>2013-05-30T04:18:39.000Z</time>
      </trkpt>
      <trkpt lat="45.89088" lon="6.23645">
        <ele>577</ele>
        <time>2013-05-30T04:18:40.000Z</time>
      </trkpt>
      <trkpt lat="45.89089" lon="6.23648">
        <ele>577</ele>
        <time>2013-05-30T04:18:41.000Z</time>
      </trkpt>
      <trkpt lat="45.89089" lon="6.23652">
        <ele>577</ele>
        <time>2013-05-30T04:18:42.000Z</time>
      </trkpt>
      <trkpt lat="45.8909" lon="6.23656">
        <ele>578</ele>
        <time>2013-05-30T04:18:43.000Z</time>
      </trkpt>
      <trkpt lat="45.8909" lon="6.2366">
        <ele>578</ele>
        <time>2013-05-30T04:18:44.000Z</time>
      </trkpt>
      <trkpt lat="45.8909" lon="6.23663">
        <ele>578</ele>
        <time>2013-05-30T04:18:45.000Z</time>
      </trkpt>
      <trkpt lat="45.8909" lon="6.23666">
        <ele>578</ele>
        <time>2013-05-30T04:18:46.000Z</time>
      </trkpt>
      <trkpt lat="45.8909" lon="6.2367">
        <ele>578</ele>
        <time>2013-05-30T04:18:47.000Z</time>
      </trkpt>
      <trkpt lat="45.89091" lon="6.23673">
        <ele>578</ele>
        <time>2013-05-30T04:18:48.000Z</time>
      </trkpt>
      <trkpt lat="45.89091" lon="6.23677">
        <ele>578</ele>
        <time>2013-05-30T04:18:49.000Z</time>
      </trkpt>
      <trkpt lat="45.89092" lon="6.23681">
        <ele>578</ele>
        <time>2013-05-30T04:18:50.000Z</time>
      </trkpt>
      <trkpt lat="45.89092" lon="6.23684">
        <ele>578</ele>
        <time>2013-05-30T04:18:51.000Z</time>
      </trkpt>
      <trkpt lat="45.89093" lon="6.23688">
        <ele>578</ele>
        <time>2013-05-30T04:18:52.000Z</time>
      </trkpt>
      <trkpt lat="45.89093" lon="6.23692">
        <ele>578</ele>
        <time>2013-05-30T04:18:53.000Z</time>
      </trkpt>
      <trkpt lat="45.89094" lon="6.23696">
        <ele>578</ele>
        <time>2013-05-30T04:18:54.000Z</time>
      </trkpt>
      <trkpt lat="45.89094" lon="6.23699">
        <ele>578</ele>
        <time>2013-05-30T04:18:55.000Z</time>
      </trkpt>
      <trkpt lat="45.89095" lon="6.23703">
        <ele>578</ele>
        <time>2013-05-30T04:18:56.000Z</time>
      </trkpt>
      <trkpt lat="45.89095" lon="6.23706">
        <ele>578</ele>
        <time>2013-05-30T04:18:57.000Z</time>
      </trkpt>
      <trkpt lat="45.89095" lon="6.2371">
        <ele>578</ele>
        <time>2013-05-30T04:18:58.000Z</time>
      </trkpt>
      <trkpt lat="45.89096" lon="6.23714">
        <ele>578</ele>
        <time>2013-05-30T04:18:59.000Z</time>
      </trkpt>
      <trkpt lat="45.89097" lon="6.23718">
        <ele>579</ele>
        <time>2013-05-30T04:19:00.000Z</time>
      </trkpt>
      <trkpt lat="45.89097" lon="6.23721">
        <ele>579</ele>
        <time>2013-05-30T04:19:01.000Z</time>
      </trkpt>
      <trkpt lat="45.89098" lon="6.23725">
        <ele>579</ele>
        <time>2013-05-30T04:19:02.000Z</time>
      </trkpt>
      <trkpt lat="45.89099" lon="6.23729">
        <ele>579</ele>
        <time>2013-05-30T04:19:03.000Z</time>
      </trkpt>
      <trkpt lat="45.89099" lon="6.23733">
        <ele>579</ele>
        <time>2013-05-30T04:19:04.000Z</time>
      </trkpt>
      <trkpt lat="45.891" lon="6.23737">
        <ele>580</ele>
        <time>2013-05-30T04:19:05.000Z</time>
      </trkpt>
      <trkpt lat="45.891" lon="6.23741">
        <ele>580</ele>
        <time>2013-05-30T04:19:06.000Z</time>
      </trkpt>
      <trkpt lat="45.89101" lon="6.23745">
        <ele>580</ele>
        <time>2013-05-30T04:19:07.000Z</time>
      </trkpt>
      <trkpt lat="45.89102" lon="6.23749">
        <ele>580</ele>
        <time>2013-05-30T04:19:08.000Z</time>
      </trkpt>
      <trkpt lat="45.89102" lon="6.23753">
        <ele>581</ele>
        <time>2013-05-30T04:19:09.000Z</time>
      </trkpt>
      <trkpt lat="45.89103" lon="6.23756">
        <ele>581</ele>
        <time>2013-05-30T04:19:10.000Z</time>
      </trkpt>
      <trkpt lat="45.89103" lon="6.2376">
        <ele>581</ele>
        <time>2013-05-30T04:19:11.000Z</time>
      </trkpt>
      <trkpt lat="45.89104" lon="6.23764">
        <ele>581</ele>
        <time>2013-05-30T04:19:12.000Z</time>
      </trkpt>
      <trkpt lat="45.89105" lon="6.23768">
        <ele>581</ele>
        <time>2013-05-30T04:19:13.000Z</time>
      </trkpt>
      <trkpt lat="45.89105" lon="6.23772">
        <ele>580</ele>
        <time>2013-05-30T04:19:14.000Z</time>
      </trkpt>
      <trkpt lat="45.89106" lon="6.23775">
        <ele>580</ele>
        <time>2013-05-30T04:19:15.000Z</time>
      </trkpt>
      <trkpt lat="45.89106" lon="6.23779">
        <ele>580</ele>
        <time>2013-05-30T04:19:16.000Z</time>
      </trkpt>
      <trkpt lat="45.89107" lon="6.23783">
        <ele>580</ele>
        <time>2013-05-30T04:19:17.000Z</time>
      </trkpt>
      <trkpt lat="45.89107" lon="6.23786">
        <ele>580</ele>
        <time>2013-05-30T04:19:18.000Z</time>
      </trkpt>
      <trkpt lat="45.89108" lon="6.2379">
        <ele>580</ele>
        <time>2013-05-30T04:19:19.000Z</time>
      </trkpt>
      <trkpt lat="45.89108" lon="6.23794">
        <ele>580</ele>
        <time>2013-05-30T04:19:20.000Z</time>
      </trkpt>
      <trkpt lat="45.89109" lon="6.23798">
        <ele>580</ele>
        <time>2013-05-30T04:19:21.000Z</time>
      </trkpt>
      <trkpt lat="45.89109" lon="6.23802">
        <ele>581</ele>
        <time>2013-05-30T04:19:22.000Z</time>
      </trkpt>
      <trkpt lat="45.8911" lon="6.23805">
        <ele>581</ele>
        <time>2013-05-30T04:19:23.000Z</time>
      </trkpt>
      <trkpt lat="45.8911" lon="6.23809">
        <ele>581</ele>
        <time>2013-05-30T04:19:24.000Z</time>
      </trkpt>
      <trkpt lat="45.89111" lon="6.23813">
        <ele>581</ele>
        <time>2013-05-30T04:19:25.000Z</time>
      </trkpt>
      <trkpt lat="45.89112" lon="6.23816">
        <ele>581</ele>
        <time>2013-05-30T04:19:26.000Z</time>
      </trkpt>
      <trkpt lat="45.89112" lon="6.2382">
        <ele>581</ele>
        <time>2013-05-30T04:19:27.000Z</time>
      </trkpt>
      <trkpt lat="45.89113" lon="6.23824">
        <ele>581</ele>
        <time>2013-05-30T04:19:28.000Z</time>
      </trkpt>
      <trkpt lat="45.89113" lon="6.23827">
        <ele>581</ele>
        <time>2013-05-30T04:19:29.000Z</time>
      </trkpt>
      <trkpt lat="45.89114" lon="6.23831">
        <ele>581</ele>
        <time>2013-05-30T04:19:30.000Z</time>
      </trkpt>
      <trkpt lat="45.89114" lon="6.23835">
        <ele>581</ele>
        <time>2013-05-30T04:19:31.000Z</time>
      </trkpt>
      <trkpt lat="45.89115" lon="6.23839">
        <ele>581</ele>
        <time>2013-05-30T04:19:32.000Z</time>
      </trkpt>
      <trkpt lat="45.89116" lon="6.23842">
        <ele>581</ele>
        <time>2013-05-30T04:19:33.000Z</time>
      </trkpt>
      <trkpt lat="45.89117" lon="6.23846">
        <ele>581</ele>
        <time>2013-05-30T04:19:34.000Z</time>
      </trkpt>
      <trkpt lat="45.89117" lon="6.2385">
        <ele>581</ele>
        <time>2013-05-30T04:19:35.000Z</time>
      </trkpt>
      <trkpt lat="45.89118" lon="6.23853">
        <ele>581</ele>
        <time>2013-05-30T04:19:36.000Z</time>
      </trkpt>
      <trkpt lat="45.89119" lon="6.23857">
        <ele>581</ele>
        <time>2013-05-30T04:19:37.000Z</time>
      </trkpt>
      <trkpt lat="45.89119" lon="6.23861">
        <ele>581</ele>
        <time>2013-05-30T04:19:38.000Z</time>
      </trkpt>
      <trkpt lat="45.8912" lon="6.23865">
        <ele>581</ele>
        <time>2013-05-30T04:19:39.000Z</time>
      </trkpt>
      <trkpt lat="45.8912" lon="6.23869">
        <ele>581</ele>
        <time>2013-05-30T04:19:40.000Z</time>
      </trkpt>
      <trkpt lat="45.89121" lon="6.23872">
        <ele>581</ele>
        <time>2013-05-30T04:19:41.000Z</time>
      </trkpt>
      <trkpt lat="45.89121" lon="6.23876">
        <ele>581</ele>
        <time>2013-05-30T04:19:42.000Z</time>
      </trkpt>
      <trkpt lat="45.89122" lon="6.2388">
        <ele>581</ele>
        <time>2013-05-30T04:19:43.000Z</time>
      </trkpt>
      <trkpt lat="45.89122" lon="6.23884">
        <ele>581</ele>
        <time>2013-05-30T04:19:44.000Z</time>
      </trkpt>
      <trkpt lat="45.89122" lon="6.23888">
        <ele>581</ele>
        <time>2013-05-30T04:19:45.000Z</time>
      </trkpt>
      <trkpt lat="45.89122" lon="6.23892">
        <ele>581</ele>
        <time>2013-05-30T04:19:46.000Z</time>
      </trkpt>
      <trkpt lat="45.89123" lon="6.23895">
        <ele>581</ele>
        <time>2013-05-30T04:19:47.000Z</time>
      </trkpt>
      <trkpt lat="45.89123" lon="6.23899">
        <ele>581</ele>
        <time>2013-05-30T04:19:48.000Z</time>
      </trkpt>
      <trkpt lat="45.89124" lon="6.23903">
        <ele>581</ele>
        <time>2013-05-30T04:19:49.000Z</time>
      </trkpt>
      <trkpt lat="45.89124" lon="6.23907">
        <ele>581</ele>
        <time>2013-05-30T04:19:50.000Z</time>
      </trkpt>
      <trkpt lat="45.89125" lon="6.2391">
        <ele>581</ele>
        <time>2013-05-30T04:19:51.000Z</time>
      </trkpt>
      <trkpt lat="45.89125" lon="6.23914">
        <ele>580</ele>
        <time>2013-05-30T04:19:52.000Z</time>
      </trkpt>
      <trkpt lat="45.89126" lon="6.23918">
        <ele>580</ele>
        <time>2013-05-30T04:19:53.000Z</time>
      </trkpt>
      <trkpt lat="45.89126" lon="6.23922">
        <ele>580</ele>
        <time>2013-05-30T04:19:54.000Z</time>
      </trkpt>
      <trkpt lat="45.89127" lon="6.23926">
        <ele>580</ele>
        <time>2013-05-30T04:19:55.000Z</time>
      </trkpt>
      <trkpt lat="45.89128" lon="6.23929">
        <ele>580</ele>
        <time>2013-05-30T04:19:56.000Z</time>
      </trkpt>
      <trkpt lat="45.89128" lon="6.23933">
        <ele>580</ele>
        <time>2013-05-30T04:19:57.000Z</time>
      </trkpt>
      <trkpt lat="45.89129" lon="6.23937">
        <ele>580</ele>
        <time>2013-05-30T04:19:58.000Z</time>
      </trkpt>
      <trkpt lat="45.89129" lon="6.23941">
        <ele>580</ele>
        <time>2013-05-30T04:19:59.000Z</time>
      </trkpt>
      <trkpt lat="45.8913" lon="6.23944">
        <ele>580</ele>
        <time>2013-05-30T04:20:00.000Z</time>
      </trkpt>
      <trkpt lat="45.8913" lon="6.23948">
        <ele>580</ele>
        <time>2013-05-30T04:20:01.000Z</time>
      </trkpt>
      <trkpt lat="45.8913" lon="6.23952">
        <ele>580</ele>
        <time>2013-05-30T04:20:02.000Z</time>
      </trkpt>
      <trkpt lat="45.8913" lon="6.23955">
        <ele>580</ele>
        <time>2013-05-30T04:20:03.000Z</time>
      </trkpt>
      <trkpt lat="45.8913" lon="6.23959">
        <ele>580</ele>
        <time>2013-05-30T04:20:04.000Z</time>
      </trkpt>
      <trkpt lat="45.89131" lon="6.23962">
        <ele>580</ele>
        <time>2013-05-30T04:20:05.000Z</time>
      </trkpt>
      <trkpt lat="45.89131" lon="6.23966">
        <ele>580</ele>
        <time>2013-05-30T04:20:06.000Z</time>
      </trkpt>
      <trkpt lat="45.89132" lon="6.2397">
        <ele>580</ele>
        <time>2013-05-30T04:20:07.000Z</time>
      </trkpt>
      <trkpt lat="45.89133" lon="6.23973">
        <ele>580</ele>
        <time>2013-05-30T04:20:08.000Z</time>
      </trkpt>
      <trkpt lat="45.89133" lon="6.23977">
        <ele>580</ele>
        <time>2013-05-30T04:20:09.000Z</time>
      </trkpt>
      <trkpt lat="45.89134" lon="6.2398">
        <ele>580</ele>
        <time>2013-05-30T04:20:10.000Z</time>
      </trkpt>
      <trkpt lat="45.89135" lon="6.23984">
        <ele>580</ele>
        <time>2013-05-30T04:20:11.000Z</time>
      </trkpt>
      <trkpt lat="45.89136" lon="6.23988">
        <ele>579</ele>
        <time>2013-05-30T04:20:12.000Z</time>
      </trkpt>
      <trkpt lat="45.89136" lon="6.23992">
        <ele>579</ele>
        <time>2013-05-30T04:20:13.000Z</time>
      </trkpt>
      <trkpt lat="45.89136" lon="6.23996">
        <ele>579</ele>
        <time>2013-05-30T04:20:14.000Z</time>
      </trkpt>
      <trkpt lat="45.89136" lon="6.23999">
        <ele>579</ele>
        <time>2013-05-30T04:20:15.000Z</time>
      </trkpt>
      <trkpt lat="45.89136" lon="6.24003">
        <ele>580</ele>
        <time>2013-05-30T04:20:16.000Z</time>
      </trkpt>
      <trkpt lat="45.89136" lon="6.24007">
        <ele>580</ele>
        <time>2013-05-30T04:20:17.000Z</time>
      </trkpt>
      <trkpt lat="45.89136" lon="6.24011">
        <ele>580</ele>
        <time>2013-05-30T04:20:18.000Z</time>
      </trkpt>
      <trkpt lat="45.89137" lon="6.24015">
        <ele>580</ele>
        <time>2013-05-30T04:20:19.000Z</time>
      </trkpt>
      <trkpt lat="45.89138" lon="6.24019">
        <ele>580</ele>
        <time>2013-05-30T04:20:20.000Z</time>
      </trkpt>
      <trkpt lat="45.89138" lon="6.24023">
        <ele>580</ele>
        <time>2013-05-30T04:20:21.000Z</time>
      </trkpt>
      <trkpt lat="45.89139" lon="6.24026">
        <ele>580</ele>
        <time>2013-05-30T04:20:22.000Z</time>
      </trkpt>
      <trkpt lat="45.8914" lon="6.2403">
        <ele>580</ele>
        <time>2013-05-30T04:20:23.000Z</time>
      </trkpt>
      <trkpt lat="45.8914" lon="6.24034">
        <ele>581</ele>
        <time>2013-05-30T04:20:24.000Z</time>
      </trkpt>
      <trkpt lat="45.89141" lon="6.24037">
        <ele>581</ele>
        <time>2013-05-30T04:20:25.000Z</time>
      </trkpt>
      <trkpt lat="45.89141" lon="6.24041">
        <ele>581</ele>
        <time>2013-05-30T04:20:26.000Z</time>
      </trkpt>
      <trkpt lat="45.89142" lon="6.24045">
        <ele>581</ele>
        <time>2013-05-30T04:20:27.000Z</time>
      </trkpt>
      <trkpt lat="45.89142" lon="6.24048">
        <ele>581</ele>
        <time>2013-05-30T04:20:28.000Z</time>
      </trkpt>
      <trkpt lat="45.89143" lon="6.24052">
        <ele>581</ele>
        <time>2013-05-30T04:20:29.000Z</time>
      </trkpt>
      <trkpt lat="45.89144" lon="6.24055">
        <ele>581</ele>
        <time>2013-05-30T04:20:30.000Z</time>
      </trkpt>
      <trkpt lat="45.89145" lon="6.24059">
        <ele>581</ele>
        <time>2013-05-30T04:20:31.000Z</time>
      </trkpt>
      <trkpt lat="45.89146" lon="6.24063">
        <ele>581</ele>
        <time>2013-05-30T04:20:32.000Z</time>
      </trkpt>
      <trkpt lat="45.89146" lon="6.24067">
        <ele>581</ele>
        <time>2013-05-30T04:20:33.000Z</time>
      </trkpt>
      <trkpt lat="45.89146" lon="6.2407">
        <ele>581</ele>
        <time>2013-05-30T04:20:34.000Z</time>
      </trkpt>
      <trkpt lat="45.89146" lon="6.24074">
        <ele>581</ele>
        <time>2013-05-30T04:20:35.000Z</time>
      </trkpt>
      <trkpt lat="45.89147" lon="6.24077">
        <ele>581</ele>
        <time>2013-05-30T04:20:36.000Z</time>
      </trkpt>
      <trkpt lat="45.89147" lon="6.24081">
        <ele>581</ele>
        <time>2013-05-30T04:20:37.000Z</time>
      </trkpt>
      <trkpt lat="45.89147" lon="6.24085">
        <ele>581</ele>
        <time>2013-05-30T04:20:38.000Z</time>
      </trkpt>
      <trkpt lat="45.89148" lon="6.24088">
        <ele>581</ele>
        <time>2013-05-30T04:20:39.000Z</time>
      </trkpt>
      <trkpt lat="45.89148" lon="6.24092">
        <ele>581</ele>
        <time>2013-05-30T04:20:40.000Z</time>
      </trkpt>
      <trkpt lat="45.89149" lon="6.24096">
        <ele>581</ele>
        <time>2013-05-30T04:20:41.000Z</time>
      </trkpt>
      <trkpt lat="45.89149" lon="6.241">
        <ele>581</ele>
        <time>2013-05-30T04:20:42.000Z</time>
      </trkpt>
      <trkpt lat="45.8915" lon="6.24104">
        <ele>581</ele>
        <time>2013-05-30T04:20:43.000Z</time>
      </trkpt>
      <trkpt lat="45.8915" lon="6.24108">
        <ele>581</ele>
        <time>2013-05-30T04:20:44.000Z</time>
      </trkpt>
      <trkpt lat="45.89151" lon="6.24112">
        <ele>581</ele>
        <time>2013-05-30T04:20:45.000Z</time>
      </trkpt>
      <trkpt lat="45.89152" lon="6.24115">
        <ele>581</ele>
        <time>2013-05-30T04:20:46.000Z</time>
      </trkpt>
      <trkpt lat="45.89153" lon="6.24119">
        <ele>581</ele>
        <time>2013-05-30T04:20:47.000Z</time>
      </trkpt>
      <trkpt lat="45.89153" lon="6.24124">
        <ele>581</ele>
        <time>2013-05-30T04:20:48.000Z</time>
      </trkpt>
      <trkpt lat="45.89154" lon="6.24128">
        <ele>581</ele>
        <time>2013-05-30T04:20:49.000Z</time>
      </trkpt>
      <trkpt lat="45.89154" lon="6.24132">
        <ele>581</ele>
        <time>2013-05-30T04:20:50.000Z</time>
      </trkpt>
      <trkpt lat="45.89154" lon="6.24136">
        <ele>580</ele>
        <time>2013-05-30T04:20:51.000Z</time>
      </trkpt>
      <trkpt lat="45.89154" lon="6.2414">
        <ele>580</ele>
        <time>2013-05-30T04:20:52.000Z</time>
      </trkpt>
      <trkpt lat="45.89155" lon="6.24144">
        <ele>580</ele>
        <time>2013-05-30T04:20:53.000Z</time>
      </trkpt>
      <trkpt lat="45.89155" lon="6.24148">
        <ele>580</ele>
        <time>2013-05-30T04:20:54.000Z</time>
      </trkpt>
      <trkpt lat="45.89156" lon="6.24152">
        <ele>580</ele>
        <time>2013-05-30T04:20:55.000Z</time>
      </trkpt>
      <trkpt lat="45.89156" lon="6.24156">
        <ele>580</ele>
        <time>2013-05-30T04:20:56.000Z</time>
      </trkpt>
      <trkpt lat="45.89157" lon="6.2416">
        <ele>580</ele>
        <time>2013-05-30T04:20:57.000Z</time>
      </trkpt>
      <trkpt lat="45.89157" lon="6.24164">
        <ele>580</ele>
        <time>2013-05-30T04:20:58.000Z</time>
      </trkpt>
      <trkpt lat="45.89157" lon="6.24168">
        <ele>578</ele>
        <time>2013-05-30T04:20:59.000Z</time>
      </trkpt>
      <trkpt lat="45.89157" lon="6.24173">
        <ele>578</ele>
        <time>2013-05-30T04:21:00.000Z</time>
      </trkpt>
      <trkpt lat="45.89157" lon="6.24177">
        <ele>578</ele>
        <time>2013-05-30T04:21:01.000Z</time>
      </trkpt>
      <trkpt lat="45.89157" lon="6.2418">
        <ele>578</ele>
        <time>2013-05-30T04:21:02.000Z</time>
      </trkpt>
      <trkpt lat="45.89157" lon="6.24184">
        <ele>578</ele>
        <time>2013-05-30T04:21:03.000Z</time>
      </trkpt>
      <trkpt lat="45.89156" lon="6.24188">
        <ele>578</ele>
        <time>2013-05-30T04:21:04.000Z</time>
      </trkpt>
      <trkpt lat="45.89156" lon="6.24192">
        <ele>577</ele>
        <time>2013-05-30T04:21:05.000Z</time>
      </trkpt>
      <trkpt lat="45.89155" lon="6.24196">
        <ele>577</ele>
        <time>2013-05-30T04:21:06.000Z</time>
      </trkpt>
      <trkpt lat="45.89155" lon="6.242">
        <ele>577</ele>
        <time>2013-05-30T04:21:07.000Z</time>
      </trkpt>
      <trkpt lat="45.89155" lon="6.24204">
        <ele>577</ele>
        <time>2013-05-30T04:21:08.000Z</time>
      </trkpt>
      <trkpt lat="45.89155" lon="6.24208">
        <ele>577</ele>
        <time>2013-05-30T04:21:09.000Z</time>
      </trkpt>
      <trkpt lat="45.89154" lon="6.24212">
        <ele>577</ele>
        <time>2013-05-30T04:21:10.000Z</time>
      </trkpt>
      <trkpt lat="45.89154" lon="6.24216">
        <ele>576</ele>
        <time>2013-05-30T04:21:11.000Z</time>
      </trkpt>
      <trkpt lat="45.89154" lon="6.2422">
        <ele>576</ele>
        <time>2013-05-30T04:21:12.000Z</time>
      </trkpt>
      <trkpt lat="45.89153" lon="6.24224">
        <ele>576</ele>
        <time>2013-05-30T04:21:13.000Z</time>
      </trkpt>
      <trkpt lat="45.89152" lon="6.24227">
        <ele>576</ele>
        <time>2013-05-30T04:21:14.000Z</time>
      </trkpt>
      <trkpt lat="45.89152" lon="6.24232">
        <ele>576</ele>
        <time>2013-05-30T04:21:15.000Z</time>
      </trkpt>
      <trkpt lat="45.89152" lon="6.24236">
        <ele>575</ele>
        <time>2013-05-30T04:21:16.000Z</time>
      </trkpt>
      <trkpt lat="45.89151" lon="6.2424">
        <ele>575</ele>
        <time>2013-05-30T04:21:17.000Z</time>
      </trkpt>
      <trkpt lat="45.8915" lon="6.24244">
        <ele>575</ele>
        <time>2013-05-30T04:21:18.000Z</time>
      </trkpt>
      <trkpt lat="45.8915" lon="6.24247">
        <ele>575</ele>
        <time>2013-05-30T04:21:19.000Z</time>
      </trkpt>
      <trkpt lat="45.89149" lon="6.24251">
        <ele>573</ele>
        <time>2013-05-30T04:21:20.000Z</time>
      </trkpt>
      <trkpt lat="45.89148" lon="6.24255">
        <ele>573</ele>
        <time>2013-05-30T04:21:21.000Z</time>
      </trkpt>
      <trkpt lat="45.89148" lon="6.24259">
        <ele>573</ele>
        <time>2013-05-30T04:21:22.000Z</time>
      </trkpt>
      <trkpt lat="45.89147" lon="6.24262">
        <ele>573</ele>
        <time>2013-05-30T04:21:23.000Z</time>
      </trkpt>
      <trkpt lat="45.89147" lon="6.24266">
        <ele>573</ele>
        <time>2013-05-30T04:21:24.000Z</time>
      </trkpt>
      <trkpt lat="45.89146" lon="6.2427">
        <ele>573</ele>
        <time>2013-05-30T04:21:25.000Z</time>
      </trkpt>
      <trkpt lat="45.89145" lon="6.24274">
        <ele>573</ele>
        <time>2013-05-30T04:21:26.000Z</time>
      </trkpt>
      <trkpt lat="45.89145" lon="6.24278">
        <ele>573</ele>
        <time>2013-05-30T04:21:27.000Z</time>
      </trkpt>
      <trkpt lat="45.89144" lon="6.24282">
        <ele>573</ele>
        <time>2013-05-30T04:21:28.000Z</time>
      </trkpt>
      <trkpt lat="45.89143" lon="6.24286">
        <ele>573</ele>
        <time>2013-05-30T04:21:29.000Z</time>
      </trkpt>
      <trkpt lat="45.89142" lon="6.2429">
        <ele>573</ele>
        <time>2013-05-30T04:21:30.000Z</time>
      </trkpt>
      <trkpt lat="45.8914" lon="6.24294">
        <ele>573</ele>
        <time>2013-05-30T04:21:31.000Z</time>
      </trkpt>
      <trkpt lat="45.8914" lon="6.24297">
        <ele>573</ele>
        <time>2013-05-30T04:21:32.000Z</time>
      </trkpt>
      <trkpt lat="45.89138" lon="6.24301">
        <ele>573</ele>
        <time>2013-05-30T04:21:33.000Z</time>
      </trkpt>
      <trkpt lat="45.89137" lon="6.24305">
        <ele>573</ele>
        <time>2013-05-30T04:21:34.000Z</time>
      </trkpt>
      <trkpt lat="45.89136" lon="6.24308">
        <ele>573</ele>
        <time>2013-05-30T04:21:35.000Z</time>
      </trkpt>
      <trkpt lat="45.89135" lon="6.24312">
        <ele>573</ele>
        <time>2013-05-30T04:21:36.000Z</time>
      </trkpt>
      <trkpt lat="45.89134" lon="6.24316">
        <ele>573</ele>
        <time>2013-05-30T04:21:37.000Z</time>
      </trkpt>
      <trkpt lat="45.89133" lon="6.2432">
        <ele>573</ele>
        <time>2013-05-30T04:21:38.000Z</time>
      </trkpt>
      <trkpt lat="45.89131" lon="6.24324">
        <ele>573</ele>
        <time>2013-05-30T04:21:39.000Z</time>
      </trkpt>
      <trkpt lat="45.8913" lon="6.24327">
        <ele>573</ele>
        <time>2013-05-30T04:21:40.000Z</time>
      </trkpt>
      <trkpt lat="45.89129" lon="6.24331">
        <ele>573</ele>
        <time>2013-05-30T04:21:41.000Z</time>
      </trkpt>
      <trkpt lat="45.89128" lon="6.24335">
        <ele>571</ele>
        <time>2013-05-30T04:21:42.000Z</time>
      </trkpt>
      <trkpt lat="45.89127" lon="6.24339">
        <ele>571</ele>
        <time>2013-05-30T04:21:43.000Z</time>
      </trkpt>
      <trkpt lat="45.89126" lon="6.24343">
        <ele>571</ele>
        <time>2013-05-30T04:21:44.000Z</time>
      </trkpt>
      <trkpt lat="45.89125" lon="6.24346">
        <ele>571</ele>
        <time>2013-05-30T04:21:45.000Z</time>
      </trkpt>
      <trkpt lat="45.89124" lon="6.2435">
        <ele>571</ele>
        <time>2013-05-30T04:21:46.000Z</time>
      </trkpt>
      <trkpt lat="45.89123" lon="6.24354">
        <ele>571</ele>
        <time>2013-05-30T04:21:47.000Z</time>
      </trkpt>
      <trkpt lat="45.89122" lon="6.24358">
        <ele>571</ele>
        <time>2013-05-30T04:21:48.000Z</time>
      </trkpt>
      <trkpt lat="45.89121" lon="6.24361">
        <ele>571</ele>
        <time>2013-05-30T04:21:49.000Z</time>
      </trkpt>
      <trkpt lat="45.8912" lon="6.24365">
        <ele>571</ele>
        <time>2013-05-30T04:21:50.000Z</time>
      </trkpt>
      <trkpt lat="45.8912" lon="6.24369">
        <ele>571</ele>
        <time>2013-05-30T04:21:51.000Z</time>
      </trkpt>
      <trkpt lat="45.89119" lon="6.24373">
        <ele>571</ele>
        <time>2013-05-30T04:21:52.000Z</time>
      </trkpt>
      <trkpt lat="45.89118" lon="6.24377">
        <ele>571</ele>
        <time>2013-05-30T04:21:53.000Z</time>
      </trkpt>
      <trkpt lat="45.89117" lon="6.24381">
        <ele>571</ele>
        <time>2013-05-30T04:21:54.000Z</time>
      </trkpt>
      <trkpt lat="45.89116" lon="6.24385">
        <ele>571</ele>
        <time>2013-05-30T04:21:55.000Z</time>
      </trkpt>
      <trkpt lat="45.89115" lon="6.24388">
        <ele>571</ele>
        <time>2013-05-30T04:21:56.000Z</time>
      </trkpt>
      <trkpt lat="45.89115" lon="6.24392">
        <ele>571</ele>
        <time>2013-05-30T04:21:57.000Z</time>
      </trkpt>
      <trkpt lat="45.89115" lon="6.24397">
        <ele>572</ele>
        <time>2013-05-30T04:21:58.000Z</time>
      </trkpt>
      <trkpt lat="45.89114" lon="6.244">
        <ele>572</ele>
        <time>2013-05-30T04:21:59.000Z</time>
      </trkpt>
      <trkpt lat="45.89113" lon="6.24405">
        <ele>572</ele>
        <time>2013-05-30T04:22:00.000Z</time>
      </trkpt>
      <trkpt lat="45.89113" lon="6.24409">
        <ele>572</ele>
        <time>2013-05-30T04:22:01.000Z</time>
      </trkpt>
      <trkpt lat="45.89112" lon="6.24412">
        <ele>572</ele>
        <time>2013-05-30T04:22:02.000Z</time>
      </trkpt>
      <trkpt lat="45.89111" lon="6.24416">
        <ele>572</ele>
        <time>2013-05-30T04:22:03.000Z</time>
      </trkpt>
      <trkpt lat="45.8911" lon="6.2442">
        <ele>571</ele>
        <time>2013-05-30T04:22:04.000Z</time>
      </trkpt>
      <trkpt lat="45.8911" lon="6.24424">
        <ele>572</ele>
        <time>2013-05-30T04:22:05.000Z</time>
      </trkpt>
      <trkpt lat="45.89109" lon="6.24428">
        <ele>572</ele>
        <time>2013-05-30T04:22:06.000Z</time>
      </trkpt>
      <trkpt lat="45.89109" lon="6.24432">
        <ele>571</ele>
        <time>2013-05-30T04:22:07.000Z</time>
      </trkpt>
      <trkpt lat="45.89108" lon="6.24436">
        <ele>571</ele>
        <time>2013-05-30T04:22:08.000Z</time>
      </trkpt>
      <trkpt lat="45.89108" lon="6.24439">
        <ele>571</ele>
        <time>2013-05-30T04:22:09.000Z</time>
      </trkpt>
      <trkpt lat="45.89107" lon="6.24443">
        <ele>571</ele>
        <time>2013-05-30T04:22:10.000Z</time>
      </trkpt>
      <trkpt lat="45.89106" lon="6.24447">
        <ele>571</ele>
        <time>2013-05-30T04:22:11.000Z</time>
      </trkpt>
      <trkpt lat="45.89106" lon="6.24451">
        <ele>571</ele>
        <time>2013-05-30T04:22:12.000Z</time>
      </trkpt>
      <trkpt lat="45.89106" lon="6.24455">
        <ele>571</ele>
        <time>2013-05-30T04:22:13.000Z</time>
      </trkpt>
      <trkpt lat="45.89106" lon="6.24459">
        <ele>572</ele>
        <time>2013-05-30T04:22:14.000Z</time>
      </trkpt>
      <trkpt lat="45.89105" lon="6.24463">
        <ele>572</ele>
        <time>2013-05-30T04:22:15.000Z</time>
      </trkpt>
      <trkpt lat="45.89105" lon="6.24466">
        <ele>572</ele>
        <time>2013-05-30T04:22:16.000Z</time>
      </trkpt>
      <trkpt lat="45.89105" lon="6.24471">
        <ele>572</ele>
        <time>2013-05-30T04:22:17.000Z</time>
      </trkpt>
      <trkpt lat="45.89104" lon="6.24474">
        <ele>572</ele>
        <time>2013-05-30T04:22:18.000Z</time>
      </trkpt>
      <trkpt lat="45.89104" lon="6.24478">
        <ele>573</ele>
        <time>2013-05-30T04:22:19.000Z</time>
      </trkpt>
      <trkpt lat="45.89104" lon="6.24482">
        <ele>573</ele>
        <time>2013-05-30T04:22:20.000Z</time>
      </trkpt>
      <trkpt lat="45.89104" lon="6.24486">
        <ele>573</ele>
        <time>2013-05-30T04:22:21.000Z</time>
      </trkpt>
      <trkpt lat="45.89104" lon="6.2449">
        <ele>574</ele>
        <time>2013-05-30T04:22:22.000Z</time>
      </trkpt>
      <trkpt lat="45.89104" lon="6.24494">
        <ele>574</ele>
        <time>2013-05-30T04:22:23.000Z</time>
      </trkpt>
      <trkpt lat="45.89104" lon="6.24498">
        <ele>574</ele>
        <time>2013-05-30T04:22:24.000Z</time>
      </trkpt>
      <trkpt lat="45.89104" lon="6.24502">
        <ele>574</ele>
        <time>2013-05-30T04:22:25.000Z</time>
      </trkpt>
      <trkpt lat="45.89104" lon="6.24506">
        <ele>574</ele>
        <time>2013-05-30T04:22:26.000Z</time>
      </trkpt>
      <trkpt lat="45.89104" lon="6.2451">
        <ele>574</ele>
        <time>2013-05-30T04:22:27.000Z</time>
      </trkpt>
      <trkpt lat="45.89104" lon="6.24515">
        <ele>574</ele>
        <time>2013-05-30T04:22:28.000Z</time>
      </trkpt>
      <trkpt lat="45.89103" lon="6.24519">
        <ele>573</ele>
        <time>2013-05-30T04:22:29.000Z</time>
      </trkpt>
      <trkpt lat="45.89103" lon="6.24523">
        <ele>573</ele>
        <time>2013-05-30T04:22:30.000Z</time>
      </trkpt>
      <trkpt lat="45.89103" lon="6.24526">
        <ele>573</ele>
        <time>2013-05-30T04:22:31.000Z</time>
      </trkpt>
      <trkpt lat="45.89103" lon="6.2453">
        <ele>573</ele>
        <time>2013-05-30T04:22:32.000Z</time>
      </trkpt>
      <trkpt lat="45.89103" lon="6.24534">
        <ele>573</ele>
        <time>2013-05-30T04:22:33.000Z</time>
      </trkpt>
      <trkpt lat="45.89103" lon="6.24538">
        <ele>573</ele>
        <time>2013-05-30T04:22:34.000Z</time>
      </trkpt>
      <trkpt lat="45.89103" lon="6.24543">
        <ele>573</ele>
        <time>2013-05-30T04:22:35.000Z</time>
      </trkpt>
      <trkpt lat="45.89104" lon="6.24547">
        <ele>573</ele>
        <time>2013-05-30T04:22:36.000Z</time>
      </trkpt>
      <trkpt lat="45.89104" lon="6.24551">
        <ele>573</ele>
        <time>2013-05-30T04:22:37.000Z</time>
      </trkpt>
      <trkpt lat="45.89104" lon="6.24555">
        <ele>573</ele>
        <time>2013-05-30T04:22:38.000Z</time>
      </trkpt>
      <trkpt lat="45.89105" lon="6.24559">
        <ele>574</ele>
        <time>2013-05-30T04:22:39.000Z</time>
      </trkpt>
      <trkpt lat="45.89105" lon="6.24563">
        <ele>574</ele>
        <time>2013-05-30T04:22:40.000Z</time>
      </trkpt>
      <trkpt lat="45.89105" lon="6.24567">
        <ele>574</ele>
        <time>2013-05-30T04:22:41.000Z</time>
      </trkpt>
      <trkpt lat="45.89105" lon="6.24571">
        <ele>574</ele>
        <time>2013-05-30T04:22:42.000Z</time>
      </trkpt>
      <trkpt lat="45.89106" lon="6.24575">
        <ele>575</ele>
        <time>2013-05-30T04:22:43.000Z</time>
      </trkpt>
      <trkpt lat="45.89106" lon="6.24579">
        <ele>575</ele>
        <time>2013-05-30T04:22:44.000Z</time>
      </trkpt>
      <trkpt lat="45.89107" lon="6.24583">
        <ele>575</ele>
        <time>2013-05-30T04:22:45.000Z</time>
      </trkpt>
      <trkpt lat="45.89107" lon="6.24587">
        <ele>574</ele>
        <time>2013-05-30T04:22:46.000Z</time>
      </trkpt>
      <trkpt lat="45.89107" lon="6.24591">
        <ele>574</ele>
        <time>2013-05-30T04:22:47.000Z</time>
      </trkpt>
      <trkpt lat="45.89108" lon="6.24595">
        <ele>573</ele>
        <time>2013-05-30T04:22:48.000Z</time>
      </trkpt>
      <trkpt lat="45.89108" lon="6.24599">
        <ele>573</ele>
        <time>2013-05-30T04:22:49.000Z</time>
      </trkpt>
      <trkpt lat="45.89109" lon="6.24603">
        <ele>572</ele>
        <time>2013-05-30T04:22:50.000Z</time>
      </trkpt>
      <trkpt lat="45.89109" lon="6.24607">
        <ele>572</ele>
        <time>2013-05-30T04:22:51.000Z</time>
      </trkpt>
      <trkpt lat="45.89108" lon="6.2461">
        <ele>572</ele>
        <time>2013-05-30T04:22:52.000Z</time>
      </trkpt>
      <trkpt lat="45.89109" lon="6.24615">
        <ele>571</ele>
        <time>2013-05-30T04:22:53.000Z</time>
      </trkpt>
      <trkpt lat="45.89109" lon="6.24618">
        <ele>571</ele>
        <time>2013-05-30T04:22:54.000Z</time>
      </trkpt>
      <trkpt lat="45.8911" lon="6.24622">
        <ele>571</ele>
        <time>2013-05-30T04:22:55.000Z</time>
      </trkpt>
      <trkpt lat="45.8911" lon="6.24626">
        <ele>571</ele>
        <time>2013-05-30T04:22:56.000Z</time>
      </trkpt>
      <trkpt lat="45.89111" lon="6.2463">
        <ele>571</ele>
        <time>2013-05-30T04:22:57.000Z</time>
      </trkpt>
      <trkpt lat="45.89112" lon="6.24634">
        <ele>571</ele>
        <time>2013-05-30T04:22:58.000Z</time>
      </trkpt>
      <trkpt lat="45.89112" lon="6.24637">
        <ele>570</ele>
        <time>2013-05-30T04:22:59.000Z</time>
      </trkpt>
      <trkpt lat="45.89113" lon="6.24641">
        <ele>570</ele>
        <time>2013-05-30T04:23:00.000Z</time>
      </trkpt>
      <trkpt lat="45.89114" lon="6.24645">
        <ele>570</ele>
        <time>2013-05-30T04:23:01.000Z</time>
      </trkpt>
      <trkpt lat="45.89115" lon="6.24649">
        <ele>570</ele>
        <time>2013-05-30T04:23:02.000Z</time>
      </trkpt>
      <trkpt lat="45.89116" lon="6.24653">
        <ele>570</ele>
        <time>2013-05-30T04:23:03.000Z</time>
      </trkpt>
      <trkpt lat="45.89116" lon="6.24657">
        <ele>570</ele>
        <time>2013-05-30T04:23:04.000Z</time>
      </trkpt>
      <trkpt lat="45.89117" lon="6.2466">
        <ele>570</ele>
        <time>2013-05-30T04:23:05.000Z</time>
      </trkpt>
      <trkpt lat="45.89117" lon="6.24664">
        <ele>570</ele>
        <time>2013-05-30T04:23:06.000Z</time>
      </trkpt>
      <trkpt lat="45.89118" lon="6.24668">
        <ele>569</ele>
        <time>2013-05-30T04:23:07.000Z</time>
      </trkpt>
      <trkpt lat="45.89119" lon="6.24672">
        <ele>568</ele>
        <time>2013-05-30T04:23:08.000Z</time>
      </trkpt>
      <trkpt lat="45.8912" lon="6.24675">
        <ele>568</ele>
        <time>2013-05-30T04:23:09.000Z</time>
      </trkpt>
      <trkpt lat="45.89121" lon="6.24679">
        <ele>568</ele>
        <time>2013-05-30T04:23:10.000Z</time>
      </trkpt>
      <trkpt lat="45.89121" lon="6.24682">
        <ele>568</ele>
        <time>2013-05-30T04:23:11.000Z</time>
      </trkpt>
      <trkpt lat="45.89122" lon="6.24686">
        <ele>567</ele>
        <time>2013-05-30T04:23:12.000Z</time>
      </trkpt>
      <trkpt lat="45.89123" lon="6.24689">
        <ele>567</ele>
        <time>2013-05-30T04:23:13.000Z</time>
      </trkpt>
      <trkpt lat="45.89124" lon="6.24692">
        <ele>567</ele>
        <time>2013-05-30T04:23:14.000Z</time>
      </trkpt>
      <trkpt lat="45.89125" lon="6.24696">
        <ele>567</ele>
        <time>2013-05-30T04:23:15.000Z</time>
      </trkpt>
      <trkpt lat="45.89126" lon="6.247">
        <ele>567</ele>
        <time>2013-05-30T04:23:16.000Z</time>
      </trkpt>
      <trkpt lat="45.89127" lon="6.24703">
        <ele>566</ele>
        <time>2013-05-30T04:23:17.000Z</time>
      </trkpt>
      <trkpt lat="45.89129" lon="6.24706">
        <ele>566</ele>
        <time>2013-05-30T04:23:18.000Z</time>
      </trkpt>
      <trkpt lat="45.8913" lon="6.2471">
        <ele>566</ele>
        <time>2013-05-30T04:23:19.000Z</time>
      </trkpt>
      <trkpt lat="45.89131" lon="6.24714">
        <ele>566</ele>
        <time>2013-05-30T04:23:20.000Z</time>
      </trkpt>
      <trkpt lat="45.89131" lon="6.24717">
        <ele>566</ele>
        <time>2013-05-30T04:23:21.000Z</time>
      </trkpt>
      <trkpt lat="45.89132" lon="6.24721">
        <ele>566</ele>
        <time>2013-05-30T04:23:22.000Z</time>
      </trkpt>
      <trkpt lat="45.89132" lon="6.24725">
        <ele>566</ele>
        <time>2013-05-30T04:23:23.000Z</time>
      </trkpt>
      <trkpt lat="45.89132" lon="6.24728">
        <ele>565</ele>
        <time>2013-05-30T04:23:24.000Z</time>
      </trkpt>
      <trkpt lat="45.89132" lon="6.24732">
        <ele>565</ele>
        <time>2013-05-30T04:23:25.000Z</time>
      </trkpt>
      <trkpt lat="45.89133" lon="6.24736">
        <ele>565</ele>
        <time>2013-05-30T04:23:26.000Z</time>
      </trkpt>
      <trkpt lat="45.89134" lon="6.2474">
        <ele>565</ele>
        <time>2013-05-30T04:23:27.000Z</time>
      </trkpt>
      <trkpt lat="45.89135" lon="6.24744">
        <ele>565</ele>
        <time>2013-05-30T04:23:28.000Z</time>
      </trkpt>
      <trkpt lat="45.89136" lon="6.24747">
        <ele>564</ele>
        <time>2013-05-30T04:23:29.000Z</time>
      </trkpt>
      <trkpt lat="45.89136" lon="6.24751">
        <ele>565</ele>
        <time>2013-05-30T04:23:30.000Z</time>
      </trkpt>
      <trkpt lat="45.89137" lon="6.24754">
        <ele>565</ele>
        <time>2013-05-30T04:23:31.000Z</time>
      </trkpt>
      <trkpt lat="45.89138" lon="6.24757">
        <ele>565</ele>
        <time>2013-05-30T04:23:32.000Z</time>
      </trkpt>
      <trkpt lat="45.89138" lon="6.24761">
        <ele>565</ele>
        <time>2013-05-30T04:23:33.000Z</time>
      </trkpt>
      <trkpt lat="45.89139" lon="6.24764">
        <ele>565</ele>
        <time>2013-05-30T04:23:34.000Z</time>
      </trkpt>
      <trkpt lat="45.8914" lon="6.24768">
        <ele>565</ele>
        <time>2013-05-30T04:23:35.000Z</time>
      </trkpt>
      <trkpt lat="45.89141" lon="6.24771">
        <ele>566</ele>
        <time>2013-05-30T04:23:36.000Z</time>
      </trkpt>
      <trkpt lat="45.89142" lon="6.24775">
        <ele>566</ele>
        <time>2013-05-30T04:23:37.000Z</time>
      </trkpt>
      <trkpt lat="45.89142" lon="6.24778">
        <ele>566</ele>
        <time>2013-05-30T04:23:38.000Z</time>
      </trkpt>
      <trkpt lat="45.89143" lon="6.24782">
        <ele>566</ele>
        <time>2013-05-30T04:23:39.000Z</time>
      </trkpt>
      <trkpt lat="45.89144" lon="6.24786">
        <ele>566</ele>
        <time>2013-05-30T04:23:40.000Z</time>
      </trkpt>
      <trkpt lat="45.89144" lon="6.2479">
        <ele>566</ele>
        <time>2013-05-30T04:23:41.000Z</time>
      </trkpt>
      <trkpt lat="45.89145" lon="6.24793">
        <ele>566</ele>
        <time>2013-05-30T04:23:42.000Z</time>
      </trkpt>
      <trkpt lat="45.89146" lon="6.24797">
        <ele>566</ele>
        <time>2013-05-30T04:23:43.000Z</time>
      </trkpt>
      <trkpt lat="45.89147" lon="6.24801">
        <ele>566</ele>
        <time>2013-05-30T04:23:44.000Z</time>
      </trkpt>
      <trkpt lat="45.89148" lon="6.24804">
        <ele>566</ele>
        <time>2013-05-30T04:23:45.000Z</time>
      </trkpt>
      <trkpt lat="45.89149" lon="6.24808">
        <ele>566</ele>
        <time>2013-05-30T04:23:46.000Z</time>
      </trkpt>
      <trkpt lat="45.89149" lon="6.24812">
        <ele>565</ele>
        <time>2013-05-30T04:23:47.000Z</time>
      </trkpt>
      <trkpt lat="45.8915" lon="6.24816">
        <ele>565</ele>
        <time>2013-05-30T04:23:48.000Z</time>
      </trkpt>
      <trkpt lat="45.8915" lon="6.2482">
        <ele>565</ele>
        <time>2013-05-30T04:23:49.000Z</time>
      </trkpt>
      <trkpt lat="45.89151" lon="6.24824">
        <ele>564</ele>
        <time>2013-05-30T04:23:50.000Z</time>
      </trkpt>
      <trkpt lat="45.89152" lon="6.24827">
        <ele>564</ele>
        <time>2013-05-30T04:23:51.000Z</time>
      </trkpt>
      <trkpt lat="45.89153" lon="6.24831">
        <ele>563</ele>
        <time>2013-05-30T04:23:52.000Z</time>
      </trkpt>
      <trkpt lat="45.89154" lon="6.24835">
        <ele>564</ele>
        <time>2013-05-30T04:23:53.000Z</time>
      </trkpt>
      <trkpt lat="45.89154" lon="6.24838">
        <ele>564</ele>
        <time>2013-05-30T04:23:54.000Z</time>
      </trkpt>
      <trkpt lat="45.89155" lon="6.24842">
        <ele>564</ele>
        <time>2013-05-30T04:23:55.000Z</time>
      </trkpt>
      <trkpt lat="45.89155" lon="6.24846">
        <ele>565</ele>
        <time>2013-05-30T04:23:56.000Z</time>
      </trkpt>
      <trkpt lat="45.89156" lon="6.2485">
        <ele>565</ele>
        <time>2013-05-30T04:23:57.000Z</time>
      </trkpt>
      <trkpt lat="45.89157" lon="6.24854">
        <ele>566</ele>
        <time>2013-05-30T04:23:58.000Z</time>
      </trkpt>
      <trkpt lat="45.89157" lon="6.24857">
        <ele>566</ele>
        <time>2013-05-30T04:23:59.000Z</time>
      </trkpt>
      <trkpt lat="45.89157" lon="6.24861">
        <ele>566</ele>
        <time>2013-05-30T04:24:00.000Z</time>
      </trkpt>
      <trkpt lat="45.89158" lon="6.24865">
        <ele>567</ele>
        <time>2013-05-30T04:24:01.000Z</time>
      </trkpt>
      <trkpt lat="45.89158" lon="6.24869">
        <ele>567</ele>
        <time>2013-05-30T04:24:02.000Z</time>
      </trkpt>
      <trkpt lat="45.89159" lon="6.24873">
        <ele>567</ele>
        <time>2013-05-30T04:24:03.000Z</time>
      </trkpt>
      <trkpt lat="45.89159" lon="6.24877">
        <ele>567</ele>
        <time>2013-05-30T04:24:04.000Z</time>
      </trkpt>
      <trkpt lat="45.89159" lon="6.24881">
        <ele>567</ele>
        <time>2013-05-30T04:24:05.000Z</time>
      </trkpt>
      <trkpt lat="45.8916" lon="6.24885">
        <ele>567</ele>
        <time>2013-05-30T04:24:06.000Z</time>
      </trkpt>
      <trkpt lat="45.8916" lon="6.24889">
        <ele>566</ele>
        <time>2013-05-30T04:24:07.000Z</time>
      </trkpt>
      <trkpt lat="45.8916" lon="6.24893">
        <ele>566</ele>
        <time>2013-05-30T04:24:08.000Z</time>
      </trkpt>
      <trkpt lat="45.89161" lon="6.24898">
        <ele>566</ele>
        <time>2013-05-30T04:24:09.000Z</time>
      </trkpt>
      <trkpt lat="45.89161" lon="6.24902">
        <ele>565</ele>
        <time>2013-05-30T04:24:10.000Z</time>
      </trkpt>
      <trkpt lat="45.89161" lon="6.24906">
        <ele>565</ele>
        <time>2013-05-30T04:24:11.000Z</time>
      </trkpt>
      <trkpt lat="45.89161" lon="6.2491">
        <ele>564</ele>
        <time>2013-05-30T04:24:12.000Z</time>
      </trkpt>
      <trkpt lat="45.89161" lon="6.24914">
        <ele>563</ele>
        <time>2013-05-30T04:24:13.000Z</time>
      </trkpt>
      <trkpt lat="45.89161" lon="6.24918">
        <ele>562</ele>
        <time>2013-05-30T04:24:14.000Z</time>
      </trkpt>
      <trkpt lat="45.89162" lon="6.24922">
        <ele>563</ele>
        <time>2013-05-30T04:24:15.000Z</time>
      </trkpt>
      <trkpt lat="45.89162" lon="6.24926">
        <ele>563</ele>
        <time>2013-05-30T04:24:16.000Z</time>
      </trkpt>
      <trkpt lat="45.89162" lon="6.2493">
        <ele>564</ele>
        <time>2013-05-30T04:24:17.000Z</time>
      </trkpt>
      <trkpt lat="45.89161" lon="6.24934">
        <ele>564</ele>
        <time>2013-05-30T04:24:18.000Z</time>
      </trkpt>
      <trkpt lat="45.89161" lon="6.24938">
        <ele>565</ele>
        <time>2013-05-30T04:24:19.000Z</time>
      </trkpt>
      <trkpt lat="45.8916" lon="6.24942">
        <ele>565</ele>
        <time>2013-05-30T04:24:20.000Z</time>
      </trkpt>
      <trkpt lat="45.89159" lon="6.24945">
        <ele>565</ele>
        <time>2013-05-30T04:24:21.000Z</time>
      </trkpt>
      <trkpt lat="45.89159" lon="6.24949">
        <ele>565</ele>
        <time>2013-05-30T04:24:22.000Z</time>
      </trkpt>
      <trkpt lat="45.89158" lon="6.24953">
        <ele>565</ele>
        <time>2013-05-30T04:24:23.000Z</time>
      </trkpt>
      <trkpt lat="45.89157" lon="6.24957">
        <ele>565</ele>
        <time>2013-05-30T04:24:24.000Z</time>
      </trkpt>
      <trkpt lat="45.89157" lon="6.24961">
        <ele>565</ele>
        <time>2013-05-30T04:24:25.000Z</time>
      </trkpt>
      <trkpt lat="45.89157" lon="6.24965">
        <ele>565</ele>
        <time>2013-05-30T04:24:26.000Z</time>
      </trkpt>
      <trkpt lat="45.89157" lon="6.24969">
        <ele>564</ele>
        <time>2013-05-30T04:24:27.000Z</time>
      </trkpt>
      <trkpt lat="45.89156" lon="6.24973">
        <ele>564</ele>
        <time>2013-05-30T04:24:28.000Z</time>
      </trkpt>
      <trkpt lat="45.89156" lon="6.24977">
        <ele>563</ele>
        <time>2013-05-30T04:24:29.000Z</time>
      </trkpt>
      <trkpt lat="45.89155" lon="6.24981">
        <ele>563</ele>
        <time>2013-05-30T04:24:30.000Z</time>
      </trkpt>
      <trkpt lat="45.89154" lon="6.24985">
        <ele>563</ele>
        <time>2013-05-30T04:24:31.000Z</time>
      </trkpt>
      <trkpt lat="45.89153" lon="6.24989">
        <ele>562</ele>
        <time>2013-05-30T04:24:32.000Z</time>
      </trkpt>
      <trkpt lat="45.89152" lon="6.24993">
        <ele>562</ele>
        <time>2013-05-30T04:24:33.000Z</time>
      </trkpt>
      <trkpt lat="45.89151" lon="6.24996">
        <ele>562</ele>
        <time>2013-05-30T04:24:34.000Z</time>
      </trkpt>
      <trkpt lat="45.8915" lon="6.25">
        <ele>560</ele>
        <time>2013-05-30T04:24:35.000Z</time>
      </trkpt>
      <trkpt lat="45.8915" lon="6.25004">
        <ele>561</ele>
        <time>2013-05-30T04:24:36.000Z</time>
      </trkpt>
      <trkpt lat="45.89149" lon="6.25008">
        <ele>561</ele>
        <time>2013-05-30T04:24:37.000Z</time>
      </trkpt>
      <trkpt lat="45.89149" lon="6.25012">
        <ele>562</ele>
        <time>2013-05-30T04:24:38.000Z</time>
      </trkpt>
      <trkpt lat="45.89148" lon="6.25016">
        <ele>562</ele>
        <time>2013-05-30T04:24:39.000Z</time>
      </trkpt>
      <trkpt lat="45.89148" lon="6.2502">
        <ele>563</ele>
        <time>2013-05-30T04:24:40.000Z</time>
      </trkpt>
      <trkpt lat="45.89147" lon="6.25024">
        <ele>563</ele>
        <time>2013-05-30T04:24:41.000Z</time>
      </trkpt>
      <trkpt lat="45.89146" lon="6.25027">
        <ele>563</ele>
        <time>2013-05-30T04:24:42.000Z</time>
      </trkpt>
      <trkpt lat="45.89146" lon="6.25031">
        <ele>563</ele>
        <time>2013-05-30T04:24:43.000Z</time>
      </trkpt>
      <trkpt lat="45.89145" lon="6.25035">
        <ele>563</ele>
        <time>2013-05-30T04:24:44.000Z</time>
      </trkpt>
      <trkpt lat="45.89145" lon="6.25038">
        <ele>563</ele>
        <time>2013-05-30T04:24:45.000Z</time>
      </trkpt>
      <trkpt lat="45.89145" lon="6.25042">
        <ele>563</ele>
        <time>2013-05-30T04:24:46.000Z</time>
      </trkpt>
      <trkpt lat="45.89146" lon="6.25046">
        <ele>563</ele>
        <time>2013-05-30T04:24:47.000Z</time>
      </trkpt>
      <trkpt lat="45.89146" lon="6.2505">
        <ele>563</ele>
        <time>2013-05-30T04:24:48.000Z</time>
      </trkpt>
      <trkpt lat="45.89146" lon="6.25054">
        <ele>563</ele>
        <time>2013-05-30T04:24:49.000Z</time>
      </trkpt>
      <trkpt lat="45.89146" lon="6.25057">
        <ele>563</ele>
        <time>2013-05-30T04:24:50.000Z</time>
      </trkpt>
      <trkpt lat="45.89146" lon="6.25061">
        <ele>562</ele>
        <time>2013-05-30T04:24:51.000Z</time>
      </trkpt>
      <trkpt lat="45.89145" lon="6.25065">
        <ele>562</ele>
        <time>2013-05-30T04:24:52.000Z</time>
      </trkpt>
      <trkpt lat="45.89145" lon="6.25069">
        <ele>562</ele>
        <time>2013-05-30T04:24:53.000Z</time>
      </trkpt>
      <trkpt lat="45.89144" lon="6.25072">
        <ele>562</ele>
        <time>2013-05-30T04:24:54.000Z</time>
      </trkpt>
      <trkpt lat="45.89144" lon="6.25076">
        <ele>562</ele>
        <time>2013-05-30T04:24:55.000Z</time>
      </trkpt>
      <trkpt lat="45.89145" lon="6.2508">
        <ele>561</ele>
        <time>2013-05-30T04:24:56.000Z</time>
      </trkpt>
      <trkpt lat="45.89146" lon="6.25083">
        <ele>561</ele>
        <time>2013-05-30T04:24:57.000Z</time>
      </trkpt>
      <trkpt lat="45.89146" lon="6.25086">
        <ele>561</ele>
        <time>2013-05-30T04:24:58.000Z</time>
      </trkpt>
      <trkpt lat="45.89148" lon="6.25089">
        <ele>561</ele>
        <time>2013-05-30T04:24:59.000Z</time>
      </trkpt>
      <trkpt lat="45.8915" lon="6.25092">
        <ele>560</ele>
        <time>2013-05-30T04:25:00.000Z</time>
      </trkpt>
      <trkpt lat="45.89153" lon="6.25093">
        <ele>560</ele>
        <time>2013-05-30T04:25:01.000Z</time>
      </trkpt>
      <trkpt lat="45.89155" lon="6.25093">
        <ele>559</ele>
        <time>2013-05-30T04:25:02.000Z</time>
      </trkpt>
      <trkpt lat="45.89158" lon="6.25093">
        <ele>558</ele>
        <time>2013-05-30T04:25:03.000Z</time>
      </trkpt>
      <trkpt lat="45.8916" lon="6.25093">
        <ele>558</ele>
        <time>2013-05-30T04:25:04.000Z</time>
      </trkpt>
      <trkpt lat="45.89163" lon="6.25093">
        <ele>557</ele>
        <time>2013-05-30T04:25:05.000Z</time>
      </trkpt>
      <trkpt lat="45.89165" lon="6.25094">
        <ele>557</ele>
        <time>2013-05-30T04:25:06.000Z</time>
      </trkpt>
      <trkpt lat="45.89168" lon="6.25094">
        <ele>552</ele>
        <time>2013-05-30T04:25:07.000Z</time>
      </trkpt>
      <trkpt lat="45.89171" lon="6.25095">
        <ele>552</ele>
        <time>2013-05-30T04:25:08.000Z</time>
      </trkpt>
      <trkpt lat="45.89174" lon="6.25096">
        <ele>551</ele>
        <time>2013-05-30T04:25:09.000Z</time>
      </trkpt>
      <trkpt lat="45.89176" lon="6.25097">
        <ele>551</ele>
        <time>2013-05-30T04:25:10.000Z</time>
      </trkpt>
      <trkpt lat="45.89178" lon="6.25098">
        <ele>551</ele>
        <time>2013-05-30T04:25:11.000Z</time>
      </trkpt>
      <trkpt lat="45.89181" lon="6.251">
        <ele>551</ele>
        <time>2013-05-30T04:25:12.000Z</time>
      </trkpt>
      <trkpt lat="45.89183" lon="6.25101">
        <ele>551</ele>
        <time>2013-05-30T04:25:13.000Z</time>
      </trkpt>
      <trkpt lat="45.89185" lon="6.25103">
        <ele>550</ele>
        <time>2013-05-30T04:25:14.000Z</time>
      </trkpt>
      <trkpt lat="45.89188" lon="6.25105">
        <ele>550</ele>
        <time>2013-05-30T04:25:15.000Z</time>
      </trkpt>
      <trkpt lat="45.8919" lon="6.25107">
        <ele>550</ele>
        <time>2013-05-30T04:25:16.000Z</time>
      </trkpt>
      <trkpt lat="45.89191" lon="6.2511">
        <ele>550</ele>
        <time>2013-05-30T04:25:17.000Z</time>
      </trkpt>
      <trkpt lat="45.89193" lon="6.25113">
        <ele>550</ele>
        <time>2013-05-30T04:25:18.000Z</time>
      </trkpt>
      <trkpt lat="45.89194" lon="6.25116">
        <ele>550</ele>
        <time>2013-05-30T04:25:19.000Z</time>
      </trkpt>
      <trkpt lat="45.89195" lon="6.2512">
        <ele>550</ele>
        <time>2013-05-30T04:25:20.000Z</time>
      </trkpt>
      <trkpt lat="45.89196" lon="6.25124">
        <ele>550</ele>
        <time>2013-05-30T04:25:21.000Z</time>
      </trkpt>
      <trkpt lat="45.89196" lon="6.25127">
        <ele>550</ele>
        <time>2013-05-30T04:25:22.000Z</time>
      </trkpt>
      <trkpt lat="45.89196" lon="6.25131">
        <ele>550</ele>
        <time>2013-05-30T04:25:23.000Z</time>
      </trkpt>
      <trkpt lat="45.89197" lon="6.25135">
        <ele>550</ele>
        <time>2013-05-30T04:25:24.000Z</time>
      </trkpt>
      <trkpt lat="45.89196" lon="6.25138">
        <ele>550</ele>
        <time>2013-05-30T04:25:25.000Z</time>
      </trkpt>
      <trkpt lat="45.89196" lon="6.25142">
        <ele>550</ele>
        <time>2013-05-30T04:25:26.000Z</time>
      </trkpt>
      <trkpt lat="45.89195" lon="6.25146">
        <ele>550</ele>
        <time>2013-05-30T04:25:27.000Z</time>
      </trkpt>
      <trkpt lat="45.89194" lon="6.25149">
        <ele>550</ele>
        <time>2013-05-30T04:25:28.000Z</time>
      </trkpt>
      <trkpt lat="45.89192" lon="6.25152">
        <ele>550</ele>
        <time>2013-05-30T04:25:29.000Z</time>
      </trkpt>
      <trkpt lat="45.8919" lon="6.25155">
        <ele>551</ele>
        <time>2013-05-30T04:25:30.000Z</time>
      </trkpt>
      <trkpt lat="45.89189" lon="6.25158">
        <ele>551</ele>
        <time>2013-05-30T04:25:31.000Z</time>
      </trkpt>
      <trkpt lat="45.89187" lon="6.2516">
        <ele>551</ele>
        <time>2013-05-30T04:25:32.000Z</time>
      </trkpt>
      <trkpt lat="45.89185" lon="6.25162">
        <ele>551</ele>
        <time>2013-05-30T04:25:33.000Z</time>
      </trkpt>
      <trkpt lat="45.89183" lon="6.25164">
        <ele>552</ele>
        <time>2013-05-30T04:25:34.000Z</time>
      </trkpt>
      <trkpt lat="45.8918" lon="6.25166">
        <ele>552</ele>
        <time>2013-05-30T04:25:35.000Z</time>
      </trkpt>
      <trkpt lat="45.89178" lon="6.25168">
        <ele>553</ele>
        <time>2013-05-30T04:25:36.000Z</time>
      </trkpt>
      <trkpt lat="45.89177" lon="6.25169">
        <ele>553</ele>
        <time>2013-05-30T04:25:37.000Z</time>
      </trkpt>
      <trkpt lat="45.89175" lon="6.25171">
        <ele>553</ele>
        <time>2013-05-30T04:25:38.000Z</time>
      </trkpt>
      <trkpt lat="45.89174" lon="6.25173">
        <ele>553</ele>
        <time>2013-05-30T04:25:39.000Z</time>
      </trkpt>
      <trkpt lat="45.89173" lon="6.25176">
        <ele>553</ele>
        <time>2013-05-30T04:25:40.000Z</time>
      </trkpt>
      <trkpt lat="45.89172" lon="6.25179">
        <ele>553</ele>
        <time>2013-05-30T04:25:41.000Z</time>
      </trkpt>
      <trkpt lat="45.89171" lon="6.25181">
        <ele>552</ele>
        <time>2013-05-30T04:25:42.000Z</time>
      </trkpt>
      <trkpt lat="45.89169" lon="6.25183">
        <ele>552</ele>
        <time>2013-05-30T04:25:43.000Z</time>
      </trkpt>
      <trkpt lat="45.89167" lon="6.25183">
        <ele>552</ele>
        <time>2013-05-30T04:25:44.000Z</time>
      </trkpt>
      <trkpt lat="45.89165" lon="6.25182">
        <ele>560</ele>
        <time>2013-05-30T04:25:45.000Z</time>
      </trkpt>
      <trkpt lat="45.89162" lon="6.2518">
        <ele>560</ele>
        <time>2013-05-30T04:25:46.000Z</time>
      </trkpt>
      <trkpt lat="45.8916" lon="6.25178">
        <ele>560</ele>
        <time>2013-05-30T04:25:47.000Z</time>
      </trkpt>
      <trkpt lat="45.89158" lon="6.25175">
        <ele>559</ele>
        <time>2013-05-30T04:25:48.000Z</time>
      </trkpt>
      <trkpt lat="45.89156" lon="6.25172">
        <ele>559</ele>
        <time>2013-05-30T04:25:49.000Z</time>
      </trkpt>
      <trkpt lat="45.89155" lon="6.25169">
        <ele>559</ele>
        <time>2013-05-30T04:25:50.000Z</time>
      </trkpt>
      <trkpt lat="45.89154" lon="6.25166">
        <ele>559</ele>
        <time>2013-05-30T04:25:51.000Z</time>
      </trkpt>
      <trkpt lat="45.89153" lon="6.25163">
        <ele>560</ele>
        <time>2013-05-30T04:25:52.000Z</time>
      </trkpt>
      <trkpt lat="45.89152" lon="6.2516">
        <ele>560</ele>
        <time>2013-05-30T04:25:53.000Z</time>
      </trkpt>
      <trkpt lat="45.8915" lon="6.25158">
        <ele>561</ele>
        <time>2013-05-30T04:25:54.000Z</time>
      </trkpt>
      <trkpt lat="45.89149" lon="6.25154">
        <ele>562</ele>
        <time>2013-05-30T04:25:55.000Z</time>
      </trkpt>
      <trkpt lat="45.89147" lon="6.25151">
        <ele>562</ele>
        <time>2013-05-30T04:25:56.000Z</time>
      </trkpt>
      <trkpt lat="45.89145" lon="6.25148">
        <ele>563</ele>
        <time>2013-05-30T04:25:57.000Z</time>
      </trkpt>
      <trkpt lat="45.89144" lon="6.25145">
        <ele>563</ele>
        <time>2013-05-30T04:25:58.000Z</time>
      </trkpt>
      <trkpt lat="45.89143" lon="6.25142">
        <ele>564</ele>
        <time>2013-05-30T04:25:59.000Z</time>
      </trkpt>
      <trkpt lat="45.89142" lon="6.25138">
        <ele>564</ele>
        <time>2013-05-30T04:26:00.000Z</time>
      </trkpt>
      <trkpt lat="45.89141" lon="6.25135">
        <ele>564</ele>
        <time>2013-05-30T04:26:01.000Z</time>
      </trkpt>
      <trkpt lat="45.89141" lon="6.25131">
        <ele>564</ele>
        <time>2013-05-30T04:26:02.000Z</time>
      </trkpt>
      <trkpt lat="45.8914" lon="6.25128">
        <ele>564</ele>
        <time>2013-05-30T04:26:03.000Z</time>
      </trkpt>
      <trkpt lat="45.89139" lon="6.25124">
        <ele>564</ele>
        <time>2013-05-30T04:26:04.000Z</time>
      </trkpt>
      <trkpt lat="45.89138" lon="6.25121">
        <ele>565</ele>
        <time>2013-05-30T04:26:05.000Z</time>
      </trkpt>
      <trkpt lat="45.89136" lon="6.25118">
        <ele>565</ele>
        <time>2013-05-30T04:26:06.000Z</time>
      </trkpt>
      <trkpt lat="45.89134" lon="6.25115">
        <ele>565</ele>
        <time>2013-05-30T04:26:07.000Z</time>
      </trkpt>
      <trkpt lat="45.89132" lon="6.25112">
        <ele>565</ele>
        <time>2013-05-30T04:26:08.000Z</time>
      </trkpt>
      <trkpt lat="45.8913" lon="6.25109">
        <ele>565</ele>
        <time>2013-05-30T04:26:09.000Z</time>
      </trkpt>
      <trkpt lat="45.89129" lon="6.25106">
        <ele>566</ele>
        <time>2013-05-30T04:26:10.000Z</time>
      </trkpt>
      <trkpt lat="45.89127" lon="6.25103">
        <ele>566</ele>
        <time>2013-05-30T04:26:11.000Z</time>
      </trkpt>
      <trkpt lat="45.89126" lon="6.251">
        <ele>566</ele>
        <time>2013-05-30T04:26:12.000Z</time>
      </trkpt>
      <trkpt lat="45.89125" lon="6.25096">
        <ele>566</ele>
        <time>2013-05-30T04:26:13.000Z</time>
      </trkpt>
      <trkpt lat="45.89124" lon="6.25092">
        <ele>567</ele>
        <time>2013-05-30T04:26:14.000Z</time>
      </trkpt>
      <trkpt lat="45.89123" lon="6.25088">
        <ele>567</ele>
        <time>2013-05-30T04:26:15.000Z</time>
      </trkpt>
      <trkpt lat="45.89123" lon="6.25085">
        <ele>567</ele>
        <time>2013-05-30T04:26:16.000Z</time>
      </trkpt>
      <trkpt lat="45.89124" lon="6.25082">
        <ele>566</ele>
        <time>2013-05-30T04:26:17.000Z</time>
      </trkpt>
      <trkpt lat="45.89124" lon="6.25078">
        <ele>566</ele>
        <time>2013-05-30T04:26:18.000Z</time>
      </trkpt>
      <trkpt lat="45.89124" lon="6.25074">
        <ele>566</ele>
        <time>2013-05-30T04:26:19.000Z</time>
      </trkpt>
      <trkpt lat="45.89124" lon="6.25071">
        <ele>566</ele>
        <time>2013-05-30T04:26:20.000Z</time>
      </trkpt>
      <trkpt lat="45.89125" lon="6.25067">
        <ele>566</ele>
        <time>2013-05-30T04:26:21.000Z</time>
      </trkpt>
      <trkpt lat="45.89125" lon="6.25063">
        <ele>566</ele>
        <time>2013-05-30T04:26:22.000Z</time>
      </trkpt>
      <trkpt lat="45.89126" lon="6.2506">
        <ele>566</ele>
        <time>2013-05-30T04:26:23.000Z</time>
      </trkpt>
      <trkpt lat="45.89127" lon="6.25056">
        <ele>566</ele>
        <time>2013-05-30T04:26:24.000Z</time>
      </trkpt>
      <trkpt lat="45.89128" lon="6.25053">
        <ele>566</ele>
        <time>2013-05-30T04:26:25.000Z</time>
      </trkpt>
      <trkpt lat="45.89129" lon="6.25049">
        <ele>565</ele>
        <time>2013-05-30T04:26:26.000Z</time>
      </trkpt>
      <trkpt lat="45.89129" lon="6.25046">
        <ele>565</ele>
        <time>2013-05-30T04:26:27.000Z</time>
      </trkpt>
      <trkpt lat="45.8913" lon="6.25042">
        <ele>565</ele>
        <time>2013-05-30T04:26:28.000Z</time>
      </trkpt>
      <trkpt lat="45.89131" lon="6.25039">
        <ele>565</ele>
        <time>2013-05-30T04:26:29.000Z</time>
      </trkpt>
      <trkpt lat="45.89132" lon="6.25036">
        <ele>565</ele>
        <time>2013-05-30T04:26:30.000Z</time>
      </trkpt>
      <trkpt lat="45.89132" lon="6.25032">
        <ele>565</ele>
        <time>2013-05-30T04:26:31.000Z</time>
      </trkpt>
      <trkpt lat="45.89133" lon="6.25029">
        <ele>565</ele>
        <time>2013-05-30T04:26:32.000Z</time>
      </trkpt>
      <trkpt lat="45.89134" lon="6.25025">
        <ele>565</ele>
        <time>2013-05-30T04:26:33.000Z</time>
      </trkpt>
      <trkpt lat="45.89134" lon="6.25022">
        <ele>565</ele>
        <time>2013-05-30T04:26:34.000Z</time>
      </trkpt>
      <trkpt lat="45.89135" lon="6.25018">
        <ele>564</ele>
        <time>2013-05-30T04:26:35.000Z</time>
      </trkpt>
      <trkpt lat="45.89135" lon="6.25015">
        <ele>564</ele>
        <time>2013-05-30T04:26:36.000Z</time>
      </trkpt>
      <trkpt lat="45.89136" lon="6.25012">
        <ele>564</ele>
        <time>2013-05-30T04:26:37.000Z</time>
      </trkpt>
      <trkpt lat="45.89137" lon="6.25008">
        <ele>564</ele>
        <time>2013-05-30T04:26:38.000Z</time>
      </trkpt>
      <trkpt lat="45.89138" lon="6.25004">
        <ele>564</ele>
        <time>2013-05-30T04:26:39.000Z</time>
      </trkpt>
      <trkpt lat="45.89138" lon="6.25001">
        <ele>563</ele>
        <time>2013-05-30T04:26:40.000Z</time>
      </trkpt>
      <trkpt lat="45.89139" lon="6.24998">
        <ele>565</ele>
        <time>2013-05-30T04:26:41.000Z</time>
      </trkpt>
      <trkpt lat="45.8914" lon="6.24994">
        <ele>565</ele>
        <time>2013-05-30T04:26:42.000Z</time>
      </trkpt>
      <trkpt lat="45.8914" lon="6.24991">
        <ele>565</ele>
        <time>2013-05-30T04:26:43.000Z</time>
      </trkpt>
      <trkpt lat="45.89141" lon="6.24987">
        <ele>565</ele>
        <time>2013-05-30T04:26:44.000Z</time>
      </trkpt>
      <trkpt lat="45.89142" lon="6.24983">
        <ele>565</ele>
        <time>2013-05-30T04:26:45.000Z</time>
      </trkpt>
      <trkpt lat="45.89142" lon="6.2498">
        <ele>565</ele>
        <time>2013-05-30T04:26:46.000Z</time>
      </trkpt>
      <trkpt lat="45.89143" lon="6.24976">
        <ele>565</ele>
        <time>2013-05-30T04:26:47.000Z</time>
      </trkpt>
      <trkpt lat="45.89144" lon="6.24973">
        <ele>565</ele>
        <time>2013-05-30T04:26:48.000Z</time>
      </trkpt>
      <trkpt lat="45.89145" lon="6.24969">
        <ele>565</ele>
        <time>2013-05-30T04:26:49.000Z</time>
      </trkpt>
      <trkpt lat="45.89145" lon="6.24966">
        <ele>566</ele>
        <time>2013-05-30T04:26:50.000Z</time>
      </trkpt>
      <trkpt lat="45.89146" lon="6.24962">
        <ele>566</ele>
        <time>2013-05-30T04:26:51.000Z</time>
      </trkpt>
      <trkpt lat="45.89146" lon="6.24959">
        <ele>566</ele>
        <time>2013-05-30T04:26:52.000Z</time>
      </trkpt>
      <trkpt lat="45.89146" lon="6.24955">
        <ele>566</ele>
        <time>2013-05-30T04:26:53.000Z</time>
      </trkpt>
      <trkpt lat="45.89147" lon="6.24952">
        <ele>566</ele>
        <time>2013-05-30T04:26:54.000Z</time>
      </trkpt>
      <trkpt lat="45.89147" lon="6.24948">
        <ele>566</ele>
        <time>2013-05-30T04:26:55.000Z</time>
      </trkpt>
      <trkpt lat="45.89148" lon="6.24945">
        <ele>566</ele>
        <time>2013-05-30T04:26:56.000Z</time>
      </trkpt>
      <trkpt lat="45.89148" lon="6.24941">
        <ele>566</ele>
        <time>2013-05-30T04:26:57.000Z</time>
      </trkpt>
      <trkpt lat="45.89148" lon="6.24938">
        <ele>566</ele>
        <time>2013-05-30T04:26:58.000Z</time>
      </trkpt>
      <trkpt lat="45.89148" lon="6.24934">
        <ele>565</ele>
        <time>2013-05-30T04:26:59.000Z</time>
      </trkpt>
      <trkpt lat="45.89148" lon="6.24931">
        <ele>565</ele>
        <time>2013-05-30T04:27:00.000Z</time>
      </trkpt>
      <trkpt lat="45.89149" lon="6.24928">
        <ele>565</ele>
        <time>2013-05-30T04:27:01.000Z</time>
      </trkpt>
      <trkpt lat="45.89149" lon="6.24924">
        <ele>565</ele>
        <time>2013-05-30T04:27:02.000Z</time>
      </trkpt>
      <trkpt lat="45.89149" lon="6.2492">
        <ele>565</ele>
        <time>2013-05-30T04:27:03.000Z</time>
      </trkpt>
      <trkpt lat="45.89148" lon="6.24917">
        <ele>565</ele>
        <time>2013-05-30T04:27:04.000Z</time>
      </trkpt>
      <trkpt lat="45.89148" lon="6.24913">
        <ele>566</ele>
        <time>2013-05-30T04:27:05.000Z</time>
      </trkpt>
      <trkpt lat="45.89148" lon="6.2491">
        <ele>566</ele>
        <time>2013-05-30T04:27:06.000Z</time>
      </trkpt>
      <trkpt lat="45.89148" lon="6.24906">
        <ele>567</ele>
        <time>2013-05-30T04:27:07.000Z</time>
      </trkpt>
      <trkpt lat="45.89148" lon="6.24903">
        <ele>567</ele>
        <time>2013-05-30T04:27:08.000Z</time>
      </trkpt>
      <trkpt lat="45.89148" lon="6.24899">
        <ele>567</ele>
        <time>2013-05-30T04:27:09.000Z</time>
      </trkpt>
      <trkpt lat="45.89148" lon="6.24896">
        <ele>567</ele>
        <time>2013-05-30T04:27:10.000Z</time>
      </trkpt>
      <trkpt lat="45.89148" lon="6.24892">
        <ele>567</ele>
        <time>2013-05-30T04:27:11.000Z</time>
      </trkpt>
      <trkpt lat="45.89148" lon="6.24888">
        <ele>568</ele>
        <time>2013-05-30T04:27:12.000Z</time>
      </trkpt>
      <trkpt lat="45.89147" lon="6.24885">
        <ele>568</ele>
        <time>2013-05-30T04:27:13.000Z</time>
      </trkpt>
      <trkpt lat="45.89146" lon="6.24882">
        <ele>568</ele>
        <time>2013-05-30T04:27:14.000Z</time>
      </trkpt>
      <trkpt lat="45.89146" lon="6.24878">
        <ele>568</ele>
        <time>2013-05-30T04:27:15.000Z</time>
      </trkpt>
      <trkpt lat="45.89146" lon="6.24874">
        <ele>568</ele>
        <time>2013-05-30T04:27:16.000Z</time>
      </trkpt>
      <trkpt lat="45.89145" lon="6.24871">
        <ele>568</ele>
        <time>2013-05-30T04:27:17.000Z</time>
      </trkpt>
      <trkpt lat="45.89145" lon="6.24867">
        <ele>568</ele>
        <time>2013-05-30T04:27:18.000Z</time>
      </trkpt>
      <trkpt lat="45.89144" lon="6.24864">
        <ele>568</ele>
        <time>2013-05-30T04:27:19.000Z</time>
      </trkpt>
      <trkpt lat="45.89143" lon="6.2486">
        <ele>568</ele>
        <time>2013-05-30T04:27:20.000Z</time>
      </trkpt>
      <trkpt lat="45.89143" lon="6.24857">
        <ele>568</ele>
        <time>2013-05-30T04:27:21.000Z</time>
      </trkpt>
      <trkpt lat="45.89143" lon="6.24853">
        <ele>568</ele>
        <time>2013-05-30T04:27:22.000Z</time>
      </trkpt>
      <trkpt lat="45.89142" lon="6.2485">
        <ele>568</ele>
        <time>2013-05-30T04:27:23.000Z</time>
      </trkpt>
      <trkpt lat="45.89141" lon="6.24846">
        <ele>568</ele>
        <time>2013-05-30T04:27:24.000Z</time>
      </trkpt>
      <trkpt lat="45.89141" lon="6.24843">
        <ele>568</ele>
        <time>2013-05-30T04:27:25.000Z</time>
      </trkpt>
      <trkpt lat="45.8914" lon="6.24839">
        <ele>568</ele>
        <time>2013-05-30T04:27:26.000Z</time>
      </trkpt>
      <trkpt lat="45.89139" lon="6.24835">
        <ele>568</ele>
        <time>2013-05-30T04:27:27.000Z</time>
      </trkpt>
      <trkpt lat="45.89138" lon="6.24831">
        <ele>567</ele>
        <time>2013-05-30T04:27:28.000Z</time>
      </trkpt>
      <trkpt lat="45.89138" lon="6.24828">
        <ele>567</ele>
        <time>2013-05-30T04:27:29.000Z</time>
      </trkpt>
      <trkpt lat="45.89138" lon="6.24824">
        <ele>567</ele>
        <time>2013-05-30T04:27:30.000Z</time>
      </trkpt>
      <trkpt lat="45.89137" lon="6.24821">
        <ele>567</ele>
        <time>2013-05-30T04:27:31.000Z</time>
      </trkpt>
      <trkpt lat="45.89136" lon="6.24817">
        <ele>567</ele>
        <time>2013-05-30T04:27:32.000Z</time>
      </trkpt>
      <trkpt lat="45.89136" lon="6.24813">
        <ele>567</ele>
        <time>2013-05-30T04:27:33.000Z</time>
      </trkpt>
      <trkpt lat="45.89135" lon="6.24809">
        <ele>568</ele>
        <time>2013-05-30T04:27:34.000Z</time>
      </trkpt>
      <trkpt lat="45.89135" lon="6.24806">
        <ele>568</ele>
        <time>2013-05-30T04:27:35.000Z</time>
      </trkpt>
      <trkpt lat="45.89134" lon="6.24802">
        <ele>568</ele>
        <time>2013-05-30T04:27:36.000Z</time>
      </trkpt>
      <trkpt lat="45.89134" lon="6.24798">
        <ele>568</ele>
        <time>2013-05-30T04:27:37.000Z</time>
      </trkpt>
      <trkpt lat="45.89133" lon="6.24795">
        <ele>568</ele>
        <time>2013-05-30T04:27:38.000Z</time>
      </trkpt>
      <trkpt lat="45.89132" lon="6.24791">
        <ele>568</ele>
        <time>2013-05-30T04:27:39.000Z</time>
      </trkpt>
      <trkpt lat="45.89132" lon="6.24787">
        <ele>568</ele>
        <time>2013-05-30T04:27:40.000Z</time>
      </trkpt>
      <trkpt lat="45.89131" lon="6.24784">
        <ele>568</ele>
        <time>2013-05-30T04:27:41.000Z</time>
      </trkpt>
      <trkpt lat="45.8913" lon="6.2478">
        <ele>568</ele>
        <time>2013-05-30T04:27:42.000Z</time>
      </trkpt>
      <trkpt lat="45.89129" lon="6.24776">
        <ele>568</ele>
        <time>2013-05-30T04:27:43.000Z</time>
      </trkpt>
      <trkpt lat="45.89129" lon="6.24773">
        <ele>568</ele>
        <time>2013-05-30T04:27:44.000Z</time>
      </trkpt>
      <trkpt lat="45.89128" lon="6.2477">
        <ele>568</ele>
        <time>2013-05-30T04:27:45.000Z</time>
      </trkpt>
      <trkpt lat="45.89127" lon="6.24766">
        <ele>568</ele>
        <time>2013-05-30T04:27:46.000Z</time>
      </trkpt>
      <trkpt lat="45.89126" lon="6.24762">
        <ele>568</ele>
        <time>2013-05-30T04:27:47.000Z</time>
      </trkpt>
      <trkpt lat="45.89125" lon="6.24758">
        <ele>568</ele>
        <time>2013-05-30T04:27:48.000Z</time>
      </trkpt>
      <trkpt lat="45.89125" lon="6.24754">
        <ele>568</ele>
        <time>2013-05-30T04:27:49.000Z</time>
      </trkpt>
      <trkpt lat="45.89124" lon="6.24751">
        <ele>568</ele>
        <time>2013-05-30T04:27:50.000Z</time>
      </trkpt>
      <trkpt lat="45.89123" lon="6.24747">
        <ele>567</ele>
        <time>2013-05-30T04:27:51.000Z</time>
      </trkpt>
      <trkpt lat="45.89122" lon="6.24744">
        <ele>567</ele>
        <time>2013-05-30T04:27:52.000Z</time>
      </trkpt>
      <trkpt lat="45.89121" lon="6.2474">
        <ele>568</ele>
        <time>2013-05-30T04:27:53.000Z</time>
      </trkpt>
      <trkpt lat="45.8912" lon="6.24737">
        <ele>568</ele>
        <time>2013-05-30T04:27:54.000Z</time>
      </trkpt>
      <trkpt lat="45.89119" lon="6.24733">
        <ele>568</ele>
        <time>2013-05-30T04:27:55.000Z</time>
      </trkpt>
      <trkpt lat="45.89118" lon="6.2473">
        <ele>568</ele>
        <time>2013-05-30T04:27:56.000Z</time>
      </trkpt>
      <trkpt lat="45.89118" lon="6.24726">
        <ele>568</ele>
        <time>2013-05-30T04:27:57.000Z</time>
      </trkpt>
      <trkpt lat="45.89117" lon="6.24723">
        <ele>568</ele>
        <time>2013-05-30T04:27:58.000Z</time>
      </trkpt>
      <trkpt lat="45.89116" lon="6.2472">
        <ele>568</ele>
        <time>2013-05-30T04:27:59.000Z</time>
      </trkpt>
      <trkpt lat="45.89116" lon="6.24717">
        <ele>568</ele>
        <time>2013-05-30T04:28:00.000Z</time>
      </trkpt>
      <trkpt lat="45.89115" lon="6.24714">
        <ele>568</ele>
        <time>2013-05-30T04:28:01.000Z</time>
      </trkpt>
      <trkpt lat="45.89114" lon="6.2471">
        <ele>568</ele>
        <time>2013-05-30T04:28:02.000Z</time>
      </trkpt>
      <trkpt lat="45.89113" lon="6.24707">
        <ele>568</ele>
        <time>2013-05-30T04:28:03.000Z</time>
      </trkpt>
      <trkpt lat="45.89112" lon="6.24704">
        <ele>569</ele>
        <time>2013-05-30T04:28:04.000Z</time>
      </trkpt>
      <trkpt lat="45.89112" lon="6.247">
        <ele>569</ele>
        <time>2013-05-30T04:28:05.000Z</time>
      </trkpt>
      <trkpt lat="45.89111" lon="6.24696">
        <ele>569</ele>
        <time>2013-05-30T04:28:06.000Z</time>
      </trkpt>
      <trkpt lat="45.89111" lon="6.24692">
        <ele>569</ele>
        <time>2013-05-30T04:28:07.000Z</time>
      </trkpt>
      <trkpt lat="45.8911" lon="6.24688">
        <ele>570</ele>
        <time>2013-05-30T04:28:08.000Z</time>
      </trkpt>
      <trkpt lat="45.89109" lon="6.24685">
        <ele>570</ele>
        <time>2013-05-30T04:28:09.000Z</time>
      </trkpt>
      <trkpt lat="45.89108" lon="6.24682">
        <ele>570</ele>
        <time>2013-05-30T04:28:10.000Z</time>
      </trkpt>
      <trkpt lat="45.89108" lon="6.24678">
        <ele>571</ele>
        <time>2013-05-30T04:28:11.000Z</time>
      </trkpt>
      <trkpt lat="45.89107" lon="6.24675">
        <ele>571</ele>
        <time>2013-05-30T04:28:12.000Z</time>
      </trkpt>
      <trkpt lat="45.89106" lon="6.24671">
        <ele>571</ele>
        <time>2013-05-30T04:28:13.000Z</time>
      </trkpt>
      <trkpt lat="45.89106" lon="6.24668">
        <ele>572</ele>
        <time>2013-05-30T04:28:14.000Z</time>
      </trkpt>
      <trkpt lat="45.89104" lon="6.24664">
        <ele>573</ele>
        <time>2013-05-30T04:28:15.000Z</time>
      </trkpt>
      <trkpt lat="45.89103" lon="6.24661">
        <ele>573</ele>
        <time>2013-05-30T04:28:16.000Z</time>
      </trkpt>
      <trkpt lat="45.89103" lon="6.24657">
        <ele>573</ele>
        <time>2013-05-30T04:28:17.000Z</time>
      </trkpt>
      <trkpt lat="45.89102" lon="6.24653">
        <ele>573</ele>
        <time>2013-05-30T04:28:18.000Z</time>
      </trkpt>
      <trkpt lat="45.89102" lon="6.2465">
        <ele>573</ele>
        <time>2013-05-30T04:28:19.000Z</time>
      </trkpt>
      <trkpt lat="45.89101" lon="6.24647">
        <ele>573</ele>
        <time>2013-05-30T04:28:20.000Z</time>
      </trkpt>
      <trkpt lat="45.891" lon="6.24643">
        <ele>572</ele>
        <time>2013-05-30T04:28:21.000Z</time>
      </trkpt>
      <trkpt lat="45.89099" lon="6.24639">
        <ele>572</ele>
        <time>2013-05-30T04:28:22.000Z</time>
      </trkpt>
      <trkpt lat="45.89099" lon="6.24636">
        <ele>572</ele>
        <time>2013-05-30T04:28:23.000Z</time>
      </trkpt>
      <trkpt lat="45.89099" lon="6.24633">
        <ele>572</ele>
        <time>2013-05-30T04:28:24.000Z</time>
      </trkpt>
      <trkpt lat="45.89098" lon="6.2463">
        <ele>572</ele>
        <time>2013-05-30T04:28:25.000Z</time>
      </trkpt>
      <trkpt lat="45.89098" lon="6.24626">
        <ele>572</ele>
        <time>2013-05-30T04:28:26.000Z</time>
      </trkpt>
      <trkpt lat="45.89098" lon="6.24623">
        <ele>573</ele>
        <time>2013-05-30T04:28:27.000Z</time>
      </trkpt>
      <trkpt lat="45.89097" lon="6.2462">
        <ele>573</ele>
        <time>2013-05-30T04:28:28.000Z</time>
      </trkpt>
      <trkpt lat="45.89097" lon="6.24617">
        <ele>573</ele>
        <time>2013-05-30T04:28:29.000Z</time>
      </trkpt>
      <trkpt lat="45.89097" lon="6.24613">
        <ele>573</ele>
        <time>2013-05-30T04:28:30.000Z</time>
      </trkpt>
      <trkpt lat="45.89097" lon="6.2461">
        <ele>574</ele>
        <time>2013-05-30T04:28:31.000Z</time>
      </trkpt>
      <trkpt lat="45.89097" lon="6.24606">
        <ele>574</ele>
        <time>2013-05-30T04:28:32.000Z</time>
      </trkpt>
      <trkpt lat="45.89096" lon="6.24602">
        <ele>575</ele>
        <time>2013-05-30T04:28:33.000Z</time>
      </trkpt>
      <trkpt lat="45.89096" lon="6.24599">
        <ele>575</ele>
        <time>2013-05-30T04:28:34.000Z</time>
      </trkpt>
      <trkpt lat="45.89097" lon="6.24595">
        <ele>576</ele>
        <time>2013-05-30T04:28:35.000Z</time>
      </trkpt>
      <trkpt lat="45.89097" lon="6.24592">
        <ele>577</ele>
        <time>2013-05-30T04:28:36.000Z</time>
      </trkpt>
      <trkpt lat="45.89097" lon="6.24588">
        <ele>577</ele>
        <time>2013-05-30T04:28:37.000Z</time>
      </trkpt>
      <trkpt lat="45.89097" lon="6.24585">
        <ele>577</ele>
        <time>2013-05-30T04:28:38.000Z</time>
      </trkpt>
      <trkpt lat="45.89097" lon="6.24581">
        <ele>578</ele>
        <time>2013-05-30T04:28:39.000Z</time>
      </trkpt>
      <trkpt lat="45.89097" lon="6.24577">
        <ele>577</ele>
        <time>2013-05-30T04:28:40.000Z</time>
      </trkpt>
      <trkpt lat="45.89097" lon="6.24573">
        <ele>577</ele>
        <time>2013-05-30T04:28:41.000Z</time>
      </trkpt>
      <trkpt lat="45.89097" lon="6.2457">
        <ele>576</ele>
        <time>2013-05-30T04:28:42.000Z</time>
      </trkpt>
      <trkpt lat="45.89098" lon="6.24566">
        <ele>576</ele>
        <time>2013-05-30T04:28:43.000Z</time>
      </trkpt>
      <trkpt lat="45.89098" lon="6.24563">
        <ele>575</ele>
        <time>2013-05-30T04:28:44.000Z</time>
      </trkpt>
      <trkpt lat="45.89098" lon="6.24559">
        <ele>575</ele>
        <time>2013-05-30T04:28:45.000Z</time>
      </trkpt>
      <trkpt lat="45.89098" lon="6.24555">
        <ele>574</ele>
        <time>2013-05-30T04:28:46.000Z</time>
      </trkpt>
      <trkpt lat="45.89098" lon="6.24552">
        <ele>574</ele>
        <time>2013-05-30T04:28:47.000Z</time>
      </trkpt>
      <trkpt lat="45.89098" lon="6.24548">
        <ele>574</ele>
        <time>2013-05-30T04:28:48.000Z</time>
      </trkpt>
      <trkpt lat="45.89097" lon="6.24544">
        <ele>574</ele>
        <time>2013-05-30T04:28:49.000Z</time>
      </trkpt>
      <trkpt lat="45.89097" lon="6.2454">
        <ele>574</ele>
        <time>2013-05-30T04:28:50.000Z</time>
      </trkpt>
      <trkpt lat="45.89097" lon="6.24537">
        <ele>573</ele>
        <time>2013-05-30T04:28:51.000Z</time>
      </trkpt>
      <trkpt lat="45.89097" lon="6.24534">
        <ele>574</ele>
        <time>2013-05-30T04:28:52.000Z</time>
      </trkpt>
      <trkpt lat="45.89097" lon="6.2453">
        <ele>574</ele>
        <time>2013-05-30T04:28:53.000Z</time>
      </trkpt>
      <trkpt lat="45.89098" lon="6.24526">
        <ele>574</ele>
        <time>2013-05-30T04:28:54.000Z</time>
      </trkpt>
      <trkpt lat="45.89098" lon="6.24523">
        <ele>574</ele>
        <time>2013-05-30T04:28:55.000Z</time>
      </trkpt>
      <trkpt lat="45.89098" lon="6.24519">
        <ele>574</ele>
        <time>2013-05-30T04:28:56.000Z</time>
      </trkpt>
      <trkpt lat="45.89098" lon="6.24516">
        <ele>574</ele>
        <time>2013-05-30T04:28:57.000Z</time>
      </trkpt>
      <trkpt lat="45.89098" lon="6.24512">
        <ele>575</ele>
        <time>2013-05-30T04:28:58.000Z</time>
      </trkpt>
      <trkpt lat="45.89099" lon="6.24509">
        <ele>575</ele>
        <time>2013-05-30T04:28:59.000Z</time>
      </trkpt>
      <trkpt lat="45.89099" lon="6.24505">
        <ele>575</ele>
        <time>2013-05-30T04:29:00.000Z</time>
      </trkpt>
      <trkpt lat="45.89099" lon="6.24502">
        <ele>575</ele>
        <time>2013-05-30T04:29:01.000Z</time>
      </trkpt>
      <trkpt lat="45.89099" lon="6.24498">
        <ele>575</ele>
        <time>2013-05-30T04:29:02.000Z</time>
      </trkpt>
      <trkpt lat="45.891" lon="6.24494">
        <ele>575</ele>
        <time>2013-05-30T04:29:03.000Z</time>
      </trkpt>
      <trkpt lat="45.891" lon="6.2449">
        <ele>574</ele>
        <time>2013-05-30T04:29:04.000Z</time>
      </trkpt>
      <trkpt lat="45.891" lon="6.24487">
        <ele>574</ele>
        <time>2013-05-30T04:29:05.000Z</time>
      </trkpt>
      <trkpt lat="45.891" lon="6.24483">
        <ele>573</ele>
        <time>2013-05-30T04:29:06.000Z</time>
      </trkpt>
      <trkpt lat="45.891" lon="6.24479">
        <ele>573</ele>
        <time>2013-05-30T04:29:07.000Z</time>
      </trkpt>
      <trkpt lat="45.891" lon="6.24475">
        <ele>573</ele>
        <time>2013-05-30T04:29:08.000Z</time>
      </trkpt>
      <trkpt lat="45.89101" lon="6.24471">
        <ele>572</ele>
        <time>2013-05-30T04:29:09.000Z</time>
      </trkpt>
      <trkpt lat="45.89101" lon="6.24467">
        <ele>572</ele>
        <time>2013-05-30T04:29:10.000Z</time>
      </trkpt>
      <trkpt lat="45.89102" lon="6.24464">
        <ele>572</ele>
        <time>2013-05-30T04:29:11.000Z</time>
      </trkpt>
      <trkpt lat="45.89102" lon="6.2446">
        <ele>572</ele>
        <time>2013-05-30T04:29:12.000Z</time>
      </trkpt>
      <trkpt lat="45.89103" lon="6.24457">
        <ele>572</ele>
        <time>2013-05-30T04:29:13.000Z</time>
      </trkpt>
      <trkpt lat="45.89103" lon="6.24453">
        <ele>572</ele>
        <time>2013-05-30T04:29:14.000Z</time>
      </trkpt>
      <trkpt lat="45.89104" lon="6.2445">
        <ele>572</ele>
        <time>2013-05-30T04:29:15.000Z</time>
      </trkpt>
      <trkpt lat="45.89104" lon="6.24446">
        <ele>572</ele>
        <time>2013-05-30T04:29:16.000Z</time>
      </trkpt>
      <trkpt lat="45.89104" lon="6.24442">
        <ele>572</ele>
        <time>2013-05-30T04:29:17.000Z</time>
      </trkpt>
      <trkpt lat="45.89104" lon="6.24439">
        <ele>572</ele>
        <time>2013-05-30T04:29:18.000Z</time>
      </trkpt>
      <trkpt lat="45.89105" lon="6.24435">
        <ele>572</ele>
        <time>2013-05-30T04:29:19.000Z</time>
      </trkpt>
      <trkpt lat="45.89105" lon="6.24432">
        <ele>572</ele>
        <time>2013-05-30T04:29:20.000Z</time>
      </trkpt>
      <trkpt lat="45.89106" lon="6.24428">
        <ele>572</ele>
        <time>2013-05-30T04:29:21.000Z</time>
      </trkpt>
      <trkpt lat="45.89106" lon="6.24424">
        <ele>572</ele>
        <time>2013-05-30T04:29:22.000Z</time>
      </trkpt>
      <trkpt lat="45.89107" lon="6.24421">
        <ele>572</ele>
        <time>2013-05-30T04:29:23.000Z</time>
      </trkpt>
      <trkpt lat="45.89108" lon="6.24417">
        <ele>572</ele>
        <time>2013-05-30T04:29:24.000Z</time>
      </trkpt>
      <trkpt lat="45.89108" lon="6.24414">
        <ele>572</ele>
        <time>2013-05-30T04:29:25.000Z</time>
      </trkpt>
      <trkpt lat="45.89109" lon="6.2441">
        <ele>572</ele>
        <time>2013-05-30T04:29:26.000Z</time>
      </trkpt>
      <trkpt lat="45.8911" lon="6.24407">
        <ele>572</ele>
        <time>2013-05-30T04:29:27.000Z</time>
      </trkpt>
      <trkpt lat="45.8911" lon="6.24403">
        <ele>572</ele>
        <time>2013-05-30T04:29:28.000Z</time>
      </trkpt>
      <trkpt lat="45.89111" lon="6.244">
        <ele>572</ele>
        <time>2013-05-30T04:29:29.000Z</time>
      </trkpt>
      <trkpt lat="45.89112" lon="6.24396">
        <ele>572</ele>
        <time>2013-05-30T04:29:30.000Z</time>
      </trkpt>
      <trkpt lat="45.89113" lon="6.24393">
        <ele>572</ele>
        <time>2013-05-30T04:29:31.000Z</time>
      </trkpt>
      <trkpt lat="45.89113" lon="6.24389">
        <ele>572</ele>
        <time>2013-05-30T04:29:32.000Z</time>
      </trkpt>
      <trkpt lat="45.89114" lon="6.24386">
        <ele>572</ele>
        <time>2013-05-30T04:29:33.000Z</time>
      </trkpt>
      <trkpt lat="45.89115" lon="6.24382">
        <ele>571</ele>
        <time>2013-05-30T04:29:34.000Z</time>
      </trkpt>
      <trkpt lat="45.89116" lon="6.24379">
        <ele>571</ele>
        <time>2013-05-30T04:29:35.000Z</time>
      </trkpt>
      <trkpt lat="45.89117" lon="6.24375">
        <ele>571</ele>
        <time>2013-05-30T04:29:36.000Z</time>
      </trkpt>
      <trkpt lat="45.89118" lon="6.24372">
        <ele>571</ele>
        <time>2013-05-30T04:29:37.000Z</time>
      </trkpt>
      <trkpt lat="45.89118" lon="6.24369">
        <ele>571</ele>
        <time>2013-05-30T04:29:38.000Z</time>
      </trkpt>
      <trkpt lat="45.89119" lon="6.24366">
        <ele>571</ele>
        <time>2013-05-30T04:29:39.000Z</time>
      </trkpt>
      <trkpt lat="45.8912" lon="6.24362">
        <ele>571</ele>
        <time>2013-05-30T04:29:40.000Z</time>
      </trkpt>
      <trkpt lat="45.89121" lon="6.24359">
        <ele>571</ele>
        <time>2013-05-30T04:29:41.000Z</time>
      </trkpt>
      <trkpt lat="45.89122" lon="6.24356">
        <ele>571</ele>
        <time>2013-05-30T04:29:42.000Z</time>
      </trkpt>
      <trkpt lat="45.89123" lon="6.24353">
        <ele>571</ele>
        <time>2013-05-30T04:29:43.000Z</time>
      </trkpt>
      <trkpt lat="45.89124" lon="6.24349">
        <ele>571</ele>
        <time>2013-05-30T04:29:44.000Z</time>
      </trkpt>
      <trkpt lat="45.89125" lon="6.24346">
        <ele>571</ele>
        <time>2013-05-30T04:29:45.000Z</time>
      </trkpt>
      <trkpt lat="45.89126" lon="6.24343">
        <ele>571</ele>
        <time>2013-05-30T04:29:46.000Z</time>
      </trkpt>
      <trkpt lat="45.89127" lon="6.2434">
        <ele>571</ele>
        <time>2013-05-30T04:29:47.000Z</time>
      </trkpt>
      <trkpt lat="45.89128" lon="6.24336">
        <ele>571</ele>
        <time>2013-05-30T04:29:48.000Z</time>
      </trkpt>
      <trkpt lat="45.89128" lon="6.24333">
        <ele>573</ele>
        <time>2013-05-30T04:29:49.000Z</time>
      </trkpt>
      <trkpt lat="45.89129" lon="6.2433">
        <ele>573</ele>
        <time>2013-05-30T04:29:50.000Z</time>
      </trkpt>
      <trkpt lat="45.8913" lon="6.24326">
        <ele>573</ele>
        <time>2013-05-30T04:29:51.000Z</time>
      </trkpt>
      <trkpt lat="45.89131" lon="6.24323">
        <ele>573</ele>
        <time>2013-05-30T04:29:52.000Z</time>
      </trkpt>
      <trkpt lat="45.89131" lon="6.2432">
        <ele>573</ele>
        <time>2013-05-30T04:29:53.000Z</time>
      </trkpt>
      <trkpt lat="45.89132" lon="6.24316">
        <ele>573</ele>
        <time>2013-05-30T04:29:54.000Z</time>
      </trkpt>
      <trkpt lat="45.89133" lon="6.24313">
        <ele>573</ele>
        <time>2013-05-30T04:29:55.000Z</time>
      </trkpt>
      <trkpt lat="45.89134" lon="6.24309">
        <ele>573</ele>
        <time>2013-05-30T04:29:56.000Z</time>
      </trkpt>
      <trkpt lat="45.89135" lon="6.24305">
        <ele>573</ele>
        <time>2013-05-30T04:29:57.000Z</time>
      </trkpt>
      <trkpt lat="45.89136" lon="6.24302">
        <ele>573</ele>
        <time>2013-05-30T04:29:58.000Z</time>
      </trkpt>
      <trkpt lat="45.89137" lon="6.24299">
        <ele>573</ele>
        <time>2013-05-30T04:29:59.000Z</time>
      </trkpt>
      <trkpt lat="45.89137" lon="6.24296">
        <ele>573</ele>
        <time>2013-05-30T04:30:00.000Z</time>
      </trkpt>
      <trkpt lat="45.89138" lon="6.24293">
        <ele>573</ele>
        <time>2013-05-30T04:30:01.000Z</time>
      </trkpt>
      <trkpt lat="45.89139" lon="6.24289">
        <ele>573</ele>
        <time>2013-05-30T04:30:02.000Z</time>
      </trkpt>
      <trkpt lat="45.89139" lon="6.24286">
        <ele>573</ele>
        <time>2013-05-30T04:30:03.000Z</time>
      </trkpt>
      <trkpt lat="45.8914" lon="6.24282">
        <ele>573</ele>
        <time>2013-05-30T04:30:04.000Z</time>
      </trkpt>
      <trkpt lat="45.8914" lon="6.24279">
        <ele>573</ele>
        <time>2013-05-30T04:30:05.000Z</time>
      </trkpt>
      <trkpt lat="45.89141" lon="6.24275">
        <ele>573</ele>
        <time>2013-05-30T04:30:06.000Z</time>
      </trkpt>
      <trkpt lat="45.89142" lon="6.24271">
        <ele>573</ele>
        <time>2013-05-30T04:30:07.000Z</time>
      </trkpt>
      <trkpt lat="45.89143" lon="6.24268">
        <ele>573</ele>
        <time>2013-05-30T04:30:08.000Z</time>
      </trkpt>
      <trkpt lat="45.89143" lon="6.24264">
        <ele>573</ele>
        <time>2013-05-30T04:30:09.000Z</time>
      </trkpt>
      <trkpt lat="45.89144" lon="6.24261">
        <ele>573</ele>
        <time>2013-05-30T04:30:10.000Z</time>
      </trkpt>
      <trkpt lat="45.89144" lon="6.24258">
        <ele>573</ele>
        <time>2013-05-30T04:30:11.000Z</time>
      </trkpt>
      <trkpt lat="45.89145" lon="6.24254">
        <ele>573</ele>
        <time>2013-05-30T04:30:12.000Z</time>
      </trkpt>
      <trkpt lat="45.89145" lon="6.24251">
        <ele>573</ele>
        <time>2013-05-30T04:30:13.000Z</time>
      </trkpt>
      <trkpt lat="45.89145" lon="6.24247">
        <ele>575</ele>
        <time>2013-05-30T04:30:14.000Z</time>
      </trkpt>
      <trkpt lat="45.89146" lon="6.24244">
        <ele>575</ele>
        <time>2013-05-30T04:30:15.000Z</time>
      </trkpt>
      <trkpt lat="45.89146" lon="6.2424">
        <ele>575</ele>
        <time>2013-05-30T04:30:16.000Z</time>
      </trkpt>
      <trkpt lat="45.89147" lon="6.24237">
        <ele>575</ele>
        <time>2013-05-30T04:30:17.000Z</time>
      </trkpt>
      <trkpt lat="45.89147" lon="6.24233">
        <ele>576</ele>
        <time>2013-05-30T04:30:18.000Z</time>
      </trkpt>
      <trkpt lat="45.89148" lon="6.2423">
        <ele>576</ele>
        <time>2013-05-30T04:30:19.000Z</time>
      </trkpt>
      <trkpt lat="45.89148" lon="6.24226">
        <ele>576</ele>
        <time>2013-05-30T04:30:20.000Z</time>
      </trkpt>
      <trkpt lat="45.89148" lon="6.24223">
        <ele>576</ele>
        <time>2013-05-30T04:30:21.000Z</time>
      </trkpt>
      <trkpt lat="45.89148" lon="6.24219">
        <ele>576</ele>
        <time>2013-05-30T04:30:22.000Z</time>
      </trkpt>
      <trkpt lat="45.89148" lon="6.24215">
        <ele>576</ele>
        <time>2013-05-30T04:30:23.000Z</time>
      </trkpt>
      <trkpt lat="45.89148" lon="6.24211">
        <ele>577</ele>
        <time>2013-05-30T04:30:24.000Z</time>
      </trkpt>
      <trkpt lat="45.89148" lon="6.24207">
        <ele>577</ele>
        <time>2013-05-30T04:30:25.000Z</time>
      </trkpt>
      <trkpt lat="45.89148" lon="6.24204">
        <ele>577</ele>
        <time>2013-05-30T04:30:26.000Z</time>
      </trkpt>
      <trkpt lat="45.89148" lon="6.242">
        <ele>577</ele>
        <time>2013-05-30T04:30:27.000Z</time>
      </trkpt>
      <trkpt lat="45.89149" lon="6.24196">
        <ele>577</ele>
        <time>2013-05-30T04:30:28.000Z</time>
      </trkpt>
      <trkpt lat="45.89149" lon="6.24193">
        <ele>577</ele>
        <time>2013-05-30T04:30:29.000Z</time>
      </trkpt>
      <trkpt lat="45.89148" lon="6.24189">
        <ele>578</ele>
        <time>2013-05-30T04:30:30.000Z</time>
      </trkpt>
      <trkpt lat="45.89149" lon="6.24185">
        <ele>578</ele>
        <time>2013-05-30T04:30:31.000Z</time>
      </trkpt>
      <trkpt lat="45.89148" lon="6.24182">
        <ele>578</ele>
        <time>2013-05-30T04:30:32.000Z</time>
      </trkpt>
      <trkpt lat="45.89149" lon="6.24178">
        <ele>578</ele>
        <time>2013-05-30T04:30:33.000Z</time>
      </trkpt>
      <trkpt lat="45.89148" lon="6.24175">
        <ele>578</ele>
        <time>2013-05-30T04:30:34.000Z</time>
      </trkpt>
      <trkpt lat="45.89148" lon="6.24171">
        <ele>578</ele>
        <time>2013-05-30T04:30:35.000Z</time>
      </trkpt>
      <trkpt lat="45.89148" lon="6.24167">
        <ele>578</ele>
        <time>2013-05-30T04:30:36.000Z</time>
      </trkpt>
      <trkpt lat="45.89148" lon="6.24163">
        <ele>580</ele>
        <time>2013-05-30T04:30:37.000Z</time>
      </trkpt>
      <trkpt lat="45.89148" lon="6.2416">
        <ele>580</ele>
        <time>2013-05-30T04:30:38.000Z</time>
      </trkpt>
      <trkpt lat="45.89148" lon="6.24156">
        <ele>580</ele>
        <time>2013-05-30T04:30:39.000Z</time>
      </trkpt>
      <trkpt lat="45.89148" lon="6.24152">
        <ele>580</ele>
        <time>2013-05-30T04:30:40.000Z</time>
      </trkpt>
      <trkpt lat="45.89148" lon="6.24148">
        <ele>580</ele>
        <time>2013-05-30T04:30:41.000Z</time>
      </trkpt>
      <trkpt lat="45.89148" lon="6.24145">
        <ele>580</ele>
        <time>2013-05-30T04:30:42.000Z</time>
      </trkpt>
      <trkpt lat="45.89147" lon="6.24141">
        <ele>580</ele>
        <time>2013-05-30T04:30:43.000Z</time>
      </trkpt>
      <trkpt lat="45.89147" lon="6.24137">
        <ele>581</ele>
        <time>2013-05-30T04:30:44.000Z</time>
      </trkpt>
      <trkpt lat="45.89147" lon="6.24134">
        <ele>581</ele>
        <time>2013-05-30T04:30:45.000Z</time>
      </trkpt>
      <trkpt lat="45.89147" lon="6.2413">
        <ele>581</ele>
        <time>2013-05-30T04:30:46.000Z</time>
      </trkpt>
      <trkpt lat="45.89146" lon="6.24126">
        <ele>581</ele>
        <time>2013-05-30T04:30:47.000Z</time>
      </trkpt>
      <trkpt lat="45.89146" lon="6.24122">
        <ele>581</ele>
        <time>2013-05-30T04:30:48.000Z</time>
      </trkpt>
      <trkpt lat="45.89146" lon="6.24118">
        <ele>581</ele>
        <time>2013-05-30T04:30:49.000Z</time>
      </trkpt>
      <trkpt lat="45.89145" lon="6.24115">
        <ele>581</ele>
        <time>2013-05-30T04:30:50.000Z</time>
      </trkpt>
      <trkpt lat="45.89145" lon="6.24111">
        <ele>581</ele>
        <time>2013-05-30T04:30:51.000Z</time>
      </trkpt>
      <trkpt lat="45.89144" lon="6.24107">
        <ele>581</ele>
        <time>2013-05-30T04:30:52.000Z</time>
      </trkpt>
      <trkpt lat="45.89143" lon="6.24104">
        <ele>581</ele>
        <time>2013-05-30T04:30:53.000Z</time>
      </trkpt>
      <trkpt lat="45.89143" lon="6.241">
        <ele>581</ele>
        <time>2013-05-30T04:30:54.000Z</time>
      </trkpt>
      <trkpt lat="45.89142" lon="6.24096">
        <ele>581</ele>
        <time>2013-05-30T04:30:55.000Z</time>
      </trkpt>
      <trkpt lat="45.89142" lon="6.24093">
        <ele>581</ele>
        <time>2013-05-30T04:30:56.000Z</time>
      </trkpt>
      <trkpt lat="45.89142" lon="6.24089">
        <ele>581</ele>
        <time>2013-05-30T04:30:57.000Z</time>
      </trkpt>
      <trkpt lat="45.89141" lon="6.24086">
        <ele>581</ele>
        <time>2013-05-30T04:30:58.000Z</time>
      </trkpt>
      <trkpt lat="45.89141" lon="6.24082">
        <ele>581</ele>
        <time>2013-05-30T04:30:59.000Z</time>
      </trkpt>
      <trkpt lat="45.8914" lon="6.24078">
        <ele>581</ele>
        <time>2013-05-30T04:31:00.000Z</time>
      </trkpt>
      <trkpt lat="45.89139" lon="6.24074">
        <ele>581</ele>
        <time>2013-05-30T04:31:01.000Z</time>
      </trkpt>
      <trkpt lat="45.89139" lon="6.2407">
        <ele>581</ele>
        <time>2013-05-30T04:31:02.000Z</time>
      </trkpt>
      <trkpt lat="45.89138" lon="6.24067">
        <ele>581</ele>
        <time>2013-05-30T04:31:03.000Z</time>
      </trkpt>
      <trkpt lat="45.89138" lon="6.24063">
        <ele>581</ele>
        <time>2013-05-30T04:31:04.000Z</time>
      </trkpt>
      <trkpt lat="45.89137" lon="6.24059">
        <ele>581</ele>
        <time>2013-05-30T04:31:05.000Z</time>
      </trkpt>
      <trkpt lat="45.89137" lon="6.24056">
        <ele>581</ele>
        <time>2013-05-30T04:31:06.000Z</time>
      </trkpt>
      <trkpt lat="45.89136" lon="6.24052">
        <ele>581</ele>
        <time>2013-05-30T04:31:07.000Z</time>
      </trkpt>
      <trkpt lat="45.89136" lon="6.24048">
        <ele>581</ele>
        <time>2013-05-30T04:31:08.000Z</time>
      </trkpt>
      <trkpt lat="45.89135" lon="6.24044">
        <ele>581</ele>
        <time>2013-05-30T04:31:09.000Z</time>
      </trkpt>
      <trkpt lat="45.89134" lon="6.2404">
        <ele>581</ele>
        <time>2013-05-30T04:31:10.000Z</time>
      </trkpt>
      <trkpt lat="45.89134" lon="6.24037">
        <ele>581</ele>
        <time>2013-05-30T04:31:11.000Z</time>
      </trkpt>
      <trkpt lat="45.89134" lon="6.24033">
        <ele>581</ele>
        <time>2013-05-30T04:31:12.000Z</time>
      </trkpt>
      <trkpt lat="45.89133" lon="6.24029">
        <ele>581</ele>
        <time>2013-05-30T04:31:13.000Z</time>
      </trkpt>
      <trkpt lat="45.89133" lon="6.24025">
        <ele>581</ele>
        <time>2013-05-30T04:31:14.000Z</time>
      </trkpt>
      <trkpt lat="45.89132" lon="6.24022">
        <ele>581</ele>
        <time>2013-05-30T04:31:15.000Z</time>
      </trkpt>
      <trkpt lat="45.89132" lon="6.24018">
        <ele>581</ele>
        <time>2013-05-30T04:31:16.000Z</time>
      </trkpt>
      <trkpt lat="45.89131" lon="6.24014">
        <ele>580</ele>
        <time>2013-05-30T04:31:17.000Z</time>
      </trkpt>
      <trkpt lat="45.89131" lon="6.2401">
        <ele>580</ele>
        <time>2013-05-30T04:31:18.000Z</time>
      </trkpt>
      <trkpt lat="45.8913" lon="6.24006">
        <ele>580</ele>
        <time>2013-05-30T04:31:19.000Z</time>
      </trkpt>
      <trkpt lat="45.89129" lon="6.24003">
        <ele>580</ele>
        <time>2013-05-30T04:31:20.000Z</time>
      </trkpt>
      <trkpt lat="45.89128" lon="6.23999">
        <ele>580</ele>
        <time>2013-05-30T04:31:21.000Z</time>
      </trkpt>
      <trkpt lat="45.89128" lon="6.23996">
        <ele>580</ele>
        <time>2013-05-30T04:31:22.000Z</time>
      </trkpt>
      <trkpt lat="45.89127" lon="6.23992">
        <ele>580</ele>
        <time>2013-05-30T04:31:23.000Z</time>
      </trkpt>
      <trkpt lat="45.89126" lon="6.23989">
        <ele>580</ele>
        <time>2013-05-30T04:31:24.000Z</time>
      </trkpt>
      <trkpt lat="45.89125" lon="6.23985">
        <ele>580</ele>
        <time>2013-05-30T04:31:25.000Z</time>
      </trkpt>
      <trkpt lat="45.89125" lon="6.23981">
        <ele>580</ele>
        <time>2013-05-30T04:31:26.000Z</time>
      </trkpt>
      <trkpt lat="45.89124" lon="6.23977">
        <ele>580</ele>
        <time>2013-05-30T04:31:27.000Z</time>
      </trkpt>
      <trkpt lat="45.89124" lon="6.23973">
        <ele>580</ele>
        <time>2013-05-30T04:31:28.000Z</time>
      </trkpt>
      <trkpt lat="45.89124" lon="6.23969">
        <ele>580</ele>
        <time>2013-05-30T04:31:29.000Z</time>
      </trkpt>
      <trkpt lat="45.89123" lon="6.23965">
        <ele>580</ele>
        <time>2013-05-30T04:31:30.000Z</time>
      </trkpt>
      <trkpt lat="45.89122" lon="6.23962">
        <ele>580</ele>
        <time>2013-05-30T04:31:31.000Z</time>
      </trkpt>
      <trkpt lat="45.89122" lon="6.23958">
        <ele>580</ele>
        <time>2013-05-30T04:31:32.000Z</time>
      </trkpt>
      <trkpt lat="45.89121" lon="6.23954">
        <ele>580</ele>
        <time>2013-05-30T04:31:33.000Z</time>
      </trkpt>
      <trkpt lat="45.8912" lon="6.23951">
        <ele>581</ele>
        <time>2013-05-30T04:31:34.000Z</time>
      </trkpt>
      <trkpt lat="45.89119" lon="6.23947">
        <ele>581</ele>
        <time>2013-05-30T04:31:35.000Z</time>
      </trkpt>
      <trkpt lat="45.89118" lon="6.23943">
        <ele>581</ele>
        <time>2013-05-30T04:31:36.000Z</time>
      </trkpt>
      <trkpt lat="45.89118" lon="6.23939">
        <ele>581</ele>
        <time>2013-05-30T04:31:37.000Z</time>
      </trkpt>
      <trkpt lat="45.89117" lon="6.23935">
        <ele>581</ele>
        <time>2013-05-30T04:31:38.000Z</time>
      </trkpt>
      <trkpt lat="45.89117" lon="6.23931">
        <ele>581</ele>
        <time>2013-05-30T04:31:39.000Z</time>
      </trkpt>
      <trkpt lat="45.89116" lon="6.23927">
        <ele>581</ele>
        <time>2013-05-30T04:31:40.000Z</time>
      </trkpt>
      <trkpt lat="45.89116" lon="6.23924">
        <ele>581</ele>
        <time>2013-05-30T04:31:41.000Z</time>
      </trkpt>
      <trkpt lat="45.89115" lon="6.2392">
        <ele>581</ele>
        <time>2013-05-30T04:31:42.000Z</time>
      </trkpt>
      <trkpt lat="45.89114" lon="6.23916">
        <ele>581</ele>
        <time>2013-05-30T04:31:43.000Z</time>
      </trkpt>
      <trkpt lat="45.89114" lon="6.23912">
        <ele>581</ele>
        <time>2013-05-30T04:31:44.000Z</time>
      </trkpt>
      <trkpt lat="45.89113" lon="6.23908">
        <ele>581</ele>
        <time>2013-05-30T04:31:45.000Z</time>
      </trkpt>
      <trkpt lat="45.89112" lon="6.23905">
        <ele>581</ele>
        <time>2013-05-30T04:31:46.000Z</time>
      </trkpt>
      <trkpt lat="45.89112" lon="6.23901">
        <ele>581</ele>
        <time>2013-05-30T04:31:47.000Z</time>
      </trkpt>
      <trkpt lat="45.89111" lon="6.23897">
        <ele>581</ele>
        <time>2013-05-30T04:31:48.000Z</time>
      </trkpt>
      <trkpt lat="45.89111" lon="6.23893">
        <ele>581</ele>
        <time>2013-05-30T04:31:49.000Z</time>
      </trkpt>
      <trkpt lat="45.8911" lon="6.23889">
        <ele>581</ele>
        <time>2013-05-30T04:31:50.000Z</time>
      </trkpt>
      <trkpt lat="45.89109" lon="6.23885">
        <ele>581</ele>
        <time>2013-05-30T04:31:51.000Z</time>
      </trkpt>
      <trkpt lat="45.89109" lon="6.23881">
        <ele>581</ele>
        <time>2013-05-30T04:31:52.000Z</time>
      </trkpt>
      <trkpt lat="45.89108" lon="6.23877">
        <ele>581</ele>
        <time>2013-05-30T04:31:53.000Z</time>
      </trkpt>
      <trkpt lat="45.89108" lon="6.23874">
        <ele>581</ele>
        <time>2013-05-30T04:31:54.000Z</time>
      </trkpt>
      <trkpt lat="45.89107" lon="6.2387">
        <ele>581</ele>
        <time>2013-05-30T04:31:55.000Z</time>
      </trkpt>
      <trkpt lat="45.89107" lon="6.23866">
        <ele>582</ele>
        <time>2013-05-30T04:31:56.000Z</time>
      </trkpt>
      <trkpt lat="45.89106" lon="6.23862">
        <ele>582</ele>
        <time>2013-05-30T04:31:57.000Z</time>
      </trkpt>
      <trkpt lat="45.89106" lon="6.23858">
        <ele>582</ele>
        <time>2013-05-30T04:31:58.000Z</time>
      </trkpt>
      <trkpt lat="45.89105" lon="6.23854">
        <ele>582</ele>
        <time>2013-05-30T04:31:59.000Z</time>
      </trkpt>
      <trkpt lat="45.89104" lon="6.23851">
        <ele>582</ele>
        <time>2013-05-30T04:32:00.000Z</time>
      </trkpt>
      <trkpt lat="45.89104" lon="6.23847">
        <ele>582</ele>
        <time>2013-05-30T04:32:01.000Z</time>
      </trkpt>
      <trkpt lat="45.89103" lon="6.23843">
        <ele>582</ele>
        <time>2013-05-30T04:32:02.000Z</time>
      </trkpt>
      <trkpt lat="45.89103" lon="6.23839">
        <ele>582</ele>
        <time>2013-05-30T04:32:03.000Z</time>
      </trkpt>
      <trkpt lat="45.89102" lon="6.23836">
        <ele>582</ele>
        <time>2013-05-30T04:32:04.000Z</time>
      </trkpt>
      <trkpt lat="45.89102" lon="6.23832">
        <ele>582</ele>
        <time>2013-05-30T04:32:05.000Z</time>
      </trkpt>
      <trkpt lat="45.89102" lon="6.23828">
        <ele>582</ele>
        <time>2013-05-30T04:32:06.000Z</time>
      </trkpt>
      <trkpt lat="45.89101" lon="6.23824">
        <ele>582</ele>
        <time>2013-05-30T04:32:07.000Z</time>
      </trkpt>
      <trkpt lat="45.89101" lon="6.2382">
        <ele>582</ele>
        <time>2013-05-30T04:32:08.000Z</time>
      </trkpt>
      <trkpt lat="45.891" lon="6.23816">
        <ele>582</ele>
        <time>2013-05-30T04:32:09.000Z</time>
      </trkpt>
      <trkpt lat="45.891" lon="6.23812">
        <ele>581</ele>
        <time>2013-05-30T04:32:10.000Z</time>
      </trkpt>
      <trkpt lat="45.891" lon="6.23808">
        <ele>581</ele>
        <time>2013-05-30T04:32:11.000Z</time>
      </trkpt>
      <trkpt lat="45.89099" lon="6.23804">
        <ele>581</ele>
        <time>2013-05-30T04:32:12.000Z</time>
      </trkpt>
      <trkpt lat="45.89098" lon="6.238">
        <ele>581</ele>
        <time>2013-05-30T04:32:13.000Z</time>
      </trkpt>
      <trkpt lat="45.89098" lon="6.23796">
        <ele>581</ele>
        <time>2013-05-30T04:32:14.000Z</time>
      </trkpt>
      <trkpt lat="45.89097" lon="6.23792">
        <ele>581</ele>
        <time>2013-05-30T04:32:15.000Z</time>
      </trkpt>
      <trkpt lat="45.89097" lon="6.23788">
        <ele>581</ele>
        <time>2013-05-30T04:32:16.000Z</time>
      </trkpt>
      <trkpt lat="45.89096" lon="6.23784">
        <ele>581</ele>
        <time>2013-05-30T04:32:17.000Z</time>
      </trkpt>
      <trkpt lat="45.89096" lon="6.23781">
        <ele>581</ele>
        <time>2013-05-30T04:32:18.000Z</time>
      </trkpt>
      <trkpt lat="45.89096" lon="6.23777">
        <ele>581</ele>
        <time>2013-05-30T04:32:19.000Z</time>
      </trkpt>
      <trkpt lat="45.89095" lon="6.23773">
        <ele>581</ele>
        <time>2013-05-30T04:32:20.000Z</time>
      </trkpt>
      <trkpt lat="45.89095" lon="6.23769">
        <ele>581</ele>
        <time>2013-05-30T04:32:21.000Z</time>
      </trkpt>
      <trkpt lat="45.89094" lon="6.23765">
        <ele>581</ele>
        <time>2013-05-30T04:32:22.000Z</time>
      </trkpt>
      <trkpt lat="45.89094" lon="6.23762">
        <ele>581</ele>
        <time>2013-05-30T04:32:23.000Z</time>
      </trkpt>
      <trkpt lat="45.89093" lon="6.23758">
        <ele>582</ele>
        <time>2013-05-30T04:32:24.000Z</time>
      </trkpt>
      <trkpt lat="45.89093" lon="6.23754">
        <ele>582</ele>
        <time>2013-05-30T04:32:25.000Z</time>
      </trkpt>
      <trkpt lat="45.89092" lon="6.23751">
        <ele>582</ele>
        <time>2013-05-30T04:32:26.000Z</time>
      </trkpt>
      <trkpt lat="45.89092" lon="6.23747">
        <ele>581</ele>
        <time>2013-05-30T04:32:27.000Z</time>
      </trkpt>
      <trkpt lat="45.89091" lon="6.23743">
        <ele>581</ele>
        <time>2013-05-30T04:32:28.000Z</time>
      </trkpt>
      <trkpt lat="45.89091" lon="6.23739">
        <ele>580</ele>
        <time>2013-05-30T04:32:29.000Z</time>
      </trkpt>
      <trkpt lat="45.8909" lon="6.23735">
        <ele>580</ele>
        <time>2013-05-30T04:32:30.000Z</time>
      </trkpt>
      <trkpt lat="45.8909" lon="6.23731">
        <ele>580</ele>
        <time>2013-05-30T04:32:31.000Z</time>
      </trkpt>
      <trkpt lat="45.89089" lon="6.23728">
        <ele>579</ele>
        <time>2013-05-30T04:32:32.000Z</time>
      </trkpt>
      <trkpt lat="45.89089" lon="6.23724">
        <ele>579</ele>
        <time>2013-05-30T04:32:33.000Z</time>
      </trkpt>
      <trkpt lat="45.89088" lon="6.23721">
        <ele>579</ele>
        <time>2013-05-30T04:32:34.000Z</time>
      </trkpt>
      <trkpt lat="45.89088" lon="6.23717">
        <ele>579</ele>
        <time>2013-05-30T04:32:35.000Z</time>
      </trkpt>
      <trkpt lat="45.89087" lon="6.23713">
        <ele>579</ele>
        <time>2013-05-30T04:32:36.000Z</time>
      </trkpt>
      <trkpt lat="45.89087" lon="6.23709">
        <ele>578</ele>
        <time>2013-05-30T04:32:37.000Z</time>
      </trkpt>
      <trkpt lat="45.89086" lon="6.23706">
        <ele>578</ele>
        <time>2013-05-30T04:32:38.000Z</time>
      </trkpt>
      <trkpt lat="45.89086" lon="6.23702">
        <ele>578</ele>
        <time>2013-05-30T04:32:39.000Z</time>
      </trkpt>
      <trkpt lat="45.89085" lon="6.23698">
        <ele>578</ele>
        <time>2013-05-30T04:32:40.000Z</time>
      </trkpt>
      <trkpt lat="45.89084" lon="6.23694">
        <ele>578</ele>
        <time>2013-05-30T04:32:41.000Z</time>
      </trkpt>
      <trkpt lat="45.89083" lon="6.2369">
        <ele>582</ele>
        <time>2013-05-30T04:32:42.000Z</time>
      </trkpt>
      <trkpt lat="45.89083" lon="6.23686">
        <ele>582</ele>
        <time>2013-05-30T04:32:43.000Z</time>
      </trkpt>
      <trkpt lat="45.89083" lon="6.23682">
        <ele>581</ele>
        <time>2013-05-30T04:32:44.000Z</time>
      </trkpt>
      <trkpt lat="45.89082" lon="6.23678">
        <ele>581</ele>
        <time>2013-05-30T04:32:45.000Z</time>
      </trkpt>
      <trkpt lat="45.89082" lon="6.23674">
        <ele>580</ele>
        <time>2013-05-30T04:32:46.000Z</time>
      </trkpt>
      <trkpt lat="45.89081" lon="6.2367">
        <ele>580</ele>
        <time>2013-05-30T04:32:47.000Z</time>
      </trkpt>
      <trkpt lat="45.89081" lon="6.23667">
        <ele>579</ele>
        <time>2013-05-30T04:32:48.000Z</time>
      </trkpt>
      <trkpt lat="45.8908" lon="6.23663">
        <ele>579</ele>
        <time>2013-05-30T04:32:49.000Z</time>
      </trkpt>
      <trkpt lat="45.8908" lon="6.23659">
        <ele>580</ele>
        <time>2013-05-30T04:32:50.000Z</time>
      </trkpt>
      <trkpt lat="45.8908" lon="6.23655">
        <ele>580</ele>
        <time>2013-05-30T04:32:51.000Z</time>
      </trkpt>
      <trkpt lat="45.89079" lon="6.23651">
        <ele>580</ele>
        <time>2013-05-30T04:32:52.000Z</time>
      </trkpt>
      <trkpt lat="45.89079" lon="6.23647">
        <ele>580</ele>
        <time>2013-05-30T04:32:53.000Z</time>
      </trkpt>
      <trkpt lat="45.89078" lon="6.23643">
        <ele>580</ele>
        <time>2013-05-30T04:32:54.000Z</time>
      </trkpt>
      <trkpt lat="45.89078" lon="6.23639">
        <ele>580</ele>
        <time>2013-05-30T04:32:55.000Z</time>
      </trkpt>
      <trkpt lat="45.89077" lon="6.23636">
        <ele>580</ele>
        <time>2013-05-30T04:32:56.000Z</time>
      </trkpt>
      <trkpt lat="45.89077" lon="6.23631">
        <ele>580</ele>
        <time>2013-05-30T04:32:57.000Z</time>
      </trkpt>
      <trkpt lat="45.89076" lon="6.23628">
        <ele>580</ele>
        <time>2013-05-30T04:32:58.000Z</time>
      </trkpt>
      <trkpt lat="45.89075" lon="6.23624">
        <ele>580</ele>
        <time>2013-05-30T04:32:59.000Z</time>
      </trkpt>
      <trkpt lat="45.89075" lon="6.2362">
        <ele>580</ele>
        <time>2013-05-30T04:33:00.000Z</time>
      </trkpt>
      <trkpt lat="45.89074" lon="6.23616">
        <ele>580</ele>
        <time>2013-05-30T04:33:01.000Z</time>
      </trkpt>
      <trkpt lat="45.89074" lon="6.23612">
        <ele>580</ele>
        <time>2013-05-30T04:33:02.000Z</time>
      </trkpt>
      <trkpt lat="45.89073" lon="6.23608">
        <ele>580</ele>
        <time>2013-05-30T04:33:03.000Z</time>
      </trkpt>
      <trkpt lat="45.89073" lon="6.23605">
        <ele>580</ele>
        <time>2013-05-30T04:33:04.000Z</time>
      </trkpt>
      <trkpt lat="45.89072" lon="6.23601">
        <ele>580</ele>
        <time>2013-05-30T04:33:05.000Z</time>
      </trkpt>
      <trkpt lat="45.89072" lon="6.23597">
        <ele>580</ele>
        <time>2013-05-30T04:33:06.000Z</time>
      </trkpt>
      <trkpt lat="45.89071" lon="6.23594">
        <ele>579</ele>
        <time>2013-05-30T04:33:07.000Z</time>
      </trkpt>
      <trkpt lat="45.89071" lon="6.2359">
        <ele>579</ele>
        <time>2013-05-30T04:33:08.000Z</time>
      </trkpt>
      <trkpt lat="45.8907" lon="6.23586">
        <ele>579</ele>
        <time>2013-05-30T04:33:09.000Z</time>
      </trkpt>
      <trkpt lat="45.8907" lon="6.23582">
        <ele>579</ele>
        <time>2013-05-30T04:33:10.000Z</time>
      </trkpt>
      <trkpt lat="45.89069" lon="6.23579">
        <ele>579</ele>
        <time>2013-05-30T04:33:11.000Z</time>
      </trkpt>
      <trkpt lat="45.89068" lon="6.23575">
        <ele>579</ele>
        <time>2013-05-30T04:33:12.000Z</time>
      </trkpt>
      <trkpt lat="45.89068" lon="6.23571">
        <ele>579</ele>
        <time>2013-05-30T04:33:13.000Z</time>
      </trkpt>
      <trkpt lat="45.89067" lon="6.23567">
        <ele>579</ele>
        <time>2013-05-30T04:33:14.000Z</time>
      </trkpt>
      <trkpt lat="45.89067" lon="6.23563">
        <ele>579</ele>
        <time>2013-05-30T04:33:15.000Z</time>
      </trkpt>
      <trkpt lat="45.89066" lon="6.2356">
        <ele>579</ele>
        <time>2013-05-30T04:33:16.000Z</time>
      </trkpt>
      <trkpt lat="45.89066" lon="6.23556">
        <ele>580</ele>
        <time>2013-05-30T04:33:17.000Z</time>
      </trkpt>
      <trkpt lat="45.89065" lon="6.23552">
        <ele>580</ele>
        <time>2013-05-30T04:33:18.000Z</time>
      </trkpt>
      <trkpt lat="45.89065" lon="6.23549">
        <ele>580</ele>
        <time>2013-05-30T04:33:19.000Z</time>
      </trkpt>
      <trkpt lat="45.89064" lon="6.23545">
        <ele>580</ele>
        <time>2013-05-30T04:33:20.000Z</time>
      </trkpt>
      <trkpt lat="45.89064" lon="6.23541">
        <ele>580</ele>
        <time>2013-05-30T04:33:21.000Z</time>
      </trkpt>
      <trkpt lat="45.89064" lon="6.23537">
        <ele>580</ele>
        <time>2013-05-30T04:33:22.000Z</time>
      </trkpt>
      <trkpt lat="45.89063" lon="6.23533">
        <ele>580</ele>
        <time>2013-05-30T04:33:23.000Z</time>
      </trkpt>
      <trkpt lat="45.89062" lon="6.2353">
        <ele>580</ele>
        <time>2013-05-30T04:33:24.000Z</time>
      </trkpt>
      <trkpt lat="45.89062" lon="6.23526">
        <ele>580</ele>
        <time>2013-05-30T04:33:25.000Z</time>
      </trkpt>
      <trkpt lat="45.89061" lon="6.23522">
        <ele>580</ele>
        <time>2013-05-30T04:33:26.000Z</time>
      </trkpt>
      <trkpt lat="45.89061" lon="6.23519">
        <ele>580</ele>
        <time>2013-05-30T04:33:27.000Z</time>
      </trkpt>
      <trkpt lat="45.8906" lon="6.23515">
        <ele>580</ele>
        <time>2013-05-30T04:33:28.000Z</time>
      </trkpt>
      <trkpt lat="45.8906" lon="6.23511">
        <ele>580</ele>
        <time>2013-05-30T04:33:29.000Z</time>
      </trkpt>
      <trkpt lat="45.89059" lon="6.23507">
        <ele>580</ele>
        <time>2013-05-30T04:33:30.000Z</time>
      </trkpt>
      <trkpt lat="45.89059" lon="6.23503">
        <ele>580</ele>
        <time>2013-05-30T04:33:31.000Z</time>
      </trkpt>
      <trkpt lat="45.89058" lon="6.235">
        <ele>580</ele>
        <time>2013-05-30T04:33:32.000Z</time>
      </trkpt>
      <trkpt lat="45.89058" lon="6.23496">
        <ele>580</ele>
        <time>2013-05-30T04:33:33.000Z</time>
      </trkpt>
      <trkpt lat="45.89057" lon="6.23492">
        <ele>580</ele>
        <time>2013-05-30T04:33:34.000Z</time>
      </trkpt>
      <trkpt lat="45.89057" lon="6.23488">
        <ele>580</ele>
        <time>2013-05-30T04:33:35.000Z</time>
      </trkpt>
      <trkpt lat="45.89057" lon="6.23485">
        <ele>580</ele>
        <time>2013-05-30T04:33:36.000Z</time>
      </trkpt>
      <trkpt lat="45.89056" lon="6.23481">
        <ele>580</ele>
        <time>2013-05-30T04:33:37.000Z</time>
      </trkpt>
      <trkpt lat="45.89056" lon="6.23477">
        <ele>580</ele>
        <time>2013-05-30T04:33:38.000Z</time>
      </trkpt>
      <trkpt lat="45.89056" lon="6.23474">
        <ele>580</ele>
        <time>2013-05-30T04:33:39.000Z</time>
      </trkpt>
      <trkpt lat="45.89055" lon="6.2347">
        <ele>580</ele>
        <time>2013-05-30T04:33:40.000Z</time>
      </trkpt>
      <trkpt lat="45.89055" lon="6.23466">
        <ele>580</ele>
        <time>2013-05-30T04:33:41.000Z</time>
      </trkpt>
      <trkpt lat="45.89054" lon="6.23462">
        <ele>580</ele>
        <time>2013-05-30T04:33:42.000Z</time>
      </trkpt>
      <trkpt lat="45.89054" lon="6.23458">
        <ele>580</ele>
        <time>2013-05-30T04:33:43.000Z</time>
      </trkpt>
      <trkpt lat="45.89054" lon="6.23454">
        <ele>580</ele>
        <time>2013-05-30T04:33:44.000Z</time>
      </trkpt>
      <trkpt lat="45.89053" lon="6.23451">
        <ele>580</ele>
        <time>2013-05-30T04:33:45.000Z</time>
      </trkpt>
      <trkpt lat="45.89052" lon="6.23447">
        <ele>580</ele>
        <time>2013-05-30T04:33:46.000Z</time>
      </trkpt>
      <trkpt lat="45.89051" lon="6.23444">
        <ele>580</ele>
        <time>2013-05-30T04:33:47.000Z</time>
      </trkpt>
      <trkpt lat="45.8905" lon="6.2344">
        <ele>580</ele>
        <time>2013-05-30T04:33:48.000Z</time>
      </trkpt>
      <trkpt lat="45.89049" lon="6.23437">
        <ele>580</ele>
        <time>2013-05-30T04:33:49.000Z</time>
      </trkpt>
      <trkpt lat="45.89048" lon="6.23433">
        <ele>580</ele>
        <time>2013-05-30T04:33:50.000Z</time>
      </trkpt>
      <trkpt lat="45.89047" lon="6.2343">
        <ele>580</ele>
        <time>2013-05-30T04:33:51.000Z</time>
      </trkpt>
      <trkpt lat="45.89046" lon="6.23426">
        <ele>580</ele>
        <time>2013-05-30T04:33:52.000Z</time>
      </trkpt>
      <trkpt lat="45.89045" lon="6.23422">
        <ele>580</ele>
        <time>2013-05-30T04:33:53.000Z</time>
      </trkpt>
      <trkpt lat="45.89044" lon="6.23418">
        <ele>580</ele>
        <time>2013-05-30T04:33:54.000Z</time>
      </trkpt>
      <trkpt lat="45.89044" lon="6.23414">
        <ele>580</ele>
        <time>2013-05-30T04:33:55.000Z</time>
      </trkpt>
      <trkpt lat="45.89044" lon="6.2341">
        <ele>580</ele>
        <time>2013-05-30T04:33:56.000Z</time>
      </trkpt>
      <trkpt lat="45.89044" lon="6.23406">
        <ele>581</ele>
        <time>2013-05-30T04:33:57.000Z</time>
      </trkpt>
      <trkpt lat="45.89043" lon="6.23403">
        <ele>581</ele>
        <time>2013-05-30T04:33:58.000Z</time>
      </trkpt>
      <trkpt lat="45.89043" lon="6.23399">
        <ele>581</ele>
        <time>2013-05-30T04:33:59.000Z</time>
      </trkpt>
      <trkpt lat="45.89042" lon="6.23396">
        <ele>581</ele>
        <time>2013-05-30T04:34:00.000Z</time>
      </trkpt>
      <trkpt lat="45.89042" lon="6.23392">
        <ele>581</ele>
        <time>2013-05-30T04:34:01.000Z</time>
      </trkpt>
      <trkpt lat="45.89041" lon="6.23388">
        <ele>581</ele>
        <time>2013-05-30T04:34:02.000Z</time>
      </trkpt>
      <trkpt lat="45.89041" lon="6.23385">
        <ele>581</ele>
        <time>2013-05-30T04:34:03.000Z</time>
      </trkpt>
      <trkpt lat="45.89041" lon="6.23381">
        <ele>581</ele>
        <time>2013-05-30T04:34:04.000Z</time>
      </trkpt>
      <trkpt lat="45.8904" lon="6.23377">
        <ele>581</ele>
        <time>2013-05-30T04:34:05.000Z</time>
      </trkpt>
      <trkpt lat="45.8904" lon="6.23374">
        <ele>581</ele>
        <time>2013-05-30T04:34:06.000Z</time>
      </trkpt>
      <trkpt lat="45.8904" lon="6.2337">
        <ele>581</ele>
        <time>2013-05-30T04:34:07.000Z</time>
      </trkpt>
      <trkpt lat="45.8904" lon="6.23367">
        <ele>581</ele>
        <time>2013-05-30T04:34:08.000Z</time>
      </trkpt>
      <trkpt lat="45.89041" lon="6.23363">
        <ele>581</ele>
        <time>2013-05-30T04:34:09.000Z</time>
      </trkpt>
      <trkpt lat="45.8904" lon="6.23359">
        <ele>581</ele>
        <time>2013-05-30T04:34:10.000Z</time>
      </trkpt>
      <trkpt lat="45.8904" lon="6.23356">
        <ele>581</ele>
        <time>2013-05-30T04:34:11.000Z</time>
      </trkpt>
      <trkpt lat="45.8904" lon="6.23352">
        <ele>581</ele>
        <time>2013-05-30T04:34:12.000Z</time>
      </trkpt>
      <trkpt lat="45.8904" lon="6.23349">
        <ele>581</ele>
        <time>2013-05-30T04:34:13.000Z</time>
      </trkpt>
      <trkpt lat="45.89041" lon="6.23345">
        <ele>581</ele>
        <time>2013-05-30T04:34:14.000Z</time>
      </trkpt>
      <trkpt lat="45.89041" lon="6.23341">
        <ele>581</ele>
        <time>2013-05-30T04:34:15.000Z</time>
      </trkpt>
      <trkpt lat="45.89041" lon="6.23338">
        <ele>581</ele>
        <time>2013-05-30T04:34:16.000Z</time>
      </trkpt>
      <trkpt lat="45.89041" lon="6.23334">
        <ele>581</ele>
        <time>2013-05-30T04:34:17.000Z</time>
      </trkpt>
      <trkpt lat="45.89041" lon="6.2333">
        <ele>583</ele>
        <time>2013-05-30T04:34:18.000Z</time>
      </trkpt>
      <trkpt lat="45.89041" lon="6.23326">
        <ele>583</ele>
        <time>2013-05-30T04:34:19.000Z</time>
      </trkpt>
      <trkpt lat="45.89041" lon="6.23322">
        <ele>583</ele>
        <time>2013-05-30T04:34:20.000Z</time>
      </trkpt>
      <trkpt lat="45.89041" lon="6.23318">
        <ele>583</ele>
        <time>2013-05-30T04:34:21.000Z</time>
      </trkpt>
      <trkpt lat="45.89042" lon="6.23315">
        <ele>583</ele>
        <time>2013-05-30T04:34:22.000Z</time>
      </trkpt>
      <trkpt lat="45.89042" lon="6.23311">
        <ele>583</ele>
        <time>2013-05-30T04:34:23.000Z</time>
      </trkpt>
      <trkpt lat="45.89042" lon="6.23307">
        <ele>583</ele>
        <time>2013-05-30T04:34:24.000Z</time>
      </trkpt>
      <trkpt lat="45.89042" lon="6.23303">
        <ele>583</ele>
        <time>2013-05-30T04:34:25.000Z</time>
      </trkpt>
      <trkpt lat="45.89042" lon="6.23299">
        <ele>583</ele>
        <time>2013-05-30T04:34:26.000Z</time>
      </trkpt>
      <trkpt lat="45.89042" lon="6.23296">
        <ele>583</ele>
        <time>2013-05-30T04:34:27.000Z</time>
      </trkpt>
      <trkpt lat="45.89042" lon="6.23292">
        <ele>583</ele>
        <time>2013-05-30T04:34:28.000Z</time>
      </trkpt>
      <trkpt lat="45.89042" lon="6.23288">
        <ele>583</ele>
        <time>2013-05-30T04:34:29.000Z</time>
      </trkpt>
      <trkpt lat="45.89043" lon="6.23284">
        <ele>583</ele>
        <time>2013-05-30T04:34:30.000Z</time>
      </trkpt>
      <trkpt lat="45.89043" lon="6.23281">
        <ele>583</ele>
        <time>2013-05-30T04:34:31.000Z</time>
      </trkpt>
      <trkpt lat="45.89043" lon="6.23277">
        <ele>583</ele>
        <time>2013-05-30T04:34:32.000Z</time>
      </trkpt>
      <trkpt lat="45.89043" lon="6.23273">
        <ele>583</ele>
        <time>2013-05-30T04:34:33.000Z</time>
      </trkpt>
      <trkpt lat="45.89044" lon="6.2327">
        <ele>583</ele>
        <time>2013-05-30T04:34:34.000Z</time>
      </trkpt>
      <trkpt lat="45.89044" lon="6.23266">
        <ele>583</ele>
        <time>2013-05-30T04:34:35.000Z</time>
      </trkpt>
      <trkpt lat="45.89045" lon="6.23263">
        <ele>583</ele>
        <time>2013-05-30T04:34:36.000Z</time>
      </trkpt>
      <trkpt lat="45.89045" lon="6.23259">
        <ele>583</ele>
        <time>2013-05-30T04:34:37.000Z</time>
      </trkpt>
      <trkpt lat="45.89046" lon="6.23256">
        <ele>583</ele>
        <time>2013-05-30T04:34:38.000Z</time>
      </trkpt>
      <trkpt lat="45.89047" lon="6.23252">
        <ele>583</ele>
        <time>2013-05-30T04:34:39.000Z</time>
      </trkpt>
      <trkpt lat="45.89047" lon="6.23248">
        <ele>585</ele>
        <time>2013-05-30T04:34:40.000Z</time>
      </trkpt>
      <trkpt lat="45.89047" lon="6.23244">
        <ele>585</ele>
        <time>2013-05-30T04:34:41.000Z</time>
      </trkpt>
      <trkpt lat="45.89048" lon="6.23241">
        <ele>585</ele>
        <time>2013-05-30T04:34:42.000Z</time>
      </trkpt>
      <trkpt lat="45.89048" lon="6.23237">
        <ele>585</ele>
        <time>2013-05-30T04:34:43.000Z</time>
      </trkpt>
      <trkpt lat="45.89048" lon="6.23234">
        <ele>585</ele>
        <time>2013-05-30T04:34:44.000Z</time>
      </trkpt>
      <trkpt lat="45.89048" lon="6.2323">
        <ele>585</ele>
        <time>2013-05-30T04:34:45.000Z</time>
      </trkpt>
      <trkpt lat="45.89049" lon="6.23227">
        <ele>585</ele>
        <time>2013-05-30T04:34:46.000Z</time>
      </trkpt>
      <trkpt lat="45.89049" lon="6.23223">
        <ele>585</ele>
        <time>2013-05-30T04:34:47.000Z</time>
      </trkpt>
      <trkpt lat="45.8905" lon="6.23219">
        <ele>585</ele>
        <time>2013-05-30T04:34:48.000Z</time>
      </trkpt>
      <trkpt lat="45.8905" lon="6.23216">
        <ele>585</ele>
        <time>2013-05-30T04:34:49.000Z</time>
      </trkpt>
      <trkpt lat="45.8905" lon="6.23212">
        <ele>585</ele>
        <time>2013-05-30T04:34:50.000Z</time>
      </trkpt>
      <trkpt lat="45.89051" lon="6.23209">
        <ele>585</ele>
        <time>2013-05-30T04:34:51.000Z</time>
      </trkpt>
      <trkpt lat="45.89052" lon="6.23205">
        <ele>585</ele>
        <time>2013-05-30T04:34:52.000Z</time>
      </trkpt>
      <trkpt lat="45.89053" lon="6.23202">
        <ele>585</ele>
        <time>2013-05-30T04:34:53.000Z</time>
      </trkpt>
      <trkpt lat="45.89053" lon="6.23199">
        <ele>585</ele>
        <time>2013-05-30T04:34:54.000Z</time>
      </trkpt>
      <trkpt lat="45.89054" lon="6.23195">
        <ele>585</ele>
        <time>2013-05-30T04:34:55.000Z</time>
      </trkpt>
      <trkpt lat="45.89054" lon="6.23192">
        <ele>585</ele>
        <time>2013-05-30T04:34:56.000Z</time>
      </trkpt>
      <trkpt lat="45.89055" lon="6.23188">
        <ele>585</ele>
        <time>2013-05-30T04:34:57.000Z</time>
      </trkpt>
      <trkpt lat="45.89055" lon="6.23184">
        <ele>585</ele>
        <time>2013-05-30T04:34:58.000Z</time>
      </trkpt>
      <trkpt lat="45.89055" lon="6.2318">
        <ele>585</ele>
        <time>2013-05-30T04:34:59.000Z</time>
      </trkpt>
      <trkpt lat="45.89056" lon="6.23177">
        <ele>585</ele>
        <time>2013-05-30T04:35:00.000Z</time>
      </trkpt>
      <trkpt lat="45.89057" lon="6.23173">
        <ele>584</ele>
        <time>2013-05-30T04:35:01.000Z</time>
      </trkpt>
      <trkpt lat="45.89057" lon="6.2317">
        <ele>584</ele>
        <time>2013-05-30T04:35:02.000Z</time>
      </trkpt>
      <trkpt lat="45.89058" lon="6.23166">
        <ele>586</ele>
        <time>2013-05-30T04:35:03.000Z</time>
      </trkpt>
      <trkpt lat="45.89059" lon="6.23163">
        <ele>586</ele>
        <time>2013-05-30T04:35:04.000Z</time>
      </trkpt>
      <trkpt lat="45.8906" lon="6.23159">
        <ele>586</ele>
        <time>2013-05-30T04:35:05.000Z</time>
      </trkpt>
      <trkpt lat="45.8906" lon="6.23155">
        <ele>586</ele>
        <time>2013-05-30T04:35:06.000Z</time>
      </trkpt>
      <trkpt lat="45.89061" lon="6.23151">
        <ele>586</ele>
        <time>2013-05-30T04:35:07.000Z</time>
      </trkpt>
      <trkpt lat="45.89062" lon="6.23148">
        <ele>587</ele>
        <time>2013-05-30T04:35:08.000Z</time>
      </trkpt>
      <trkpt lat="45.89063" lon="6.23144">
        <ele>587</ele>
        <time>2013-05-30T04:35:09.000Z</time>
      </trkpt>
      <trkpt lat="45.89064" lon="6.23141">
        <ele>587</ele>
        <time>2013-05-30T04:35:10.000Z</time>
      </trkpt>
      <trkpt lat="45.89065" lon="6.23137">
        <ele>587</ele>
        <time>2013-05-30T04:35:11.000Z</time>
      </trkpt>
      <trkpt lat="45.89066" lon="6.23134">
        <ele>587</ele>
        <time>2013-05-30T04:35:12.000Z</time>
      </trkpt>
      <trkpt lat="45.89067" lon="6.2313">
        <ele>587</ele>
        <time>2013-05-30T04:35:13.000Z</time>
      </trkpt>
      <trkpt lat="45.89068" lon="6.23127">
        <ele>588</ele>
        <time>2013-05-30T04:35:14.000Z</time>
      </trkpt>
      <trkpt lat="45.89069" lon="6.23124">
        <ele>588</ele>
        <time>2013-05-30T04:35:15.000Z</time>
      </trkpt>
      <trkpt lat="45.8907" lon="6.2312">
        <ele>588</ele>
        <time>2013-05-30T04:35:16.000Z</time>
      </trkpt>
      <trkpt lat="45.89071" lon="6.23117">
        <ele>588</ele>
        <time>2013-05-30T04:35:17.000Z</time>
      </trkpt>
      <trkpt lat="45.89072" lon="6.23114">
        <ele>588</ele>
        <time>2013-05-30T04:35:18.000Z</time>
      </trkpt>
      <trkpt lat="45.89073" lon="6.2311">
        <ele>588</ele>
        <time>2013-05-30T04:35:19.000Z</time>
      </trkpt>
      <trkpt lat="45.89074" lon="6.23107">
        <ele>588</ele>
        <time>2013-05-30T04:35:20.000Z</time>
      </trkpt>
      <trkpt lat="45.89075" lon="6.23103">
        <ele>588</ele>
        <time>2013-05-30T04:35:21.000Z</time>
      </trkpt>
      <trkpt lat="45.89076" lon="6.231">
        <ele>588</ele>
        <time>2013-05-30T04:35:22.000Z</time>
      </trkpt>
      <trkpt lat="45.89078" lon="6.23096">
        <ele>587</ele>
        <time>2013-05-30T04:35:23.000Z</time>
      </trkpt>
      <trkpt lat="45.89079" lon="6.23092">
        <ele>587</ele>
        <time>2013-05-30T04:35:24.000Z</time>
      </trkpt>
      <trkpt lat="45.89079" lon="6.23089">
        <ele>587</ele>
        <time>2013-05-30T04:35:25.000Z</time>
      </trkpt>
      <trkpt lat="45.8908" lon="6.23085">
        <ele>586</ele>
        <time>2013-05-30T04:35:26.000Z</time>
      </trkpt>
      <trkpt lat="45.89082" lon="6.23082">
        <ele>587</ele>
        <time>2013-05-30T04:35:27.000Z</time>
      </trkpt>
      <trkpt lat="45.89083" lon="6.23079">
        <ele>588</ele>
        <time>2013-05-30T04:35:28.000Z</time>
      </trkpt>
      <trkpt lat="45.89084" lon="6.23075">
        <ele>585</ele>
        <time>2013-05-30T04:35:29.000Z</time>
      </trkpt>
      <trkpt lat="45.89085" lon="6.23072">
        <ele>585</ele>
        <time>2013-05-30T04:35:30.000Z</time>
      </trkpt>
      <trkpt lat="45.89086" lon="6.23068">
        <ele>585</ele>
        <time>2013-05-30T04:35:31.000Z</time>
      </trkpt>
      <trkpt lat="45.89087" lon="6.23065">
        <ele>585</ele>
        <time>2013-05-30T04:35:32.000Z</time>
      </trkpt>
      <trkpt lat="45.89088" lon="6.23061">
        <ele>585</ele>
        <time>2013-05-30T04:35:33.000Z</time>
      </trkpt>
      <trkpt lat="45.89089" lon="6.23058">
        <ele>585</ele>
        <time>2013-05-30T04:35:34.000Z</time>
      </trkpt>
      <trkpt lat="45.8909" lon="6.23055">
        <ele>585</ele>
        <time>2013-05-30T04:35:35.000Z</time>
      </trkpt>
      <trkpt lat="45.89091" lon="6.23051">
        <ele>585</ele>
        <time>2013-05-30T04:35:36.000Z</time>
      </trkpt>
      <trkpt lat="45.89092" lon="6.23048">
        <ele>585</ele>
        <time>2013-05-30T04:35:37.000Z</time>
      </trkpt>
      <trkpt lat="45.89094" lon="6.23045">
        <ele>585</ele>
        <time>2013-05-30T04:35:38.000Z</time>
      </trkpt>
      <trkpt lat="45.89095" lon="6.23042">
        <ele>585</ele>
        <time>2013-05-30T04:35:39.000Z</time>
      </trkpt>
      <trkpt lat="45.89096" lon="6.23039">
        <ele>586</ele>
        <time>2013-05-30T04:35:40.000Z</time>
      </trkpt>
      <trkpt lat="45.89097" lon="6.23036">
        <ele>586</ele>
        <time>2013-05-30T04:35:41.000Z</time>
      </trkpt>
      <trkpt lat="45.89098" lon="6.23032">
        <ele>586</ele>
        <time>2013-05-30T04:35:42.000Z</time>
      </trkpt>
      <trkpt lat="45.89099" lon="6.23029">
        <ele>586</ele>
        <time>2013-05-30T04:35:43.000Z</time>
      </trkpt>
      <trkpt lat="45.891" lon="6.23025">
        <ele>587</ele>
        <time>2013-05-30T04:35:44.000Z</time>
      </trkpt>
      <trkpt lat="45.891" lon="6.23022">
        <ele>587</ele>
        <time>2013-05-30T04:35:45.000Z</time>
      </trkpt>
      <trkpt lat="45.89101" lon="6.23018">
        <ele>587</ele>
        <time>2013-05-30T04:35:46.000Z</time>
      </trkpt>
      <trkpt lat="45.89102" lon="6.23015">
        <ele>588</ele>
        <time>2013-05-30T04:35:47.000Z</time>
      </trkpt>
      <trkpt lat="45.89103" lon="6.23011">
        <ele>588</ele>
        <time>2013-05-30T04:35:48.000Z</time>
      </trkpt>
      <trkpt lat="45.89104" lon="6.23008">
        <ele>588</ele>
        <time>2013-05-30T04:35:49.000Z</time>
      </trkpt>
      <trkpt lat="45.89105" lon="6.23004">
        <ele>588</ele>
        <time>2013-05-30T04:35:50.000Z</time>
      </trkpt>
      <trkpt lat="45.89106" lon="6.23001">
        <ele>588</ele>
        <time>2013-05-30T04:35:51.000Z</time>
      </trkpt>
      <trkpt lat="45.89107" lon="6.22998">
        <ele>592</ele>
        <time>2013-05-30T04:35:52.000Z</time>
      </trkpt>
      <trkpt lat="45.89108" lon="6.22995">
        <ele>592</ele>
        <time>2013-05-30T04:35:53.000Z</time>
      </trkpt>
      <trkpt lat="45.89109" lon="6.22991">
        <ele>591</ele>
        <time>2013-05-30T04:35:54.000Z</time>
      </trkpt>
      <trkpt lat="45.8911" lon="6.22988">
        <ele>591</ele>
        <time>2013-05-30T04:35:55.000Z</time>
      </trkpt>
      <trkpt lat="45.89111" lon="6.22985">
        <ele>591</ele>
        <time>2013-05-30T04:35:56.000Z</time>
      </trkpt>
      <trkpt lat="45.89112" lon="6.22982">
        <ele>591</ele>
        <time>2013-05-30T04:35:57.000Z</time>
      </trkpt>
      <trkpt lat="45.89113" lon="6.22979">
        <ele>591</ele>
        <time>2013-05-30T04:35:58.000Z</time>
      </trkpt>
      <trkpt lat="45.89114" lon="6.22976">
        <ele>591</ele>
        <time>2013-05-30T04:35:59.000Z</time>
      </trkpt>
      <trkpt lat="45.89115" lon="6.22973">
        <ele>591</ele>
        <time>2013-05-30T04:36:00.000Z</time>
      </trkpt>
      <trkpt lat="45.89116" lon="6.2297">
        <ele>591</ele>
        <time>2013-05-30T04:36:01.000Z</time>
      </trkpt>
      <trkpt lat="45.89117" lon="6.22966">
        <ele>591</ele>
        <time>2013-05-30T04:36:02.000Z</time>
      </trkpt>
      <trkpt lat="45.89118" lon="6.22963">
        <ele>591</ele>
        <time>2013-05-30T04:36:03.000Z</time>
      </trkpt>
      <trkpt lat="45.8912" lon="6.2296">
        <ele>591</ele>
        <time>2013-05-30T04:36:04.000Z</time>
      </trkpt>
      <trkpt lat="45.8912" lon="6.22957">
        <ele>591</ele>
        <time>2013-05-30T04:36:05.000Z</time>
      </trkpt>
      <trkpt lat="45.89122" lon="6.22953">
        <ele>591</ele>
        <time>2013-05-30T04:36:06.000Z</time>
      </trkpt>
      <trkpt lat="45.89123" lon="6.2295">
        <ele>591</ele>
        <time>2013-05-30T04:36:07.000Z</time>
      </trkpt>
      <trkpt lat="45.89124" lon="6.22947">
        <ele>591</ele>
        <time>2013-05-30T04:36:08.000Z</time>
      </trkpt>
      <trkpt lat="45.89125" lon="6.22943">
        <ele>591</ele>
        <time>2013-05-30T04:36:09.000Z</time>
      </trkpt>
      <trkpt lat="45.89126" lon="6.2294">
        <ele>591</ele>
        <time>2013-05-30T04:36:10.000Z</time>
      </trkpt>
      <trkpt lat="45.89127" lon="6.22937">
        <ele>591</ele>
        <time>2013-05-30T04:36:11.000Z</time>
      </trkpt>
      <trkpt lat="45.89128" lon="6.22934">
        <ele>590</ele>
        <time>2013-05-30T04:36:12.000Z</time>
      </trkpt>
      <trkpt lat="45.89129" lon="6.2293">
        <ele>590</ele>
        <time>2013-05-30T04:36:13.000Z</time>
      </trkpt>
      <trkpt lat="45.8913" lon="6.22927">
        <ele>590</ele>
        <time>2013-05-30T04:36:14.000Z</time>
      </trkpt>
      <trkpt lat="45.89132" lon="6.22923">
        <ele>590</ele>
        <time>2013-05-30T04:36:15.000Z</time>
      </trkpt>
      <trkpt lat="45.89133" lon="6.2292">
        <ele>590</ele>
        <time>2013-05-30T04:36:16.000Z</time>
      </trkpt>
      <trkpt lat="45.89133" lon="6.22916">
        <ele>594</ele>
        <time>2013-05-30T04:36:17.000Z</time>
      </trkpt>
      <trkpt lat="45.89134" lon="6.22913">
        <ele>594</ele>
        <time>2013-05-30T04:36:18.000Z</time>
      </trkpt>
      <trkpt lat="45.89135" lon="6.2291">
        <ele>593</ele>
        <time>2013-05-30T04:36:19.000Z</time>
      </trkpt>
      <trkpt lat="45.89136" lon="6.22907">
        <ele>593</ele>
        <time>2013-05-30T04:36:20.000Z</time>
      </trkpt>
      <trkpt lat="45.89137" lon="6.22903">
        <ele>593</ele>
        <time>2013-05-30T04:36:21.000Z</time>
      </trkpt>
      <trkpt lat="45.89138" lon="6.229">
        <ele>594</ele>
        <time>2013-05-30T04:36:22.000Z</time>
      </trkpt>
      <trkpt lat="45.89138" lon="6.22896">
        <ele>594</ele>
        <time>2013-05-30T04:36:23.000Z</time>
      </trkpt>
      <trkpt lat="45.89138" lon="6.22893">
        <ele>594</ele>
        <time>2013-05-30T04:36:24.000Z</time>
      </trkpt>
      <trkpt lat="45.89139" lon="6.22889">
        <ele>594</ele>
        <time>2013-05-30T04:36:25.000Z</time>
      </trkpt>
      <trkpt lat="45.89139" lon="6.22885">
        <ele>594</ele>
        <time>2013-05-30T04:36:26.000Z</time>
      </trkpt>
      <trkpt lat="45.89139" lon="6.22882">
        <ele>595</ele>
        <time>2013-05-30T04:36:27.000Z</time>
      </trkpt>
      <trkpt lat="45.8914" lon="6.22878">
        <ele>595</ele>
        <time>2013-05-30T04:36:28.000Z</time>
      </trkpt>
      <trkpt lat="45.8914" lon="6.22875">
        <ele>595</ele>
        <time>2013-05-30T04:36:29.000Z</time>
      </trkpt>
      <trkpt lat="45.8914" lon="6.22871">
        <ele>595</ele>
        <time>2013-05-30T04:36:30.000Z</time>
      </trkpt>
      <trkpt lat="45.8914" lon="6.22867">
        <ele>595</ele>
        <time>2013-05-30T04:36:31.000Z</time>
      </trkpt>
      <trkpt lat="45.8914" lon="6.22863">
        <ele>595</ele>
        <time>2013-05-30T04:36:32.000Z</time>
      </trkpt>
      <trkpt lat="45.89139" lon="6.2286">
        <ele>595</ele>
        <time>2013-05-30T04:36:33.000Z</time>
      </trkpt>
      <trkpt lat="45.89139" lon="6.22857">
        <ele>595</ele>
        <time>2013-05-30T04:36:34.000Z</time>
      </trkpt>
      <trkpt lat="45.89138" lon="6.22853">
        <ele>595</ele>
        <time>2013-05-30T04:36:35.000Z</time>
      </trkpt>
      <trkpt lat="45.89138" lon="6.22849">
        <ele>596</ele>
        <time>2013-05-30T04:36:36.000Z</time>
      </trkpt>
      <trkpt lat="45.89137" lon="6.22846">
        <ele>596</ele>
        <time>2013-05-30T04:36:37.000Z</time>
      </trkpt>
      <trkpt lat="45.89137" lon="6.22842">
        <ele>596</ele>
        <time>2013-05-30T04:36:38.000Z</time>
      </trkpt>
      <trkpt lat="45.89137" lon="6.22839">
        <ele>596</ele>
        <time>2013-05-30T04:36:39.000Z</time>
      </trkpt>
      <trkpt lat="45.89136" lon="6.22836">
        <ele>596</ele>
        <time>2013-05-30T04:36:40.000Z</time>
      </trkpt>
      <trkpt lat="45.89136" lon="6.22832">
        <ele>597</ele>
        <time>2013-05-30T04:36:41.000Z</time>
      </trkpt>
      <trkpt lat="45.89135" lon="6.22829">
        <ele>597</ele>
        <time>2013-05-30T04:36:42.000Z</time>
      </trkpt>
      <trkpt lat="45.89134" lon="6.22825">
        <ele>597</ele>
        <time>2013-05-30T04:36:43.000Z</time>
      </trkpt>
      <trkpt lat="45.89133" lon="6.22822">
        <ele>597</ele>
        <time>2013-05-30T04:36:44.000Z</time>
      </trkpt>
      <trkpt lat="45.89132" lon="6.22818">
        <ele>597</ele>
        <time>2013-05-30T04:36:45.000Z</time>
      </trkpt>
      <trkpt lat="45.89131" lon="6.22815">
        <ele>597</ele>
        <time>2013-05-30T04:36:46.000Z</time>
      </trkpt>
      <trkpt lat="45.89129" lon="6.22812">
        <ele>598</ele>
        <time>2013-05-30T04:36:47.000Z</time>
      </trkpt>
      <trkpt lat="45.89128" lon="6.22809">
        <ele>598</ele>
        <time>2013-05-30T04:36:48.000Z</time>
      </trkpt>
      <trkpt lat="45.89127" lon="6.22805">
        <ele>598</ele>
        <time>2013-05-30T04:36:49.000Z</time>
      </trkpt>
      <trkpt lat="45.89125" lon="6.22802">
        <ele>598</ele>
        <time>2013-05-30T04:36:50.000Z</time>
      </trkpt>
      <trkpt lat="45.89124" lon="6.22799">
        <ele>598</ele>
        <time>2013-05-30T04:36:51.000Z</time>
      </trkpt>
      <trkpt lat="45.89122" lon="6.22796">
        <ele>598</ele>
        <time>2013-05-30T04:36:52.000Z</time>
      </trkpt>
      <trkpt lat="45.8912" lon="6.22793">
        <ele>598</ele>
        <time>2013-05-30T04:36:53.000Z</time>
      </trkpt>
      <trkpt lat="45.89118" lon="6.2279">
        <ele>599</ele>
        <time>2013-05-30T04:36:54.000Z</time>
      </trkpt>
      <trkpt lat="45.89116" lon="6.22787">
        <ele>599</ele>
        <time>2013-05-30T04:36:55.000Z</time>
      </trkpt>
      <trkpt lat="45.89115" lon="6.22785">
        <ele>599</ele>
        <time>2013-05-30T04:36:56.000Z</time>
      </trkpt>
      <trkpt lat="45.89113" lon="6.22782">
        <ele>599</ele>
        <time>2013-05-30T04:36:57.000Z</time>
      </trkpt>
      <trkpt lat="45.89111" lon="6.2278">
        <ele>599</ele>
        <time>2013-05-30T04:36:58.000Z</time>
      </trkpt>
      <trkpt lat="45.89109" lon="6.22777">
        <ele>599</ele>
        <time>2013-05-30T04:36:59.000Z</time>
      </trkpt>
      <trkpt lat="45.89107" lon="6.22775">
        <ele>600</ele>
        <time>2013-05-30T04:37:00.000Z</time>
      </trkpt>
      <trkpt lat="45.89104" lon="6.22773">
        <ele>600</ele>
        <time>2013-05-30T04:37:01.000Z</time>
      </trkpt>
      <trkpt lat="45.89102" lon="6.2277">
        <ele>600</ele>
        <time>2013-05-30T04:37:02.000Z</time>
      </trkpt>
      <trkpt lat="45.891" lon="6.22768">
        <ele>600</ele>
        <time>2013-05-30T04:37:03.000Z</time>
      </trkpt>
      <trkpt lat="45.89098" lon="6.22766">
        <ele>601</ele>
        <time>2013-05-30T04:37:04.000Z</time>
      </trkpt>
      <trkpt lat="45.89096" lon="6.22764">
        <ele>601</ele>
        <time>2013-05-30T04:37:05.000Z</time>
      </trkpt>
      <trkpt lat="45.89093" lon="6.22762">
        <ele>601</ele>
        <time>2013-05-30T04:37:06.000Z</time>
      </trkpt>
      <trkpt lat="45.89091" lon="6.2276">
        <ele>602</ele>
        <time>2013-05-30T04:37:07.000Z</time>
      </trkpt>
      <trkpt lat="45.89089" lon="6.22759">
        <ele>602</ele>
        <time>2013-05-30T04:37:08.000Z</time>
      </trkpt>
      <trkpt lat="45.89087" lon="6.22757">
        <ele>602</ele>
        <time>2013-05-30T04:37:09.000Z</time>
      </trkpt>
      <trkpt lat="45.89086" lon="6.22756">
        <ele>603</ele>
        <time>2013-05-30T04:37:10.000Z</time>
      </trkpt>
      <trkpt lat="45.89085" lon="6.22755">
        <ele>603</ele>
        <time>2013-05-30T04:37:11.000Z</time>
      </trkpt>
      <trkpt lat="45.89083" lon="6.22753">
        <ele>605</ele>
        <time>2013-05-30T04:37:12.000Z</time>
      </trkpt>
      <trkpt lat="45.89081" lon="6.22751">
        <ele>605</ele>
        <time>2013-05-30T04:37:13.000Z</time>
      </trkpt>
      <trkpt lat="45.89079" lon="6.2275">
        <ele>604</ele>
        <time>2013-05-30T04:37:14.000Z</time>
      </trkpt>
      <trkpt lat="45.89076" lon="6.22748">
        <ele>604</ele>
        <time>2013-05-30T04:37:15.000Z</time>
      </trkpt>
      <trkpt lat="45.89074" lon="6.22746">
        <ele>603</ele>
        <time>2013-05-30T04:37:16.000Z</time>
      </trkpt>
      <trkpt lat="45.89071" lon="6.22745">
        <ele>603</ele>
        <time>2013-05-30T04:37:17.000Z</time>
      </trkpt>
      <trkpt lat="45.89068" lon="6.22744">
        <ele>603</ele>
        <time>2013-05-30T04:37:18.000Z</time>
      </trkpt>
      <trkpt lat="45.89066" lon="6.22743">
        <ele>603</ele>
        <time>2013-05-30T04:37:19.000Z</time>
      </trkpt>
      <trkpt lat="45.89065" lon="6.22742">
        <ele>603</ele>
        <time>2013-05-30T04:37:20.000Z</time>
      </trkpt>
      <trkpt lat="45.89063" lon="6.22741">
        <ele>603</ele>
        <time>2013-05-30T04:37:21.000Z</time>
      </trkpt>
      <trkpt lat="45.89061" lon="6.22739">
        <ele>603</ele>
        <time>2013-05-30T04:37:22.000Z</time>
      </trkpt>
      <trkpt lat="45.89058" lon="6.22738">
        <ele>603</ele>
        <time>2013-05-30T04:37:23.000Z</time>
      </trkpt>
      <trkpt lat="45.89056" lon="6.22737">
        <ele>603</ele>
        <time>2013-05-30T04:37:24.000Z</time>
      </trkpt>
      <trkpt lat="45.89053" lon="6.22736">
        <ele>603</ele>
        <time>2013-05-30T04:37:25.000Z</time>
      </trkpt>
      <trkpt lat="45.8905" lon="6.22736">
        <ele>604</ele>
        <time>2013-05-30T04:37:26.000Z</time>
      </trkpt>
      <trkpt lat="45.89047" lon="6.22735">
        <ele>604</ele>
        <time>2013-05-30T04:37:27.000Z</time>
      </trkpt>
      <trkpt lat="45.89045" lon="6.22734">
        <ele>604</ele>
        <time>2013-05-30T04:37:28.000Z</time>
      </trkpt>
      <trkpt lat="45.89042" lon="6.22732">
        <ele>604</ele>
        <time>2013-05-30T04:37:29.000Z</time>
      </trkpt>
      <trkpt lat="45.8904" lon="6.22731">
        <ele>604</ele>
        <time>2013-05-30T04:37:30.000Z</time>
      </trkpt>
      <trkpt lat="45.89037" lon="6.2273">
        <ele>604</ele>
        <time>2013-05-30T04:37:31.000Z</time>
      </trkpt>
      <trkpt lat="45.89034" lon="6.22729">
        <ele>604</ele>
        <time>2013-05-30T04:37:32.000Z</time>
      </trkpt>
      <trkpt lat="45.89032" lon="6.22728">
        <ele>605</ele>
        <time>2013-05-30T04:37:33.000Z</time>
      </trkpt>
      <trkpt lat="45.89029" lon="6.22726">
        <ele>605</ele>
        <time>2013-05-30T04:37:34.000Z</time>
      </trkpt>
      <trkpt lat="45.89026" lon="6.22725">
        <ele>605</ele>
        <time>2013-05-30T04:37:35.000Z</time>
      </trkpt>
      <trkpt lat="45.89024" lon="6.22723">
        <ele>605</ele>
        <time>2013-05-30T04:37:36.000Z</time>
      </trkpt>
      <trkpt lat="45.89021" lon="6.22721">
        <ele>605</ele>
        <time>2013-05-30T04:37:37.000Z</time>
      </trkpt>
      <trkpt lat="45.89018" lon="6.2272">
        <ele>605</ele>
        <time>2013-05-30T04:37:38.000Z</time>
      </trkpt>
      <trkpt lat="45.89016" lon="6.22719">
        <ele>605</ele>
        <time>2013-05-30T04:37:39.000Z</time>
      </trkpt>
      <trkpt lat="45.89013" lon="6.22718">
        <ele>605</ele>
        <time>2013-05-30T04:37:40.000Z</time>
      </trkpt>
      <trkpt lat="45.89011" lon="6.22716">
        <ele>605</ele>
        <time>2013-05-30T04:37:41.000Z</time>
      </trkpt>
      <trkpt lat="45.89009" lon="6.22715">
        <ele>605</ele>
        <time>2013-05-30T04:37:42.000Z</time>
      </trkpt>
      <trkpt lat="45.89006" lon="6.22714">
        <ele>605</ele>
        <time>2013-05-30T04:37:43.000Z</time>
      </trkpt>
      <trkpt lat="45.89004" lon="6.22713">
        <ele>604</ele>
        <time>2013-05-30T04:37:44.000Z</time>
      </trkpt>
      <trkpt lat="45.89001" lon="6.22712">
        <ele>604</ele>
        <time>2013-05-30T04:37:45.000Z</time>
      </trkpt>
      <trkpt lat="45.88998" lon="6.2271">
        <ele>610</ele>
        <time>2013-05-30T04:37:46.000Z</time>
      </trkpt>
      <trkpt lat="45.88996" lon="6.22709">
        <ele>610</ele>
        <time>2013-05-30T04:37:47.000Z</time>
      </trkpt>
      <trkpt lat="45.88993" lon="6.22707">
        <ele>610</ele>
        <time>2013-05-30T04:37:48.000Z</time>
      </trkpt>
      <trkpt lat="45.8899" lon="6.22706">
        <ele>610</ele>
        <time>2013-05-30T04:37:49.000Z</time>
      </trkpt>
      <trkpt lat="45.88987" lon="6.22705">
        <ele>610</ele>
        <time>2013-05-30T04:37:50.000Z</time>
      </trkpt>
      <trkpt lat="45.88984" lon="6.22704">
        <ele>609</ele>
        <time>2013-05-30T04:37:51.000Z</time>
      </trkpt>
      <trkpt lat="45.88983" lon="6.22703">
        <ele>609</ele>
        <time>2013-05-30T04:37:52.000Z</time>
      </trkpt>
      <trkpt lat="45.88981" lon="6.22702">
        <ele>609</ele>
        <time>2013-05-30T04:37:53.000Z</time>
      </trkpt>
      <trkpt lat="45.88979" lon="6.22701">
        <ele>609</ele>
        <time>2013-05-30T04:37:54.000Z</time>
      </trkpt>
      <trkpt lat="45.88977" lon="6.22699">
        <ele>609</ele>
        <time>2013-05-30T04:37:55.000Z</time>
      </trkpt>
      <trkpt lat="45.88976" lon="6.22698">
        <ele>609</ele>
        <time>2013-05-30T04:37:56.000Z</time>
      </trkpt>
      <trkpt lat="45.88973" lon="6.22696">
        <ele>609</ele>
        <time>2013-05-30T04:37:57.000Z</time>
      </trkpt>
      <trkpt lat="45.88971" lon="6.22695">
        <ele>609</ele>
        <time>2013-05-30T04:37:58.000Z</time>
      </trkpt>
      <trkpt lat="45.88969" lon="6.22693">
        <ele>609</ele>
        <time>2013-05-30T04:37:59.000Z</time>
      </trkpt>
      <trkpt lat="45.88967" lon="6.22691">
        <ele>609</ele>
        <time>2013-05-30T04:38:00.000Z</time>
      </trkpt>
      <trkpt lat="45.88965" lon="6.2269">
        <ele>608</ele>
        <time>2013-05-30T04:38:01.000Z</time>
      </trkpt>
      <trkpt lat="45.88962" lon="6.22688">
        <ele>608</ele>
        <time>2013-05-30T04:38:02.000Z</time>
      </trkpt>
      <trkpt lat="45.8896" lon="6.22687">
        <ele>608</ele>
        <time>2013-05-30T04:38:03.000Z</time>
      </trkpt>
      <trkpt lat="45.88958" lon="6.22685">
        <ele>608</ele>
        <time>2013-05-30T04:38:04.000Z</time>
      </trkpt>
      <trkpt lat="45.88956" lon="6.22684">
        <ele>608</ele>
        <time>2013-05-30T04:38:05.000Z</time>
      </trkpt>
      <trkpt lat="45.88954" lon="6.22682">
        <ele>608</ele>
        <time>2013-05-30T04:38:06.000Z</time>
      </trkpt>
      <trkpt lat="45.88952" lon="6.22681">
        <ele>608</ele>
        <time>2013-05-30T04:38:07.000Z</time>
      </trkpt>
      <trkpt lat="45.8895" lon="6.2268">
        <ele>608</ele>
        <time>2013-05-30T04:38:08.000Z</time>
      </trkpt>
      <trkpt lat="45.88948" lon="6.22678">
        <ele>608</ele>
        <time>2013-05-30T04:38:09.000Z</time>
      </trkpt>
      <trkpt lat="45.88945" lon="6.22676">
        <ele>608</ele>
        <time>2013-05-30T04:38:10.000Z</time>
      </trkpt>
      <trkpt lat="45.88943" lon="6.22675">
        <ele>607</ele>
        <time>2013-05-30T04:38:11.000Z</time>
      </trkpt>
      <trkpt lat="45.8894" lon="6.22673">
        <ele>607</ele>
        <time>2013-05-30T04:38:12.000Z</time>
      </trkpt>
      <trkpt lat="45.88937" lon="6.22672">
        <ele>607</ele>
        <time>2013-05-30T04:38:13.000Z</time>
      </trkpt>
      <trkpt lat="45.88934" lon="6.22671">
        <ele>606</ele>
        <time>2013-05-30T04:38:14.000Z</time>
      </trkpt>
      <trkpt lat="45.88931" lon="6.22669">
        <ele>606</ele>
        <time>2013-05-30T04:38:15.000Z</time>
      </trkpt>
      <trkpt lat="45.88928" lon="6.22668">
        <ele>605</ele>
        <time>2013-05-30T04:38:16.000Z</time>
      </trkpt>
      <trkpt lat="45.88925" lon="6.22666">
        <ele>599</ele>
        <time>2013-05-30T04:38:17.000Z</time>
      </trkpt>
      <trkpt lat="45.88923" lon="6.22665">
        <ele>600</ele>
        <time>2013-05-30T04:38:18.000Z</time>
      </trkpt>
      <trkpt lat="45.8892" lon="6.22663">
        <ele>600</ele>
        <time>2013-05-30T04:38:19.000Z</time>
      </trkpt>
      <trkpt lat="45.88918" lon="6.22662">
        <ele>600</ele>
        <time>2013-05-30T04:38:20.000Z</time>
      </trkpt>
      <trkpt lat="45.88916" lon="6.2266">
        <ele>601</ele>
        <time>2013-05-30T04:38:21.000Z</time>
      </trkpt>
      <trkpt lat="45.88913" lon="6.22659">
        <ele>601</ele>
        <time>2013-05-30T04:38:22.000Z</time>
      </trkpt>
      <trkpt lat="45.8891" lon="6.22657">
        <ele>601</ele>
        <time>2013-05-30T04:38:23.000Z</time>
      </trkpt>
      <trkpt lat="45.88908" lon="6.22656">
        <ele>601</ele>
        <time>2013-05-30T04:38:24.000Z</time>
      </trkpt>
      <trkpt lat="45.88905" lon="6.22655">
        <ele>601</ele>
        <time>2013-05-30T04:38:25.000Z</time>
      </trkpt>
      <trkpt lat="45.88903" lon="6.22653">
        <ele>601</ele>
        <time>2013-05-30T04:38:26.000Z</time>
      </trkpt>
      <trkpt lat="45.88901" lon="6.22652">
        <ele>601</ele>
        <time>2013-05-30T04:38:27.000Z</time>
      </trkpt>
      <trkpt lat="45.88898" lon="6.22651">
        <ele>600</ele>
        <time>2013-05-30T04:38:28.000Z</time>
      </trkpt>
      <trkpt lat="45.88896" lon="6.2265">
        <ele>600</ele>
        <time>2013-05-30T04:38:29.000Z</time>
      </trkpt>
      <trkpt lat="45.88893" lon="6.22648">
        <ele>600</ele>
        <time>2013-05-30T04:38:30.000Z</time>
      </trkpt>
      <trkpt lat="45.8889" lon="6.22647">
        <ele>600</ele>
        <time>2013-05-30T04:38:31.000Z</time>
      </trkpt>
      <trkpt lat="45.88888" lon="6.22645">
        <ele>600</ele>
        <time>2013-05-30T04:38:32.000Z</time>
      </trkpt>
      <trkpt lat="45.88885" lon="6.22644">
        <ele>600</ele>
        <time>2013-05-30T04:38:33.000Z</time>
      </trkpt>
      <trkpt lat="45.88883" lon="6.22642">
        <ele>600</ele>
        <time>2013-05-30T04:38:34.000Z</time>
      </trkpt>
      <trkpt lat="45.8888" lon="6.22641">
        <ele>600</ele>
        <time>2013-05-30T04:38:35.000Z</time>
      </trkpt>
      <trkpt lat="45.88878" lon="6.2264">
        <ele>601</ele>
        <time>2013-05-30T04:38:36.000Z</time>
      </trkpt>
      <trkpt lat="45.88875" lon="6.22639">
        <ele>601</ele>
        <time>2013-05-30T04:38:37.000Z</time>
      </trkpt>
      <trkpt lat="45.88873" lon="6.22637">
        <ele>601</ele>
        <time>2013-05-30T04:38:38.000Z</time>
      </trkpt>
      <trkpt lat="45.88871" lon="6.22635">
        <ele>601</ele>
        <time>2013-05-30T04:38:39.000Z</time>
      </trkpt>
      <trkpt lat="45.88869" lon="6.22634">
        <ele>600</ele>
        <time>2013-05-30T04:38:40.000Z</time>
      </trkpt>
      <trkpt lat="45.88867" lon="6.22632">
        <ele>600</ele>
        <time>2013-05-30T04:38:41.000Z</time>
      </trkpt>
      <trkpt lat="45.88865" lon="6.2263">
        <ele>600</ele>
        <time>2013-05-30T04:38:42.000Z</time>
      </trkpt>
      <trkpt lat="45.88863" lon="6.22629">
        <ele>600</ele>
        <time>2013-05-30T04:38:43.000Z</time>
      </trkpt>
      <trkpt lat="45.8886" lon="6.22628">
        <ele>600</ele>
        <time>2013-05-30T04:38:44.000Z</time>
      </trkpt>
      <trkpt lat="45.88858" lon="6.22626">
        <ele>600</ele>
        <time>2013-05-30T04:38:45.000Z</time>
      </trkpt>
      <trkpt lat="45.88855" lon="6.22625">
        <ele>600</ele>
        <time>2013-05-30T04:38:46.000Z</time>
      </trkpt>
      <trkpt lat="45.88853" lon="6.22623">
        <ele>600</ele>
        <time>2013-05-30T04:38:47.000Z</time>
      </trkpt>
      <trkpt lat="45.88851" lon="6.22622">
        <ele>600</ele>
        <time>2013-05-30T04:38:48.000Z</time>
      </trkpt>
      <trkpt lat="45.88848" lon="6.2262">
        <ele>600</ele>
        <time>2013-05-30T04:38:49.000Z</time>
      </trkpt>
      <trkpt lat="45.88845" lon="6.22619">
        <ele>600</ele>
        <time>2013-05-30T04:38:50.000Z</time>
      </trkpt>
      <trkpt lat="45.88843" lon="6.22617">
        <ele>600</ele>
        <time>2013-05-30T04:38:51.000Z</time>
      </trkpt>
      <trkpt lat="45.8884" lon="6.22616">
        <ele>600</ele>
        <time>2013-05-30T04:38:52.000Z</time>
      </trkpt>
      <trkpt lat="45.88838" lon="6.22614">
        <ele>599</ele>
        <time>2013-05-30T04:38:53.000Z</time>
      </trkpt>
      <trkpt lat="45.88835" lon="6.22613">
        <ele>599</ele>
        <time>2013-05-30T04:38:54.000Z</time>
      </trkpt>
      <trkpt lat="45.88832" lon="6.22611">
        <ele>604</ele>
        <time>2013-05-30T04:38:55.000Z</time>
      </trkpt>
      <trkpt lat="45.8883" lon="6.2261">
        <ele>604</ele>
        <time>2013-05-30T04:38:56.000Z</time>
      </trkpt>
      <trkpt lat="45.88828" lon="6.22608">
        <ele>604</ele>
        <time>2013-05-30T04:38:57.000Z</time>
      </trkpt>
      <trkpt lat="45.88825" lon="6.22606">
        <ele>603</ele>
        <time>2013-05-30T04:38:58.000Z</time>
      </trkpt>
      <trkpt lat="45.88823" lon="6.22605">
        <ele>603</ele>
        <time>2013-05-30T04:38:59.000Z</time>
      </trkpt>
      <trkpt lat="45.88821" lon="6.22604">
        <ele>603</ele>
        <time>2013-05-30T04:39:00.000Z</time>
      </trkpt>
      <trkpt lat="45.88819" lon="6.22602">
        <ele>603</ele>
        <time>2013-05-30T04:39:01.000Z</time>
      </trkpt>
      <trkpt lat="45.88817" lon="6.22601">
        <ele>603</ele>
        <time>2013-05-30T04:39:02.000Z</time>
      </trkpt>
      <trkpt lat="45.88814" lon="6.226">
        <ele>603</ele>
        <time>2013-05-30T04:39:03.000Z</time>
      </trkpt>
      <trkpt lat="45.88812" lon="6.22598">
        <ele>604</ele>
        <time>2013-05-30T04:39:04.000Z</time>
      </trkpt>
      <trkpt lat="45.88809" lon="6.22597">
        <ele>604</ele>
        <time>2013-05-30T04:39:05.000Z</time>
      </trkpt>
      <trkpt lat="45.88807" lon="6.22596">
        <ele>604</ele>
        <time>2013-05-30T04:39:06.000Z</time>
      </trkpt>
      <trkpt lat="45.88804" lon="6.22594">
        <ele>604</ele>
        <time>2013-05-30T04:39:07.000Z</time>
      </trkpt>
      <trkpt lat="45.88802" lon="6.22593">
        <ele>604</ele>
        <time>2013-05-30T04:39:08.000Z</time>
      </trkpt>
      <trkpt lat="45.888" lon="6.22591">
        <ele>605</ele>
        <time>2013-05-30T04:39:09.000Z</time>
      </trkpt>
      <trkpt lat="45.88797" lon="6.2259">
        <ele>605</ele>
        <time>2013-05-30T04:39:10.000Z</time>
      </trkpt>
      <trkpt lat="45.88795" lon="6.22589">
        <ele>605</ele>
        <time>2013-05-30T04:39:11.000Z</time>
      </trkpt>
      <trkpt lat="45.88792" lon="6.22587">
        <ele>605</ele>
        <time>2013-05-30T04:39:12.000Z</time>
      </trkpt>
      <trkpt lat="45.8879" lon="6.22585">
        <ele>605</ele>
        <time>2013-05-30T04:39:13.000Z</time>
      </trkpt>
      <trkpt lat="45.88788" lon="6.22584">
        <ele>605</ele>
        <time>2013-05-30T04:39:14.000Z</time>
      </trkpt>
      <trkpt lat="45.88786" lon="6.22582">
        <ele>598</ele>
        <time>2013-05-30T04:39:15.000Z</time>
      </trkpt>
      <trkpt lat="45.88783" lon="6.2258">
        <ele>598</ele>
        <time>2013-05-30T04:39:16.000Z</time>
      </trkpt>
      <trkpt lat="45.88781" lon="6.22579">
        <ele>598</ele>
        <time>2013-05-30T04:39:17.000Z</time>
      </trkpt>
      <trkpt lat="45.88778" lon="6.22578">
        <ele>598</ele>
        <time>2013-05-30T04:39:18.000Z</time>
      </trkpt>
      <trkpt lat="45.88776" lon="6.22576">
        <ele>598</ele>
        <time>2013-05-30T04:39:19.000Z</time>
      </trkpt>
      <trkpt lat="45.88774" lon="6.22575">
        <ele>599</ele>
        <time>2013-05-30T04:39:20.000Z</time>
      </trkpt>
      <trkpt lat="45.88771" lon="6.22573">
        <ele>599</ele>
        <time>2013-05-30T04:39:21.000Z</time>
      </trkpt>
      <trkpt lat="45.88769" lon="6.22572">
        <ele>599</ele>
        <time>2013-05-30T04:39:22.000Z</time>
      </trkpt>
      <trkpt lat="45.88767" lon="6.22571">
        <ele>599</ele>
        <time>2013-05-30T04:39:23.000Z</time>
      </trkpt>
      <trkpt lat="45.88764" lon="6.22569">
        <ele>599</ele>
        <time>2013-05-30T04:39:24.000Z</time>
      </trkpt>
      <trkpt lat="45.88762" lon="6.22568">
        <ele>599</ele>
        <time>2013-05-30T04:39:25.000Z</time>
      </trkpt>
      <trkpt lat="45.8876" lon="6.22567">
        <ele>599</ele>
        <time>2013-05-30T04:39:26.000Z</time>
      </trkpt>
      <trkpt lat="45.88757" lon="6.22565">
        <ele>599</ele>
        <time>2013-05-30T04:39:27.000Z</time>
      </trkpt>
      <trkpt lat="45.88755" lon="6.22564">
        <ele>599</ele>
        <time>2013-05-30T04:39:28.000Z</time>
      </trkpt>
      <trkpt lat="45.88752" lon="6.22563">
        <ele>599</ele>
        <time>2013-05-30T04:39:29.000Z</time>
      </trkpt>
      <trkpt lat="45.8875" lon="6.22562">
        <ele>603</ele>
        <time>2013-05-30T04:39:30.000Z</time>
      </trkpt>
      <trkpt lat="45.88747" lon="6.22561">
        <ele>603</ele>
        <time>2013-05-30T04:39:31.000Z</time>
      </trkpt>
      <trkpt lat="45.88745" lon="6.2256">
        <ele>603</ele>
        <time>2013-05-30T04:39:32.000Z</time>
      </trkpt>
      <trkpt lat="45.88743" lon="6.22558">
        <ele>603</ele>
        <time>2013-05-30T04:39:33.000Z</time>
      </trkpt>
      <trkpt lat="45.88741" lon="6.22557">
        <ele>603</ele>
        <time>2013-05-30T04:39:34.000Z</time>
      </trkpt>
      <trkpt lat="45.88738" lon="6.22556">
        <ele>603</ele>
        <time>2013-05-30T04:39:35.000Z</time>
      </trkpt>
      <trkpt lat="45.88736" lon="6.22555">
        <ele>603</ele>
        <time>2013-05-30T04:39:36.000Z</time>
      </trkpt>
      <trkpt lat="45.88733" lon="6.22554">
        <ele>603</ele>
        <time>2013-05-30T04:39:37.000Z</time>
      </trkpt>
      <trkpt lat="45.88731" lon="6.22553">
        <ele>603</ele>
        <time>2013-05-30T04:39:38.000Z</time>
      </trkpt>
      <trkpt lat="45.88728" lon="6.22553">
        <ele>603</ele>
        <time>2013-05-30T04:39:39.000Z</time>
      </trkpt>
      <trkpt lat="45.88725" lon="6.22552">
        <ele>603</ele>
        <time>2013-05-30T04:39:40.000Z</time>
      </trkpt>
      <trkpt lat="45.88722" lon="6.22551">
        <ele>603</ele>
        <time>2013-05-30T04:39:41.000Z</time>
      </trkpt>
      <trkpt lat="45.88719" lon="6.2255">
        <ele>603</ele>
        <time>2013-05-30T04:39:42.000Z</time>
      </trkpt>
      <trkpt lat="45.88717" lon="6.2255">
        <ele>604</ele>
        <time>2013-05-30T04:39:43.000Z</time>
      </trkpt>
      <trkpt lat="45.88715" lon="6.22549">
        <ele>604</ele>
        <time>2013-05-30T04:39:44.000Z</time>
      </trkpt>
      <trkpt lat="45.88712" lon="6.22548">
        <ele>604</ele>
        <time>2013-05-30T04:39:45.000Z</time>
      </trkpt>
      <trkpt lat="45.8871" lon="6.22547">
        <ele>604</ele>
        <time>2013-05-30T04:39:46.000Z</time>
      </trkpt>
      <trkpt lat="45.88707" lon="6.22547">
        <ele>604</ele>
        <time>2013-05-30T04:39:47.000Z</time>
      </trkpt>
      <trkpt lat="45.88704" lon="6.22546">
        <ele>604</ele>
        <time>2013-05-30T04:39:48.000Z</time>
      </trkpt>
      <trkpt lat="45.88702" lon="6.22545">
        <ele>604</ele>
        <time>2013-05-30T04:39:49.000Z</time>
      </trkpt>
      <trkpt lat="45.88699" lon="6.22544">
        <ele>604</ele>
        <time>2013-05-30T04:39:50.000Z</time>
      </trkpt>
      <trkpt lat="45.88696" lon="6.22543">
        <ele>604</ele>
        <time>2013-05-30T04:39:51.000Z</time>
      </trkpt>
      <trkpt lat="45.88694" lon="6.22542">
        <ele>604</ele>
        <time>2013-05-30T04:39:52.000Z</time>
      </trkpt>
      <trkpt lat="45.88691" lon="6.22541">
        <ele>604</ele>
        <time>2013-05-30T04:39:53.000Z</time>
      </trkpt>
      <trkpt lat="45.88688" lon="6.2254">
        <ele>604</ele>
        <time>2013-05-30T04:39:54.000Z</time>
      </trkpt>
      <trkpt lat="45.88686" lon="6.2254">
        <ele>604</ele>
        <time>2013-05-30T04:39:55.000Z</time>
      </trkpt>
      <trkpt lat="45.88684" lon="6.22539">
        <ele>604</ele>
        <time>2013-05-30T04:39:56.000Z</time>
      </trkpt>
      <trkpt lat="45.88681" lon="6.22538">
        <ele>604</ele>
        <time>2013-05-30T04:39:57.000Z</time>
      </trkpt>
      <trkpt lat="45.88678" lon="6.22538">
        <ele>604</ele>
        <time>2013-05-30T04:39:58.000Z</time>
      </trkpt>
      <trkpt lat="45.88675" lon="6.22537">
        <ele>604</ele>
        <time>2013-05-30T04:39:59.000Z</time>
      </trkpt>
      <trkpt lat="45.88672" lon="6.22536">
        <ele>604</ele>
        <time>2013-05-30T04:40:00.000Z</time>
      </trkpt>
      <trkpt lat="45.88669" lon="6.22535">
        <ele>604</ele>
        <time>2013-05-30T04:40:01.000Z</time>
      </trkpt>
      <trkpt lat="45.88667" lon="6.22534">
        <ele>604</ele>
        <time>2013-05-30T04:40:02.000Z</time>
      </trkpt>
      <trkpt lat="45.88664" lon="6.22534">
        <ele>610</ele>
        <time>2013-05-30T04:40:03.000Z</time>
      </trkpt>
      <trkpt lat="45.88662" lon="6.22533">
        <ele>610</ele>
        <time>2013-05-30T04:40:04.000Z</time>
      </trkpt>
      <trkpt lat="45.8866" lon="6.22533">
        <ele>610</ele>
        <time>2013-05-30T04:40:05.000Z</time>
      </trkpt>
      <trkpt lat="45.88658" lon="6.22532">
        <ele>610</ele>
        <time>2013-05-30T04:40:06.000Z</time>
      </trkpt>
      <trkpt lat="45.88655" lon="6.22531">
        <ele>610</ele>
        <time>2013-05-30T04:40:07.000Z</time>
      </trkpt>
      <trkpt lat="45.88653" lon="6.2253">
        <ele>610</ele>
        <time>2013-05-30T04:40:08.000Z</time>
      </trkpt>
      <trkpt lat="45.88651" lon="6.2253">
        <ele>610</ele>
        <time>2013-05-30T04:40:09.000Z</time>
      </trkpt>
      <trkpt lat="45.88648" lon="6.22529">
        <ele>610</ele>
        <time>2013-05-30T04:40:10.000Z</time>
      </trkpt>
      <trkpt lat="45.88646" lon="6.22528">
        <ele>610</ele>
        <time>2013-05-30T04:40:11.000Z</time>
      </trkpt>
      <trkpt lat="45.88643" lon="6.22527">
        <ele>611</ele>
        <time>2013-05-30T04:40:12.000Z</time>
      </trkpt>
      <trkpt lat="45.8864" lon="6.22527">
        <ele>611</ele>
        <time>2013-05-30T04:40:13.000Z</time>
      </trkpt>
      <trkpt lat="45.88637" lon="6.22525">
        <ele>611</ele>
        <time>2013-05-30T04:40:14.000Z</time>
      </trkpt>
      <trkpt lat="45.88635" lon="6.22524">
        <ele>611</ele>
        <time>2013-05-30T04:40:15.000Z</time>
      </trkpt>
      <trkpt lat="45.88632" lon="6.22524">
        <ele>611</ele>
        <time>2013-05-30T04:40:16.000Z</time>
      </trkpt>
      <trkpt lat="45.88629" lon="6.22523">
        <ele>611</ele>
        <time>2013-05-30T04:40:17.000Z</time>
      </trkpt>
      <trkpt lat="45.88627" lon="6.22522">
        <ele>611</ele>
        <time>2013-05-30T04:40:18.000Z</time>
      </trkpt>
      <trkpt lat="45.88624" lon="6.22522">
        <ele>612</ele>
        <time>2013-05-30T04:40:19.000Z</time>
      </trkpt>
      <trkpt lat="45.88622" lon="6.22521">
        <ele>612</ele>
        <time>2013-05-30T04:40:20.000Z</time>
      </trkpt>
      <trkpt lat="45.88619" lon="6.2252">
        <ele>612</ele>
        <time>2013-05-30T04:40:21.000Z</time>
      </trkpt>
      <trkpt lat="45.88617" lon="6.22519">
        <ele>612</ele>
        <time>2013-05-30T04:40:22.000Z</time>
      </trkpt>
      <trkpt lat="45.88615" lon="6.22518">
        <ele>612</ele>
        <time>2013-05-30T04:40:23.000Z</time>
      </trkpt>
      <trkpt lat="45.88613" lon="6.22517">
        <ele>612</ele>
        <time>2013-05-30T04:40:24.000Z</time>
      </trkpt>
      <trkpt lat="45.88611" lon="6.22516">
        <ele>612</ele>
        <time>2013-05-30T04:40:25.000Z</time>
      </trkpt>
      <trkpt lat="45.88609" lon="6.22515">
        <ele>612</ele>
        <time>2013-05-30T04:40:26.000Z</time>
      </trkpt>
      <trkpt lat="45.88607" lon="6.22514">
        <ele>612</ele>
        <time>2013-05-30T04:40:27.000Z</time>
      </trkpt>
      <trkpt lat="45.88605" lon="6.22513">
        <ele>612</ele>
        <time>2013-05-30T04:40:28.000Z</time>
      </trkpt>
      <trkpt lat="45.88603" lon="6.22512">
        <ele>612</ele>
        <time>2013-05-30T04:40:29.000Z</time>
      </trkpt>
      <trkpt lat="45.886" lon="6.22511">
        <ele>612</ele>
        <time>2013-05-30T04:40:30.000Z</time>
      </trkpt>
      <trkpt lat="45.88597" lon="6.22509">
        <ele>612</ele>
        <time>2013-05-30T04:40:31.000Z</time>
      </trkpt>
      <trkpt lat="45.88596" lon="6.22508">
        <ele>612</ele>
        <time>2013-05-30T04:40:32.000Z</time>
      </trkpt>
      <trkpt lat="45.88593" lon="6.22506">
        <ele>612</ele>
        <time>2013-05-30T04:40:33.000Z</time>
      </trkpt>
      <trkpt lat="45.8859" lon="6.22504">
        <ele>612</ele>
        <time>2013-05-30T04:40:34.000Z</time>
      </trkpt>
      <trkpt lat="45.88587" lon="6.22502">
        <ele>611</ele>
        <time>2013-05-30T04:40:35.000Z</time>
      </trkpt>
      <trkpt lat="45.88584" lon="6.225">
        <ele>611</ele>
        <time>2013-05-30T04:40:36.000Z</time>
      </trkpt>
      <trkpt lat="45.88582" lon="6.22499">
        <ele>611</ele>
        <time>2013-05-30T04:40:37.000Z</time>
      </trkpt>
      <trkpt lat="45.88579" lon="6.22497">
        <ele>611</ele>
        <time>2013-05-30T04:40:38.000Z</time>
      </trkpt>
      <trkpt lat="45.88577" lon="6.22496">
        <ele>612</ele>
        <time>2013-05-30T04:40:39.000Z</time>
      </trkpt>
      <trkpt lat="45.88574" lon="6.22494">
        <ele>612</ele>
        <time>2013-05-30T04:40:40.000Z</time>
      </trkpt>
      <trkpt lat="45.8857" lon="6.22493">
        <ele>612</ele>
        <time>2013-05-30T04:40:41.000Z</time>
      </trkpt>
      <trkpt lat="45.88567" lon="6.22491">
        <ele>613</ele>
        <time>2013-05-30T04:40:42.000Z</time>
      </trkpt>
      <trkpt lat="45.88564" lon="6.2249">
        <ele>613</ele>
        <time>2013-05-30T04:40:43.000Z</time>
      </trkpt>
      <trkpt lat="45.88562" lon="6.22488">
        <ele>613</ele>
        <time>2013-05-30T04:40:44.000Z</time>
      </trkpt>
      <trkpt lat="45.88559" lon="6.22487">
        <ele>613</ele>
        <time>2013-05-30T04:40:45.000Z</time>
      </trkpt>
      <trkpt lat="45.88557" lon="6.22485">
        <ele>613</ele>
        <time>2013-05-30T04:40:46.000Z</time>
      </trkpt>
      <trkpt lat="45.88555" lon="6.22483">
        <ele>613</ele>
        <time>2013-05-30T04:40:47.000Z</time>
      </trkpt>
      <trkpt lat="45.88553" lon="6.22481">
        <ele>614</ele>
        <time>2013-05-30T04:40:48.000Z</time>
      </trkpt>
      <trkpt lat="45.88551" lon="6.22479">
        <ele>614</ele>
        <time>2013-05-30T04:40:49.000Z</time>
      </trkpt>
      <trkpt lat="45.88548" lon="6.22477">
        <ele>614</ele>
        <time>2013-05-30T04:40:50.000Z</time>
      </trkpt>
      <trkpt lat="45.88547" lon="6.22475">
        <ele>614</ele>
        <time>2013-05-30T04:40:51.000Z</time>
      </trkpt>
      <trkpt lat="45.88545" lon="6.22473">
        <ele>614</ele>
        <time>2013-05-30T04:40:52.000Z</time>
      </trkpt>
      <trkpt lat="45.88543" lon="6.22471">
        <ele>614</ele>
        <time>2013-05-30T04:40:53.000Z</time>
      </trkpt>
      <trkpt lat="45.88542" lon="6.22469">
        <ele>614</ele>
        <time>2013-05-30T04:40:54.000Z</time>
      </trkpt>
      <trkpt lat="45.8854" lon="6.22467">
        <ele>614</ele>
        <time>2013-05-30T04:40:55.000Z</time>
      </trkpt>
      <trkpt lat="45.88538" lon="6.22465">
        <ele>614</ele>
        <time>2013-05-30T04:40:56.000Z</time>
      </trkpt>
      <trkpt lat="45.88537" lon="6.22464">
        <ele>614</ele>
        <time>2013-05-30T04:40:57.000Z</time>
      </trkpt>
      <trkpt lat="45.88535" lon="6.22461">
        <ele>614</ele>
        <time>2013-05-30T04:40:58.000Z</time>
      </trkpt>
      <trkpt lat="45.88533" lon="6.22459">
        <ele>614</ele>
        <time>2013-05-30T04:40:59.000Z</time>
      </trkpt>
      <trkpt lat="45.88531" lon="6.22457">
        <ele>614</ele>
        <time>2013-05-30T04:41:00.000Z</time>
      </trkpt>
      <trkpt lat="45.88529" lon="6.22455">
        <ele>614</ele>
        <time>2013-05-30T04:41:01.000Z</time>
      </trkpt>
      <trkpt lat="45.88527" lon="6.22452">
        <ele>614</ele>
        <time>2013-05-30T04:41:02.000Z</time>
      </trkpt>
      <trkpt lat="45.88525" lon="6.22451">
        <ele>614</ele>
        <time>2013-05-30T04:41:03.000Z</time>
      </trkpt>
      <trkpt lat="45.88523" lon="6.22449">
        <ele>614</ele>
        <time>2013-05-30T04:41:04.000Z</time>
      </trkpt>
      <trkpt lat="45.88521" lon="6.22447">
        <ele>614</ele>
        <time>2013-05-30T04:41:05.000Z</time>
      </trkpt>
      <trkpt lat="45.88519" lon="6.22446">
        <ele>614</ele>
        <time>2013-05-30T04:41:06.000Z</time>
      </trkpt>
      <trkpt lat="45.88516" lon="6.22443">
        <ele>614</ele>
        <time>2013-05-30T04:41:07.000Z</time>
      </trkpt>
      <trkpt lat="45.88514" lon="6.22441">
        <ele>614</ele>
        <time>2013-05-30T04:41:08.000Z</time>
      </trkpt>
      <trkpt lat="45.88512" lon="6.22439">
        <ele>614</ele>
        <time>2013-05-30T04:41:09.000Z</time>
      </trkpt>
      <trkpt lat="45.88511" lon="6.22437">
        <ele>614</ele>
        <time>2013-05-30T04:41:10.000Z</time>
      </trkpt>
      <trkpt lat="45.88508" lon="6.22435">
        <ele>615</ele>
        <time>2013-05-30T04:41:11.000Z</time>
      </trkpt>
      <trkpt lat="45.88506" lon="6.22433">
        <ele>615</ele>
        <time>2013-05-30T04:41:12.000Z</time>
      </trkpt>
      <trkpt lat="45.88503" lon="6.22431">
        <ele>615</ele>
        <time>2013-05-30T04:41:13.000Z</time>
      </trkpt>
      <trkpt lat="45.88501" lon="6.22428">
        <ele>615</ele>
        <time>2013-05-30T04:41:14.000Z</time>
      </trkpt>
      <trkpt lat="45.88499" lon="6.22426">
        <ele>619</ele>
        <time>2013-05-30T04:41:15.000Z</time>
      </trkpt>
      <trkpt lat="45.88496" lon="6.22424">
        <ele>619</ele>
        <time>2013-05-30T04:41:16.000Z</time>
      </trkpt>
      <trkpt lat="45.88494" lon="6.22422">
        <ele>619</ele>
        <time>2013-05-30T04:41:17.000Z</time>
      </trkpt>
      <trkpt lat="45.88492" lon="6.2242">
        <ele>619</ele>
        <time>2013-05-30T04:41:18.000Z</time>
      </trkpt>
      <trkpt lat="45.8849" lon="6.22418">
        <ele>620</ele>
        <time>2013-05-30T04:41:19.000Z</time>
      </trkpt>
      <trkpt lat="45.88488" lon="6.22416">
        <ele>616</ele>
        <time>2013-05-30T04:41:20.000Z</time>
      </trkpt>
      <trkpt lat="45.88485" lon="6.22414">
        <ele>616</ele>
        <time>2013-05-30T04:41:21.000Z</time>
      </trkpt>
      <trkpt lat="45.88483" lon="6.22413">
        <ele>617</ele>
        <time>2013-05-30T04:41:22.000Z</time>
      </trkpt>
      <trkpt lat="45.88481" lon="6.22411">
        <ele>617</ele>
        <time>2013-05-30T04:41:23.000Z</time>
      </trkpt>
      <trkpt lat="45.88479" lon="6.22409">
        <ele>617</ele>
        <time>2013-05-30T04:41:24.000Z</time>
      </trkpt>
      <trkpt lat="45.88477" lon="6.22408">
        <ele>617</ele>
        <time>2013-05-30T04:41:25.000Z</time>
      </trkpt>
      <trkpt lat="45.88476" lon="6.22406">
        <ele>617</ele>
        <time>2013-05-30T04:41:26.000Z</time>
      </trkpt>
      <trkpt lat="45.88474" lon="6.22404">
        <ele>617</ele>
        <time>2013-05-30T04:41:27.000Z</time>
      </trkpt>
      <trkpt lat="45.88472" lon="6.22402">
        <ele>617</ele>
        <time>2013-05-30T04:41:28.000Z</time>
      </trkpt>
      <trkpt lat="45.8847" lon="6.22401">
        <ele>618</ele>
        <time>2013-05-30T04:41:29.000Z</time>
      </trkpt>
      <trkpt lat="45.88468" lon="6.22399">
        <ele>618</ele>
        <time>2013-05-30T04:41:30.000Z</time>
      </trkpt>
      <trkpt lat="45.88466" lon="6.22397">
        <ele>618</ele>
        <time>2013-05-30T04:41:31.000Z</time>
      </trkpt>
      <trkpt lat="45.88464" lon="6.22395">
        <ele>618</ele>
        <time>2013-05-30T04:41:32.000Z</time>
      </trkpt>
      <trkpt lat="45.88462" lon="6.22393">
        <ele>618</ele>
        <time>2013-05-30T04:41:33.000Z</time>
      </trkpt>
      <trkpt lat="45.8846" lon="6.22391">
        <ele>618</ele>
        <time>2013-05-30T04:41:34.000Z</time>
      </trkpt>
      <trkpt lat="45.88457" lon="6.22388">
        <ele>618</ele>
        <time>2013-05-30T04:41:35.000Z</time>
      </trkpt>
      <trkpt lat="45.88455" lon="6.22386">
        <ele>618</ele>
        <time>2013-05-30T04:41:36.000Z</time>
      </trkpt>
      <trkpt lat="45.88452" lon="6.22385">
        <ele>618</ele>
        <time>2013-05-30T04:41:37.000Z</time>
      </trkpt>
      <trkpt lat="45.8845" lon="6.22383">
        <ele>619</ele>
        <time>2013-05-30T04:41:38.000Z</time>
      </trkpt>
      <trkpt lat="45.88447" lon="6.22381">
        <ele>619</ele>
        <time>2013-05-30T04:41:39.000Z</time>
      </trkpt>
      <trkpt lat="45.88444" lon="6.22378">
        <ele>619</ele>
        <time>2013-05-30T04:41:40.000Z</time>
      </trkpt>
      <trkpt lat="45.88441" lon="6.22377">
        <ele>619</ele>
        <time>2013-05-30T04:41:41.000Z</time>
      </trkpt>
      <trkpt lat="45.88438" lon="6.22375">
        <ele>619</ele>
        <time>2013-05-30T04:41:42.000Z</time>
      </trkpt>
      <trkpt lat="45.88436" lon="6.22372">
        <ele>619</ele>
        <time>2013-05-30T04:41:43.000Z</time>
      </trkpt>
      <trkpt lat="45.88433" lon="6.2237">
        <ele>618</ele>
        <time>2013-05-30T04:41:44.000Z</time>
      </trkpt>
      <trkpt lat="45.88431" lon="6.22368">
        <ele>618</ele>
        <time>2013-05-30T04:41:45.000Z</time>
      </trkpt>
      <trkpt lat="45.88428" lon="6.22365">
        <ele>618</ele>
        <time>2013-05-30T04:41:46.000Z</time>
      </trkpt>
      <trkpt lat="45.88426" lon="6.22362">
        <ele>618</ele>
        <time>2013-05-30T04:41:47.000Z</time>
      </trkpt>
      <trkpt lat="45.88423" lon="6.2236">
        <ele>618</ele>
        <time>2013-05-30T04:41:48.000Z</time>
      </trkpt>
      <trkpt lat="45.88421" lon="6.22358">
        <ele>618</ele>
        <time>2013-05-30T04:41:49.000Z</time>
      </trkpt>
      <trkpt lat="45.88419" lon="6.22356">
        <ele>618</ele>
        <time>2013-05-30T04:41:50.000Z</time>
      </trkpt>
      <trkpt lat="45.88416" lon="6.22353">
        <ele>625</ele>
        <time>2013-05-30T04:41:51.000Z</time>
      </trkpt>
      <trkpt lat="45.88413" lon="6.22351">
        <ele>624</ele>
        <time>2013-05-30T04:41:52.000Z</time>
      </trkpt>
      <trkpt lat="45.88411" lon="6.22349">
        <ele>624</ele>
        <time>2013-05-30T04:41:53.000Z</time>
      </trkpt>
      <trkpt lat="45.88409" lon="6.22347">
        <ele>624</ele>
        <time>2013-05-30T04:41:54.000Z</time>
      </trkpt>
      <trkpt lat="45.88407" lon="6.22345">
        <ele>624</ele>
        <time>2013-05-30T04:41:55.000Z</time>
      </trkpt>
      <trkpt lat="45.88405" lon="6.22343">
        <ele>624</ele>
        <time>2013-05-30T04:41:56.000Z</time>
      </trkpt>
      <trkpt lat="45.88403" lon="6.22341">
        <ele>624</ele>
        <time>2013-05-30T04:41:57.000Z</time>
      </trkpt>
      <trkpt lat="45.88401" lon="6.22338">
        <ele>624</ele>
        <time>2013-05-30T04:41:58.000Z</time>
      </trkpt>
      <trkpt lat="45.884" lon="6.22336">
        <ele>624</ele>
        <time>2013-05-30T04:41:59.000Z</time>
      </trkpt>
      <trkpt lat="45.88398" lon="6.22335">
        <ele>625</ele>
        <time>2013-05-30T04:42:00.000Z</time>
      </trkpt>
      <trkpt lat="45.88395" lon="6.22333">
        <ele>619</ele>
        <time>2013-05-30T04:42:01.000Z</time>
      </trkpt>
      <trkpt lat="45.88394" lon="6.22331">
        <ele>619</ele>
        <time>2013-05-30T04:42:02.000Z</time>
      </trkpt>
      <trkpt lat="45.88392" lon="6.22329">
        <ele>620</ele>
        <time>2013-05-30T04:42:03.000Z</time>
      </trkpt>
      <trkpt lat="45.88389" lon="6.22327">
        <ele>620</ele>
        <time>2013-05-30T04:42:04.000Z</time>
      </trkpt>
      <trkpt lat="45.88387" lon="6.22325">
        <ele>620</ele>
        <time>2013-05-30T04:42:05.000Z</time>
      </trkpt>
      <trkpt lat="45.88384" lon="6.22323">
        <ele>620</ele>
        <time>2013-05-30T04:42:06.000Z</time>
      </trkpt>
      <trkpt lat="45.88382" lon="6.22321">
        <ele>621</ele>
        <time>2013-05-30T04:42:07.000Z</time>
      </trkpt>
      <trkpt lat="45.8838" lon="6.22319">
        <ele>621</ele>
        <time>2013-05-30T04:42:08.000Z</time>
      </trkpt>
      <trkpt lat="45.88377" lon="6.22317">
        <ele>621</ele>
        <time>2013-05-30T04:42:09.000Z</time>
      </trkpt>
      <trkpt lat="45.88375" lon="6.22315">
        <ele>621</ele>
        <time>2013-05-30T04:42:10.000Z</time>
      </trkpt>
      <trkpt lat="45.88372" lon="6.22313">
        <ele>622</ele>
        <time>2013-05-30T04:42:11.000Z</time>
      </trkpt>
      <trkpt lat="45.88371" lon="6.22311">
        <ele>622</ele>
        <time>2013-05-30T04:42:12.000Z</time>
      </trkpt>
      <trkpt lat="45.88369" lon="6.22309">
        <ele>622</ele>
        <time>2013-05-30T04:42:13.000Z</time>
      </trkpt>
      <trkpt lat="45.88367" lon="6.22307">
        <ele>622</ele>
        <time>2013-05-30T04:42:14.000Z</time>
      </trkpt>
      <trkpt lat="45.88365" lon="6.22304">
        <ele>622</ele>
        <time>2013-05-30T04:42:15.000Z</time>
      </trkpt>
      <trkpt lat="45.88363" lon="6.22302">
        <ele>622</ele>
        <time>2013-05-30T04:42:16.000Z</time>
      </trkpt>
      <trkpt lat="45.88361" lon="6.223">
        <ele>622</ele>
        <time>2013-05-30T04:42:17.000Z</time>
      </trkpt>
      <trkpt lat="45.88359" lon="6.22297">
        <ele>622</ele>
        <time>2013-05-30T04:42:18.000Z</time>
      </trkpt>
      <trkpt lat="45.88356" lon="6.22295">
        <ele>622</ele>
        <time>2013-05-30T04:42:19.000Z</time>
      </trkpt>
      <trkpt lat="45.88354" lon="6.22294">
        <ele>622</ele>
        <time>2013-05-30T04:42:20.000Z</time>
      </trkpt>
      <trkpt lat="45.88352" lon="6.22292">
        <ele>622</ele>
        <time>2013-05-30T04:42:21.000Z</time>
      </trkpt>
      <trkpt lat="45.8835" lon="6.22289">
        <ele>621</ele>
        <time>2013-05-30T04:42:22.000Z</time>
      </trkpt>
      <trkpt lat="45.88348" lon="6.22287">
        <ele>621</ele>
        <time>2013-05-30T04:42:23.000Z</time>
      </trkpt>
      <trkpt lat="45.88347" lon="6.22285">
        <ele>621</ele>
        <time>2013-05-30T04:42:24.000Z</time>
      </trkpt>
      <trkpt lat="45.88345" lon="6.22282">
        <ele>621</ele>
        <time>2013-05-30T04:42:25.000Z</time>
      </trkpt>
      <trkpt lat="45.88343" lon="6.2228">
        <ele>621</ele>
        <time>2013-05-30T04:42:26.000Z</time>
      </trkpt>
      <trkpt lat="45.88342" lon="6.22278">
        <ele>621</ele>
        <time>2013-05-30T04:42:27.000Z</time>
      </trkpt>
      <trkpt lat="45.8834" lon="6.22275">
        <ele>620</ele>
        <time>2013-05-30T04:42:28.000Z</time>
      </trkpt>
      <trkpt lat="45.88338" lon="6.22273">
        <ele>620</ele>
        <time>2013-05-30T04:42:29.000Z</time>
      </trkpt>
      <trkpt lat="45.88336" lon="6.22271">
        <ele>620</ele>
        <time>2013-05-30T04:42:30.000Z</time>
      </trkpt>
      <trkpt lat="45.88334" lon="6.22269">
        <ele>620</ele>
        <time>2013-05-30T04:42:31.000Z</time>
      </trkpt>
      <trkpt lat="45.88332" lon="6.22266">
        <ele>626</ele>
        <time>2013-05-30T04:42:32.000Z</time>
      </trkpt>
      <trkpt lat="45.8833" lon="6.22264">
        <ele>626</ele>
        <time>2013-05-30T04:42:33.000Z</time>
      </trkpt>
      <trkpt lat="45.88328" lon="6.22262">
        <ele>625</ele>
        <time>2013-05-30T04:42:34.000Z</time>
      </trkpt>
      <trkpt lat="45.88327" lon="6.22259">
        <ele>624</ele>
        <time>2013-05-30T04:42:35.000Z</time>
      </trkpt>
      <trkpt lat="45.88325" lon="6.22257">
        <ele>624</ele>
        <time>2013-05-30T04:42:36.000Z</time>
      </trkpt>
      <trkpt lat="45.88323" lon="6.22255">
        <ele>624</ele>
        <time>2013-05-30T04:42:37.000Z</time>
      </trkpt>
      <trkpt lat="45.88321" lon="6.22252">
        <ele>625</ele>
        <time>2013-05-30T04:42:38.000Z</time>
      </trkpt>
      <trkpt lat="45.88318" lon="6.2225">
        <ele>626</ele>
        <time>2013-05-30T04:42:39.000Z</time>
      </trkpt>
      <trkpt lat="45.88316" lon="6.22248">
        <ele>622</ele>
        <time>2013-05-30T04:42:40.000Z</time>
      </trkpt>
      <trkpt lat="45.88314" lon="6.22246">
        <ele>622</ele>
        <time>2013-05-30T04:42:41.000Z</time>
      </trkpt>
      <trkpt lat="45.88312" lon="6.22244">
        <ele>622</ele>
        <time>2013-05-30T04:42:42.000Z</time>
      </trkpt>
      <trkpt lat="45.8831" lon="6.22242">
        <ele>623</ele>
        <time>2013-05-30T04:42:43.000Z</time>
      </trkpt>
      <trkpt lat="45.88307" lon="6.2224">
        <ele>623</ele>
        <time>2013-05-30T04:42:44.000Z</time>
      </trkpt>
      <trkpt lat="45.88305" lon="6.22238">
        <ele>623</ele>
        <time>2013-05-30T04:42:45.000Z</time>
      </trkpt>
      <trkpt lat="45.88302" lon="6.22236">
        <ele>624</ele>
        <time>2013-05-30T04:42:46.000Z</time>
      </trkpt>
      <trkpt lat="45.88299" lon="6.22233">
        <ele>624</ele>
        <time>2013-05-30T04:42:47.000Z</time>
      </trkpt>
      <trkpt lat="45.88297" lon="6.22231">
        <ele>624</ele>
        <time>2013-05-30T04:42:48.000Z</time>
      </trkpt>
      <trkpt lat="45.88294" lon="6.22229">
        <ele>625</ele>
        <time>2013-05-30T04:42:49.000Z</time>
      </trkpt>
      <trkpt lat="45.88292" lon="6.22227">
        <ele>625</ele>
        <time>2013-05-30T04:42:50.000Z</time>
      </trkpt>
      <trkpt lat="45.88289" lon="6.22225">
        <ele>625</ele>
        <time>2013-05-30T04:42:51.000Z</time>
      </trkpt>
      <trkpt lat="45.88287" lon="6.22223">
        <ele>625</ele>
        <time>2013-05-30T04:42:52.000Z</time>
      </trkpt>
      <trkpt lat="45.88285" lon="6.22221">
        <ele>625</ele>
        <time>2013-05-30T04:42:53.000Z</time>
      </trkpt>
      <trkpt lat="45.88283" lon="6.22219">
        <ele>625</ele>
        <time>2013-05-30T04:42:54.000Z</time>
      </trkpt>
      <trkpt lat="45.88281" lon="6.22217">
        <ele>625</ele>
        <time>2013-05-30T04:42:55.000Z</time>
      </trkpt>
      <trkpt lat="45.88279" lon="6.22214">
        <ele>625</ele>
        <time>2013-05-30T04:42:56.000Z</time>
      </trkpt>
      <trkpt lat="45.88277" lon="6.22212">
        <ele>625</ele>
        <time>2013-05-30T04:42:57.000Z</time>
      </trkpt>
      <trkpt lat="45.88275" lon="6.2221">
        <ele>625</ele>
        <time>2013-05-30T04:42:58.000Z</time>
      </trkpt>
      <trkpt lat="45.88274" lon="6.22208">
        <ele>625</ele>
        <time>2013-05-30T04:42:59.000Z</time>
      </trkpt>
      <trkpt lat="45.88272" lon="6.22206">
        <ele>625</ele>
        <time>2013-05-30T04:43:00.000Z</time>
      </trkpt>
      <trkpt lat="45.88271" lon="6.22204">
        <ele>625</ele>
        <time>2013-05-30T04:43:01.000Z</time>
      </trkpt>
      <trkpt lat="45.88269" lon="6.22202">
        <ele>625</ele>
        <time>2013-05-30T04:43:02.000Z</time>
      </trkpt>
      <trkpt lat="45.88267" lon="6.22199">
        <ele>625</ele>
        <time>2013-05-30T04:43:03.000Z</time>
      </trkpt>
      <trkpt lat="45.88266" lon="6.22197">
        <ele>625</ele>
        <time>2013-05-30T04:43:04.000Z</time>
      </trkpt>
      <trkpt lat="45.88264" lon="6.22195">
        <ele>625</ele>
        <time>2013-05-30T04:43:05.000Z</time>
      </trkpt>
      <trkpt lat="45.88262" lon="6.22192">
        <ele>625</ele>
        <time>2013-05-30T04:43:06.000Z</time>
      </trkpt>
      <trkpt lat="45.88261" lon="6.2219">
        <ele>625</ele>
        <time>2013-05-30T04:43:07.000Z</time>
      </trkpt>
      <trkpt lat="45.88259" lon="6.22187">
        <ele>625</ele>
        <time>2013-05-30T04:43:08.000Z</time>
      </trkpt>
      <trkpt lat="45.88257" lon="6.22185">
        <ele>625</ele>
        <time>2013-05-30T04:43:09.000Z</time>
      </trkpt>
      <trkpt lat="45.88255" lon="6.22183">
        <ele>625</ele>
        <time>2013-05-30T04:43:10.000Z</time>
      </trkpt>
      <trkpt lat="45.88254" lon="6.2218">
        <ele>624</ele>
        <time>2013-05-30T04:43:11.000Z</time>
      </trkpt>
      <trkpt lat="45.88252" lon="6.22178">
        <ele>624</ele>
        <time>2013-05-30T04:43:12.000Z</time>
      </trkpt>
      <trkpt lat="45.8825" lon="6.22176">
        <ele>624</ele>
        <time>2013-05-30T04:43:13.000Z</time>
      </trkpt>
      <trkpt lat="45.88248" lon="6.22174">
        <ele>627</ele>
        <time>2013-05-30T04:43:14.000Z</time>
      </trkpt>
      <trkpt lat="45.88246" lon="6.22171">
        <ele>627</ele>
        <time>2013-05-30T04:43:15.000Z</time>
      </trkpt>
      <trkpt lat="45.88244" lon="6.22169">
        <ele>627</ele>
        <time>2013-05-30T04:43:16.000Z</time>
      </trkpt>
      <trkpt lat="45.88243" lon="6.22167">
        <ele>627</ele>
        <time>2013-05-30T04:43:17.000Z</time>
      </trkpt>
      <trkpt lat="45.88241" lon="6.22165">
        <ele>625</ele>
        <time>2013-05-30T04:43:18.000Z</time>
      </trkpt>
      <trkpt lat="45.88239" lon="6.22163">
        <ele>625</ele>
        <time>2013-05-30T04:43:19.000Z</time>
      </trkpt>
      <trkpt lat="45.88238" lon="6.2216">
        <ele>626</ele>
        <time>2013-05-30T04:43:20.000Z</time>
      </trkpt>
      <trkpt lat="45.88236" lon="6.22158">
        <ele>626</ele>
        <time>2013-05-30T04:43:21.000Z</time>
      </trkpt>
      <trkpt lat="45.88234" lon="6.22156">
        <ele>626</ele>
        <time>2013-05-30T04:43:22.000Z</time>
      </trkpt>
      <trkpt lat="45.88233" lon="6.22154">
        <ele>626</ele>
        <time>2013-05-30T04:43:23.000Z</time>
      </trkpt>
      <trkpt lat="45.88231" lon="6.22153">
        <ele>626</ele>
        <time>2013-05-30T04:43:24.000Z</time>
      </trkpt>
      <trkpt lat="45.88228" lon="6.22151">
        <ele>626</ele>
        <time>2013-05-30T04:43:25.000Z</time>
      </trkpt>
      <trkpt lat="45.88226" lon="6.22149">
        <ele>627</ele>
        <time>2013-05-30T04:43:26.000Z</time>
      </trkpt>
      <trkpt lat="45.88224" lon="6.22148">
        <ele>627</ele>
        <time>2013-05-30T04:43:27.000Z</time>
      </trkpt>
      <trkpt lat="45.88222" lon="6.22146">
        <ele>627</ele>
        <time>2013-05-30T04:43:28.000Z</time>
      </trkpt>
      <trkpt lat="45.88221" lon="6.22144">
        <ele>627</ele>
        <time>2013-05-30T04:43:29.000Z</time>
      </trkpt>
      <trkpt lat="45.88219" lon="6.22142">
        <ele>627</ele>
        <time>2013-05-30T04:43:30.000Z</time>
      </trkpt>
      <trkpt lat="45.88217" lon="6.2214">
        <ele>627</ele>
        <time>2013-05-30T04:43:31.000Z</time>
      </trkpt>
      <trkpt lat="45.88215" lon="6.22138">
        <ele>627</ele>
        <time>2013-05-30T04:43:32.000Z</time>
      </trkpt>
      <trkpt lat="45.88213" lon="6.22136">
        <ele>627</ele>
        <time>2013-05-30T04:43:33.000Z</time>
      </trkpt>
      <trkpt lat="45.88212" lon="6.22135">
        <ele>627</ele>
        <time>2013-05-30T04:43:34.000Z</time>
      </trkpt>
      <trkpt lat="45.8821" lon="6.22132">
        <ele>627</ele>
        <time>2013-05-30T04:43:35.000Z</time>
      </trkpt>
      <trkpt lat="45.88208" lon="6.2213">
        <ele>627</ele>
        <time>2013-05-30T04:43:36.000Z</time>
      </trkpt>
      <trkpt lat="45.88206" lon="6.22129">
        <ele>627</ele>
        <time>2013-05-30T04:43:37.000Z</time>
      </trkpt>
      <trkpt lat="45.88205" lon="6.22127">
        <ele>627</ele>
        <time>2013-05-30T04:43:38.000Z</time>
      </trkpt>
      <trkpt lat="45.88203" lon="6.22126">
        <ele>627</ele>
        <time>2013-05-30T04:43:39.000Z</time>
      </trkpt>
      <trkpt lat="45.88201" lon="6.22124">
        <ele>627</ele>
        <time>2013-05-30T04:43:40.000Z</time>
      </trkpt>
      <trkpt lat="45.88198" lon="6.22123">
        <ele>627</ele>
        <time>2013-05-30T04:43:41.000Z</time>
      </trkpt>
      <trkpt lat="45.88196" lon="6.22122">
        <ele>628</ele>
        <time>2013-05-30T04:43:42.000Z</time>
      </trkpt>
      <trkpt lat="45.88194" lon="6.2212">
        <ele>628</ele>
        <time>2013-05-30T04:43:43.000Z</time>
      </trkpt>
      <trkpt lat="45.88192" lon="6.22119">
        <ele>628</ele>
        <time>2013-05-30T04:43:44.000Z</time>
      </trkpt>
      <trkpt lat="45.8819" lon="6.22117">
        <ele>628</ele>
        <time>2013-05-30T04:43:45.000Z</time>
      </trkpt>
      <trkpt lat="45.88187" lon="6.22116">
        <ele>628</ele>
        <time>2013-05-30T04:43:46.000Z</time>
      </trkpt>
      <trkpt lat="45.88185" lon="6.22114">
        <ele>628</ele>
        <time>2013-05-30T04:43:47.000Z</time>
      </trkpt>
      <trkpt lat="45.88182" lon="6.22112">
        <ele>627</ele>
        <time>2013-05-30T04:43:48.000Z</time>
      </trkpt>
      <trkpt lat="45.8818" lon="6.2211">
        <ele>627</ele>
        <time>2013-05-30T04:43:49.000Z</time>
      </trkpt>
      <trkpt lat="45.88177" lon="6.22108">
        <ele>627</ele>
        <time>2013-05-30T04:43:50.000Z</time>
      </trkpt>
      <trkpt lat="45.88175" lon="6.22107">
        <ele>627</ele>
        <time>2013-05-30T04:43:51.000Z</time>
      </trkpt>
      <trkpt lat="45.88173" lon="6.22105">
        <ele>627</ele>
        <time>2013-05-30T04:43:52.000Z</time>
      </trkpt>
      <trkpt lat="45.88171" lon="6.22103">
        <ele>627</ele>
        <time>2013-05-30T04:43:53.000Z</time>
      </trkpt>
      <trkpt lat="45.88168" lon="6.22101">
        <ele>627</ele>
        <time>2013-05-30T04:43:54.000Z</time>
      </trkpt>
      <trkpt lat="45.88165" lon="6.221">
        <ele>632</ele>
        <time>2013-05-30T04:43:55.000Z</time>
      </trkpt>
      <trkpt lat="45.88162" lon="6.22099">
        <ele>632</ele>
        <time>2013-05-30T04:43:56.000Z</time>
      </trkpt>
      <trkpt lat="45.8816" lon="6.22097">
        <ele>632</ele>
        <time>2013-05-30T04:43:57.000Z</time>
      </trkpt>
      <trkpt lat="45.88157" lon="6.22096">
        <ele>632</ele>
        <time>2013-05-30T04:43:58.000Z</time>
      </trkpt>
      <trkpt lat="45.88155" lon="6.22095">
        <ele>632</ele>
        <time>2013-05-30T04:43:59.000Z</time>
      </trkpt>
      <trkpt lat="45.88152" lon="6.22093">
        <ele>632</ele>
        <time>2013-05-30T04:44:00.000Z</time>
      </trkpt>
      <trkpt lat="45.8815" lon="6.22092">
        <ele>632</ele>
        <time>2013-05-30T04:44:01.000Z</time>
      </trkpt>
      <trkpt lat="45.88147" lon="6.2209">
        <ele>633</ele>
        <time>2013-05-30T04:44:02.000Z</time>
      </trkpt>
      <trkpt lat="45.88145" lon="6.22088">
        <ele>633</ele>
        <time>2013-05-30T04:44:03.000Z</time>
      </trkpt>
      <trkpt lat="45.88142" lon="6.22087">
        <ele>634</ele>
        <time>2013-05-30T04:44:04.000Z</time>
      </trkpt>
      <trkpt lat="45.8814" lon="6.22085">
        <ele>634</ele>
        <time>2013-05-30T04:44:05.000Z</time>
      </trkpt>
      <trkpt lat="45.88137" lon="6.22083">
        <ele>628</ele>
        <time>2013-05-30T04:44:06.000Z</time>
      </trkpt>
      <trkpt lat="45.88135" lon="6.22082">
        <ele>628</ele>
        <time>2013-05-30T04:44:07.000Z</time>
      </trkpt>
      <trkpt lat="45.88133" lon="6.2208">
        <ele>628</ele>
        <time>2013-05-30T04:44:08.000Z</time>
      </trkpt>
      <trkpt lat="45.88131" lon="6.22078">
        <ele>628</ele>
        <time>2013-05-30T04:44:09.000Z</time>
      </trkpt>
      <trkpt lat="45.88129" lon="6.22076">
        <ele>629</ele>
        <time>2013-05-30T04:44:10.000Z</time>
      </trkpt>
      <trkpt lat="45.88126" lon="6.22075">
        <ele>629</ele>
        <time>2013-05-30T04:44:11.000Z</time>
      </trkpt>
      <trkpt lat="45.88124" lon="6.22073">
        <ele>629</ele>
        <time>2013-05-30T04:44:12.000Z</time>
      </trkpt>
      <trkpt lat="45.88122" lon="6.22071">
        <ele>629</ele>
        <time>2013-05-30T04:44:13.000Z</time>
      </trkpt>
      <trkpt lat="45.8812" lon="6.22069">
        <ele>629</ele>
        <time>2013-05-30T04:44:14.000Z</time>
      </trkpt>
      <trkpt lat="45.88118" lon="6.22067">
        <ele>629</ele>
        <time>2013-05-30T04:44:15.000Z</time>
      </trkpt>
      <trkpt lat="45.88116" lon="6.22066">
        <ele>629</ele>
        <time>2013-05-30T04:44:16.000Z</time>
      </trkpt>
      <trkpt lat="45.88113" lon="6.22064">
        <ele>629</ele>
        <time>2013-05-30T04:44:17.000Z</time>
      </trkpt>
      <trkpt lat="45.88111" lon="6.22062">
        <ele>630</ele>
        <time>2013-05-30T04:44:18.000Z</time>
      </trkpt>
      <trkpt lat="45.88109" lon="6.2206">
        <ele>630</ele>
        <time>2013-05-30T04:44:19.000Z</time>
      </trkpt>
      <trkpt lat="45.88106" lon="6.22058">
        <ele>630</ele>
        <time>2013-05-30T04:44:20.000Z</time>
      </trkpt>
      <trkpt lat="45.88104" lon="6.22057">
        <ele>630</ele>
        <time>2013-05-30T04:44:21.000Z</time>
      </trkpt>
      <trkpt lat="45.88101" lon="6.22055">
        <ele>630</ele>
        <time>2013-05-30T04:44:22.000Z</time>
      </trkpt>
      <trkpt lat="45.88099" lon="6.22053">
        <ele>630</ele>
        <time>2013-05-30T04:44:23.000Z</time>
      </trkpt>
      <trkpt lat="45.88097" lon="6.22052">
        <ele>630</ele>
        <time>2013-05-30T04:44:24.000Z</time>
      </trkpt>
      <trkpt lat="45.88094" lon="6.2205">
        <ele>629</ele>
        <time>2013-05-30T04:44:25.000Z</time>
      </trkpt>
      <trkpt lat="45.88092" lon="6.22048">
        <ele>629</ele>
        <time>2013-05-30T04:44:26.000Z</time>
      </trkpt>
      <trkpt lat="45.8809" lon="6.22046">
        <ele>629</ele>
        <time>2013-05-30T04:44:27.000Z</time>
      </trkpt>
      <trkpt lat="45.88087" lon="6.22044">
        <ele>629</ele>
        <time>2013-05-30T04:44:28.000Z</time>
      </trkpt>
      <trkpt lat="45.88085" lon="6.22043">
        <ele>629</ele>
        <time>2013-05-30T04:44:29.000Z</time>
      </trkpt>
      <trkpt lat="45.88083" lon="6.22041">
        <ele>635</ele>
        <time>2013-05-30T04:44:30.000Z</time>
      </trkpt>
      <trkpt lat="45.88081" lon="6.22039">
        <ele>635</ele>
        <time>2013-05-30T04:44:31.000Z</time>
      </trkpt>
      <trkpt lat="45.88078" lon="6.22037">
        <ele>634</ele>
        <time>2013-05-30T04:44:32.000Z</time>
      </trkpt>
      <trkpt lat="45.88076" lon="6.22036">
        <ele>634</ele>
        <time>2013-05-30T04:44:33.000Z</time>
      </trkpt>
      <trkpt lat="45.88074" lon="6.22034">
        <ele>634</ele>
        <time>2013-05-30T04:44:34.000Z</time>
      </trkpt>
      <trkpt lat="45.88071" lon="6.22032">
        <ele>634</ele>
        <time>2013-05-30T04:44:35.000Z</time>
      </trkpt>
      <trkpt lat="45.88069" lon="6.2203">
        <ele>634</ele>
        <time>2013-05-30T04:44:36.000Z</time>
      </trkpt>
      <trkpt lat="45.88066" lon="6.22029">
        <ele>634</ele>
        <time>2013-05-30T04:44:37.000Z</time>
      </trkpt>
      <trkpt lat="45.88064" lon="6.22027">
        <ele>634</ele>
        <time>2013-05-30T04:44:38.000Z</time>
      </trkpt>
      <trkpt lat="45.88062" lon="6.22025">
        <ele>634</ele>
        <time>2013-05-30T04:44:39.000Z</time>
      </trkpt>
      <trkpt lat="45.88059" lon="6.22023">
        <ele>634</ele>
        <time>2013-05-30T04:44:40.000Z</time>
      </trkpt>
      <trkpt lat="45.88057" lon="6.22021">
        <ele>634</ele>
        <time>2013-05-30T04:44:41.000Z</time>
      </trkpt>
      <trkpt lat="45.88054" lon="6.22019">
        <ele>634</ele>
        <time>2013-05-30T04:44:42.000Z</time>
      </trkpt>
      <trkpt lat="45.88052" lon="6.22018">
        <ele>634</ele>
        <time>2013-05-30T04:44:43.000Z</time>
      </trkpt>
      <trkpt lat="45.8805" lon="6.22016">
        <ele>634</ele>
        <time>2013-05-30T04:44:44.000Z</time>
      </trkpt>
      <trkpt lat="45.88047" lon="6.22014">
        <ele>635</ele>
        <time>2013-05-30T04:44:45.000Z</time>
      </trkpt>
      <trkpt lat="45.88045" lon="6.22012">
        <ele>635</ele>
        <time>2013-05-30T04:44:46.000Z</time>
      </trkpt>
      <trkpt lat="45.88043" lon="6.2201">
        <ele>635</ele>
        <time>2013-05-30T04:44:47.000Z</time>
      </trkpt>
      <trkpt lat="45.88041" lon="6.22009">
        <ele>635</ele>
        <time>2013-05-30T04:44:48.000Z</time>
      </trkpt>
      <trkpt lat="45.88039" lon="6.22007">
        <ele>635</ele>
        <time>2013-05-30T04:44:49.000Z</time>
      </trkpt>
      <trkpt lat="45.88036" lon="6.22005">
        <ele>635</ele>
        <time>2013-05-30T04:44:50.000Z</time>
      </trkpt>
      <trkpt lat="45.88034" lon="6.22003">
        <ele>635</ele>
        <time>2013-05-30T04:44:51.000Z</time>
      </trkpt>
      <trkpt lat="45.88032" lon="6.22001">
        <ele>635</ele>
        <time>2013-05-30T04:44:52.000Z</time>
      </trkpt>
      <trkpt lat="45.88029" lon="6.22">
        <ele>628</ele>
        <time>2013-05-30T04:44:53.000Z</time>
      </trkpt>
      <trkpt lat="45.88027" lon="6.21998">
        <ele>629</ele>
        <time>2013-05-30T04:44:54.000Z</time>
      </trkpt>
      <trkpt lat="45.88025" lon="6.21996">
        <ele>629</ele>
        <time>2013-05-30T04:44:55.000Z</time>
      </trkpt>
      <trkpt lat="45.88022" lon="6.21994">
        <ele>629</ele>
        <time>2013-05-30T04:44:56.000Z</time>
      </trkpt>
      <trkpt lat="45.8802" lon="6.21992">
        <ele>629</ele>
        <time>2013-05-30T04:44:57.000Z</time>
      </trkpt>
      <trkpt lat="45.88018" lon="6.2199">
        <ele>630</ele>
        <time>2013-05-30T04:44:58.000Z</time>
      </trkpt>
      <trkpt lat="45.88015" lon="6.21988">
        <ele>630</ele>
        <time>2013-05-30T04:44:59.000Z</time>
      </trkpt>
      <trkpt lat="45.88013" lon="6.21986">
        <ele>630</ele>
        <time>2013-05-30T04:45:00.000Z</time>
      </trkpt>
      <trkpt lat="45.88011" lon="6.21985">
        <ele>630</ele>
        <time>2013-05-30T04:45:01.000Z</time>
      </trkpt>
      <trkpt lat="45.88008" lon="6.21983">
        <ele>630</ele>
        <time>2013-05-30T04:45:02.000Z</time>
      </trkpt>
      <trkpt lat="45.88006" lon="6.21982">
        <ele>630</ele>
        <time>2013-05-30T04:45:03.000Z</time>
      </trkpt>
      <trkpt lat="45.88003" lon="6.2198">
        <ele>630</ele>
        <time>2013-05-30T04:45:04.000Z</time>
      </trkpt>
      <trkpt lat="45.88001" lon="6.21978">
        <ele>629</ele>
        <time>2013-05-30T04:45:05.000Z</time>
      </trkpt>
      <trkpt lat="45.87999" lon="6.21977">
        <ele>635</ele>
        <time>2013-05-30T04:45:06.000Z</time>
      </trkpt>
      <trkpt lat="45.87997" lon="6.21975">
        <ele>634</ele>
        <time>2013-05-30T04:45:07.000Z</time>
      </trkpt>
      <trkpt lat="45.87994" lon="6.21974">
        <ele>634</ele>
        <time>2013-05-30T04:45:08.000Z</time>
      </trkpt>
      <trkpt lat="45.87992" lon="6.21972">
        <ele>634</ele>
        <time>2013-05-30T04:45:09.000Z</time>
      </trkpt>
      <trkpt lat="45.8799" lon="6.21971">
        <ele>634</ele>
        <time>2013-05-30T04:45:10.000Z</time>
      </trkpt>
      <trkpt lat="45.87987" lon="6.21969">
        <ele>634</ele>
        <time>2013-05-30T04:45:11.000Z</time>
      </trkpt>
      <trkpt lat="45.87985" lon="6.21967">
        <ele>634</ele>
        <time>2013-05-30T04:45:12.000Z</time>
      </trkpt>
      <trkpt lat="45.87982" lon="6.21965">
        <ele>634</ele>
        <time>2013-05-30T04:45:13.000Z</time>
      </trkpt>
      <trkpt lat="45.8798" lon="6.21963">
        <ele>634</ele>
        <time>2013-05-30T04:45:14.000Z</time>
      </trkpt>
      <trkpt lat="45.87977" lon="6.21961">
        <ele>634</ele>
        <time>2013-05-30T04:45:15.000Z</time>
      </trkpt>
      <trkpt lat="45.87975" lon="6.21959">
        <ele>634</ele>
        <time>2013-05-30T04:45:16.000Z</time>
      </trkpt>
      <trkpt lat="45.87973" lon="6.21957">
        <ele>634</ele>
        <time>2013-05-30T04:45:17.000Z</time>
      </trkpt>
      <trkpt lat="45.8797" lon="6.21955">
        <ele>634</ele>
        <time>2013-05-30T04:45:18.000Z</time>
      </trkpt>
      <trkpt lat="45.87968" lon="6.21953">
        <ele>634</ele>
        <time>2013-05-30T04:45:19.000Z</time>
      </trkpt>
      <trkpt lat="45.87965" lon="6.21951">
        <ele>634</ele>
        <time>2013-05-30T04:45:20.000Z</time>
      </trkpt>
      <trkpt lat="45.87963" lon="6.21949">
        <ele>634</ele>
        <time>2013-05-30T04:45:21.000Z</time>
      </trkpt>
      <trkpt lat="45.87961" lon="6.21947">
        <ele>634</ele>
        <time>2013-05-30T04:45:22.000Z</time>
      </trkpt>
      <trkpt lat="45.87959" lon="6.21946">
        <ele>634</ele>
        <time>2013-05-30T04:45:23.000Z</time>
      </trkpt>
      <trkpt lat="45.87957" lon="6.21943">
        <ele>634</ele>
        <time>2013-05-30T04:45:24.000Z</time>
      </trkpt>
      <trkpt lat="45.87954" lon="6.21941">
        <ele>634</ele>
        <time>2013-05-30T04:45:25.000Z</time>
      </trkpt>
      <trkpt lat="45.87952" lon="6.21939">
        <ele>634</ele>
        <time>2013-05-30T04:45:26.000Z</time>
      </trkpt>
      <trkpt lat="45.8795" lon="6.21937">
        <ele>634</ele>
        <time>2013-05-30T04:45:27.000Z</time>
      </trkpt>
      <trkpt lat="45.87947" lon="6.21935">
        <ele>634</ele>
        <time>2013-05-30T04:45:28.000Z</time>
      </trkpt>
      <trkpt lat="45.87945" lon="6.21933">
        <ele>634</ele>
        <time>2013-05-30T04:45:29.000Z</time>
      </trkpt>
      <trkpt lat="45.87942" lon="6.21931">
        <ele>634</ele>
        <time>2013-05-30T04:45:30.000Z</time>
      </trkpt>
      <trkpt lat="45.8794" lon="6.2193">
        <ele>634</ele>
        <time>2013-05-30T04:45:31.000Z</time>
      </trkpt>
      <trkpt lat="45.87937" lon="6.21928">
        <ele>634</ele>
        <time>2013-05-30T04:45:32.000Z</time>
      </trkpt>
      <trkpt lat="45.87934" lon="6.21926">
        <ele>634</ele>
        <time>2013-05-30T04:45:33.000Z</time>
      </trkpt>
      <trkpt lat="45.87932" lon="6.21924">
        <ele>634</ele>
        <time>2013-05-30T04:45:34.000Z</time>
      </trkpt>
      <trkpt lat="45.8793" lon="6.21922">
        <ele>634</ele>
        <time>2013-05-30T04:45:35.000Z</time>
      </trkpt>
      <trkpt lat="45.87927" lon="6.2192">
        <ele>634</ele>
        <time>2013-05-30T04:45:36.000Z</time>
      </trkpt>
      <trkpt lat="45.87925" lon="6.21918">
        <ele>634</ele>
        <time>2013-05-30T04:45:37.000Z</time>
      </trkpt>
      <trkpt lat="45.87923" lon="6.21916">
        <ele>631</ele>
        <time>2013-05-30T04:45:38.000Z</time>
      </trkpt>
      <trkpt lat="45.8792" lon="6.21914">
        <ele>632</ele>
        <time>2013-05-30T04:45:39.000Z</time>
      </trkpt>
      <trkpt lat="45.87918" lon="6.21912">
        <ele>631</ele>
        <time>2013-05-30T04:45:40.000Z</time>
      </trkpt>
      <trkpt lat="45.87915" lon="6.2191">
        <ele>633</ele>
        <time>2013-05-30T04:45:41.000Z</time>
      </trkpt>
      <trkpt lat="45.87913" lon="6.21909">
        <ele>633</ele>
        <time>2013-05-30T04:45:42.000Z</time>
      </trkpt>
      <trkpt lat="45.8791" lon="6.21907">
        <ele>633</ele>
        <time>2013-05-30T04:45:43.000Z</time>
      </trkpt>
      <trkpt lat="45.87908" lon="6.21905">
        <ele>633</ele>
        <time>2013-05-30T04:45:44.000Z</time>
      </trkpt>
      <trkpt lat="45.87905" lon="6.21904">
        <ele>633</ele>
        <time>2013-05-30T04:45:45.000Z</time>
      </trkpt>
      <trkpt lat="45.87903" lon="6.21902">
        <ele>634</ele>
        <time>2013-05-30T04:45:46.000Z</time>
      </trkpt>
      <trkpt lat="45.879" lon="6.219">
        <ele>634</ele>
        <time>2013-05-30T04:45:47.000Z</time>
      </trkpt>
      <trkpt lat="45.87898" lon="6.21898">
        <ele>634</ele>
        <time>2013-05-30T04:45:48.000Z</time>
      </trkpt>
      <trkpt lat="45.87896" lon="6.21897">
        <ele>634</ele>
        <time>2013-05-30T04:45:49.000Z</time>
      </trkpt>
      <trkpt lat="45.87893" lon="6.21895">
        <ele>634</ele>
        <time>2013-05-30T04:45:50.000Z</time>
      </trkpt>
      <trkpt lat="45.87891" lon="6.21894">
        <ele>634</ele>
        <time>2013-05-30T04:45:51.000Z</time>
      </trkpt>
      <trkpt lat="45.87889" lon="6.21892">
        <ele>634</ele>
        <time>2013-05-30T04:45:52.000Z</time>
      </trkpt>
      <trkpt lat="45.87887" lon="6.2189">
        <ele>634</ele>
        <time>2013-05-30T04:45:53.000Z</time>
      </trkpt>
      <trkpt lat="45.87884" lon="6.21888">
        <ele>634</ele>
        <time>2013-05-30T04:45:54.000Z</time>
      </trkpt>
      <trkpt lat="45.87881" lon="6.21886">
        <ele>634</ele>
        <time>2013-05-30T04:45:55.000Z</time>
      </trkpt>
      <trkpt lat="45.87879" lon="6.21884">
        <ele>634</ele>
        <time>2013-05-30T04:45:56.000Z</time>
      </trkpt>
      <trkpt lat="45.87876" lon="6.21883">
        <ele>634</ele>
        <time>2013-05-30T04:45:57.000Z</time>
      </trkpt>
      <trkpt lat="45.87874" lon="6.21881">
        <ele>634</ele>
        <time>2013-05-30T04:45:58.000Z</time>
      </trkpt>
      <trkpt lat="45.87871" lon="6.21879">
        <ele>634</ele>
        <time>2013-05-30T04:45:59.000Z</time>
      </trkpt>
      <trkpt lat="45.87869" lon="6.21877">
        <ele>634</ele>
        <time>2013-05-30T04:46:00.000Z</time>
      </trkpt>
      <trkpt lat="45.87866" lon="6.21875">
        <ele>634</ele>
        <time>2013-05-30T04:46:01.000Z</time>
      </trkpt>
      <trkpt lat="45.87864" lon="6.21873">
        <ele>634</ele>
        <time>2013-05-30T04:46:02.000Z</time>
      </trkpt>
      <trkpt lat="45.87861" lon="6.21871">
        <ele>634</ele>
        <time>2013-05-30T04:46:03.000Z</time>
      </trkpt>
      <trkpt lat="45.87858" lon="6.21869">
        <ele>634</ele>
        <time>2013-05-30T04:46:04.000Z</time>
      </trkpt>
      <trkpt lat="45.87856" lon="6.21867">
        <ele>634</ele>
        <time>2013-05-30T04:46:05.000Z</time>
      </trkpt>
      <trkpt lat="45.87853" lon="6.21865">
        <ele>634</ele>
        <time>2013-05-30T04:46:06.000Z</time>
      </trkpt>
      <trkpt lat="45.87851" lon="6.21863">
        <ele>634</ele>
        <time>2013-05-30T04:46:07.000Z</time>
      </trkpt>
      <trkpt lat="45.87849" lon="6.21862">
        <ele>634</ele>
        <time>2013-05-30T04:46:08.000Z</time>
      </trkpt>
      <trkpt lat="45.87846" lon="6.2186">
        <ele>634</ele>
        <time>2013-05-30T04:46:09.000Z</time>
      </trkpt>
      <trkpt lat="45.87844" lon="6.21858">
        <ele>634</ele>
        <time>2013-05-30T04:46:10.000Z</time>
      </trkpt>
      <trkpt lat="45.87842" lon="6.21856">
        <ele>634</ele>
        <time>2013-05-30T04:46:11.000Z</time>
      </trkpt>
      <trkpt lat="45.87839" lon="6.21854">
        <ele>634</ele>
        <time>2013-05-30T04:46:12.000Z</time>
      </trkpt>
      <trkpt lat="45.87837" lon="6.21852">
        <ele>633</ele>
        <time>2013-05-30T04:46:13.000Z</time>
      </trkpt>
      <trkpt lat="45.87835" lon="6.2185">
        <ele>633</ele>
        <time>2013-05-30T04:46:14.000Z</time>
      </trkpt>
      <trkpt lat="45.87832" lon="6.21849">
        <ele>638</ele>
        <time>2013-05-30T04:46:15.000Z</time>
      </trkpt>
      <trkpt lat="45.8783" lon="6.21846">
        <ele>638</ele>
        <time>2013-05-30T04:46:16.000Z</time>
      </trkpt>
      <trkpt lat="45.87828" lon="6.21844">
        <ele>637</ele>
        <time>2013-05-30T04:46:17.000Z</time>
      </trkpt>
      <trkpt lat="45.87826" lon="6.21842">
        <ele>637</ele>
        <time>2013-05-30T04:46:18.000Z</time>
      </trkpt>
      <trkpt lat="45.87823" lon="6.2184">
        <ele>638</ele>
        <time>2013-05-30T04:46:19.000Z</time>
      </trkpt>
      <trkpt lat="45.87821" lon="6.21838">
        <ele>638</ele>
        <time>2013-05-30T04:46:20.000Z</time>
      </trkpt>
      <trkpt lat="45.87819" lon="6.21836">
        <ele>638</ele>
        <time>2013-05-30T04:46:21.000Z</time>
      </trkpt>
      <trkpt lat="45.87817" lon="6.21834">
        <ele>639</ele>
        <time>2013-05-30T04:46:22.000Z</time>
      </trkpt>
      <trkpt lat="45.87815" lon="6.21833">
        <ele>634</ele>
        <time>2013-05-30T04:46:23.000Z</time>
      </trkpt>
      <trkpt lat="45.87812" lon="6.21831">
        <ele>634</ele>
        <time>2013-05-30T04:46:24.000Z</time>
      </trkpt>
      <trkpt lat="45.8781" lon="6.21829">
        <ele>634</ele>
        <time>2013-05-30T04:46:25.000Z</time>
      </trkpt>
      <trkpt lat="45.87807" lon="6.21827">
        <ele>634</ele>
        <time>2013-05-30T04:46:26.000Z</time>
      </trkpt>
      <trkpt lat="45.87805" lon="6.21825">
        <ele>634</ele>
        <time>2013-05-30T04:46:27.000Z</time>
      </trkpt>
      <trkpt lat="45.87802" lon="6.21824">
        <ele>635</ele>
        <time>2013-05-30T04:46:28.000Z</time>
      </trkpt>
      <trkpt lat="45.87799" lon="6.21822">
        <ele>635</ele>
        <time>2013-05-30T04:46:29.000Z</time>
      </trkpt>
      <trkpt lat="45.87797" lon="6.2182">
        <ele>635</ele>
        <time>2013-05-30T04:46:30.000Z</time>
      </trkpt>
      <trkpt lat="45.87794" lon="6.21819">
        <ele>635</ele>
        <time>2013-05-30T04:46:31.000Z</time>
      </trkpt>
      <trkpt lat="45.87791" lon="6.21817">
        <ele>635</ele>
        <time>2013-05-30T04:46:32.000Z</time>
      </trkpt>
      <trkpt lat="45.87789" lon="6.21815">
        <ele>636</ele>
        <time>2013-05-30T04:46:33.000Z</time>
      </trkpt>
      <trkpt lat="45.87786" lon="6.21813">
        <ele>636</ele>
        <time>2013-05-30T04:46:34.000Z</time>
      </trkpt>
      <trkpt lat="45.87784" lon="6.21812">
        <ele>636</ele>
        <time>2013-05-30T04:46:35.000Z</time>
      </trkpt>
      <trkpt lat="45.87781" lon="6.2181">
        <ele>636</ele>
        <time>2013-05-30T04:46:36.000Z</time>
      </trkpt>
      <trkpt lat="45.87778" lon="6.21808">
        <ele>636</ele>
        <time>2013-05-30T04:46:37.000Z</time>
      </trkpt>
      <trkpt lat="45.87776" lon="6.21806">
        <ele>636</ele>
        <time>2013-05-30T04:46:38.000Z</time>
      </trkpt>
      <trkpt lat="45.87773" lon="6.21804">
        <ele>636</ele>
        <time>2013-05-30T04:46:39.000Z</time>
      </trkpt>
      <trkpt lat="45.87771" lon="6.21801">
        <ele>636</ele>
        <time>2013-05-30T04:46:40.000Z</time>
      </trkpt>
      <trkpt lat="45.87768" lon="6.21799">
        <ele>636</ele>
        <time>2013-05-30T04:46:41.000Z</time>
      </trkpt>
      <trkpt lat="45.87765" lon="6.21797">
        <ele>636</ele>
        <time>2013-05-30T04:46:42.000Z</time>
      </trkpt>
      <trkpt lat="45.87763" lon="6.21795">
        <ele>636</ele>
        <time>2013-05-30T04:46:43.000Z</time>
      </trkpt>
      <trkpt lat="45.8776" lon="6.21794">
        <ele>636</ele>
        <time>2013-05-30T04:46:44.000Z</time>
      </trkpt>
      <trkpt lat="45.87758" lon="6.21792">
        <ele>636</ele>
        <time>2013-05-30T04:46:45.000Z</time>
      </trkpt>
      <trkpt lat="45.87756" lon="6.2179">
        <ele>636</ele>
        <time>2013-05-30T04:46:46.000Z</time>
      </trkpt>
      <trkpt lat="45.87753" lon="6.21788">
        <ele>636</ele>
        <time>2013-05-30T04:46:47.000Z</time>
      </trkpt>
      <trkpt lat="45.87751" lon="6.21786">
        <ele>636</ele>
        <time>2013-05-30T04:46:48.000Z</time>
      </trkpt>
      <trkpt lat="45.87748" lon="6.21784">
        <ele>643</ele>
        <time>2013-05-30T04:46:49.000Z</time>
      </trkpt>
      <trkpt lat="45.87746" lon="6.21782">
        <ele>643</ele>
        <time>2013-05-30T04:46:50.000Z</time>
      </trkpt>
      <trkpt lat="45.87743" lon="6.2178">
        <ele>643</ele>
        <time>2013-05-30T04:46:51.000Z</time>
      </trkpt>
      <trkpt lat="45.87741" lon="6.21778">
        <ele>642</ele>
        <time>2013-05-30T04:46:52.000Z</time>
      </trkpt>
      <trkpt lat="45.87738" lon="6.21776">
        <ele>642</ele>
        <time>2013-05-30T04:46:53.000Z</time>
      </trkpt>
      <trkpt lat="45.87736" lon="6.21774">
        <ele>642</ele>
        <time>2013-05-30T04:46:54.000Z</time>
      </trkpt>
      <trkpt lat="45.87733" lon="6.21772">
        <ele>642</ele>
        <time>2013-05-30T04:46:55.000Z</time>
      </trkpt>
      <trkpt lat="45.87731" lon="6.2177">
        <ele>642</ele>
        <time>2013-05-30T04:46:56.000Z</time>
      </trkpt>
      <trkpt lat="45.87729" lon="6.21767">
        <ele>642</ele>
        <time>2013-05-30T04:46:57.000Z</time>
      </trkpt>
      <trkpt lat="45.87726" lon="6.21765">
        <ele>642</ele>
        <time>2013-05-30T04:46:58.000Z</time>
      </trkpt>
      <trkpt lat="45.87724" lon="6.21763">
        <ele>642</ele>
        <time>2013-05-30T04:46:59.000Z</time>
      </trkpt>
      <trkpt lat="45.87722" lon="6.2176">
        <ele>642</ele>
        <time>2013-05-30T04:47:00.000Z</time>
      </trkpt>
      <trkpt lat="45.8772" lon="6.21758">
        <ele>643</ele>
        <time>2013-05-30T04:47:01.000Z</time>
      </trkpt>
      <trkpt lat="45.87718" lon="6.21756">
        <ele>643</ele>
        <time>2013-05-30T04:47:02.000Z</time>
      </trkpt>
      <trkpt lat="45.87715" lon="6.21754">
        <ele>643</ele>
        <time>2013-05-30T04:47:03.000Z</time>
      </trkpt>
      <trkpt lat="45.87713" lon="6.21751">
        <ele>643</ele>
        <time>2013-05-30T04:47:04.000Z</time>
      </trkpt>
      <trkpt lat="45.8771" lon="6.21749">
        <ele>638</ele>
        <time>2013-05-30T04:47:05.000Z</time>
      </trkpt>
      <trkpt lat="45.87708" lon="6.21747">
        <ele>638</ele>
        <time>2013-05-30T04:47:06.000Z</time>
      </trkpt>
      <trkpt lat="45.87706" lon="6.21744">
        <ele>638</ele>
        <time>2013-05-30T04:47:07.000Z</time>
      </trkpt>
      <trkpt lat="45.87703" lon="6.21742">
        <ele>639</ele>
        <time>2013-05-30T04:47:08.000Z</time>
      </trkpt>
      <trkpt lat="45.87701" lon="6.21739">
        <ele>639</ele>
        <time>2013-05-30T04:47:09.000Z</time>
      </trkpt>
      <trkpt lat="45.87699" lon="6.21737">
        <ele>639</ele>
        <time>2013-05-30T04:47:10.000Z</time>
      </trkpt>
      <trkpt lat="45.87696" lon="6.21735">
        <ele>639</ele>
        <time>2013-05-30T04:47:11.000Z</time>
      </trkpt>
      <trkpt lat="45.87694" lon="6.21732">
        <ele>639</ele>
        <time>2013-05-30T04:47:12.000Z</time>
      </trkpt>
      <trkpt lat="45.87692" lon="6.21729">
        <ele>639</ele>
        <time>2013-05-30T04:47:13.000Z</time>
      </trkpt>
      <trkpt lat="45.87689" lon="6.21727">
        <ele>639</ele>
        <time>2013-05-30T04:47:14.000Z</time>
      </trkpt>
      <trkpt lat="45.87687" lon="6.21724">
        <ele>639</ele>
        <time>2013-05-30T04:47:15.000Z</time>
      </trkpt>
      <trkpt lat="45.87684" lon="6.21722">
        <ele>639</ele>
        <time>2013-05-30T04:47:16.000Z</time>
      </trkpt>
      <trkpt lat="45.87681" lon="6.2172">
        <ele>639</ele>
        <time>2013-05-30T04:47:17.000Z</time>
      </trkpt>
      <trkpt lat="45.87679" lon="6.21718">
        <ele>639</ele>
        <time>2013-05-30T04:47:18.000Z</time>
      </trkpt>
      <trkpt lat="45.87677" lon="6.21715">
        <ele>639</ele>
        <time>2013-05-30T04:47:19.000Z</time>
      </trkpt>
      <trkpt lat="45.87674" lon="6.21713">
        <ele>639</ele>
        <time>2013-05-30T04:47:20.000Z</time>
      </trkpt>
      <trkpt lat="45.87672" lon="6.2171">
        <ele>639</ele>
        <time>2013-05-30T04:47:21.000Z</time>
      </trkpt>
      <trkpt lat="45.8767" lon="6.21708">
        <ele>639</ele>
        <time>2013-05-30T04:47:22.000Z</time>
      </trkpt>
      <trkpt lat="45.87668" lon="6.21705">
        <ele>638</ele>
        <time>2013-05-30T04:47:23.000Z</time>
      </trkpt>
      <trkpt lat="45.87666" lon="6.21702">
        <ele>644</ele>
        <time>2013-05-30T04:47:24.000Z</time>
      </trkpt>
      <trkpt lat="45.87664" lon="6.217">
        <ele>644</ele>
        <time>2013-05-30T04:47:25.000Z</time>
      </trkpt>
      <trkpt lat="45.87662" lon="6.21697">
        <ele>643</ele>
        <time>2013-05-30T04:47:26.000Z</time>
      </trkpt>
      <trkpt lat="45.8766" lon="6.21694">
        <ele>643</ele>
        <time>2013-05-30T04:47:27.000Z</time>
      </trkpt>
      <trkpt lat="45.87658" lon="6.21691">
        <ele>643</ele>
        <time>2013-05-30T04:47:28.000Z</time>
      </trkpt>
      <trkpt lat="45.87656" lon="6.21689">
        <ele>643</ele>
        <time>2013-05-30T04:47:29.000Z</time>
      </trkpt>
      <trkpt lat="45.87654" lon="6.21686">
        <ele>643</ele>
        <time>2013-05-30T04:47:30.000Z</time>
      </trkpt>
      <trkpt lat="45.87652" lon="6.21683">
        <ele>642</ele>
        <time>2013-05-30T04:47:31.000Z</time>
      </trkpt>
      <trkpt lat="45.8765" lon="6.21681">
        <ele>642</ele>
        <time>2013-05-30T04:47:32.000Z</time>
      </trkpt>
      <trkpt lat="45.87648" lon="6.21678">
        <ele>642</ele>
        <time>2013-05-30T04:47:33.000Z</time>
      </trkpt>
      <trkpt lat="45.87646" lon="6.21675">
        <ele>642</ele>
        <time>2013-05-30T04:47:34.000Z</time>
      </trkpt>
      <trkpt lat="45.87644" lon="6.21672">
        <ele>643</ele>
        <time>2013-05-30T04:47:35.000Z</time>
      </trkpt>
      <trkpt lat="45.87642" lon="6.2167">
        <ele>643</ele>
        <time>2013-05-30T04:47:36.000Z</time>
      </trkpt>
      <trkpt lat="45.87639" lon="6.21667">
        <ele>643</ele>
        <time>2013-05-30T04:47:37.000Z</time>
      </trkpt>
      <trkpt lat="45.87638" lon="6.21664">
        <ele>639</ele>
        <time>2013-05-30T04:47:38.000Z</time>
      </trkpt>
      <trkpt lat="45.87636" lon="6.21661">
        <ele>639</ele>
        <time>2013-05-30T04:47:39.000Z</time>
      </trkpt>
      <trkpt lat="45.87634" lon="6.21658">
        <ele>639</ele>
        <time>2013-05-30T04:47:40.000Z</time>
      </trkpt>
      <trkpt lat="45.87632" lon="6.21655">
        <ele>639</ele>
        <time>2013-05-30T04:47:41.000Z</time>
      </trkpt>
      <trkpt lat="45.8763" lon="6.21652">
        <ele>639</ele>
        <time>2013-05-30T04:47:42.000Z</time>
      </trkpt>
      <trkpt lat="45.87629" lon="6.21649">
        <ele>639</ele>
        <time>2013-05-30T04:47:43.000Z</time>
      </trkpt>
      <trkpt lat="45.87627" lon="6.21647">
        <ele>639</ele>
        <time>2013-05-30T04:47:44.000Z</time>
      </trkpt>
      <trkpt lat="45.87625" lon="6.21644">
        <ele>639</ele>
        <time>2013-05-30T04:47:45.000Z</time>
      </trkpt>
      <trkpt lat="45.87623" lon="6.21641">
        <ele>639</ele>
        <time>2013-05-30T04:47:46.000Z</time>
      </trkpt>
      <trkpt lat="45.87621" lon="6.21638">
        <ele>639</ele>
        <time>2013-05-30T04:47:47.000Z</time>
      </trkpt>
      <trkpt lat="45.87619" lon="6.21635">
        <ele>639</ele>
        <time>2013-05-30T04:47:48.000Z</time>
      </trkpt>
      <trkpt lat="45.87618" lon="6.21632">
        <ele>639</ele>
        <time>2013-05-30T04:47:49.000Z</time>
      </trkpt>
      <trkpt lat="45.87616" lon="6.21629">
        <ele>639</ele>
        <time>2013-05-30T04:47:50.000Z</time>
      </trkpt>
      <trkpt lat="45.87614" lon="6.21626">
        <ele>639</ele>
        <time>2013-05-30T04:47:51.000Z</time>
      </trkpt>
      <trkpt lat="45.87612" lon="6.21623">
        <ele>639</ele>
        <time>2013-05-30T04:47:52.000Z</time>
      </trkpt>
      <trkpt lat="45.8761" lon="6.21619">
        <ele>639</ele>
        <time>2013-05-30T04:47:53.000Z</time>
      </trkpt>
      <trkpt lat="45.87608" lon="6.21616">
        <ele>639</ele>
        <time>2013-05-30T04:47:54.000Z</time>
      </trkpt>
      <trkpt lat="45.87607" lon="6.21613">
        <ele>639</ele>
        <time>2013-05-30T04:47:55.000Z</time>
      </trkpt>
      <trkpt lat="45.87605" lon="6.2161">
        <ele>639</ele>
        <time>2013-05-30T04:47:56.000Z</time>
      </trkpt>
      <trkpt lat="45.87604" lon="6.21606">
        <ele>639</ele>
        <time>2013-05-30T04:47:57.000Z</time>
      </trkpt>
      <trkpt lat="45.87602" lon="6.21603">
        <ele>639</ele>
        <time>2013-05-30T04:47:58.000Z</time>
      </trkpt>
      <trkpt lat="45.87601" lon="6.216">
        <ele>639</ele>
        <time>2013-05-30T04:47:59.000Z</time>
      </trkpt>
      <trkpt lat="45.87599" lon="6.21597">
        <ele>639</ele>
        <time>2013-05-30T04:48:00.000Z</time>
      </trkpt>
      <trkpt lat="45.87597" lon="6.21595">
        <ele>639</ele>
        <time>2013-05-30T04:48:01.000Z</time>
      </trkpt>
      <trkpt lat="45.87595" lon="6.21592">
        <ele>639</ele>
        <time>2013-05-30T04:48:02.000Z</time>
      </trkpt>
      <trkpt lat="45.87594" lon="6.21589">
        <ele>639</ele>
        <time>2013-05-30T04:48:03.000Z</time>
      </trkpt>
      <trkpt lat="45.87592" lon="6.21586">
        <ele>640</ele>
        <time>2013-05-30T04:48:04.000Z</time>
      </trkpt>
      <trkpt lat="45.8759" lon="6.21583">
        <ele>639</ele>
        <time>2013-05-30T04:48:05.000Z</time>
      </trkpt>
      <trkpt lat="45.87588" lon="6.2158">
        <ele>639</ele>
        <time>2013-05-30T04:48:06.000Z</time>
      </trkpt>
      <trkpt lat="45.87587" lon="6.21577">
        <ele>639</ele>
        <time>2013-05-30T04:48:07.000Z</time>
      </trkpt>
      <trkpt lat="45.87585" lon="6.21574">
        <ele>639</ele>
        <time>2013-05-30T04:48:08.000Z</time>
      </trkpt>
      <trkpt lat="45.87583" lon="6.21571">
        <ele>641</ele>
        <time>2013-05-30T04:48:09.000Z</time>
      </trkpt>
      <trkpt lat="45.87582" lon="6.21567">
        <ele>641</ele>
        <time>2013-05-30T04:48:10.000Z</time>
      </trkpt>
      <trkpt lat="45.87581" lon="6.21564">
        <ele>641</ele>
        <time>2013-05-30T04:48:11.000Z</time>
      </trkpt>
      <trkpt lat="45.87579" lon="6.21561">
        <ele>641</ele>
        <time>2013-05-30T04:48:12.000Z</time>
      </trkpt>
      <trkpt lat="45.87578" lon="6.21558">
        <ele>641</ele>
        <time>2013-05-30T04:48:13.000Z</time>
      </trkpt>
      <trkpt lat="45.87576" lon="6.21555">
        <ele>641</ele>
        <time>2013-05-30T04:48:14.000Z</time>
      </trkpt>
      <trkpt lat="45.87574" lon="6.21552">
        <ele>641</ele>
        <time>2013-05-30T04:48:15.000Z</time>
      </trkpt>
      <trkpt lat="45.87573" lon="6.2155">
        <ele>641</ele>
        <time>2013-05-30T04:48:16.000Z</time>
      </trkpt>
      <trkpt lat="45.87571" lon="6.21546">
        <ele>641</ele>
        <time>2013-05-30T04:48:17.000Z</time>
      </trkpt>
      <trkpt lat="45.8757" lon="6.21544">
        <ele>641</ele>
        <time>2013-05-30T04:48:18.000Z</time>
      </trkpt>
      <trkpt lat="45.87569" lon="6.21541">
        <ele>641</ele>
        <time>2013-05-30T04:48:19.000Z</time>
      </trkpt>
      <trkpt lat="45.87567" lon="6.21538">
        <ele>641</ele>
        <time>2013-05-30T04:48:20.000Z</time>
      </trkpt>
      <trkpt lat="45.87565" lon="6.21535">
        <ele>641</ele>
        <time>2013-05-30T04:48:21.000Z</time>
      </trkpt>
      <trkpt lat="45.87564" lon="6.21532">
        <ele>641</ele>
        <time>2013-05-30T04:48:22.000Z</time>
      </trkpt>
      <trkpt lat="45.87562" lon="6.21529">
        <ele>641</ele>
        <time>2013-05-30T04:48:23.000Z</time>
      </trkpt>
      <trkpt lat="45.8756" lon="6.21526">
        <ele>641</ele>
        <time>2013-05-30T04:48:24.000Z</time>
      </trkpt>
      <trkpt lat="45.87558" lon="6.21523">
        <ele>641</ele>
        <time>2013-05-30T04:48:25.000Z</time>
      </trkpt>
      <trkpt lat="45.87556" lon="6.21521">
        <ele>641</ele>
        <time>2013-05-30T04:48:26.000Z</time>
      </trkpt>
      <trkpt lat="45.87554" lon="6.21518">
        <ele>641</ele>
        <time>2013-05-30T04:48:27.000Z</time>
      </trkpt>
      <trkpt lat="45.87553" lon="6.21515">
        <ele>641</ele>
        <time>2013-05-30T04:48:28.000Z</time>
      </trkpt>
      <trkpt lat="45.87551" lon="6.21513">
        <ele>641</ele>
        <time>2013-05-30T04:48:29.000Z</time>
      </trkpt>
      <trkpt lat="45.87549" lon="6.21511">
        <ele>641</ele>
        <time>2013-05-30T04:48:30.000Z</time>
      </trkpt>
      <trkpt lat="45.87547" lon="6.21508">
        <ele>642</ele>
        <time>2013-05-30T04:48:31.000Z</time>
      </trkpt>
      <trkpt lat="45.87545" lon="6.21506">
        <ele>642</ele>
        <time>2013-05-30T04:48:32.000Z</time>
      </trkpt>
      <trkpt lat="45.87543" lon="6.21503">
        <ele>642</ele>
        <time>2013-05-30T04:48:33.000Z</time>
      </trkpt>
      <trkpt lat="45.87541" lon="6.21501">
        <ele>642</ele>
        <time>2013-05-30T04:48:34.000Z</time>
      </trkpt>
      <trkpt lat="45.87539" lon="6.21498">
        <ele>641</ele>
        <time>2013-05-30T04:48:35.000Z</time>
      </trkpt>
      <trkpt lat="45.87537" lon="6.21496">
        <ele>641</ele>
        <time>2013-05-30T04:48:36.000Z</time>
      </trkpt>
      <trkpt lat="45.87535" lon="6.21494">
        <ele>641</ele>
        <time>2013-05-30T04:48:37.000Z</time>
      </trkpt>
      <trkpt lat="45.87533" lon="6.21492">
        <ele>641</ele>
        <time>2013-05-30T04:48:38.000Z</time>
      </trkpt>
      <trkpt lat="45.8753" lon="6.2149">
        <ele>641</ele>
        <time>2013-05-30T04:48:39.000Z</time>
      </trkpt>
      <trkpt lat="45.87528" lon="6.21488">
        <ele>642</ele>
        <time>2013-05-30T04:48:40.000Z</time>
      </trkpt>
      <trkpt lat="45.87526" lon="6.21486">
        <ele>642</ele>
        <time>2013-05-30T04:48:41.000Z</time>
      </trkpt>
      <trkpt lat="45.87524" lon="6.21484">
        <ele>642</ele>
        <time>2013-05-30T04:48:42.000Z</time>
      </trkpt>
      <trkpt lat="45.87522" lon="6.21482">
        <ele>642</ele>
        <time>2013-05-30T04:48:43.000Z</time>
      </trkpt>
      <trkpt lat="45.8752" lon="6.21479">
        <ele>642</ele>
        <time>2013-05-30T04:48:44.000Z</time>
      </trkpt>
      <trkpt lat="45.87518" lon="6.21477">
        <ele>642</ele>
        <time>2013-05-30T04:48:45.000Z</time>
      </trkpt>
      <trkpt lat="45.87515" lon="6.21475">
        <ele>642</ele>
        <time>2013-05-30T04:48:46.000Z</time>
      </trkpt>
      <trkpt lat="45.87513" lon="6.21473">
        <ele>642</ele>
        <time>2013-05-30T04:48:47.000Z</time>
      </trkpt>
      <trkpt lat="45.87511" lon="6.21472">
        <ele>642</ele>
        <time>2013-05-30T04:48:48.000Z</time>
      </trkpt>
      <trkpt lat="45.87508" lon="6.21469">
        <ele>642</ele>
        <time>2013-05-30T04:48:49.000Z</time>
      </trkpt>
      <trkpt lat="45.87506" lon="6.21467">
        <ele>642</ele>
        <time>2013-05-30T04:48:50.000Z</time>
      </trkpt>
      <trkpt lat="45.87504" lon="6.21465">
        <ele>642</ele>
        <time>2013-05-30T04:48:51.000Z</time>
      </trkpt>
      <trkpt lat="45.87502" lon="6.21462">
        <ele>642</ele>
        <time>2013-05-30T04:48:52.000Z</time>
      </trkpt>
      <trkpt lat="45.875" lon="6.2146">
        <ele>643</ele>
        <time>2013-05-30T04:48:53.000Z</time>
      </trkpt>
      <trkpt lat="45.87498" lon="6.21458">
        <ele>645</ele>
        <time>2013-05-30T04:48:54.000Z</time>
      </trkpt>
      <trkpt lat="45.87496" lon="6.21455">
        <ele>645</ele>
        <time>2013-05-30T04:48:55.000Z</time>
      </trkpt>
      <trkpt lat="45.87494" lon="6.21453">
        <ele>645</ele>
        <time>2013-05-30T04:48:56.000Z</time>
      </trkpt>
      <trkpt lat="45.87492" lon="6.2145">
        <ele>645</ele>
        <time>2013-05-30T04:48:57.000Z</time>
      </trkpt>
      <trkpt lat="45.8749" lon="6.21448">
        <ele>645</ele>
        <time>2013-05-30T04:48:58.000Z</time>
      </trkpt>
      <trkpt lat="45.87487" lon="6.21446">
        <ele>645</ele>
        <time>2013-05-30T04:48:59.000Z</time>
      </trkpt>
      <trkpt lat="45.87486" lon="6.21444">
        <ele>645</ele>
        <time>2013-05-30T04:49:00.000Z</time>
      </trkpt>
      <trkpt lat="45.87484" lon="6.21441">
        <ele>645</ele>
        <time>2013-05-30T04:49:01.000Z</time>
      </trkpt>
      <trkpt lat="45.87482" lon="6.21438">
        <ele>645</ele>
        <time>2013-05-30T04:49:02.000Z</time>
      </trkpt>
      <trkpt lat="45.8748" lon="6.21435">
        <ele>645</ele>
        <time>2013-05-30T04:49:03.000Z</time>
      </trkpt>
      <trkpt lat="45.87478" lon="6.21432">
        <ele>645</ele>
        <time>2013-05-30T04:49:04.000Z</time>
      </trkpt>
      <trkpt lat="45.87476" lon="6.2143">
        <ele>645</ele>
        <time>2013-05-30T04:49:05.000Z</time>
      </trkpt>
      <trkpt lat="45.87473" lon="6.21428">
        <ele>645</ele>
        <time>2013-05-30T04:49:06.000Z</time>
      </trkpt>
      <trkpt lat="45.87471" lon="6.21425">
        <ele>645</ele>
        <time>2013-05-30T04:49:07.000Z</time>
      </trkpt>
      <trkpt lat="45.87469" lon="6.21422">
        <ele>645</ele>
        <time>2013-05-30T04:49:08.000Z</time>
      </trkpt>
      <trkpt lat="45.87467" lon="6.2142">
        <ele>645</ele>
        <time>2013-05-30T04:49:09.000Z</time>
      </trkpt>
      <trkpt lat="45.87465" lon="6.21418">
        <ele>646</ele>
        <time>2013-05-30T04:49:10.000Z</time>
      </trkpt>
      <trkpt lat="45.87463" lon="6.21416">
        <ele>643</ele>
        <time>2013-05-30T04:49:11.000Z</time>
      </trkpt>
      <trkpt lat="45.87461" lon="6.21413">
        <ele>643</ele>
        <time>2013-05-30T04:49:12.000Z</time>
      </trkpt>
      <trkpt lat="45.87459" lon="6.21411">
        <ele>643</ele>
        <time>2013-05-30T04:49:13.000Z</time>
      </trkpt>
      <trkpt lat="45.87457" lon="6.21408">
        <ele>643</ele>
        <time>2013-05-30T04:49:14.000Z</time>
      </trkpt>
      <trkpt lat="45.87456" lon="6.21407">
        <ele>643</ele>
        <time>2013-05-30T04:49:15.000Z</time>
      </trkpt>
      <trkpt lat="45.87454" lon="6.21407">
        <ele>643</ele>
        <time>2013-05-30T04:49:16.000Z</time>
      </trkpt>
      <trkpt lat="45.87453" lon="6.21409">
        <ele>643</ele>
        <time>2013-05-30T04:49:17.000Z</time>
      </trkpt>
      <trkpt lat="45.87451" lon="6.21411">
        <ele>643</ele>
        <time>2013-05-30T04:49:18.000Z</time>
      </trkpt>
      <trkpt lat="45.8745" lon="6.21414">
        <ele>643</ele>
        <time>2013-05-30T04:49:19.000Z</time>
      </trkpt>
      <trkpt lat="45.87449" lon="6.21417">
        <ele>646</ele>
        <time>2013-05-30T04:49:20.000Z</time>
      </trkpt>
      <trkpt lat="45.87449" lon="6.2142">
        <ele>646</ele>
        <time>2013-05-30T04:49:21.000Z</time>
      </trkpt>
      <trkpt lat="45.87449" lon="6.21424">
        <ele>646</ele>
        <time>2013-05-30T04:49:22.000Z</time>
      </trkpt>
      <trkpt lat="45.87449" lon="6.21427">
        <ele>646</ele>
        <time>2013-05-30T04:49:23.000Z</time>
      </trkpt>
      <trkpt lat="45.87449" lon="6.2143">
        <ele>647</ele>
        <time>2013-05-30T04:49:24.000Z</time>
      </trkpt>
      <trkpt lat="45.87449" lon="6.21433">
        <ele>647</ele>
        <time>2013-05-30T04:49:25.000Z</time>
      </trkpt>
      <trkpt lat="45.8745" lon="6.21436">
        <ele>647</ele>
        <time>2013-05-30T04:49:26.000Z</time>
      </trkpt>
      <trkpt lat="45.87452" lon="6.21439">
        <ele>646</ele>
        <time>2013-05-30T04:49:27.000Z</time>
      </trkpt>
      <trkpt lat="45.87452" lon="6.21443">
        <ele>647</ele>
        <time>2013-05-30T04:49:28.000Z</time>
      </trkpt>
      <trkpt lat="45.87453" lon="6.21446">
        <ele>647</ele>
        <time>2013-05-30T04:49:29.000Z</time>
      </trkpt>
      <trkpt lat="45.87454" lon="6.21449">
        <ele>647</ele>
        <time>2013-05-30T04:49:30.000Z</time>
      </trkpt>
      <trkpt lat="45.87455" lon="6.21452">
        <ele>647</ele>
        <time>2013-05-30T04:49:31.000Z</time>
      </trkpt>
      <trkpt lat="45.87455" lon="6.21455">
        <ele>647</ele>
        <time>2013-05-30T04:49:32.000Z</time>
      </trkpt>
      <trkpt lat="45.87456" lon="6.21457">
        <ele>647</ele>
        <time>2013-05-30T04:49:33.000Z</time>
      </trkpt>
      <trkpt lat="45.87457" lon="6.21459">
        <ele>647</ele>
        <time>2013-05-30T04:49:34.000Z</time>
      </trkpt>
      <trkpt lat="45.87458" lon="6.21462">
        <ele>647</ele>
        <time>2013-05-30T04:49:35.000Z</time>
      </trkpt>
      <trkpt lat="45.87458" lon="6.21465">
        <ele>647</ele>
        <time>2013-05-30T04:49:36.000Z</time>
      </trkpt>
      <trkpt lat="45.8746" lon="6.21468">
        <ele>647</ele>
        <time>2013-05-30T04:49:37.000Z</time>
      </trkpt>
      <trkpt lat="45.87461" lon="6.2147">
        <ele>647</ele>
        <time>2013-05-30T04:49:38.000Z</time>
      </trkpt>
      <trkpt lat="45.87462" lon="6.21474">
        <ele>647</ele>
        <time>2013-05-30T04:49:39.000Z</time>
      </trkpt>
      <trkpt lat="45.87464" lon="6.21476">
        <ele>646</ele>
        <time>2013-05-30T04:49:40.000Z</time>
      </trkpt>
      <trkpt lat="45.87465" lon="6.21479">
        <ele>646</ele>
        <time>2013-05-30T04:49:41.000Z</time>
      </trkpt>
      <trkpt lat="45.87466" lon="6.21482">
        <ele>646</ele>
        <time>2013-05-30T04:49:42.000Z</time>
      </trkpt>
      <trkpt lat="45.87467" lon="6.21485">
        <ele>646</ele>
        <time>2013-05-30T04:49:43.000Z</time>
      </trkpt>
      <trkpt lat="45.87468" lon="6.21487">
        <ele>646</ele>
        <time>2013-05-30T04:49:44.000Z</time>
      </trkpt>
      <trkpt lat="45.87469" lon="6.2149">
        <ele>646</ele>
        <time>2013-05-30T04:49:45.000Z</time>
      </trkpt>
      <trkpt lat="45.87469" lon="6.21493">
        <ele>646</ele>
        <time>2013-05-30T04:49:46.000Z</time>
      </trkpt>
      <trkpt lat="45.8747" lon="6.21496">
        <ele>646</ele>
        <time>2013-05-30T04:49:47.000Z</time>
      </trkpt>
      <trkpt lat="45.87471" lon="6.215">
        <ele>646</ele>
        <time>2013-05-30T04:49:48.000Z</time>
      </trkpt>
      <trkpt lat="45.87472" lon="6.21503">
        <ele>647</ele>
        <time>2013-05-30T04:49:49.000Z</time>
      </trkpt>
      <trkpt lat="45.87474" lon="6.21507">
        <ele>647</ele>
        <time>2013-05-30T04:49:50.000Z</time>
      </trkpt>
      <trkpt lat="45.87475" lon="6.2151">
        <ele>647</ele>
        <time>2013-05-30T04:49:51.000Z</time>
      </trkpt>
      <trkpt lat="45.87476" lon="6.21514">
        <ele>647</ele>
        <time>2013-05-30T04:49:52.000Z</time>
      </trkpt>
      <trkpt lat="45.87477" lon="6.21518">
        <ele>647</ele>
        <time>2013-05-30T04:49:53.000Z</time>
      </trkpt>
      <trkpt lat="45.87477" lon="6.21521">
        <ele>647</ele>
        <time>2013-05-30T04:49:54.000Z</time>
      </trkpt>
      <trkpt lat="45.87477" lon="6.21525">
        <ele>647</ele>
        <time>2013-05-30T04:49:55.000Z</time>
      </trkpt>
      <trkpt lat="45.87478" lon="6.21528">
        <ele>647</ele>
        <time>2013-05-30T04:49:56.000Z</time>
      </trkpt>
      <trkpt lat="45.87477" lon="6.21532">
        <ele>647</ele>
        <time>2013-05-30T04:49:57.000Z</time>
      </trkpt>
      <trkpt lat="45.87477" lon="6.21535">
        <ele>647</ele>
        <time>2013-05-30T04:49:58.000Z</time>
      </trkpt>
      <trkpt lat="45.87478" lon="6.21539">
        <ele>647</ele>
        <time>2013-05-30T04:49:59.000Z</time>
      </trkpt>
      <trkpt lat="45.87478" lon="6.21542">
        <ele>647</ele>
        <time>2013-05-30T04:50:00.000Z</time>
      </trkpt>
      <trkpt lat="45.87479" lon="6.21546">
        <ele>647</ele>
        <time>2013-05-30T04:50:01.000Z</time>
      </trkpt>
      <trkpt lat="45.87479" lon="6.21549">
        <ele>647</ele>
        <time>2013-05-30T04:50:02.000Z</time>
      </trkpt>
      <trkpt lat="45.8748" lon="6.21553">
        <ele>647</ele>
        <time>2013-05-30T04:50:03.000Z</time>
      </trkpt>
      <trkpt lat="45.8748" lon="6.21556">
        <ele>647</ele>
        <time>2013-05-30T04:50:04.000Z</time>
      </trkpt>
      <trkpt lat="45.8748" lon="6.21559">
        <ele>647</ele>
        <time>2013-05-30T04:50:05.000Z</time>
      </trkpt>
      <trkpt lat="45.8748" lon="6.21562">
        <ele>647</ele>
        <time>2013-05-30T04:50:06.000Z</time>
      </trkpt>
      <trkpt lat="45.8748" lon="6.21566">
        <ele>647</ele>
        <time>2013-05-30T04:50:07.000Z</time>
      </trkpt>
      <trkpt lat="45.87479" lon="6.21569">
        <ele>647</ele>
        <time>2013-05-30T04:50:08.000Z</time>
      </trkpt>
      <trkpt lat="45.87479" lon="6.21572">
        <ele>647</ele>
        <time>2013-05-30T04:50:09.000Z</time>
      </trkpt>
      <trkpt lat="45.87479" lon="6.21576">
        <ele>647</ele>
        <time>2013-05-30T04:50:10.000Z</time>
      </trkpt>
      <trkpt lat="45.87478" lon="6.21579">
        <ele>647</ele>
        <time>2013-05-30T04:50:11.000Z</time>
      </trkpt>
      <trkpt lat="45.87478" lon="6.21582">
        <ele>647</ele>
        <time>2013-05-30T04:50:12.000Z</time>
      </trkpt>
      <trkpt lat="45.87477" lon="6.21585">
        <ele>648</ele>
        <time>2013-05-30T04:50:13.000Z</time>
      </trkpt>
      <trkpt lat="45.87478" lon="6.21588">
        <ele>648</ele>
        <time>2013-05-30T04:50:14.000Z</time>
      </trkpt>
      <trkpt lat="45.87478" lon="6.21591">
        <ele>648</ele>
        <time>2013-05-30T04:50:15.000Z</time>
      </trkpt>
      <trkpt lat="45.87478" lon="6.21595">
        <ele>648</ele>
        <time>2013-05-30T04:50:16.000Z</time>
      </trkpt>
      <trkpt lat="45.87477" lon="6.21598">
        <ele>648</ele>
        <time>2013-05-30T04:50:17.000Z</time>
      </trkpt>
      <trkpt lat="45.87477" lon="6.21602">
        <ele>648</ele>
        <time>2013-05-30T04:50:18.000Z</time>
      </trkpt>
      <trkpt lat="45.87476" lon="6.21605">
        <ele>648</ele>
        <time>2013-05-30T04:50:19.000Z</time>
      </trkpt>
      <trkpt lat="45.87476" lon="6.21609">
        <ele>649</ele>
        <time>2013-05-30T04:50:20.000Z</time>
      </trkpt>
      <trkpt lat="45.87475" lon="6.21612">
        <ele>649</ele>
        <time>2013-05-30T04:50:21.000Z</time>
      </trkpt>
      <trkpt lat="45.87475" lon="6.21616">
        <ele>649</ele>
        <time>2013-05-30T04:50:22.000Z</time>
      </trkpt>
      <trkpt lat="45.87475" lon="6.2162">
        <ele>649</ele>
        <time>2013-05-30T04:50:23.000Z</time>
      </trkpt>
      <trkpt lat="45.87475" lon="6.21624">
        <ele>649</ele>
        <time>2013-05-30T04:50:24.000Z</time>
      </trkpt>
      <trkpt lat="45.87475" lon="6.21628">
        <ele>649</ele>
        <time>2013-05-30T04:50:25.000Z</time>
      </trkpt>
      <trkpt lat="45.87475" lon="6.21631">
        <ele>649</ele>
        <time>2013-05-30T04:50:26.000Z</time>
      </trkpt>
      <trkpt lat="45.87474" lon="6.21635">
        <ele>649</ele>
        <time>2013-05-30T04:50:27.000Z</time>
      </trkpt>
      <trkpt lat="45.87474" lon="6.21638">
        <ele>649</ele>
        <time>2013-05-30T04:50:28.000Z</time>
      </trkpt>
      <trkpt lat="45.87473" lon="6.21641">
        <ele>649</ele>
        <time>2013-05-30T04:50:29.000Z</time>
      </trkpt>
      <trkpt lat="45.87473" lon="6.21645">
        <ele>649</ele>
        <time>2013-05-30T04:50:30.000Z</time>
      </trkpt>
      <trkpt lat="45.87473" lon="6.21649">
        <ele>649</ele>
        <time>2013-05-30T04:50:31.000Z</time>
      </trkpt>
      <trkpt lat="45.87473" lon="6.21652">
        <ele>649</ele>
        <time>2013-05-30T04:50:32.000Z</time>
      </trkpt>
      <trkpt lat="45.87472" lon="6.21655">
        <ele>649</ele>
        <time>2013-05-30T04:50:33.000Z</time>
      </trkpt>
      <trkpt lat="45.87471" lon="6.21658">
        <ele>649</ele>
        <time>2013-05-30T04:50:34.000Z</time>
      </trkpt>
      <trkpt lat="45.8747" lon="6.21661">
        <ele>649</ele>
        <time>2013-05-30T04:50:35.000Z</time>
      </trkpt>
      <trkpt lat="45.87469" lon="6.21664">
        <ele>650</ele>
        <time>2013-05-30T04:50:36.000Z</time>
      </trkpt>
      <trkpt lat="45.87467" lon="6.21667">
        <ele>653</ele>
        <time>2013-05-30T04:50:37.000Z</time>
      </trkpt>
      <trkpt lat="45.87466" lon="6.21669">
        <ele>653</ele>
        <time>2013-05-30T04:50:38.000Z</time>
      </trkpt>
      <trkpt lat="45.87464" lon="6.21671">
        <ele>654</ele>
        <time>2013-05-30T04:50:39.000Z</time>
      </trkpt>
      <trkpt lat="45.87462" lon="6.21673">
        <ele>654</ele>
        <time>2013-05-30T04:50:40.000Z</time>
      </trkpt>
      <trkpt lat="45.87461" lon="6.21675">
        <ele>654</ele>
        <time>2013-05-30T04:50:41.000Z</time>
      </trkpt>
      <trkpt lat="45.87459" lon="6.21677">
        <ele>654</ele>
        <time>2013-05-30T04:50:42.000Z</time>
      </trkpt>
      <trkpt lat="45.87457" lon="6.21678">
        <ele>654</ele>
        <time>2013-05-30T04:50:43.000Z</time>
      </trkpt>
      <trkpt lat="45.87455" lon="6.2168">
        <ele>654</ele>
        <time>2013-05-30T04:50:44.000Z</time>
      </trkpt>
      <trkpt lat="45.87452" lon="6.21682">
        <ele>654</ele>
        <time>2013-05-30T04:50:45.000Z</time>
      </trkpt>
      <trkpt lat="45.8745" lon="6.21683">
        <ele>655</ele>
        <time>2013-05-30T04:50:46.000Z</time>
      </trkpt>
      <trkpt lat="45.87447" lon="6.21685">
        <ele>655</ele>
        <time>2013-05-30T04:50:47.000Z</time>
      </trkpt>
      <trkpt lat="45.87445" lon="6.21686">
        <ele>655</ele>
        <time>2013-05-30T04:50:48.000Z</time>
      </trkpt>
      <trkpt lat="45.87442" lon="6.21687">
        <ele>655</ele>
        <time>2013-05-30T04:50:49.000Z</time>
      </trkpt>
      <trkpt lat="45.8744" lon="6.21687">
        <ele>655</ele>
        <time>2013-05-30T04:50:50.000Z</time>
      </trkpt>
      <trkpt lat="45.87437" lon="6.21689">
        <ele>655</ele>
        <time>2013-05-30T04:50:51.000Z</time>
      </trkpt>
      <trkpt lat="45.87435" lon="6.21689">
        <ele>655</ele>
        <time>2013-05-30T04:50:52.000Z</time>
      </trkpt>
      <trkpt lat="45.87432" lon="6.2169">
        <ele>655</ele>
        <time>2013-05-30T04:50:53.000Z</time>
      </trkpt>
      <trkpt lat="45.87429" lon="6.2169">
        <ele>655</ele>
        <time>2013-05-30T04:50:54.000Z</time>
      </trkpt>
      <trkpt lat="45.87426" lon="6.21691">
        <ele>655</ele>
        <time>2013-05-30T04:50:55.000Z</time>
      </trkpt>
      <trkpt lat="45.87423" lon="6.21691">
        <ele>655</ele>
        <time>2013-05-30T04:50:56.000Z</time>
      </trkpt>
      <trkpt lat="45.87421" lon="6.21692">
        <ele>655</ele>
        <time>2013-05-30T04:50:57.000Z</time>
      </trkpt>
      <trkpt lat="45.87418" lon="6.21693">
        <ele>655</ele>
        <time>2013-05-30T04:50:58.000Z</time>
      </trkpt>
      <trkpt lat="45.87416" lon="6.21694">
        <ele>656</ele>
        <time>2013-05-30T04:50:59.000Z</time>
      </trkpt>
      <trkpt lat="45.87413" lon="6.21694">
        <ele>656</ele>
        <time>2013-05-30T04:51:00.000Z</time>
      </trkpt>
      <trkpt lat="45.87411" lon="6.21695">
        <ele>656</ele>
        <time>2013-05-30T04:51:01.000Z</time>
      </trkpt>
      <trkpt lat="45.87408" lon="6.21696">
        <ele>656</ele>
        <time>2013-05-30T04:51:02.000Z</time>
      </trkpt>
      <trkpt lat="45.87406" lon="6.21697">
        <ele>656</ele>
        <time>2013-05-30T04:51:03.000Z</time>
      </trkpt>
      <trkpt lat="45.87403" lon="6.21698">
        <ele>656</ele>
        <time>2013-05-30T04:51:04.000Z</time>
      </trkpt>
      <trkpt lat="45.874" lon="6.21698">
        <ele>656</ele>
        <time>2013-05-30T04:51:05.000Z</time>
      </trkpt>
      <trkpt lat="45.87398" lon="6.217">
        <ele>656</ele>
        <time>2013-05-30T04:51:06.000Z</time>
      </trkpt>
      <trkpt lat="45.87395" lon="6.21701">
        <ele>656</ele>
        <time>2013-05-30T04:51:07.000Z</time>
      </trkpt>
      <trkpt lat="45.87393" lon="6.21701">
        <ele>656</ele>
        <time>2013-05-30T04:51:08.000Z</time>
      </trkpt>
      <trkpt lat="45.87391" lon="6.21702">
        <ele>656</ele>
        <time>2013-05-30T04:51:09.000Z</time>
      </trkpt>
      <trkpt lat="45.87388" lon="6.21702">
        <ele>656</ele>
        <time>2013-05-30T04:51:10.000Z</time>
      </trkpt>
      <trkpt lat="45.87385" lon="6.21703">
        <ele>656</ele>
        <time>2013-05-30T04:51:11.000Z</time>
      </trkpt>
      <trkpt lat="45.87383" lon="6.21704">
        <ele>656</ele>
        <time>2013-05-30T04:51:12.000Z</time>
      </trkpt>
      <trkpt lat="45.8738" lon="6.21705">
        <ele>656</ele>
        <time>2013-05-30T04:51:13.000Z</time>
      </trkpt>
      <trkpt lat="45.87377" lon="6.21706">
        <ele>656</ele>
        <time>2013-05-30T04:51:14.000Z</time>
      </trkpt>
      <trkpt lat="45.87375" lon="6.21707">
        <ele>656</ele>
        <time>2013-05-30T04:51:15.000Z</time>
      </trkpt>
      <trkpt lat="45.87372" lon="6.21708">
        <ele>656</ele>
        <time>2013-05-30T04:51:16.000Z</time>
      </trkpt>
      <trkpt lat="45.8737" lon="6.21709">
        <ele>656</ele>
        <time>2013-05-30T04:51:17.000Z</time>
      </trkpt>
      <trkpt lat="45.87367" lon="6.2171">
        <ele>656</ele>
        <time>2013-05-30T04:51:18.000Z</time>
      </trkpt>
      <trkpt lat="45.87365" lon="6.21711">
        <ele>656</ele>
        <time>2013-05-30T04:51:19.000Z</time>
      </trkpt>
      <trkpt lat="45.87363" lon="6.21713">
        <ele>656</ele>
        <time>2013-05-30T04:51:20.000Z</time>
      </trkpt>
      <trkpt lat="45.8736" lon="6.21714">
        <ele>656</ele>
        <time>2013-05-30T04:51:21.000Z</time>
      </trkpt>
      <trkpt lat="45.87357" lon="6.21715">
        <ele>656</ele>
        <time>2013-05-30T04:51:22.000Z</time>
      </trkpt>
      <trkpt lat="45.87355" lon="6.21716">
        <ele>656</ele>
        <time>2013-05-30T04:51:23.000Z</time>
      </trkpt>
      <trkpt lat="45.87352" lon="6.21718">
        <ele>657</ele>
        <time>2013-05-30T04:51:24.000Z</time>
      </trkpt>
      <trkpt lat="45.8735" lon="6.21719">
        <ele>657</ele>
        <time>2013-05-30T04:51:25.000Z</time>
      </trkpt>
      <trkpt lat="45.87347" lon="6.21721">
        <ele>657</ele>
        <time>2013-05-30T04:51:26.000Z</time>
      </trkpt>
      <trkpt lat="45.87345" lon="6.21722">
        <ele>657</ele>
        <time>2013-05-30T04:51:27.000Z</time>
      </trkpt>
      <trkpt lat="45.87343" lon="6.21723">
        <ele>657</ele>
        <time>2013-05-30T04:51:28.000Z</time>
      </trkpt>
      <trkpt lat="45.8734" lon="6.21724">
        <ele>657</ele>
        <time>2013-05-30T04:51:29.000Z</time>
      </trkpt>
      <trkpt lat="45.87338" lon="6.21725">
        <ele>657</ele>
        <time>2013-05-30T04:51:30.000Z</time>
      </trkpt>
      <trkpt lat="45.87336" lon="6.21726">
        <ele>657</ele>
        <time>2013-05-30T04:51:31.000Z</time>
      </trkpt>
      <trkpt lat="45.87334" lon="6.21727">
        <ele>657</ele>
        <time>2013-05-30T04:51:32.000Z</time>
      </trkpt>
      <trkpt lat="45.87332" lon="6.21728">
        <ele>656</ele>
        <time>2013-05-30T04:51:33.000Z</time>
      </trkpt>
      <trkpt lat="45.87329" lon="6.21728">
        <ele>656</ele>
        <time>2013-05-30T04:51:34.000Z</time>
      </trkpt>
      <trkpt lat="45.87327" lon="6.21729">
        <ele>656</ele>
        <time>2013-05-30T04:51:35.000Z</time>
      </trkpt>
      <trkpt lat="45.87325" lon="6.21731">
        <ele>656</ele>
        <time>2013-05-30T04:51:36.000Z</time>
      </trkpt>
      <trkpt lat="45.87322" lon="6.21732">
        <ele>656</ele>
        <time>2013-05-30T04:51:37.000Z</time>
      </trkpt>
      <trkpt lat="45.8732" lon="6.21733">
        <ele>656</ele>
        <time>2013-05-30T04:51:38.000Z</time>
      </trkpt>
      <trkpt lat="45.87318" lon="6.21734">
        <ele>656</ele>
        <time>2013-05-30T04:51:39.000Z</time>
      </trkpt>
      <trkpt lat="45.87316" lon="6.21735">
        <ele>656</ele>
        <time>2013-05-30T04:51:40.000Z</time>
      </trkpt>
      <trkpt lat="45.87313" lon="6.21736">
        <ele>656</ele>
        <time>2013-05-30T04:51:41.000Z</time>
      </trkpt>
      <trkpt lat="45.87311" lon="6.21737">
        <ele>656</ele>
        <time>2013-05-30T04:51:42.000Z</time>
      </trkpt>
      <trkpt lat="45.87309" lon="6.21737">
        <ele>655</ele>
        <time>2013-05-30T04:51:43.000Z</time>
      </trkpt>
      <trkpt lat="45.87307" lon="6.21738">
        <ele>655</ele>
        <time>2013-05-30T04:51:44.000Z</time>
      </trkpt>
      <trkpt lat="45.87304" lon="6.21738">
        <ele>655</ele>
        <time>2013-05-30T04:51:45.000Z</time>
      </trkpt>
      <trkpt lat="45.87302" lon="6.21739">
        <ele>655</ele>
        <time>2013-05-30T04:51:46.000Z</time>
      </trkpt>
      <trkpt lat="45.873" lon="6.2174">
        <ele>655</ele>
        <time>2013-05-30T04:51:47.000Z</time>
      </trkpt>
      <trkpt lat="45.87298" lon="6.21742">
        <ele>655</ele>
        <time>2013-05-30T04:51:48.000Z</time>
      </trkpt>
      <trkpt lat="45.87296" lon="6.21743">
        <ele>655</ele>
        <time>2013-05-30T04:51:49.000Z</time>
      </trkpt>
      <trkpt lat="45.87294" lon="6.21744">
        <ele>655</ele>
        <time>2013-05-30T04:51:50.000Z</time>
      </trkpt>
      <trkpt lat="45.87291" lon="6.21745">
        <ele>655</ele>
        <time>2013-05-30T04:51:51.000Z</time>
      </trkpt>
      <trkpt lat="45.87289" lon="6.21747">
        <ele>655</ele>
        <time>2013-05-30T04:51:52.000Z</time>
      </trkpt>
      <trkpt lat="45.87287" lon="6.21747">
        <ele>655</ele>
        <time>2013-05-30T04:51:53.000Z</time>
      </trkpt>
      <trkpt lat="45.87284" lon="6.21748">
        <ele>655</ele>
        <time>2013-05-30T04:51:54.000Z</time>
      </trkpt>
      <trkpt lat="45.87282" lon="6.21749">
        <ele>655</ele>
        <time>2013-05-30T04:51:55.000Z</time>
      </trkpt>
      <trkpt lat="45.87279" lon="6.21749">
        <ele>655</ele>
        <time>2013-05-30T04:51:56.000Z</time>
      </trkpt>
      <trkpt lat="45.87277" lon="6.2175">
        <ele>655</ele>
        <time>2013-05-30T04:51:57.000Z</time>
      </trkpt>
      <trkpt lat="45.87274" lon="6.2175">
        <ele>655</ele>
        <time>2013-05-30T04:51:58.000Z</time>
      </trkpt>
      <trkpt lat="45.87272" lon="6.2175">
        <ele>662</ele>
        <time>2013-05-30T04:51:59.000Z</time>
      </trkpt>
      <trkpt lat="45.8727" lon="6.2175">
        <ele>662</ele>
        <time>2013-05-30T04:52:00.000Z</time>
      </trkpt>
      <trkpt lat="45.87268" lon="6.21751">
        <ele>662</ele>
        <time>2013-05-30T04:52:01.000Z</time>
      </trkpt>
      <trkpt lat="45.87265" lon="6.21751">
        <ele>662</ele>
        <time>2013-05-30T04:52:02.000Z</time>
      </trkpt>
      <trkpt lat="45.87263" lon="6.21752">
        <ele>661</ele>
        <time>2013-05-30T04:52:03.000Z</time>
      </trkpt>
      <trkpt lat="45.87261" lon="6.21752">
        <ele>661</ele>
        <time>2013-05-30T04:52:04.000Z</time>
      </trkpt>
      <trkpt lat="45.87258" lon="6.21752">
        <ele>660</ele>
        <time>2013-05-30T04:52:05.000Z</time>
      </trkpt>
      <trkpt lat="45.87256" lon="6.21752">
        <ele>660</ele>
        <time>2013-05-30T04:52:06.000Z</time>
      </trkpt>
      <trkpt lat="45.87254" lon="6.21753">
        <ele>659</ele>
        <time>2013-05-30T04:52:07.000Z</time>
      </trkpt>
      <trkpt lat="45.87251" lon="6.21753">
        <ele>659</ele>
        <time>2013-05-30T04:52:08.000Z</time>
      </trkpt>
      <trkpt lat="45.87249" lon="6.21754">
        <ele>659</ele>
        <time>2013-05-30T04:52:09.000Z</time>
      </trkpt>
      <trkpt lat="45.87247" lon="6.21754">
        <ele>659</ele>
        <time>2013-05-30T04:52:10.000Z</time>
      </trkpt>
      <trkpt lat="45.87244" lon="6.21754">
        <ele>660</ele>
        <time>2013-05-30T04:52:11.000Z</time>
      </trkpt>
      <trkpt lat="45.87242" lon="6.21755">
        <ele>660</ele>
        <time>2013-05-30T04:52:12.000Z</time>
      </trkpt>
      <trkpt lat="45.8724" lon="6.21755">
        <ele>661</ele>
        <time>2013-05-30T04:52:13.000Z</time>
      </trkpt>
      <trkpt lat="45.87237" lon="6.21755">
        <ele>661</ele>
        <time>2013-05-30T04:52:14.000Z</time>
      </trkpt>
      <trkpt lat="45.87234" lon="6.21756">
        <ele>662</ele>
        <time>2013-05-30T04:52:15.000Z</time>
      </trkpt>
      <trkpt lat="45.87232" lon="6.21757">
        <ele>662</ele>
        <time>2013-05-30T04:52:16.000Z</time>
      </trkpt>
      <trkpt lat="45.87229" lon="6.21757">
        <ele>662</ele>
        <time>2013-05-30T04:52:17.000Z</time>
      </trkpt>
      <trkpt lat="45.87227" lon="6.21758">
        <ele>663</ele>
        <time>2013-05-30T04:52:18.000Z</time>
      </trkpt>
      <trkpt lat="45.87225" lon="6.21758">
        <ele>663</ele>
        <time>2013-05-30T04:52:19.000Z</time>
      </trkpt>
      <trkpt lat="45.87222" lon="6.21758">
        <ele>663</ele>
        <time>2013-05-30T04:52:20.000Z</time>
      </trkpt>
      <trkpt lat="45.8722" lon="6.21759">
        <ele>663</ele>
        <time>2013-05-30T04:52:21.000Z</time>
      </trkpt>
      <trkpt lat="45.87217" lon="6.2176">
        <ele>663</ele>
        <time>2013-05-30T04:52:22.000Z</time>
      </trkpt>
      <trkpt lat="45.87214" lon="6.21761">
        <ele>663</ele>
        <time>2013-05-30T04:52:23.000Z</time>
      </trkpt>
      <trkpt lat="45.87212" lon="6.21761">
        <ele>664</ele>
        <time>2013-05-30T04:52:24.000Z</time>
      </trkpt>
      <trkpt lat="45.8721" lon="6.21762">
        <ele>664</ele>
        <time>2013-05-30T04:52:25.000Z</time>
      </trkpt>
      <trkpt lat="45.87207" lon="6.21762">
        <ele>664</ele>
        <time>2013-05-30T04:52:26.000Z</time>
      </trkpt>
      <trkpt lat="45.87205" lon="6.21763">
        <ele>664</ele>
        <time>2013-05-30T04:52:27.000Z</time>
      </trkpt>
      <trkpt lat="45.87202" lon="6.21764">
        <ele>664</ele>
        <time>2013-05-30T04:52:28.000Z</time>
      </trkpt>
      <trkpt lat="45.872" lon="6.21765">
        <ele>664</ele>
        <time>2013-05-30T04:52:29.000Z</time>
      </trkpt>
      <trkpt lat="45.87197" lon="6.21766">
        <ele>664</ele>
        <time>2013-05-30T04:52:30.000Z</time>
      </trkpt>
      <trkpt lat="45.87195" lon="6.21766">
        <ele>664</ele>
        <time>2013-05-30T04:52:31.000Z</time>
      </trkpt>
      <trkpt lat="45.87192" lon="6.21766">
        <ele>664</ele>
        <time>2013-05-30T04:52:32.000Z</time>
      </trkpt>
      <trkpt lat="45.8719" lon="6.21767">
        <ele>664</ele>
        <time>2013-05-30T04:52:33.000Z</time>
      </trkpt>
      <trkpt lat="45.87187" lon="6.21767">
        <ele>663</ele>
        <time>2013-05-30T04:52:34.000Z</time>
      </trkpt>
      <trkpt lat="45.87185" lon="6.21767">
        <ele>663</ele>
        <time>2013-05-30T04:52:35.000Z</time>
      </trkpt>
      <trkpt lat="45.87183" lon="6.21767">
        <ele>663</ele>
        <time>2013-05-30T04:52:36.000Z</time>
      </trkpt>
      <trkpt lat="45.8718" lon="6.21768">
        <ele>663</ele>
        <time>2013-05-30T04:52:37.000Z</time>
      </trkpt>
      <trkpt lat="45.87178" lon="6.21768">
        <ele>663</ele>
        <time>2013-05-30T04:52:38.000Z</time>
      </trkpt>
      <trkpt lat="45.87176" lon="6.21768">
        <ele>663</ele>
        <time>2013-05-30T04:52:39.000Z</time>
      </trkpt>
      <trkpt lat="45.87173" lon="6.21769">
        <ele>663</ele>
        <time>2013-05-30T04:52:40.000Z</time>
      </trkpt>
      <trkpt lat="45.87171" lon="6.21769">
        <ele>663</ele>
        <time>2013-05-30T04:52:41.000Z</time>
      </trkpt>
      <trkpt lat="45.87169" lon="6.2177">
        <ele>663</ele>
        <time>2013-05-30T04:52:42.000Z</time>
      </trkpt>
      <trkpt lat="45.87167" lon="6.2177">
        <ele>664</ele>
        <time>2013-05-30T04:52:43.000Z</time>
      </trkpt>
      <trkpt lat="45.87164" lon="6.21771">
        <ele>664</ele>
        <time>2013-05-30T04:52:44.000Z</time>
      </trkpt>
      <trkpt lat="45.87161" lon="6.21772">
        <ele>664</ele>
        <time>2013-05-30T04:52:45.000Z</time>
      </trkpt>
      <trkpt lat="45.87159" lon="6.21772">
        <ele>664</ele>
        <time>2013-05-30T04:52:46.000Z</time>
      </trkpt>
      <trkpt lat="45.87157" lon="6.21772">
        <ele>664</ele>
        <time>2013-05-30T04:52:47.000Z</time>
      </trkpt>
      <trkpt lat="45.87154" lon="6.21771">
        <ele>664</ele>
        <time>2013-05-30T04:52:48.000Z</time>
      </trkpt>
      <trkpt lat="45.87152" lon="6.21772">
        <ele>664</ele>
        <time>2013-05-30T04:52:49.000Z</time>
      </trkpt>
      <trkpt lat="45.8715" lon="6.21772">
        <ele>665</ele>
        <time>2013-05-30T04:52:50.000Z</time>
      </trkpt>
      <trkpt lat="45.87148" lon="6.21773">
        <ele>665</ele>
        <time>2013-05-30T04:52:51.000Z</time>
      </trkpt>
      <trkpt lat="45.87145" lon="6.21773">
        <ele>665</ele>
        <time>2013-05-30T04:52:52.000Z</time>
      </trkpt>
      <trkpt lat="45.87143" lon="6.21774">
        <ele>665</ele>
        <time>2013-05-30T04:52:53.000Z</time>
      </trkpt>
      <trkpt lat="45.87141" lon="6.21774">
        <ele>665</ele>
        <time>2013-05-30T04:52:54.000Z</time>
      </trkpt>
      <trkpt lat="45.87139" lon="6.21775">
        <ele>665</ele>
        <time>2013-05-30T04:52:55.000Z</time>
      </trkpt>
      <trkpt lat="45.87137" lon="6.21775">
        <ele>665</ele>
        <time>2013-05-30T04:52:56.000Z</time>
      </trkpt>
      <trkpt lat="45.87135" lon="6.21776">
        <ele>665</ele>
        <time>2013-05-30T04:52:57.000Z</time>
      </trkpt>
      <trkpt lat="45.87133" lon="6.21776">
        <ele>666</ele>
        <time>2013-05-30T04:52:58.000Z</time>
      </trkpt>
      <trkpt lat="45.87132" lon="6.21777">
        <ele>666</ele>
        <time>2013-05-30T04:52:59.000Z</time>
      </trkpt>
      <trkpt lat="45.8713" lon="6.21777">
        <ele>666</ele>
        <time>2013-05-30T04:53:00.000Z</time>
      </trkpt>
      <trkpt lat="45.87127" lon="6.21777">
        <ele>666</ele>
        <time>2013-05-30T04:53:01.000Z</time>
      </trkpt>
      <trkpt lat="45.87125" lon="6.21777">
        <ele>666</ele>
        <time>2013-05-30T04:53:02.000Z</time>
      </trkpt>
      <trkpt lat="45.87123" lon="6.21777">
        <ele>666</ele>
        <time>2013-05-30T04:53:03.000Z</time>
      </trkpt>
      <trkpt lat="45.87121" lon="6.21778">
        <ele>666</ele>
        <time>2013-05-30T04:53:04.000Z</time>
      </trkpt>
      <trkpt lat="45.87118" lon="6.21778">
        <ele>666</ele>
        <time>2013-05-30T04:53:05.000Z</time>
      </trkpt>
      <trkpt lat="45.87116" lon="6.21779">
        <ele>666</ele>
        <time>2013-05-30T04:53:06.000Z</time>
      </trkpt>
      <trkpt lat="45.87113" lon="6.2178">
        <ele>666</ele>
        <time>2013-05-30T04:53:07.000Z</time>
      </trkpt>
      <trkpt lat="45.87111" lon="6.21781">
        <ele>666</ele>
        <time>2013-05-30T04:53:08.000Z</time>
      </trkpt>
      <trkpt lat="45.87108" lon="6.21782">
        <ele>666</ele>
        <time>2013-05-30T04:53:09.000Z</time>
      </trkpt>
      <trkpt lat="45.87106" lon="6.21783">
        <ele>666</ele>
        <time>2013-05-30T04:53:10.000Z</time>
      </trkpt>
      <trkpt lat="45.87103" lon="6.21784">
        <ele>666</ele>
        <time>2013-05-30T04:53:11.000Z</time>
      </trkpt>
      <trkpt lat="45.87101" lon="6.21785">
        <ele>666</ele>
        <time>2013-05-30T04:53:12.000Z</time>
      </trkpt>
      <trkpt lat="45.87098" lon="6.21787">
        <ele>667</ele>
        <time>2013-05-30T04:53:13.000Z</time>
      </trkpt>
      <trkpt lat="45.87095" lon="6.21788">
        <ele>667</ele>
        <time>2013-05-30T04:53:14.000Z</time>
      </trkpt>
      <trkpt lat="45.87092" lon="6.21788">
        <ele>667</ele>
        <time>2013-05-30T04:53:15.000Z</time>
      </trkpt>
      <trkpt lat="45.8709" lon="6.21789">
        <ele>667</ele>
        <time>2013-05-30T04:53:16.000Z</time>
      </trkpt>
      <trkpt lat="45.87087" lon="6.21789">
        <ele>667</ele>
        <time>2013-05-30T04:53:17.000Z</time>
      </trkpt>
      <trkpt lat="45.87085" lon="6.2179">
        <ele>667</ele>
        <time>2013-05-30T04:53:18.000Z</time>
      </trkpt>
      <trkpt lat="45.87082" lon="6.21791">
        <ele>668</ele>
        <time>2013-05-30T04:53:19.000Z</time>
      </trkpt>
      <trkpt lat="45.8708" lon="6.21792">
        <ele>668</ele>
        <time>2013-05-30T04:53:20.000Z</time>
      </trkpt>
      <trkpt lat="45.87077" lon="6.21792">
        <ele>668</ele>
        <time>2013-05-30T04:53:21.000Z</time>
      </trkpt>
      <trkpt lat="45.87075" lon="6.21793">
        <ele>668</ele>
        <time>2013-05-30T04:53:22.000Z</time>
      </trkpt>
      <trkpt lat="45.87072" lon="6.21794">
        <ele>668</ele>
        <time>2013-05-30T04:53:23.000Z</time>
      </trkpt>
      <trkpt lat="45.87069" lon="6.21794">
        <ele>668</ele>
        <time>2013-05-30T04:53:24.000Z</time>
      </trkpt>
      <trkpt lat="45.87067" lon="6.21795">
        <ele>668</ele>
        <time>2013-05-30T04:53:25.000Z</time>
      </trkpt>
      <trkpt lat="45.87064" lon="6.21795">
        <ele>668</ele>
        <time>2013-05-30T04:53:26.000Z</time>
      </trkpt>
      <trkpt lat="45.87061" lon="6.21796">
        <ele>669</ele>
        <time>2013-05-30T04:53:27.000Z</time>
      </trkpt>
      <trkpt lat="45.87059" lon="6.21797">
        <ele>669</ele>
        <time>2013-05-30T04:53:28.000Z</time>
      </trkpt>
      <trkpt lat="45.87056" lon="6.21797">
        <ele>669</ele>
        <time>2013-05-30T04:53:29.000Z</time>
      </trkpt>
      <trkpt lat="45.87054" lon="6.21798">
        <ele>669</ele>
        <time>2013-05-30T04:53:30.000Z</time>
      </trkpt>
      <trkpt lat="45.87052" lon="6.21798">
        <ele>669</ele>
        <time>2013-05-30T04:53:31.000Z</time>
      </trkpt>
      <trkpt lat="45.87049" lon="6.21798">
        <ele>669</ele>
        <time>2013-05-30T04:53:32.000Z</time>
      </trkpt>
      <trkpt lat="45.87047" lon="6.21799">
        <ele>669</ele>
        <time>2013-05-30T04:53:33.000Z</time>
      </trkpt>
      <trkpt lat="45.87044" lon="6.218">
        <ele>669</ele>
        <time>2013-05-30T04:53:34.000Z</time>
      </trkpt>
      <trkpt lat="45.87042" lon="6.21802">
        <ele>669</ele>
        <time>2013-05-30T04:53:35.000Z</time>
      </trkpt>
      <trkpt lat="45.8704" lon="6.21803">
        <ele>669</ele>
        <time>2013-05-30T04:53:36.000Z</time>
      </trkpt>
      <trkpt lat="45.87038" lon="6.21804">
        <ele>669</ele>
        <time>2013-05-30T04:53:37.000Z</time>
      </trkpt>
      <trkpt lat="45.87036" lon="6.21806">
        <ele>669</ele>
        <time>2013-05-30T04:53:38.000Z</time>
      </trkpt>
      <trkpt lat="45.87034" lon="6.21807">
        <ele>670</ele>
        <time>2013-05-30T04:53:39.000Z</time>
      </trkpt>
      <trkpt lat="45.87031" lon="6.21808">
        <ele>670</ele>
        <time>2013-05-30T04:53:40.000Z</time>
      </trkpt>
      <trkpt lat="45.87029" lon="6.21809">
        <ele>670</ele>
        <time>2013-05-30T04:53:41.000Z</time>
      </trkpt>
      <trkpt lat="45.87027" lon="6.2181">
        <ele>670</ele>
        <time>2013-05-30T04:53:42.000Z</time>
      </trkpt>
      <trkpt lat="45.87024" lon="6.2181">
        <ele>670</ele>
        <time>2013-05-30T04:53:43.000Z</time>
      </trkpt>
      <trkpt lat="45.87022" lon="6.21811">
        <ele>670</ele>
        <time>2013-05-30T04:53:44.000Z</time>
      </trkpt>
      <trkpt lat="45.87019" lon="6.21812">
        <ele>670</ele>
        <time>2013-05-30T04:53:45.000Z</time>
      </trkpt>
      <trkpt lat="45.87017" lon="6.21813">
        <ele>671</ele>
        <time>2013-05-30T04:53:46.000Z</time>
      </trkpt>
      <trkpt lat="45.87014" lon="6.21814">
        <ele>671</ele>
        <time>2013-05-30T04:53:47.000Z</time>
      </trkpt>
      <trkpt lat="45.87012" lon="6.21815">
        <ele>671</ele>
        <time>2013-05-30T04:53:48.000Z</time>
      </trkpt>
      <trkpt lat="45.8701" lon="6.21816">
        <ele>671</ele>
        <time>2013-05-30T04:53:49.000Z</time>
      </trkpt>
      <trkpt lat="45.87008" lon="6.21816">
        <ele>671</ele>
        <time>2013-05-30T04:53:50.000Z</time>
      </trkpt>
      <trkpt lat="45.87006" lon="6.21817">
        <ele>672</ele>
        <time>2013-05-30T04:53:51.000Z</time>
      </trkpt>
      <trkpt lat="45.87003" lon="6.21817">
        <ele>672</ele>
        <time>2013-05-30T04:53:52.000Z</time>
      </trkpt>
      <trkpt lat="45.87001" lon="6.21817">
        <ele>672</ele>
        <time>2013-05-30T04:53:53.000Z</time>
      </trkpt>
      <trkpt lat="45.86998" lon="6.21818">
        <ele>672</ele>
        <time>2013-05-30T04:53:54.000Z</time>
      </trkpt>
      <trkpt lat="45.86996" lon="6.21819">
        <ele>672</ele>
        <time>2013-05-30T04:53:55.000Z</time>
      </trkpt>
      <trkpt lat="45.86994" lon="6.2182">
        <ele>672</ele>
        <time>2013-05-30T04:53:56.000Z</time>
      </trkpt>
      <trkpt lat="45.86991" lon="6.2182">
        <ele>672</ele>
        <time>2013-05-30T04:53:57.000Z</time>
      </trkpt>
      <trkpt lat="45.86989" lon="6.21822">
        <ele>672</ele>
        <time>2013-05-30T04:53:58.000Z</time>
      </trkpt>
      <trkpt lat="45.86987" lon="6.21822">
        <ele>672</ele>
        <time>2013-05-30T04:53:59.000Z</time>
      </trkpt>
      <trkpt lat="45.86984" lon="6.21823">
        <ele>672</ele>
        <time>2013-05-30T04:54:00.000Z</time>
      </trkpt>
      <trkpt lat="45.86982" lon="6.21823">
        <ele>672</ele>
        <time>2013-05-30T04:54:01.000Z</time>
      </trkpt>
      <trkpt lat="45.86979" lon="6.21824">
        <ele>672</ele>
        <time>2013-05-30T04:54:02.000Z</time>
      </trkpt>
      <trkpt lat="45.86977" lon="6.21824">
        <ele>672</ele>
        <time>2013-05-30T04:54:03.000Z</time>
      </trkpt>
      <trkpt lat="45.86975" lon="6.21824">
        <ele>672</ele>
        <time>2013-05-30T04:54:04.000Z</time>
      </trkpt>
      <trkpt lat="45.86972" lon="6.21824">
        <ele>672</ele>
        <time>2013-05-30T04:54:05.000Z</time>
      </trkpt>
      <trkpt lat="45.86969" lon="6.21824">
        <ele>671</ele>
        <time>2013-05-30T04:54:06.000Z</time>
      </trkpt>
      <trkpt lat="45.86967" lon="6.21824">
        <ele>671</ele>
        <time>2013-05-30T04:54:07.000Z</time>
      </trkpt>
      <trkpt lat="45.86964" lon="6.21824">
        <ele>671</ele>
        <time>2013-05-30T04:54:08.000Z</time>
      </trkpt>
      <trkpt lat="45.86962" lon="6.21824">
        <ele>671</ele>
        <time>2013-05-30T04:54:09.000Z</time>
      </trkpt>
      <trkpt lat="45.86959" lon="6.21824">
        <ele>671</ele>
        <time>2013-05-30T04:54:10.000Z</time>
      </trkpt>
      <trkpt lat="45.86957" lon="6.21826">
        <ele>672</ele>
        <time>2013-05-30T04:54:11.000Z</time>
      </trkpt>
      <trkpt lat="45.86955" lon="6.21827">
        <ele>672</ele>
        <time>2013-05-30T04:54:12.000Z</time>
      </trkpt>
      <trkpt lat="45.86953" lon="6.21827">
        <ele>672</ele>
        <time>2013-05-30T04:54:13.000Z</time>
      </trkpt>
      <trkpt lat="45.8695" lon="6.21827">
        <ele>672</ele>
        <time>2013-05-30T04:54:14.000Z</time>
      </trkpt>
      <trkpt lat="45.86948" lon="6.21828">
        <ele>672</ele>
        <time>2013-05-30T04:54:15.000Z</time>
      </trkpt>
      <trkpt lat="45.86945" lon="6.21828">
        <ele>672</ele>
        <time>2013-05-30T04:54:16.000Z</time>
      </trkpt>
      <trkpt lat="45.86943" lon="6.21829">
        <ele>672</ele>
        <time>2013-05-30T04:54:17.000Z</time>
      </trkpt>
      <trkpt lat="45.8694" lon="6.21829">
        <ele>673</ele>
        <time>2013-05-30T04:54:18.000Z</time>
      </trkpt>
      <trkpt lat="45.86937" lon="6.21828">
        <ele>673</ele>
        <time>2013-05-30T04:54:19.000Z</time>
      </trkpt>
      <trkpt lat="45.86935" lon="6.21829">
        <ele>673</ele>
        <time>2013-05-30T04:54:20.000Z</time>
      </trkpt>
      <trkpt lat="45.86932" lon="6.21829">
        <ele>673</ele>
        <time>2013-05-30T04:54:21.000Z</time>
      </trkpt>
      <trkpt lat="45.86929" lon="6.21829">
        <ele>674</ele>
        <time>2013-05-30T04:54:22.000Z</time>
      </trkpt>
      <trkpt lat="45.86927" lon="6.21829">
        <ele>674</ele>
        <time>2013-05-30T04:54:23.000Z</time>
      </trkpt>
      <trkpt lat="45.86924" lon="6.21829">
        <ele>675</ele>
        <time>2013-05-30T04:54:24.000Z</time>
      </trkpt>
      <trkpt lat="45.86922" lon="6.2183">
        <ele>675</ele>
        <time>2013-05-30T04:54:25.000Z</time>
      </trkpt>
      <trkpt lat="45.86919" lon="6.2183">
        <ele>676</ele>
        <time>2013-05-30T04:54:26.000Z</time>
      </trkpt>
      <trkpt lat="45.86917" lon="6.2183">
        <ele>676</ele>
        <time>2013-05-30T04:54:27.000Z</time>
      </trkpt>
      <trkpt lat="45.86915" lon="6.2183">
        <ele>676</ele>
        <time>2013-05-30T04:54:28.000Z</time>
      </trkpt>
      <trkpt lat="45.86912" lon="6.21831">
        <ele>676</ele>
        <time>2013-05-30T04:54:29.000Z</time>
      </trkpt>
      <trkpt lat="45.8691" lon="6.21831">
        <ele>675</ele>
        <time>2013-05-30T04:54:30.000Z</time>
      </trkpt>
      <trkpt lat="45.86907" lon="6.21832">
        <ele>675</ele>
        <time>2013-05-30T04:54:31.000Z</time>
      </trkpt>
      <trkpt lat="45.86905" lon="6.21832">
        <ele>675</ele>
        <time>2013-05-30T04:54:32.000Z</time>
      </trkpt>
      <trkpt lat="45.86902" lon="6.21833">
        <ele>675</ele>
        <time>2013-05-30T04:54:33.000Z</time>
      </trkpt>
      <trkpt lat="45.869" lon="6.21834">
        <ele>682</ele>
        <time>2013-05-30T04:54:34.000Z</time>
      </trkpt>
      <trkpt lat="45.86898" lon="6.21835">
        <ele>682</ele>
        <time>2013-05-30T04:54:35.000Z</time>
      </trkpt>
      <trkpt lat="45.86896" lon="6.21836">
        <ele>683</ele>
        <time>2013-05-30T04:54:36.000Z</time>
      </trkpt>
      <trkpt lat="45.86893" lon="6.21837">
        <ele>683</ele>
        <time>2013-05-30T04:54:37.000Z</time>
      </trkpt>
      <trkpt lat="45.86891" lon="6.21838">
        <ele>683</ele>
        <time>2013-05-30T04:54:38.000Z</time>
      </trkpt>
      <trkpt lat="45.86888" lon="6.21838">
        <ele>684</ele>
        <time>2013-05-30T04:54:39.000Z</time>
      </trkpt>
      <trkpt lat="45.86886" lon="6.2184">
        <ele>684</ele>
        <time>2013-05-30T04:54:40.000Z</time>
      </trkpt>
      <trkpt lat="45.86883" lon="6.21841">
        <ele>684</ele>
        <time>2013-05-30T04:54:41.000Z</time>
      </trkpt>
      <trkpt lat="45.86881" lon="6.21842">
        <ele>684</ele>
        <time>2013-05-30T04:54:42.000Z</time>
      </trkpt>
      <trkpt lat="45.86878" lon="6.21842">
        <ele>685</ele>
        <time>2013-05-30T04:54:43.000Z</time>
      </trkpt>
      <trkpt lat="45.86876" lon="6.21843">
        <ele>685</ele>
        <time>2013-05-30T04:54:44.000Z</time>
      </trkpt>
      <trkpt lat="45.86874" lon="6.21844">
        <ele>685</ele>
        <time>2013-05-30T04:54:45.000Z</time>
      </trkpt>
      <trkpt lat="45.86872" lon="6.21844">
        <ele>685</ele>
        <time>2013-05-30T04:54:46.000Z</time>
      </trkpt>
      <trkpt lat="45.86869" lon="6.21845">
        <ele>685</ele>
        <time>2013-05-30T04:54:47.000Z</time>
      </trkpt>
      <trkpt lat="45.86867" lon="6.21846">
        <ele>685</ele>
        <time>2013-05-30T04:54:48.000Z</time>
      </trkpt>
      <trkpt lat="45.86865" lon="6.21846">
        <ele>685</ele>
        <time>2013-05-30T04:54:49.000Z</time>
      </trkpt>
      <trkpt lat="45.86862" lon="6.21846">
        <ele>685</ele>
        <time>2013-05-30T04:54:50.000Z</time>
      </trkpt>
      <trkpt lat="45.8686" lon="6.21847">
        <ele>685</ele>
        <time>2013-05-30T04:54:51.000Z</time>
      </trkpt>
      <trkpt lat="45.86858" lon="6.21848">
        <ele>685</ele>
        <time>2013-05-30T04:54:52.000Z</time>
      </trkpt>
      <trkpt lat="45.86856" lon="6.21848">
        <ele>685</ele>
        <time>2013-05-30T04:54:53.000Z</time>
      </trkpt>
      <trkpt lat="45.86854" lon="6.21849">
        <ele>685</ele>
        <time>2013-05-30T04:54:54.000Z</time>
      </trkpt>
      <trkpt lat="45.86851" lon="6.2185">
        <ele>685</ele>
        <time>2013-05-30T04:54:55.000Z</time>
      </trkpt>
      <trkpt lat="45.86849" lon="6.21851">
        <ele>685</ele>
        <time>2013-05-30T04:54:56.000Z</time>
      </trkpt>
      <trkpt lat="45.86847" lon="6.21852">
        <ele>684</ele>
        <time>2013-05-30T04:54:57.000Z</time>
      </trkpt>
      <trkpt lat="45.86844" lon="6.21852">
        <ele>684</ele>
        <time>2013-05-30T04:54:58.000Z</time>
      </trkpt>
      <trkpt lat="45.86842" lon="6.21853">
        <ele>684</ele>
        <time>2013-05-30T04:54:59.000Z</time>
      </trkpt>
      <trkpt lat="45.8684" lon="6.21854">
        <ele>684</ele>
        <time>2013-05-30T04:55:00.000Z</time>
      </trkpt>
      <trkpt lat="45.86837" lon="6.21854">
        <ele>684</ele>
        <time>2013-05-30T04:55:01.000Z</time>
      </trkpt>
      <trkpt lat="45.86835" lon="6.21855">
        <ele>685</ele>
        <time>2013-05-30T04:55:02.000Z</time>
      </trkpt>
      <trkpt lat="45.86833" lon="6.21855">
        <ele>684</ele>
        <time>2013-05-30T04:55:03.000Z</time>
      </trkpt>
      <trkpt lat="45.86831" lon="6.21855">
        <ele>684</ele>
        <time>2013-05-30T04:55:04.000Z</time>
      </trkpt>
      <trkpt lat="45.86828" lon="6.21855">
        <ele>684</ele>
        <time>2013-05-30T04:55:05.000Z</time>
      </trkpt>
      <trkpt lat="45.86826" lon="6.21855">
        <ele>684</ele>
        <time>2013-05-30T04:55:06.000Z</time>
      </trkpt>
      <trkpt lat="45.86824" lon="6.21855">
        <ele>684</ele>
        <time>2013-05-30T04:55:07.000Z</time>
      </trkpt>
      <trkpt lat="45.86822" lon="6.21856">
        <ele>684</ele>
        <time>2013-05-30T04:55:08.000Z</time>
      </trkpt>
      <trkpt lat="45.8682" lon="6.21856">
        <ele>685</ele>
        <time>2013-05-30T04:55:09.000Z</time>
      </trkpt>
      <trkpt lat="45.86818" lon="6.21856">
        <ele>685</ele>
        <time>2013-05-30T04:55:10.000Z</time>
      </trkpt>
      <trkpt lat="45.86815" lon="6.21857">
        <ele>685</ele>
        <time>2013-05-30T04:55:11.000Z</time>
      </trkpt>
      <trkpt lat="45.86813" lon="6.21857">
        <ele>685</ele>
        <time>2013-05-30T04:55:12.000Z</time>
      </trkpt>
      <trkpt lat="45.8681" lon="6.21857">
        <ele>685</ele>
        <time>2013-05-30T04:55:13.000Z</time>
      </trkpt>
      <trkpt lat="45.86808" lon="6.21858">
        <ele>685</ele>
        <time>2013-05-30T04:55:14.000Z</time>
      </trkpt>
      <trkpt lat="45.86805" lon="6.2186">
        <ele>686</ele>
        <time>2013-05-30T04:55:15.000Z</time>
      </trkpt>
      <trkpt lat="45.86803" lon="6.21861">
        <ele>686</ele>
        <time>2013-05-30T04:55:16.000Z</time>
      </trkpt>
      <trkpt lat="45.868" lon="6.21862">
        <ele>686</ele>
        <time>2013-05-30T04:55:17.000Z</time>
      </trkpt>
      <trkpt lat="45.86798" lon="6.21863">
        <ele>686</ele>
        <time>2013-05-30T04:55:18.000Z</time>
      </trkpt>
      <trkpt lat="45.86795" lon="6.21864">
        <ele>686</ele>
        <time>2013-05-30T04:55:19.000Z</time>
      </trkpt>
      <trkpt lat="45.86792" lon="6.21864">
        <ele>686</ele>
        <time>2013-05-30T04:55:20.000Z</time>
      </trkpt>
      <trkpt lat="45.8679" lon="6.21864">
        <ele>686</ele>
        <time>2013-05-30T04:55:21.000Z</time>
      </trkpt>
      <trkpt lat="45.86788" lon="6.21865">
        <ele>686</ele>
        <time>2013-05-30T04:55:22.000Z</time>
      </trkpt>
      <trkpt lat="45.86785" lon="6.21865">
        <ele>686</ele>
        <time>2013-05-30T04:55:23.000Z</time>
      </trkpt>
      <trkpt lat="45.86783" lon="6.21865">
        <ele>686</ele>
        <time>2013-05-30T04:55:24.000Z</time>
      </trkpt>
      <trkpt lat="45.8678" lon="6.21866">
        <ele>686</ele>
        <time>2013-05-30T04:55:25.000Z</time>
      </trkpt>
      <trkpt lat="45.86777" lon="6.21867">
        <ele>686</ele>
        <time>2013-05-30T04:55:26.000Z</time>
      </trkpt>
      <trkpt lat="45.86775" lon="6.21868">
        <ele>686</ele>
        <time>2013-05-30T04:55:27.000Z</time>
      </trkpt>
      <trkpt lat="45.86772" lon="6.21869">
        <ele>686</ele>
        <time>2013-05-30T04:55:28.000Z</time>
      </trkpt>
      <trkpt lat="45.86769" lon="6.21869">
        <ele>686</ele>
        <time>2013-05-30T04:55:29.000Z</time>
      </trkpt>
      <trkpt lat="45.86766" lon="6.2187">
        <ele>686</ele>
        <time>2013-05-30T04:55:30.000Z</time>
      </trkpt>
      <trkpt lat="45.86763" lon="6.2187">
        <ele>686</ele>
        <time>2013-05-30T04:55:31.000Z</time>
      </trkpt>
      <trkpt lat="45.8676" lon="6.21871">
        <ele>686</ele>
        <time>2013-05-30T04:55:32.000Z</time>
      </trkpt>
      <trkpt lat="45.86757" lon="6.21871">
        <ele>686</ele>
        <time>2013-05-30T04:55:33.000Z</time>
      </trkpt>
      <trkpt lat="45.86754" lon="6.2187">
        <ele>686</ele>
        <time>2013-05-30T04:55:34.000Z</time>
      </trkpt>
      <trkpt lat="45.86752" lon="6.2187">
        <ele>686</ele>
        <time>2013-05-30T04:55:35.000Z</time>
      </trkpt>
      <trkpt lat="45.86749" lon="6.2187">
        <ele>686</ele>
        <time>2013-05-30T04:55:36.000Z</time>
      </trkpt>
      <trkpt lat="45.86747" lon="6.21869">
        <ele>686</ele>
        <time>2013-05-30T04:55:37.000Z</time>
      </trkpt>
      <trkpt lat="45.86745" lon="6.21868">
        <ele>686</ele>
        <time>2013-05-30T04:55:38.000Z</time>
      </trkpt>
      <trkpt lat="45.86742" lon="6.21868">
        <ele>686</ele>
        <time>2013-05-30T04:55:39.000Z</time>
      </trkpt>
      <trkpt lat="45.86739" lon="6.21868">
        <ele>686</ele>
        <time>2013-05-30T04:55:40.000Z</time>
      </trkpt>
      <trkpt lat="45.86737" lon="6.21868">
        <ele>686</ele>
        <time>2013-05-30T04:55:41.000Z</time>
      </trkpt>
      <trkpt lat="45.86734" lon="6.21867">
        <ele>686</ele>
        <time>2013-05-30T04:55:42.000Z</time>
      </trkpt>
      <trkpt lat="45.86732" lon="6.21867">
        <ele>686</ele>
        <time>2013-05-30T04:55:43.000Z</time>
      </trkpt>
      <trkpt lat="45.86729" lon="6.21866">
        <ele>686</ele>
        <time>2013-05-30T04:55:44.000Z</time>
      </trkpt>
      <trkpt lat="45.86727" lon="6.21865">
        <ele>686</ele>
        <time>2013-05-30T04:55:45.000Z</time>
      </trkpt>
      <trkpt lat="45.86724" lon="6.21865">
        <ele>686</ele>
        <time>2013-05-30T04:55:46.000Z</time>
      </trkpt>
      <trkpt lat="45.86721" lon="6.21865">
        <ele>686</ele>
        <time>2013-05-30T04:55:47.000Z</time>
      </trkpt>
      <trkpt lat="45.86718" lon="6.21864">
        <ele>686</ele>
        <time>2013-05-30T04:55:48.000Z</time>
      </trkpt>
      <trkpt lat="45.86716" lon="6.21864">
        <ele>686</ele>
        <time>2013-05-30T04:55:49.000Z</time>
      </trkpt>
      <trkpt lat="45.86713" lon="6.21864">
        <ele>686</ele>
        <time>2013-05-30T04:55:50.000Z</time>
      </trkpt>
      <trkpt lat="45.8671" lon="6.21863">
        <ele>686</ele>
        <time>2013-05-30T04:55:51.000Z</time>
      </trkpt>
      <trkpt lat="45.86707" lon="6.21863">
        <ele>686</ele>
        <time>2013-05-30T04:55:52.000Z</time>
      </trkpt>
      <trkpt lat="45.86705" lon="6.21862">
        <ele>686</ele>
        <time>2013-05-30T04:55:53.000Z</time>
      </trkpt>
      <trkpt lat="45.86701" lon="6.21862">
        <ele>686</ele>
        <time>2013-05-30T04:55:54.000Z</time>
      </trkpt>
      <trkpt lat="45.86699" lon="6.21862">
        <ele>686</ele>
        <time>2013-05-30T04:55:55.000Z</time>
      </trkpt>
      <trkpt lat="45.86696" lon="6.21861">
        <ele>686</ele>
        <time>2013-05-30T04:55:56.000Z</time>
      </trkpt>
      <trkpt lat="45.86693" lon="6.2186">
        <ele>686</ele>
        <time>2013-05-30T04:55:57.000Z</time>
      </trkpt>
      <trkpt lat="45.8669" lon="6.2186">
        <ele>686</ele>
        <time>2013-05-30T04:55:58.000Z</time>
      </trkpt>
      <trkpt lat="45.86688" lon="6.2186">
        <ele>686</ele>
        <time>2013-05-30T04:55:59.000Z</time>
      </trkpt>
      <trkpt lat="45.86685" lon="6.21859">
        <ele>685</ele>
        <time>2013-05-30T04:56:00.000Z</time>
      </trkpt>
      <trkpt lat="45.86682" lon="6.21859">
        <ele>685</ele>
        <time>2013-05-30T04:56:01.000Z</time>
      </trkpt>
      <trkpt lat="45.8668" lon="6.21859">
        <ele>685</ele>
        <time>2013-05-30T04:56:02.000Z</time>
      </trkpt>
      <trkpt lat="45.86677" lon="6.21858">
        <ele>685</ele>
        <time>2013-05-30T04:56:03.000Z</time>
      </trkpt>
      <trkpt lat="45.86675" lon="6.21858">
        <ele>685</ele>
        <time>2013-05-30T04:56:04.000Z</time>
      </trkpt>
      <trkpt lat="45.86672" lon="6.21857">
        <ele>685</ele>
        <time>2013-05-30T04:56:05.000Z</time>
      </trkpt>
      <trkpt lat="45.8667" lon="6.21856">
        <ele>685</ele>
        <time>2013-05-30T04:56:06.000Z</time>
      </trkpt>
      <trkpt lat="45.86667" lon="6.21855">
        <ele>685</ele>
        <time>2013-05-30T04:56:07.000Z</time>
      </trkpt>
      <trkpt lat="45.86665" lon="6.21855">
        <ele>686</ele>
        <time>2013-05-30T04:56:08.000Z</time>
      </trkpt>
      <trkpt lat="45.86662" lon="6.21854">
        <ele>686</ele>
        <time>2013-05-30T04:56:09.000Z</time>
      </trkpt>
      <trkpt lat="45.86659" lon="6.21854">
        <ele>686</ele>
        <time>2013-05-30T04:56:10.000Z</time>
      </trkpt>
      <trkpt lat="45.86657" lon="6.21853">
        <ele>686</ele>
        <time>2013-05-30T04:56:11.000Z</time>
      </trkpt>
      <trkpt lat="45.86654" lon="6.21853">
        <ele>686</ele>
        <time>2013-05-30T04:56:12.000Z</time>
      </trkpt>
      <trkpt lat="45.86652" lon="6.21853">
        <ele>686</ele>
        <time>2013-05-30T04:56:13.000Z</time>
      </trkpt>
      <trkpt lat="45.86649" lon="6.21852">
        <ele>686</ele>
        <time>2013-05-30T04:56:14.000Z</time>
      </trkpt>
      <trkpt lat="45.86647" lon="6.21852">
        <ele>687</ele>
        <time>2013-05-30T04:56:15.000Z</time>
      </trkpt>
      <trkpt lat="45.86645" lon="6.21851">
        <ele>687</ele>
        <time>2013-05-30T04:56:16.000Z</time>
      </trkpt>
      <trkpt lat="45.86643" lon="6.2185">
        <ele>687</ele>
        <time>2013-05-30T04:56:17.000Z</time>
      </trkpt>
      <trkpt lat="45.86641" lon="6.21849">
        <ele>687</ele>
        <time>2013-05-30T04:56:18.000Z</time>
      </trkpt>
      <trkpt lat="45.86638" lon="6.21848">
        <ele>687</ele>
        <time>2013-05-30T04:56:19.000Z</time>
      </trkpt>
      <trkpt lat="45.86636" lon="6.21847">
        <ele>687</ele>
        <time>2013-05-30T04:56:20.000Z</time>
      </trkpt>
      <trkpt lat="45.86633" lon="6.21847">
        <ele>687</ele>
        <time>2013-05-30T04:56:21.000Z</time>
      </trkpt>
      <trkpt lat="45.8663" lon="6.21847">
        <ele>687</ele>
        <time>2013-05-30T04:56:22.000Z</time>
      </trkpt>
      <trkpt lat="45.86628" lon="6.21846">
        <ele>687</ele>
        <time>2013-05-30T04:56:23.000Z</time>
      </trkpt>
      <trkpt lat="45.86625" lon="6.21846">
        <ele>687</ele>
        <time>2013-05-30T04:56:24.000Z</time>
      </trkpt>
      <trkpt lat="45.86623" lon="6.21846">
        <ele>687</ele>
        <time>2013-05-30T04:56:25.000Z</time>
      </trkpt>
      <trkpt lat="45.8662" lon="6.21845">
        <ele>687</ele>
        <time>2013-05-30T04:56:26.000Z</time>
      </trkpt>
      <trkpt lat="45.86617" lon="6.21845">
        <ele>687</ele>
        <time>2013-05-30T04:56:27.000Z</time>
      </trkpt>
      <trkpt lat="45.86615" lon="6.21844">
        <ele>687</ele>
        <time>2013-05-30T04:56:28.000Z</time>
      </trkpt>
      <trkpt lat="45.86613" lon="6.21844">
        <ele>687</ele>
        <time>2013-05-30T04:56:29.000Z</time>
      </trkpt>
      <trkpt lat="45.8661" lon="6.21844">
        <ele>687</ele>
        <time>2013-05-30T04:56:30.000Z</time>
      </trkpt>
      <trkpt lat="45.86608" lon="6.21844">
        <ele>687</ele>
        <time>2013-05-30T04:56:31.000Z</time>
      </trkpt>
      <trkpt lat="45.86605" lon="6.21844">
        <ele>687</ele>
        <time>2013-05-30T04:56:32.000Z</time>
      </trkpt>
      <trkpt lat="45.86603" lon="6.21844">
        <ele>686</ele>
        <time>2013-05-30T04:56:33.000Z</time>
      </trkpt>
      <trkpt lat="45.86601" lon="6.21844">
        <ele>686</ele>
        <time>2013-05-30T04:56:34.000Z</time>
      </trkpt>
      <trkpt lat="45.86598" lon="6.21845">
        <ele>686</ele>
        <time>2013-05-30T04:56:35.000Z</time>
      </trkpt>
      <trkpt lat="45.86596" lon="6.21846">
        <ele>686</ele>
        <time>2013-05-30T04:56:36.000Z</time>
      </trkpt>
      <trkpt lat="45.86594" lon="6.21847">
        <ele>686</ele>
        <time>2013-05-30T04:56:37.000Z</time>
      </trkpt>
      <trkpt lat="45.86592" lon="6.21848">
        <ele>686</ele>
        <time>2013-05-30T04:56:38.000Z</time>
      </trkpt>
      <trkpt lat="45.8659" lon="6.2185">
        <ele>686</ele>
        <time>2013-05-30T04:56:39.000Z</time>
      </trkpt>
      <trkpt lat="45.86587" lon="6.21851">
        <ele>686</ele>
        <time>2013-05-30T04:56:40.000Z</time>
      </trkpt>
      <trkpt lat="45.86585" lon="6.21854">
        <ele>687</ele>
        <time>2013-05-30T04:56:41.000Z</time>
      </trkpt>
      <trkpt lat="45.86583" lon="6.21855">
        <ele>690</ele>
        <time>2013-05-30T04:56:42.000Z</time>
      </trkpt>
      <trkpt lat="45.8658" lon="6.21857">
        <ele>690</ele>
        <time>2013-05-30T04:56:43.000Z</time>
      </trkpt>
      <trkpt lat="45.86578" lon="6.21858">
        <ele>691</ele>
        <time>2013-05-30T04:56:44.000Z</time>
      </trkpt>
      <trkpt lat="45.86575" lon="6.2186">
        <ele>691</ele>
        <time>2013-05-30T04:56:45.000Z</time>
      </trkpt>
      <trkpt lat="45.86573" lon="6.2186">
        <ele>692</ele>
        <time>2013-05-30T04:56:46.000Z</time>
      </trkpt>
      <trkpt lat="45.86571" lon="6.21861">
        <ele>692</ele>
        <time>2013-05-30T04:56:47.000Z</time>
      </trkpt>
      <trkpt lat="45.8657" lon="6.21861">
        <ele>692</ele>
        <time>2013-05-30T04:56:48.000Z</time>
      </trkpt>
      <trkpt lat="45.86569" lon="6.21861">
        <ele>692</ele>
        <time>2013-05-30T04:56:49.000Z</time>
      </trkpt>
      <trkpt lat="45.86567" lon="6.21861">
        <ele>692</ele>
        <time>2013-05-30T04:56:50.000Z</time>
      </trkpt>
      <trkpt lat="45.86565" lon="6.2186">
        <ele>692</ele>
        <time>2013-05-30T04:56:51.000Z</time>
      </trkpt>
      <trkpt lat="45.86562" lon="6.2186">
        <ele>692</ele>
        <time>2013-05-30T04:56:52.000Z</time>
      </trkpt>
      <trkpt lat="45.8656" lon="6.21859">
        <ele>692</ele>
        <time>2013-05-30T04:56:53.000Z</time>
      </trkpt>
      <trkpt lat="45.86557" lon="6.21859">
        <ele>693</ele>
        <time>2013-05-30T04:56:54.000Z</time>
      </trkpt>
      <trkpt lat="45.86555" lon="6.21858">
        <ele>693</ele>
        <time>2013-05-30T04:56:55.000Z</time>
      </trkpt>
      <trkpt lat="45.86552" lon="6.21856">
        <ele>693</ele>
        <time>2013-05-30T04:56:56.000Z</time>
      </trkpt>
      <trkpt lat="45.8655" lon="6.21855">
        <ele>693</ele>
        <time>2013-05-30T04:56:57.000Z</time>
      </trkpt>
      <trkpt lat="45.86547" lon="6.21853">
        <ele>693</ele>
        <time>2013-05-30T04:56:58.000Z</time>
      </trkpt>
      <trkpt lat="45.86545" lon="6.21851">
        <ele>693</ele>
        <time>2013-05-30T04:56:59.000Z</time>
      </trkpt>
      <trkpt lat="45.86542" lon="6.21849">
        <ele>693</ele>
        <time>2013-05-30T04:57:00.000Z</time>
      </trkpt>
      <trkpt lat="45.86539" lon="6.21848">
        <ele>693</ele>
        <time>2013-05-30T04:57:01.000Z</time>
      </trkpt>
      <trkpt lat="45.86536" lon="6.21846">
        <ele>693</ele>
        <time>2013-05-30T04:57:02.000Z</time>
      </trkpt>
      <trkpt lat="45.86534" lon="6.21844">
        <ele>693</ele>
        <time>2013-05-30T04:57:03.000Z</time>
      </trkpt>
      <trkpt lat="45.86531" lon="6.21843">
        <ele>693</ele>
        <time>2013-05-30T04:57:04.000Z</time>
      </trkpt>
      <trkpt lat="45.86528" lon="6.21842">
        <ele>693</ele>
        <time>2013-05-30T04:57:05.000Z</time>
      </trkpt>
      <trkpt lat="45.86524" lon="6.21841">
        <ele>692</ele>
        <time>2013-05-30T04:57:06.000Z</time>
      </trkpt>
      <trkpt lat="45.86521" lon="6.21839">
        <ele>692</ele>
        <time>2013-05-30T04:57:07.000Z</time>
      </trkpt>
      <trkpt lat="45.86518" lon="6.21838">
        <ele>692</ele>
        <time>2013-05-30T04:57:08.000Z</time>
      </trkpt>
      <trkpt lat="45.86515" lon="6.21837">
        <ele>692</ele>
        <time>2013-05-30T04:57:09.000Z</time>
      </trkpt>
      <trkpt lat="45.86512" lon="6.21836">
        <ele>691</ele>
        <time>2013-05-30T04:57:10.000Z</time>
      </trkpt>
      <trkpt lat="45.86509" lon="6.21835">
        <ele>691</ele>
        <time>2013-05-30T04:57:11.000Z</time>
      </trkpt>
      <trkpt lat="45.86505" lon="6.21834">
        <ele>690</ele>
        <time>2013-05-30T04:57:12.000Z</time>
      </trkpt>
      <trkpt lat="45.86502" lon="6.21832">
        <ele>688</ele>
        <time>2013-05-30T04:57:13.000Z</time>
      </trkpt>
      <trkpt lat="45.86499" lon="6.21831">
        <ele>689</ele>
        <time>2013-05-30T04:57:14.000Z</time>
      </trkpt>
      <trkpt lat="45.86496" lon="6.2183">
        <ele>688</ele>
        <time>2013-05-30T04:57:15.000Z</time>
      </trkpt>
      <trkpt lat="45.86493" lon="6.21829">
        <ele>688</ele>
        <time>2013-05-30T04:57:16.000Z</time>
      </trkpt>
      <trkpt lat="45.8649" lon="6.21828">
        <ele>688</ele>
        <time>2013-05-30T04:57:17.000Z</time>
      </trkpt>
      <trkpt lat="45.86487" lon="6.21826">
        <ele>687</ele>
        <time>2013-05-30T04:57:18.000Z</time>
      </trkpt>
      <trkpt lat="45.86484" lon="6.21825">
        <ele>687</ele>
        <time>2013-05-30T04:57:19.000Z</time>
      </trkpt>
      <trkpt lat="45.8648" lon="6.21824">
        <ele>687</ele>
        <time>2013-05-30T04:57:20.000Z</time>
      </trkpt>
      <trkpt lat="45.86477" lon="6.21823">
        <ele>687</ele>
        <time>2013-05-30T04:57:21.000Z</time>
      </trkpt>
      <trkpt lat="45.86474" lon="6.21822">
        <ele>687</ele>
        <time>2013-05-30T04:57:22.000Z</time>
      </trkpt>
      <trkpt lat="45.86471" lon="6.21821">
        <ele>687</ele>
        <time>2013-05-30T04:57:23.000Z</time>
      </trkpt>
      <trkpt lat="45.86469" lon="6.2182">
        <ele>687</ele>
        <time>2013-05-30T04:57:24.000Z</time>
      </trkpt>
      <trkpt lat="45.86466" lon="6.21819">
        <ele>687</ele>
        <time>2013-05-30T04:57:25.000Z</time>
      </trkpt>
      <trkpt lat="45.86462" lon="6.21818">
        <ele>687</ele>
        <time>2013-05-30T04:57:26.000Z</time>
      </trkpt>
      <trkpt lat="45.86458" lon="6.21816">
        <ele>687</ele>
        <time>2013-05-30T04:57:27.000Z</time>
      </trkpt>
      <trkpt lat="45.86455" lon="6.21815">
        <ele>687</ele>
        <time>2013-05-30T04:57:28.000Z</time>
      </trkpt>
      <trkpt lat="45.86452" lon="6.21814">
        <ele>688</ele>
        <time>2013-05-30T04:57:29.000Z</time>
      </trkpt>
      <trkpt lat="45.86449" lon="6.21813">
        <ele>688</ele>
        <time>2013-05-30T04:57:30.000Z</time>
      </trkpt>
      <trkpt lat="45.86446" lon="6.21813">
        <ele>688</ele>
        <time>2013-05-30T04:57:31.000Z</time>
      </trkpt>
      <trkpt lat="45.86444" lon="6.21812">
        <ele>688</ele>
        <time>2013-05-30T04:57:32.000Z</time>
      </trkpt>
      <trkpt lat="45.86442" lon="6.21812">
        <ele>688</ele>
        <time>2013-05-30T04:57:33.000Z</time>
      </trkpt>
      <trkpt lat="45.8644" lon="6.21811">
        <ele>688</ele>
        <time>2013-05-30T04:57:34.000Z</time>
      </trkpt>
      <trkpt lat="45.86438" lon="6.2181">
        <ele>688</ele>
        <time>2013-05-30T04:57:35.000Z</time>
      </trkpt>
      <trkpt lat="45.86436" lon="6.21809">
        <ele>688</ele>
        <time>2013-05-30T04:57:36.000Z</time>
      </trkpt>
      <trkpt lat="45.86433" lon="6.21809">
        <ele>689</ele>
        <time>2013-05-30T04:57:37.000Z</time>
      </trkpt>
      <trkpt lat="45.8643" lon="6.21807">
        <ele>689</ele>
        <time>2013-05-30T04:57:38.000Z</time>
      </trkpt>
      <trkpt lat="45.86427" lon="6.21807">
        <ele>689</ele>
        <time>2013-05-30T04:57:39.000Z</time>
      </trkpt>
      <trkpt lat="45.86425" lon="6.21806">
        <ele>689</ele>
        <time>2013-05-30T04:57:40.000Z</time>
      </trkpt>
      <trkpt lat="45.86423" lon="6.21806">
        <ele>689</ele>
        <time>2013-05-30T04:57:41.000Z</time>
      </trkpt>
      <trkpt lat="45.86421" lon="6.21805">
        <ele>689</ele>
        <time>2013-05-30T04:57:42.000Z</time>
      </trkpt>
      <trkpt lat="45.86418" lon="6.21804">
        <ele>689</ele>
        <time>2013-05-30T04:57:43.000Z</time>
      </trkpt>
      <trkpt lat="45.86416" lon="6.21803">
        <ele>693</ele>
        <time>2013-05-30T04:57:44.000Z</time>
      </trkpt>
      <trkpt lat="45.86413" lon="6.21803">
        <ele>693</ele>
        <time>2013-05-30T04:57:45.000Z</time>
      </trkpt>
      <trkpt lat="45.86411" lon="6.21802">
        <ele>693</ele>
        <time>2013-05-30T04:57:46.000Z</time>
      </trkpt>
      <trkpt lat="45.86408" lon="6.21802">
        <ele>693</ele>
        <time>2013-05-30T04:57:47.000Z</time>
      </trkpt>
      <trkpt lat="45.86405" lon="6.21801">
        <ele>693</ele>
        <time>2013-05-30T04:57:48.000Z</time>
      </trkpt>
      <trkpt lat="45.86403" lon="6.218">
        <ele>692</ele>
        <time>2013-05-30T04:57:49.000Z</time>
      </trkpt>
      <trkpt lat="45.864" lon="6.21799">
        <ele>692</ele>
        <time>2013-05-30T04:57:50.000Z</time>
      </trkpt>
      <trkpt lat="45.86398" lon="6.21799">
        <ele>692</ele>
        <time>2013-05-30T04:57:51.000Z</time>
      </trkpt>
      <trkpt lat="45.86395" lon="6.21797">
        <ele>692</ele>
        <time>2013-05-30T04:57:52.000Z</time>
      </trkpt>
      <trkpt lat="45.86393" lon="6.21796">
        <ele>692</ele>
        <time>2013-05-30T04:57:53.000Z</time>
      </trkpt>
      <trkpt lat="45.86391" lon="6.21795">
        <ele>692</ele>
        <time>2013-05-30T04:57:54.000Z</time>
      </trkpt>
      <trkpt lat="45.86388" lon="6.21793">
        <ele>692</ele>
        <time>2013-05-30T04:57:55.000Z</time>
      </trkpt>
      <trkpt lat="45.86385" lon="6.2179">
        <ele>692</ele>
        <time>2013-05-30T04:57:56.000Z</time>
      </trkpt>
      <trkpt lat="45.86382" lon="6.21789">
        <ele>692</ele>
        <time>2013-05-30T04:57:57.000Z</time>
      </trkpt>
      <trkpt lat="45.86379" lon="6.21787">
        <ele>691</ele>
        <time>2013-05-30T04:57:58.000Z</time>
      </trkpt>
      <trkpt lat="45.86375" lon="6.21786">
        <ele>691</ele>
        <time>2013-05-30T04:57:59.000Z</time>
      </trkpt>
      <trkpt lat="45.86372" lon="6.21784">
        <ele>691</ele>
        <time>2013-05-30T04:58:00.000Z</time>
      </trkpt>
      <trkpt lat="45.86369" lon="6.21782">
        <ele>691</ele>
        <time>2013-05-30T04:58:01.000Z</time>
      </trkpt>
      <trkpt lat="45.86366" lon="6.2178">
        <ele>691</ele>
        <time>2013-05-30T04:58:02.000Z</time>
      </trkpt>
      <trkpt lat="45.86363" lon="6.21778">
        <ele>691</ele>
        <time>2013-05-30T04:58:03.000Z</time>
      </trkpt>
      <trkpt lat="45.8636" lon="6.21776">
        <ele>690</ele>
        <time>2013-05-30T04:58:04.000Z</time>
      </trkpt>
      <trkpt lat="45.86357" lon="6.21774">
        <ele>690</ele>
        <time>2013-05-30T04:58:05.000Z</time>
      </trkpt>
      <trkpt lat="45.86354" lon="6.21773">
        <ele>690</ele>
        <time>2013-05-30T04:58:06.000Z</time>
      </trkpt>
      <trkpt lat="45.86351" lon="6.21771">
        <ele>690</ele>
        <time>2013-05-30T04:58:07.000Z</time>
      </trkpt>
      <trkpt lat="45.86348" lon="6.21769">
        <ele>689</ele>
        <time>2013-05-30T04:58:08.000Z</time>
      </trkpt>
      <trkpt lat="45.86345" lon="6.21768">
        <ele>689</ele>
        <time>2013-05-30T04:58:09.000Z</time>
      </trkpt>
      <trkpt lat="45.86342" lon="6.21766">
        <ele>688</ele>
        <time>2013-05-30T04:58:10.000Z</time>
      </trkpt>
      <trkpt lat="45.86339" lon="6.21765">
        <ele>688</ele>
        <time>2013-05-30T04:58:11.000Z</time>
      </trkpt>
      <trkpt lat="45.86336" lon="6.21763">
        <ele>687</ele>
        <time>2013-05-30T04:58:12.000Z</time>
      </trkpt>
      <trkpt lat="45.86333" lon="6.21762">
        <ele>690</ele>
        <time>2013-05-30T04:58:13.000Z</time>
      </trkpt>
      <trkpt lat="45.8633" lon="6.2176">
        <ele>690</ele>
        <time>2013-05-30T04:58:14.000Z</time>
      </trkpt>
      <trkpt lat="45.86327" lon="6.21759">
        <ele>690</ele>
        <time>2013-05-30T04:58:15.000Z</time>
      </trkpt>
      <trkpt lat="45.86324" lon="6.21757">
        <ele>690</ele>
        <time>2013-05-30T04:58:16.000Z</time>
      </trkpt>
      <trkpt lat="45.86321" lon="6.21756">
        <ele>691</ele>
        <time>2013-05-30T04:58:17.000Z</time>
      </trkpt>
      <trkpt lat="45.86319" lon="6.21754">
        <ele>692</ele>
        <time>2013-05-30T04:58:18.000Z</time>
      </trkpt>
      <trkpt lat="45.86316" lon="6.21753">
        <ele>692</ele>
        <time>2013-05-30T04:58:19.000Z</time>
      </trkpt>
      <trkpt lat="45.86314" lon="6.21751">
        <ele>693</ele>
        <time>2013-05-30T04:58:20.000Z</time>
      </trkpt>
      <trkpt lat="45.86311" lon="6.21749">
        <ele>683</ele>
        <time>2013-05-30T04:58:21.000Z</time>
      </trkpt>
      <trkpt lat="45.86309" lon="6.21748">
        <ele>683</ele>
        <time>2013-05-30T04:58:22.000Z</time>
      </trkpt>
      <trkpt lat="45.86307" lon="6.21747">
        <ele>683</ele>
        <time>2013-05-30T04:58:23.000Z</time>
      </trkpt>
      <trkpt lat="45.86304" lon="6.21745">
        <ele>683</ele>
        <time>2013-05-30T04:58:24.000Z</time>
      </trkpt>
      <trkpt lat="45.86301" lon="6.21744">
        <ele>683</ele>
        <time>2013-05-30T04:58:25.000Z</time>
      </trkpt>
      <trkpt lat="45.86299" lon="6.21742">
        <ele>683</ele>
        <time>2013-05-30T04:58:26.000Z</time>
      </trkpt>
      <trkpt lat="45.86296" lon="6.21741">
        <ele>683</ele>
        <time>2013-05-30T04:58:27.000Z</time>
      </trkpt>
      <trkpt lat="45.86294" lon="6.21739">
        <ele>683</ele>
        <time>2013-05-30T04:58:28.000Z</time>
      </trkpt>
      <trkpt lat="45.86291" lon="6.21738">
        <ele>684</ele>
        <time>2013-05-30T04:58:29.000Z</time>
      </trkpt>
      <trkpt lat="45.86288" lon="6.21736">
        <ele>684</ele>
        <time>2013-05-30T04:58:30.000Z</time>
      </trkpt>
      <trkpt lat="45.86286" lon="6.21735">
        <ele>684</ele>
        <time>2013-05-30T04:58:31.000Z</time>
      </trkpt>
      <trkpt lat="45.86283" lon="6.21733">
        <ele>684</ele>
        <time>2013-05-30T04:58:32.000Z</time>
      </trkpt>
      <trkpt lat="45.8628" lon="6.21731">
        <ele>684</ele>
        <time>2013-05-30T04:58:33.000Z</time>
      </trkpt>
      <trkpt lat="45.86278" lon="6.21729">
        <ele>684</ele>
        <time>2013-05-30T04:58:34.000Z</time>
      </trkpt>
      <trkpt lat="45.86275" lon="6.21727">
        <ele>684</ele>
        <time>2013-05-30T04:58:35.000Z</time>
      </trkpt>
      <trkpt lat="45.86272" lon="6.21725">
        <ele>684</ele>
        <time>2013-05-30T04:58:36.000Z</time>
      </trkpt>
      <trkpt lat="45.86269" lon="6.21723">
        <ele>684</ele>
        <time>2013-05-30T04:58:37.000Z</time>
      </trkpt>
      <trkpt lat="45.86267" lon="6.2172">
        <ele>684</ele>
        <time>2013-05-30T04:58:38.000Z</time>
      </trkpt>
      <trkpt lat="45.86264" lon="6.21718">
        <ele>684</ele>
        <time>2013-05-30T04:58:39.000Z</time>
      </trkpt>
      <trkpt lat="45.86262" lon="6.21716">
        <ele>684</ele>
        <time>2013-05-30T04:58:40.000Z</time>
      </trkpt>
      <trkpt lat="45.8626" lon="6.21714">
        <ele>684</ele>
        <time>2013-05-30T04:58:41.000Z</time>
      </trkpt>
      <trkpt lat="45.86257" lon="6.21711">
        <ele>683</ele>
        <time>2013-05-30T04:58:42.000Z</time>
      </trkpt>
      <trkpt lat="45.86255" lon="6.21709">
        <ele>683</ele>
        <time>2013-05-30T04:58:43.000Z</time>
      </trkpt>
      <trkpt lat="45.86253" lon="6.21707">
        <ele>683</ele>
        <time>2013-05-30T04:58:44.000Z</time>
      </trkpt>
      <trkpt lat="45.86251" lon="6.21704">
        <ele>682</ele>
        <time>2013-05-30T04:58:45.000Z</time>
      </trkpt>
      <trkpt lat="45.86248" lon="6.21701">
        <ele>687</ele>
        <time>2013-05-30T04:58:46.000Z</time>
      </trkpt>
      <trkpt lat="45.86246" lon="6.21699">
        <ele>687</ele>
        <time>2013-05-30T04:58:47.000Z</time>
      </trkpt>
      <trkpt lat="45.86244" lon="6.21696">
        <ele>687</ele>
        <time>2013-05-30T04:58:48.000Z</time>
      </trkpt>
      <trkpt lat="45.86241" lon="6.21693">
        <ele>686</ele>
        <time>2013-05-30T04:58:49.000Z</time>
      </trkpt>
      <trkpt lat="45.86239" lon="6.21691">
        <ele>686</ele>
        <time>2013-05-30T04:58:50.000Z</time>
      </trkpt>
      <trkpt lat="45.86236" lon="6.21688">
        <ele>686</ele>
        <time>2013-05-30T04:58:51.000Z</time>
      </trkpt>
      <trkpt lat="45.86234" lon="6.21685">
        <ele>685</ele>
        <time>2013-05-30T04:58:52.000Z</time>
      </trkpt>
      <trkpt lat="45.86232" lon="6.21682">
        <ele>685</ele>
        <time>2013-05-30T04:58:53.000Z</time>
      </trkpt>
      <trkpt lat="45.8623" lon="6.2168">
        <ele>685</ele>
        <time>2013-05-30T04:58:54.000Z</time>
      </trkpt>
      <trkpt lat="45.86227" lon="6.21677">
        <ele>685</ele>
        <time>2013-05-30T04:58:55.000Z</time>
      </trkpt>
      <trkpt lat="45.86225" lon="6.21675">
        <ele>685</ele>
        <time>2013-05-30T04:58:56.000Z</time>
      </trkpt>
      <trkpt lat="45.86223" lon="6.21672">
        <ele>685</ele>
        <time>2013-05-30T04:58:57.000Z</time>
      </trkpt>
      <trkpt lat="45.86221" lon="6.21669">
        <ele>686</ele>
        <time>2013-05-30T04:58:58.000Z</time>
      </trkpt>
      <trkpt lat="45.86218" lon="6.21667">
        <ele>686</ele>
        <time>2013-05-30T04:58:59.000Z</time>
      </trkpt>
      <trkpt lat="45.86216" lon="6.21664">
        <ele>678</ele>
        <time>2013-05-30T04:59:00.000Z</time>
      </trkpt>
      <trkpt lat="45.86214" lon="6.21662">
        <ele>678</ele>
        <time>2013-05-30T04:59:01.000Z</time>
      </trkpt>
      <trkpt lat="45.86211" lon="6.21659">
        <ele>678</ele>
        <time>2013-05-30T04:59:02.000Z</time>
      </trkpt>
      <trkpt lat="45.86209" lon="6.21657">
        <ele>678</ele>
        <time>2013-05-30T04:59:03.000Z</time>
      </trkpt>
      <trkpt lat="45.86207" lon="6.21654">
        <ele>678</ele>
        <time>2013-05-30T04:59:04.000Z</time>
      </trkpt>
      <trkpt lat="45.86204" lon="6.21652">
        <ele>679</ele>
        <time>2013-05-30T04:59:05.000Z</time>
      </trkpt>
      <trkpt lat="45.86202" lon="6.21648">
        <ele>679</ele>
        <time>2013-05-30T04:59:06.000Z</time>
      </trkpt>
      <trkpt lat="45.86199" lon="6.21646">
        <ele>679</ele>
        <time>2013-05-30T04:59:07.000Z</time>
      </trkpt>
      <trkpt lat="45.86197" lon="6.21643">
        <ele>679</ele>
        <time>2013-05-30T04:59:08.000Z</time>
      </trkpt>
      <trkpt lat="45.86195" lon="6.21641">
        <ele>679</ele>
        <time>2013-05-30T04:59:09.000Z</time>
      </trkpt>
      <trkpt lat="45.86192" lon="6.21638">
        <ele>679</ele>
        <time>2013-05-30T04:59:10.000Z</time>
      </trkpt>
      <trkpt lat="45.8619" lon="6.21636">
        <ele>679</ele>
        <time>2013-05-30T04:59:11.000Z</time>
      </trkpt>
      <trkpt lat="45.86188" lon="6.21633">
        <ele>678</ele>
        <time>2013-05-30T04:59:12.000Z</time>
      </trkpt>
      <trkpt lat="45.86186" lon="6.21631">
        <ele>678</ele>
        <time>2013-05-30T04:59:13.000Z</time>
      </trkpt>
      <trkpt lat="45.86183" lon="6.21628">
        <ele>678</ele>
        <time>2013-05-30T04:59:14.000Z</time>
      </trkpt>
      <trkpt lat="45.86181" lon="6.21625">
        <ele>678</ele>
        <time>2013-05-30T04:59:15.000Z</time>
      </trkpt>
      <trkpt lat="45.8618" lon="6.21622">
        <ele>678</ele>
        <time>2013-05-30T04:59:16.000Z</time>
      </trkpt>
      <trkpt lat="45.86178" lon="6.21619">
        <ele>678</ele>
        <time>2013-05-30T04:59:17.000Z</time>
      </trkpt>
      <trkpt lat="45.86176" lon="6.21616">
        <ele>678</ele>
        <time>2013-05-30T04:59:18.000Z</time>
      </trkpt>
      <trkpt lat="45.86174" lon="6.21613">
        <ele>678</ele>
        <time>2013-05-30T04:59:19.000Z</time>
      </trkpt>
      <trkpt lat="45.86172" lon="6.21609">
        <ele>678</ele>
        <time>2013-05-30T04:59:20.000Z</time>
      </trkpt>
      <trkpt lat="45.8617" lon="6.21606">
        <ele>677</ele>
        <time>2013-05-30T04:59:21.000Z</time>
      </trkpt>
      <trkpt lat="45.86168" lon="6.21603">
        <ele>677</ele>
        <time>2013-05-30T04:59:22.000Z</time>
      </trkpt>
      <trkpt lat="45.86166" lon="6.21599">
        <ele>682</ele>
        <time>2013-05-30T04:59:23.000Z</time>
      </trkpt>
      <trkpt lat="45.86164" lon="6.21596">
        <ele>681</ele>
        <time>2013-05-30T04:59:24.000Z</time>
      </trkpt>
      <trkpt lat="45.86162" lon="6.21593">
        <ele>680</ele>
        <time>2013-05-30T04:59:25.000Z</time>
      </trkpt>
      <trkpt lat="45.8616" lon="6.2159">
        <ele>680</ele>
        <time>2013-05-30T04:59:26.000Z</time>
      </trkpt>
      <trkpt lat="45.86159" lon="6.21587">
        <ele>680</ele>
        <time>2013-05-30T04:59:27.000Z</time>
      </trkpt>
      <trkpt lat="45.86157" lon="6.21584">
        <ele>680</ele>
        <time>2013-05-30T04:59:28.000Z</time>
      </trkpt>
      <trkpt lat="45.86155" lon="6.21581">
        <ele>680</ele>
        <time>2013-05-30T04:59:29.000Z</time>
      </trkpt>
      <trkpt lat="45.86152" lon="6.21577">
        <ele>680</ele>
        <time>2013-05-30T04:59:30.000Z</time>
      </trkpt>
      <trkpt lat="45.8615" lon="6.21575">
        <ele>681</ele>
        <time>2013-05-30T04:59:31.000Z</time>
      </trkpt>
      <trkpt lat="45.86148" lon="6.21573">
        <ele>681</ele>
        <time>2013-05-30T04:59:32.000Z</time>
      </trkpt>
      <trkpt lat="45.86145" lon="6.21571">
        <ele>681</ele>
        <time>2013-05-30T04:59:33.000Z</time>
      </trkpt>
      <trkpt lat="45.86143" lon="6.21569">
        <ele>682</ele>
        <time>2013-05-30T04:59:34.000Z</time>
      </trkpt>
      <trkpt lat="45.86141" lon="6.21568">
        <ele>682</ele>
        <time>2013-05-30T04:59:35.000Z</time>
      </trkpt>
      <trkpt lat="45.86139" lon="6.21566">
        <ele>682</ele>
        <time>2013-05-30T04:59:36.000Z</time>
      </trkpt>
      <trkpt lat="45.86137" lon="6.21565">
        <ele>682</ele>
        <time>2013-05-30T04:59:37.000Z</time>
      </trkpt>
      <trkpt lat="45.86134" lon="6.21565">
        <ele>683</ele>
        <time>2013-05-30T04:59:38.000Z</time>
      </trkpt>
      <trkpt lat="45.86132" lon="6.21565">
        <ele>683</ele>
        <time>2013-05-30T04:59:39.000Z</time>
      </trkpt>
      <trkpt lat="45.86129" lon="6.21565">
        <ele>683</ele>
        <time>2013-05-30T04:59:40.000Z</time>
      </trkpt>
      <trkpt lat="45.86127" lon="6.21564">
        <ele>683</ele>
        <time>2013-05-30T04:59:41.000Z</time>
      </trkpt>
      <trkpt lat="45.86124" lon="6.21564">
        <ele>684</ele>
        <time>2013-05-30T04:59:42.000Z</time>
      </trkpt>
      <trkpt lat="45.86121" lon="6.21563">
        <ele>684</ele>
        <time>2013-05-30T04:59:43.000Z</time>
      </trkpt>
      <trkpt lat="45.86118" lon="6.21562">
        <ele>684</ele>
        <time>2013-05-30T04:59:44.000Z</time>
      </trkpt>
      <trkpt lat="45.86115" lon="6.21561">
        <ele>685</ele>
        <time>2013-05-30T04:59:45.000Z</time>
      </trkpt>
      <trkpt lat="45.86113" lon="6.21561">
        <ele>685</ele>
        <time>2013-05-30T04:59:46.000Z</time>
      </trkpt>
      <trkpt lat="45.8611" lon="6.21559">
        <ele>685</ele>
        <time>2013-05-30T04:59:47.000Z</time>
      </trkpt>
      <trkpt lat="45.86108" lon="6.21556">
        <ele>685</ele>
        <time>2013-05-30T04:59:48.000Z</time>
      </trkpt>
      <trkpt lat="45.86105" lon="6.21554">
        <ele>685</ele>
        <time>2013-05-30T04:59:49.000Z</time>
      </trkpt>
      <trkpt lat="45.86103" lon="6.21551">
        <ele>685</ele>
        <time>2013-05-30T04:59:50.000Z</time>
      </trkpt>
      <trkpt lat="45.86101" lon="6.21548">
        <ele>685</ele>
        <time>2013-05-30T04:59:51.000Z</time>
      </trkpt>
      <trkpt lat="45.86099" lon="6.21544">
        <ele>685</ele>
        <time>2013-05-30T04:59:52.000Z</time>
      </trkpt>
      <trkpt lat="45.86097" lon="6.21541">
        <ele>685</ele>
        <time>2013-05-30T04:59:53.000Z</time>
      </trkpt>
      <trkpt lat="45.86096" lon="6.21537">
        <ele>685</ele>
        <time>2013-05-30T04:59:54.000Z</time>
      </trkpt>
      <trkpt lat="45.86095" lon="6.21533">
        <ele>685</ele>
        <time>2013-05-30T04:59:55.000Z</time>
      </trkpt>
      <trkpt lat="45.86095" lon="6.21529">
        <ele>685</ele>
        <time>2013-05-30T04:59:56.000Z</time>
      </trkpt>
      <trkpt lat="45.86095" lon="6.21524">
        <ele>685</ele>
        <time>2013-05-30T04:59:57.000Z</time>
      </trkpt>
      <trkpt lat="45.86095" lon="6.2152">
        <ele>685</ele>
        <time>2013-05-30T04:59:58.000Z</time>
      </trkpt>
      <trkpt lat="45.86096" lon="6.21516">
        <ele>685</ele>
        <time>2013-05-30T04:59:59.000Z</time>
      </trkpt>
      <trkpt lat="45.86096" lon="6.21512">
        <ele>685</ele>
        <time>2013-05-30T05:00:00.000Z</time>
      </trkpt>
      <trkpt lat="45.86097" lon="6.21508">
        <ele>685</ele>
        <time>2013-05-30T05:00:01.000Z</time>
      </trkpt>
      <trkpt lat="45.86097" lon="6.21504">
        <ele>686</ele>
        <time>2013-05-30T05:00:02.000Z</time>
      </trkpt>
      <trkpt lat="45.86097" lon="6.215">
        <ele>686</ele>
        <time>2013-05-30T05:00:03.000Z</time>
      </trkpt>
      <trkpt lat="45.86097" lon="6.21496">
        <ele>686</ele>
        <time>2013-05-30T05:00:04.000Z</time>
      </trkpt>
      <trkpt lat="45.86098" lon="6.21492">
        <ele>686</ele>
        <time>2013-05-30T05:00:05.000Z</time>
      </trkpt>
      <trkpt lat="45.86098" lon="6.21488">
        <ele>686</ele>
        <time>2013-05-30T05:00:06.000Z</time>
      </trkpt>
      <trkpt lat="45.86098" lon="6.21484">
        <ele>686</ele>
        <time>2013-05-30T05:00:07.000Z</time>
      </trkpt>
      <trkpt lat="45.86098" lon="6.21481">
        <ele>686</ele>
        <time>2013-05-30T05:00:08.000Z</time>
      </trkpt>
      <trkpt lat="45.86098" lon="6.21477">
        <ele>686</ele>
        <time>2013-05-30T05:00:09.000Z</time>
      </trkpt>
      <trkpt lat="45.86098" lon="6.21473">
        <ele>686</ele>
        <time>2013-05-30T05:00:10.000Z</time>
      </trkpt>
      <trkpt lat="45.86098" lon="6.21469">
        <ele>686</ele>
        <time>2013-05-30T05:00:11.000Z</time>
      </trkpt>
      <trkpt lat="45.86099" lon="6.21465">
        <ele>686</ele>
        <time>2013-05-30T05:00:12.000Z</time>
      </trkpt>
      <trkpt lat="45.861" lon="6.21461">
        <ele>686</ele>
        <time>2013-05-30T05:00:13.000Z</time>
      </trkpt>
      <trkpt lat="45.861" lon="6.21456">
        <ele>686</ele>
        <time>2013-05-30T05:00:14.000Z</time>
      </trkpt>
      <trkpt lat="45.861" lon="6.21452">
        <ele>686</ele>
        <time>2013-05-30T05:00:15.000Z</time>
      </trkpt>
      <trkpt lat="45.86101" lon="6.21448">
        <ele>686</ele>
        <time>2013-05-30T05:00:16.000Z</time>
      </trkpt>
      <trkpt lat="45.86101" lon="6.21444">
        <ele>687</ele>
        <time>2013-05-30T05:00:17.000Z</time>
      </trkpt>
      <trkpt lat="45.86101" lon="6.2144">
        <ele>687</ele>
        <time>2013-05-30T05:00:18.000Z</time>
      </trkpt>
      <trkpt lat="45.86102" lon="6.21437">
        <ele>687</ele>
        <time>2013-05-30T05:00:19.000Z</time>
      </trkpt>
      <trkpt lat="45.86102" lon="6.21433">
        <ele>687</ele>
        <time>2013-05-30T05:00:20.000Z</time>
      </trkpt>
      <trkpt lat="45.86101" lon="6.21429">
        <ele>687</ele>
        <time>2013-05-30T05:00:21.000Z</time>
      </trkpt>
      <trkpt lat="45.86099" lon="6.21426">
        <ele>687</ele>
        <time>2013-05-30T05:00:22.000Z</time>
      </trkpt>
      <trkpt lat="45.86098" lon="6.21423">
        <ele>687</ele>
        <time>2013-05-30T05:00:23.000Z</time>
      </trkpt>
      <trkpt lat="45.86096" lon="6.2142">
        <ele>687</ele>
        <time>2013-05-30T05:00:24.000Z</time>
      </trkpt>
      <trkpt lat="45.86094" lon="6.21417">
        <ele>687</ele>
        <time>2013-05-30T05:00:25.000Z</time>
      </trkpt>
      <trkpt lat="45.86092" lon="6.21415">
        <ele>689</ele>
        <time>2013-05-30T05:00:26.000Z</time>
      </trkpt>
      <trkpt lat="45.86091" lon="6.21413">
        <ele>689</ele>
        <time>2013-05-30T05:00:27.000Z</time>
      </trkpt>
      <trkpt lat="45.86089" lon="6.2141">
        <ele>689</ele>
        <time>2013-05-30T05:00:28.000Z</time>
      </trkpt>
      <trkpt lat="45.86086" lon="6.21409">
        <ele>689</ele>
        <time>2013-05-30T05:00:29.000Z</time>
      </trkpt>
      <trkpt lat="45.86084" lon="6.21407">
        <ele>689</ele>
        <time>2013-05-30T05:00:30.000Z</time>
      </trkpt>
      <trkpt lat="45.86083" lon="6.21404">
        <ele>688</ele>
        <time>2013-05-30T05:00:31.000Z</time>
      </trkpt>
      <trkpt lat="45.8608" lon="6.21402">
        <ele>688</ele>
        <time>2013-05-30T05:00:32.000Z</time>
      </trkpt>
      <trkpt lat="45.86078" lon="6.214">
        <ele>688</ele>
        <time>2013-05-30T05:00:33.000Z</time>
      </trkpt>
      <trkpt lat="45.86076" lon="6.21398">
        <ele>689</ele>
        <time>2013-05-30T05:00:34.000Z</time>
      </trkpt>
      <trkpt lat="45.86073" lon="6.21396">
        <ele>689</ele>
        <time>2013-05-30T05:00:35.000Z</time>
      </trkpt>
      <trkpt lat="45.8607" lon="6.21395">
        <ele>689</ele>
        <time>2013-05-30T05:00:36.000Z</time>
      </trkpt>
      <trkpt lat="45.86068" lon="6.21392">
        <ele>689</ele>
        <time>2013-05-30T05:00:37.000Z</time>
      </trkpt>
      <trkpt lat="45.86066" lon="6.2139">
        <ele>689</ele>
        <time>2013-05-30T05:00:38.000Z</time>
      </trkpt>
      <trkpt lat="45.86063" lon="6.21388">
        <ele>689</ele>
        <time>2013-05-30T05:00:39.000Z</time>
      </trkpt>
      <trkpt lat="45.86061" lon="6.21386">
        <ele>689</ele>
        <time>2013-05-30T05:00:40.000Z</time>
      </trkpt>
      <trkpt lat="45.86058" lon="6.21385">
        <ele>689</ele>
        <time>2013-05-30T05:00:41.000Z</time>
      </trkpt>
      <trkpt lat="45.86055" lon="6.21383">
        <ele>689</ele>
        <time>2013-05-30T05:00:42.000Z</time>
      </trkpt>
      <trkpt lat="45.86053" lon="6.21382">
        <ele>689</ele>
        <time>2013-05-30T05:00:43.000Z</time>
      </trkpt>
      <trkpt lat="45.8605" lon="6.2138">
        <ele>689</ele>
        <time>2013-05-30T05:00:44.000Z</time>
      </trkpt>
      <trkpt lat="45.86047" lon="6.21379">
        <ele>689</ele>
        <time>2013-05-30T05:00:45.000Z</time>
      </trkpt>
      <trkpt lat="45.86044" lon="6.21378">
        <ele>689</ele>
        <time>2013-05-30T05:00:46.000Z</time>
      </trkpt>
      <trkpt lat="45.86041" lon="6.21377">
        <ele>689</ele>
        <time>2013-05-30T05:00:47.000Z</time>
      </trkpt>
      <trkpt lat="45.86039" lon="6.21376">
        <ele>689</ele>
        <time>2013-05-30T05:00:48.000Z</time>
      </trkpt>
      <trkpt lat="45.86036" lon="6.21375">
        <ele>689</ele>
        <time>2013-05-30T05:00:49.000Z</time>
      </trkpt>
      <trkpt lat="45.86033" lon="6.21374">
        <ele>689</ele>
        <time>2013-05-30T05:00:50.000Z</time>
      </trkpt>
      <trkpt lat="45.8603" lon="6.21373">
        <ele>689</ele>
        <time>2013-05-30T05:00:51.000Z</time>
      </trkpt>
      <trkpt lat="45.86028" lon="6.21373">
        <ele>689</ele>
        <time>2013-05-30T05:00:52.000Z</time>
      </trkpt>
      <trkpt lat="45.86025" lon="6.21373">
        <ele>689</ele>
        <time>2013-05-30T05:00:53.000Z</time>
      </trkpt>
      <trkpt lat="45.86022" lon="6.21372">
        <ele>689</ele>
        <time>2013-05-30T05:00:54.000Z</time>
      </trkpt>
      <trkpt lat="45.86019" lon="6.21371">
        <ele>689</ele>
        <time>2013-05-30T05:00:55.000Z</time>
      </trkpt>
      <trkpt lat="45.86017" lon="6.2137">
        <ele>689</ele>
        <time>2013-05-30T05:00:56.000Z</time>
      </trkpt>
      <trkpt lat="45.86014" lon="6.21369">
        <ele>689</ele>
        <time>2013-05-30T05:00:57.000Z</time>
      </trkpt>
      <trkpt lat="45.86011" lon="6.21368">
        <ele>689</ele>
        <time>2013-05-30T05:00:58.000Z</time>
      </trkpt>
      <trkpt lat="45.86008" lon="6.21368">
        <ele>689</ele>
        <time>2013-05-30T05:00:59.000Z</time>
      </trkpt>
      <trkpt lat="45.86005" lon="6.21367">
        <ele>688</ele>
        <time>2013-05-30T05:01:00.000Z</time>
      </trkpt>
      <trkpt lat="45.86002" lon="6.21366">
        <ele>688</ele>
        <time>2013-05-30T05:01:01.000Z</time>
      </trkpt>
      <trkpt lat="45.86" lon="6.21365">
        <ele>688</ele>
        <time>2013-05-30T05:01:02.000Z</time>
      </trkpt>
      <trkpt lat="45.85997" lon="6.21365">
        <ele>688</ele>
        <time>2013-05-30T05:01:03.000Z</time>
      </trkpt>
      <trkpt lat="45.85994" lon="6.21364">
        <ele>688</ele>
        <time>2013-05-30T05:01:04.000Z</time>
      </trkpt>
      <trkpt lat="45.85991" lon="6.21363">
        <ele>688</ele>
        <time>2013-05-30T05:01:05.000Z</time>
      </trkpt>
      <trkpt lat="45.85988" lon="6.21363">
        <ele>687</ele>
        <time>2013-05-30T05:01:06.000Z</time>
      </trkpt>
      <trkpt lat="45.85985" lon="6.21362">
        <ele>687</ele>
        <time>2013-05-30T05:01:07.000Z</time>
      </trkpt>
      <trkpt lat="45.85982" lon="6.21361">
        <ele>687</ele>
        <time>2013-05-30T05:01:08.000Z</time>
      </trkpt>
      <trkpt lat="45.85979" lon="6.21361">
        <ele>687</ele>
        <time>2013-05-30T05:01:09.000Z</time>
      </trkpt>
      <trkpt lat="45.85976" lon="6.2136">
        <ele>687</ele>
        <time>2013-05-30T05:01:10.000Z</time>
      </trkpt>
      <trkpt lat="45.85973" lon="6.21359">
        <ele>687</ele>
        <time>2013-05-30T05:01:11.000Z</time>
      </trkpt>
      <trkpt lat="45.8597" lon="6.21359">
        <ele>687</ele>
        <time>2013-05-30T05:01:12.000Z</time>
      </trkpt>
      <trkpt lat="45.85967" lon="6.21358">
        <ele>687</ele>
        <time>2013-05-30T05:01:13.000Z</time>
      </trkpt>
      <trkpt lat="45.85964" lon="6.21357">
        <ele>687</ele>
        <time>2013-05-30T05:01:14.000Z</time>
      </trkpt>
      <trkpt lat="45.85961" lon="6.21357">
        <ele>687</ele>
        <time>2013-05-30T05:01:15.000Z</time>
      </trkpt>
      <trkpt lat="45.85958" lon="6.21356">
        <ele>687</ele>
        <time>2013-05-30T05:01:16.000Z</time>
      </trkpt>
      <trkpt lat="45.85955" lon="6.21356">
        <ele>687</ele>
        <time>2013-05-30T05:01:17.000Z</time>
      </trkpt>
      <trkpt lat="45.85952" lon="6.21356">
        <ele>687</ele>
        <time>2013-05-30T05:01:18.000Z</time>
      </trkpt>
      <trkpt lat="45.8595" lon="6.21356">
        <ele>687</ele>
        <time>2013-05-30T05:01:19.000Z</time>
      </trkpt>
      <trkpt lat="45.85947" lon="6.21356">
        <ele>687</ele>
        <time>2013-05-30T05:01:20.000Z</time>
      </trkpt>
      <trkpt lat="45.85944" lon="6.21356">
        <ele>687</ele>
        <time>2013-05-30T05:01:21.000Z</time>
      </trkpt>
      <trkpt lat="45.85941" lon="6.21356">
        <ele>687</ele>
        <time>2013-05-30T05:01:22.000Z</time>
      </trkpt>
      <trkpt lat="45.85938" lon="6.21356">
        <ele>687</ele>
        <time>2013-05-30T05:01:23.000Z</time>
      </trkpt>
      <trkpt lat="45.85935" lon="6.21356">
        <ele>687</ele>
        <time>2013-05-30T05:01:24.000Z</time>
      </trkpt>
      <trkpt lat="45.85932" lon="6.21356">
        <ele>687</ele>
        <time>2013-05-30T05:01:25.000Z</time>
      </trkpt>
      <trkpt lat="45.8593" lon="6.21356">
        <ele>687</ele>
        <time>2013-05-30T05:01:26.000Z</time>
      </trkpt>
      <trkpt lat="45.85927" lon="6.21356">
        <ele>687</ele>
        <time>2013-05-30T05:01:27.000Z</time>
      </trkpt>
      <trkpt lat="45.85924" lon="6.21357">
        <ele>687</ele>
        <time>2013-05-30T05:01:28.000Z</time>
      </trkpt>
      <trkpt lat="45.85921" lon="6.21357">
        <ele>687</ele>
        <time>2013-05-30T05:01:29.000Z</time>
      </trkpt>
      <trkpt lat="45.85918" lon="6.21358">
        <ele>687</ele>
        <time>2013-05-30T05:01:30.000Z</time>
      </trkpt>
      <trkpt lat="45.85915" lon="6.21358">
        <ele>685</ele>
        <time>2013-05-30T05:01:31.000Z</time>
      </trkpt>
      <trkpt lat="45.85913" lon="6.21359">
        <ele>685</ele>
        <time>2013-05-30T05:01:32.000Z</time>
      </trkpt>
      <trkpt lat="45.8591" lon="6.2136">
        <ele>685</ele>
        <time>2013-05-30T05:01:33.000Z</time>
      </trkpt>
      <trkpt lat="45.85907" lon="6.2136">
        <ele>685</ele>
        <time>2013-05-30T05:01:34.000Z</time>
      </trkpt>
      <trkpt lat="45.85905" lon="6.21361">
        <ele>685</ele>
        <time>2013-05-30T05:01:35.000Z</time>
      </trkpt>
      <trkpt lat="45.85902" lon="6.21362">
        <ele>685</ele>
        <time>2013-05-30T05:01:36.000Z</time>
      </trkpt>
      <trkpt lat="45.85899" lon="6.21363">
        <ele>685</ele>
        <time>2013-05-30T05:01:37.000Z</time>
      </trkpt>
      <trkpt lat="45.85897" lon="6.21363">
        <ele>685</ele>
        <time>2013-05-30T05:01:38.000Z</time>
      </trkpt>
      <trkpt lat="45.85894" lon="6.21364">
        <ele>685</ele>
        <time>2013-05-30T05:01:39.000Z</time>
      </trkpt>
      <trkpt lat="45.85891" lon="6.21364">
        <ele>685</ele>
        <time>2013-05-30T05:01:40.000Z</time>
      </trkpt>
      <trkpt lat="45.85888" lon="6.21364">
        <ele>685</ele>
        <time>2013-05-30T05:01:41.000Z</time>
      </trkpt>
      <trkpt lat="45.85885" lon="6.21364">
        <ele>684</ele>
        <time>2013-05-30T05:01:42.000Z</time>
      </trkpt>
      <trkpt lat="45.85881" lon="6.21364">
        <ele>684</ele>
        <time>2013-05-30T05:01:43.000Z</time>
      </trkpt>
      <trkpt lat="45.85878" lon="6.21363">
        <ele>684</ele>
        <time>2013-05-30T05:01:44.000Z</time>
      </trkpt>
      <trkpt lat="45.85875" lon="6.21361">
        <ele>684</ele>
        <time>2013-05-30T05:01:45.000Z</time>
      </trkpt>
      <trkpt lat="45.85872" lon="6.21359">
        <ele>684</ele>
        <time>2013-05-30T05:01:46.000Z</time>
      </trkpt>
      <trkpt lat="45.85868" lon="6.21358">
        <ele>684</ele>
        <time>2013-05-30T05:01:47.000Z</time>
      </trkpt>
      <trkpt lat="45.85865" lon="6.21356">
        <ele>683</ele>
        <time>2013-05-30T05:01:48.000Z</time>
      </trkpt>
      <trkpt lat="45.85862" lon="6.21355">
        <ele>683</ele>
        <time>2013-05-30T05:01:49.000Z</time>
      </trkpt>
      <trkpt lat="45.85859" lon="6.21353">
        <ele>683</ele>
        <time>2013-05-30T05:01:50.000Z</time>
      </trkpt>
      <trkpt lat="45.85856" lon="6.21351">
        <ele>683</ele>
        <time>2013-05-30T05:01:51.000Z</time>
      </trkpt>
      <trkpt lat="45.85853" lon="6.21349">
        <ele>682</ele>
        <time>2013-05-30T05:01:52.000Z</time>
      </trkpt>
      <trkpt lat="45.8585" lon="6.21347">
        <ele>682</ele>
        <time>2013-05-30T05:01:53.000Z</time>
      </trkpt>
      <trkpt lat="45.85847" lon="6.21344">
        <ele>681</ele>
        <time>2013-05-30T05:01:54.000Z</time>
      </trkpt>
      <trkpt lat="45.85845" lon="6.21342">
        <ele>681</ele>
        <time>2013-05-30T05:01:55.000Z</time>
      </trkpt>
      <trkpt lat="45.85843" lon="6.2134">
        <ele>680</ele>
        <time>2013-05-30T05:01:56.000Z</time>
      </trkpt>
      <trkpt lat="45.8584" lon="6.21337">
        <ele>680</ele>
        <time>2013-05-30T05:01:57.000Z</time>
      </trkpt>
      <trkpt lat="45.85838" lon="6.21334">
        <ele>679</ele>
        <time>2013-05-30T05:01:58.000Z</time>
      </trkpt>
      <trkpt lat="45.85835" lon="6.21331">
        <ele>678</ele>
        <time>2013-05-30T05:01:59.000Z</time>
      </trkpt>
      <trkpt lat="45.85832" lon="6.21329">
        <ele>677</ele>
        <time>2013-05-30T05:02:00.000Z</time>
      </trkpt>
      <trkpt lat="45.8583" lon="6.21327">
        <ele>677</ele>
        <time>2013-05-30T05:02:01.000Z</time>
      </trkpt>
      <trkpt lat="45.85827" lon="6.21324">
        <ele>676</ele>
        <time>2013-05-30T05:02:02.000Z</time>
      </trkpt>
      <trkpt lat="45.85824" lon="6.21322">
        <ele>676</ele>
        <time>2013-05-30T05:02:03.000Z</time>
      </trkpt>
      <trkpt lat="45.85822" lon="6.2132">
        <ele>676</ele>
        <time>2013-05-30T05:02:04.000Z</time>
      </trkpt>
      <trkpt lat="45.85819" lon="6.21317">
        <ele>675</ele>
        <time>2013-05-30T05:02:05.000Z</time>
      </trkpt>
      <trkpt lat="45.85817" lon="6.21315">
        <ele>675</ele>
        <time>2013-05-30T05:02:06.000Z</time>
      </trkpt>
      <trkpt lat="45.85813" lon="6.21312">
        <ele>675</ele>
        <time>2013-05-30T05:02:07.000Z</time>
      </trkpt>
      <trkpt lat="45.8581" lon="6.2131">
        <ele>674</ele>
        <time>2013-05-30T05:02:08.000Z</time>
      </trkpt>
      <trkpt lat="45.85808" lon="6.21308">
        <ele>674</ele>
        <time>2013-05-30T05:02:09.000Z</time>
      </trkpt>
      <trkpt lat="45.85805" lon="6.21306">
        <ele>674</ele>
        <time>2013-05-30T05:02:10.000Z</time>
      </trkpt>
      <trkpt lat="45.85802" lon="6.21305">
        <ele>674</ele>
        <time>2013-05-30T05:02:11.000Z</time>
      </trkpt>
      <trkpt lat="45.85798" lon="6.21303">
        <ele>674</ele>
        <time>2013-05-30T05:02:12.000Z</time>
      </trkpt>
      <trkpt lat="45.85795" lon="6.213">
        <ele>673</ele>
        <time>2013-05-30T05:02:13.000Z</time>
      </trkpt>
      <trkpt lat="45.85792" lon="6.21298">
        <ele>673</ele>
        <time>2013-05-30T05:02:14.000Z</time>
      </trkpt>
      <trkpt lat="45.8579" lon="6.21297">
        <ele>673</ele>
        <time>2013-05-30T05:02:15.000Z</time>
      </trkpt>
      <trkpt lat="45.85787" lon="6.21296">
        <ele>673</ele>
        <time>2013-05-30T05:02:16.000Z</time>
      </trkpt>
      <trkpt lat="45.85785" lon="6.21294">
        <ele>673</ele>
        <time>2013-05-30T05:02:17.000Z</time>
      </trkpt>
      <trkpt lat="45.85782" lon="6.21293">
        <ele>673</ele>
        <time>2013-05-30T05:02:18.000Z</time>
      </trkpt>
      <trkpt lat="45.8578" lon="6.21292">
        <ele>672</ele>
        <time>2013-05-30T05:02:19.000Z</time>
      </trkpt>
      <trkpt lat="45.85777" lon="6.2129">
        <ele>672</ele>
        <time>2013-05-30T05:02:20.000Z</time>
      </trkpt>
      <trkpt lat="45.85775" lon="6.21289">
        <ele>672</ele>
        <time>2013-05-30T05:02:21.000Z</time>
      </trkpt>
      <trkpt lat="45.85772" lon="6.21287">
        <ele>672</ele>
        <time>2013-05-30T05:02:22.000Z</time>
      </trkpt>
      <trkpt lat="45.8577" lon="6.21285">
        <ele>671</ele>
        <time>2013-05-30T05:02:23.000Z</time>
      </trkpt>
      <trkpt lat="45.85767" lon="6.21284">
        <ele>671</ele>
        <time>2013-05-30T05:02:24.000Z</time>
      </trkpt>
      <trkpt lat="45.85764" lon="6.21282">
        <ele>671</ele>
        <time>2013-05-30T05:02:25.000Z</time>
      </trkpt>
      <trkpt lat="45.85761" lon="6.21281">
        <ele>670</ele>
        <time>2013-05-30T05:02:26.000Z</time>
      </trkpt>
      <trkpt lat="45.85758" lon="6.2128">
        <ele>670</ele>
        <time>2013-05-30T05:02:27.000Z</time>
      </trkpt>
      <trkpt lat="45.85755" lon="6.21278">
        <ele>670</ele>
        <time>2013-05-30T05:02:28.000Z</time>
      </trkpt>
      <trkpt lat="45.85753" lon="6.21277">
        <ele>669</ele>
        <time>2013-05-30T05:02:29.000Z</time>
      </trkpt>
      <trkpt lat="45.85751" lon="6.21276">
        <ele>669</ele>
        <time>2013-05-30T05:02:30.000Z</time>
      </trkpt>
      <trkpt lat="45.85749" lon="6.21276">
        <ele>666</ele>
        <time>2013-05-30T05:02:31.000Z</time>
      </trkpt>
      <trkpt lat="45.85747" lon="6.21275">
        <ele>666</ele>
        <time>2013-05-30T05:02:32.000Z</time>
      </trkpt>
      <trkpt lat="45.85745" lon="6.21275">
        <ele>666</ele>
        <time>2013-05-30T05:02:33.000Z</time>
      </trkpt>
      <trkpt lat="45.85742" lon="6.21274">
        <ele>666</ele>
        <time>2013-05-30T05:02:34.000Z</time>
      </trkpt>
      <trkpt lat="45.85739" lon="6.21273">
        <ele>666</ele>
        <time>2013-05-30T05:02:35.000Z</time>
      </trkpt>
      <trkpt lat="45.85737" lon="6.21272">
        <ele>665</ele>
        <time>2013-05-30T05:02:36.000Z</time>
      </trkpt>
      <trkpt lat="45.85734" lon="6.21271">
        <ele>665</ele>
        <time>2013-05-30T05:02:37.000Z</time>
      </trkpt>
      <trkpt lat="45.85731" lon="6.21271">
        <ele>666</ele>
        <time>2013-05-30T05:02:38.000Z</time>
      </trkpt>
      <trkpt lat="45.85728" lon="6.21271">
        <ele>666</ele>
        <time>2013-05-30T05:02:39.000Z</time>
      </trkpt>
      <trkpt lat="45.85725" lon="6.21271">
        <ele>666</ele>
        <time>2013-05-30T05:02:40.000Z</time>
      </trkpt>
      <trkpt lat="45.85722" lon="6.21271">
        <ele>666</ele>
        <time>2013-05-30T05:02:41.000Z</time>
      </trkpt>
      <trkpt lat="45.85718" lon="6.21271">
        <ele>666</ele>
        <time>2013-05-30T05:02:42.000Z</time>
      </trkpt>
      <trkpt lat="45.85715" lon="6.21271">
        <ele>665</ele>
        <time>2013-05-30T05:02:43.000Z</time>
      </trkpt>
      <trkpt lat="45.85711" lon="6.2127">
        <ele>665</ele>
        <time>2013-05-30T05:02:44.000Z</time>
      </trkpt>
      <trkpt lat="45.85708" lon="6.2127">
        <ele>665</ele>
        <time>2013-05-30T05:02:45.000Z</time>
      </trkpt>
      <trkpt lat="45.85704" lon="6.21269">
        <ele>665</ele>
        <time>2013-05-30T05:02:46.000Z</time>
      </trkpt>
      <trkpt lat="45.85701" lon="6.21269">
        <ele>665</ele>
        <time>2013-05-30T05:02:47.000Z</time>
      </trkpt>
      <trkpt lat="45.85698" lon="6.21269">
        <ele>664</ele>
        <time>2013-05-30T05:02:48.000Z</time>
      </trkpt>
      <trkpt lat="45.85695" lon="6.21269">
        <ele>664</ele>
        <time>2013-05-30T05:02:49.000Z</time>
      </trkpt>
      <trkpt lat="45.85692" lon="6.21268">
        <ele>664</ele>
        <time>2013-05-30T05:02:50.000Z</time>
      </trkpt>
      <trkpt lat="45.85689" lon="6.21267">
        <ele>663</ele>
        <time>2013-05-30T05:02:51.000Z</time>
      </trkpt>
      <trkpt lat="45.85686" lon="6.21267">
        <ele>663</ele>
        <time>2013-05-30T05:02:52.000Z</time>
      </trkpt>
      <trkpt lat="45.85683" lon="6.21267">
        <ele>663</ele>
        <time>2013-05-30T05:02:53.000Z</time>
      </trkpt>
      <trkpt lat="45.8568" lon="6.21266">
        <ele>662</ele>
        <time>2013-05-30T05:02:54.000Z</time>
      </trkpt>
      <trkpt lat="45.85677" lon="6.21266">
        <ele>662</ele>
        <time>2013-05-30T05:02:55.000Z</time>
      </trkpt>
      <trkpt lat="45.85673" lon="6.21265">
        <ele>661</ele>
        <time>2013-05-30T05:02:56.000Z</time>
      </trkpt>
      <trkpt lat="45.8567" lon="6.21264">
        <ele>661</ele>
        <time>2013-05-30T05:02:57.000Z</time>
      </trkpt>
      <trkpt lat="45.85667" lon="6.21264">
        <ele>660</ele>
        <time>2013-05-30T05:02:58.000Z</time>
      </trkpt>
      <trkpt lat="45.85664" lon="6.21264">
        <ele>658</ele>
        <time>2013-05-30T05:02:59.000Z</time>
      </trkpt>
      <trkpt lat="45.85661" lon="6.21264">
        <ele>658</ele>
        <time>2013-05-30T05:03:00.000Z</time>
      </trkpt>
      <trkpt lat="45.85658" lon="6.21264">
        <ele>658</ele>
        <time>2013-05-30T05:03:01.000Z</time>
      </trkpt>
      <trkpt lat="45.85654" lon="6.21264">
        <ele>659</ele>
        <time>2013-05-30T05:03:02.000Z</time>
      </trkpt>
      <trkpt lat="45.85651" lon="6.21264">
        <ele>659</ele>
        <time>2013-05-30T05:03:03.000Z</time>
      </trkpt>
      <trkpt lat="45.85647" lon="6.21265">
        <ele>659</ele>
        <time>2013-05-30T05:03:04.000Z</time>
      </trkpt>
      <trkpt lat="45.85644" lon="6.21266">
        <ele>659</ele>
        <time>2013-05-30T05:03:05.000Z</time>
      </trkpt>
      <trkpt lat="45.85641" lon="6.21267">
        <ele>659</ele>
        <time>2013-05-30T05:03:06.000Z</time>
      </trkpt>
      <trkpt lat="45.85638" lon="6.21268">
        <ele>660</ele>
        <time>2013-05-30T05:03:07.000Z</time>
      </trkpt>
      <trkpt lat="45.85635" lon="6.21268">
        <ele>660</ele>
        <time>2013-05-30T05:03:08.000Z</time>
      </trkpt>
      <trkpt lat="45.85632" lon="6.21269">
        <ele>660</ele>
        <time>2013-05-30T05:03:09.000Z</time>
      </trkpt>
      <trkpt lat="45.85628" lon="6.21269">
        <ele>660</ele>
        <time>2013-05-30T05:03:10.000Z</time>
      </trkpt>
      <trkpt lat="45.85626" lon="6.21269">
        <ele>660</ele>
        <time>2013-05-30T05:03:11.000Z</time>
      </trkpt>
      <trkpt lat="45.85623" lon="6.2127">
        <ele>659</ele>
        <time>2013-05-30T05:03:12.000Z</time>
      </trkpt>
      <trkpt lat="45.85619" lon="6.21271">
        <ele>659</ele>
        <time>2013-05-30T05:03:13.000Z</time>
      </trkpt>
      <trkpt lat="45.85617" lon="6.21272">
        <ele>659</ele>
        <time>2013-05-30T05:03:14.000Z</time>
      </trkpt>
      <trkpt lat="45.85614" lon="6.21274">
        <ele>659</ele>
        <time>2013-05-30T05:03:15.000Z</time>
      </trkpt>
      <trkpt lat="45.85611" lon="6.21275">
        <ele>659</ele>
        <time>2013-05-30T05:03:16.000Z</time>
      </trkpt>
      <trkpt lat="45.85608" lon="6.21276">
        <ele>659</ele>
        <time>2013-05-30T05:03:17.000Z</time>
      </trkpt>
      <trkpt lat="45.85605" lon="6.21277">
        <ele>659</ele>
        <time>2013-05-30T05:03:18.000Z</time>
      </trkpt>
      <trkpt lat="45.85602" lon="6.21279">
        <ele>659</ele>
        <time>2013-05-30T05:03:19.000Z</time>
      </trkpt>
      <trkpt lat="45.85599" lon="6.2128">
        <ele>659</ele>
        <time>2013-05-30T05:03:20.000Z</time>
      </trkpt>
      <trkpt lat="45.85597" lon="6.21281">
        <ele>659</ele>
        <time>2013-05-30T05:03:21.000Z</time>
      </trkpt>
      <trkpt lat="45.85594" lon="6.21283">
        <ele>659</ele>
        <time>2013-05-30T05:03:22.000Z</time>
      </trkpt>
      <trkpt lat="45.85591" lon="6.21285">
        <ele>659</ele>
        <time>2013-05-30T05:03:23.000Z</time>
      </trkpt>
      <trkpt lat="45.85588" lon="6.21286">
        <ele>660</ele>
        <time>2013-05-30T05:03:24.000Z</time>
      </trkpt>
      <trkpt lat="45.85585" lon="6.21288">
        <ele>660</ele>
        <time>2013-05-30T05:03:25.000Z</time>
      </trkpt>
      <trkpt lat="45.85582" lon="6.21289">
        <ele>657</ele>
        <time>2013-05-30T05:03:26.000Z</time>
      </trkpt>
      <trkpt lat="45.8558" lon="6.21291">
        <ele>657</ele>
        <time>2013-05-30T05:03:27.000Z</time>
      </trkpt>
      <trkpt lat="45.85577" lon="6.21293">
        <ele>657</ele>
        <time>2013-05-30T05:03:28.000Z</time>
      </trkpt>
      <trkpt lat="45.85575" lon="6.21295">
        <ele>657</ele>
        <time>2013-05-30T05:03:29.000Z</time>
      </trkpt>
      <trkpt lat="45.85573" lon="6.21297">
        <ele>657</ele>
        <time>2013-05-30T05:03:30.000Z</time>
      </trkpt>
      <trkpt lat="45.8557" lon="6.21298">
        <ele>657</ele>
        <time>2013-05-30T05:03:31.000Z</time>
      </trkpt>
      <trkpt lat="45.85568" lon="6.213">
        <ele>657</ele>
        <time>2013-05-30T05:03:32.000Z</time>
      </trkpt>
      <trkpt lat="45.85566" lon="6.21302">
        <ele>657</ele>
        <time>2013-05-30T05:03:33.000Z</time>
      </trkpt>
      <trkpt lat="45.85564" lon="6.21304">
        <ele>657</ele>
        <time>2013-05-30T05:03:34.000Z</time>
      </trkpt>
      <trkpt lat="45.85561" lon="6.21307">
        <ele>658</ele>
        <time>2013-05-30T05:03:35.000Z</time>
      </trkpt>
      <trkpt lat="45.85559" lon="6.21309">
        <ele>658</ele>
        <time>2013-05-30T05:03:36.000Z</time>
      </trkpt>
      <trkpt lat="45.85557" lon="6.21311">
        <ele>658</ele>
        <time>2013-05-30T05:03:37.000Z</time>
      </trkpt>
      <trkpt lat="45.85554" lon="6.21313">
        <ele>658</ele>
        <time>2013-05-30T05:03:38.000Z</time>
      </trkpt>
      <trkpt lat="45.85551" lon="6.21315">
        <ele>657</ele>
        <time>2013-05-30T05:03:39.000Z</time>
      </trkpt>
      <trkpt lat="45.85549" lon="6.21317">
        <ele>657</ele>
        <time>2013-05-30T05:03:40.000Z</time>
      </trkpt>
      <trkpt lat="45.85546" lon="6.21319">
        <ele>657</ele>
        <time>2013-05-30T05:03:41.000Z</time>
      </trkpt>
      <trkpt lat="45.85544" lon="6.21321">
        <ele>657</ele>
        <time>2013-05-30T05:03:42.000Z</time>
      </trkpt>
      <trkpt lat="45.85541" lon="6.21323">
        <ele>657</ele>
        <time>2013-05-30T05:03:43.000Z</time>
      </trkpt>
      <trkpt lat="45.85539" lon="6.21325">
        <ele>657</ele>
        <time>2013-05-30T05:03:44.000Z</time>
      </trkpt>
      <trkpt lat="45.85536" lon="6.21326">
        <ele>657</ele>
        <time>2013-05-30T05:03:45.000Z</time>
      </trkpt>
      <trkpt lat="45.85533" lon="6.21327">
        <ele>657</ele>
        <time>2013-05-30T05:03:46.000Z</time>
      </trkpt>
      <trkpt lat="45.8553" lon="6.21328">
        <ele>657</ele>
        <time>2013-05-30T05:03:47.000Z</time>
      </trkpt>
      <trkpt lat="45.85527" lon="6.21329">
        <ele>656</ele>
        <time>2013-05-30T05:03:48.000Z</time>
      </trkpt>
      <trkpt lat="45.85525" lon="6.2133">
        <ele>656</ele>
        <time>2013-05-30T05:03:49.000Z</time>
      </trkpt>
      <trkpt lat="45.85522" lon="6.21331">
        <ele>656</ele>
        <time>2013-05-30T05:03:50.000Z</time>
      </trkpt>
      <trkpt lat="45.85519" lon="6.21332">
        <ele>656</ele>
        <time>2013-05-30T05:03:51.000Z</time>
      </trkpt>
      <trkpt lat="45.85516" lon="6.21333">
        <ele>656</ele>
        <time>2013-05-30T05:03:52.000Z</time>
      </trkpt>
      <trkpt lat="45.85513" lon="6.21333">
        <ele>656</ele>
        <time>2013-05-30T05:03:53.000Z</time>
      </trkpt>
      <trkpt lat="45.85511" lon="6.21334">
        <ele>658</ele>
        <time>2013-05-30T05:03:54.000Z</time>
      </trkpt>
      <trkpt lat="45.85508" lon="6.21334">
        <ele>658</ele>
        <time>2013-05-30T05:03:55.000Z</time>
      </trkpt>
      <trkpt lat="45.85505" lon="6.21334">
        <ele>657</ele>
        <time>2013-05-30T05:03:56.000Z</time>
      </trkpt>
      <trkpt lat="45.85502" lon="6.21334">
        <ele>656</ele>
        <time>2013-05-30T05:03:57.000Z</time>
      </trkpt>
      <trkpt lat="45.855" lon="6.21334">
        <ele>655</ele>
        <time>2013-05-30T05:03:58.000Z</time>
      </trkpt>
      <trkpt lat="45.85497" lon="6.21334">
        <ele>655</ele>
        <time>2013-05-30T05:03:59.000Z</time>
      </trkpt>
      <trkpt lat="45.85495" lon="6.21335">
        <ele>655</ele>
        <time>2013-05-30T05:04:00.000Z</time>
      </trkpt>
      <trkpt lat="45.85493" lon="6.21338">
        <ele>655</ele>
        <time>2013-05-30T05:04:01.000Z</time>
      </trkpt>
      <trkpt lat="45.85491" lon="6.2134">
        <ele>654</ele>
        <time>2013-05-30T05:04:02.000Z</time>
      </trkpt>
      <trkpt lat="45.8549" lon="6.21343">
        <ele>654</ele>
        <time>2013-05-30T05:04:03.000Z</time>
      </trkpt>
      <trkpt lat="45.85488" lon="6.21347">
        <ele>654</ele>
        <time>2013-05-30T05:04:04.000Z</time>
      </trkpt>
    </trkseg>
  </trk>
</gpx>